ECMWFFLT1_sfc_thetae_000.txt.gz
Theta_e
324 321 326 326 327 326 325 325 325 327 326 327 329 326 327 325 326 324 324 329 328 324 324 323 326 325 326 325 326 328 327 328 328 325 323 324 322 321 325 325 327 326 326 326 325 319 317 315 318 325 327 327 328 328 327 326 326 328 333 335 335 334 335
323 324 323 322 324 326 325 326 325 324 327 327 324 323 322 323 323 322 321 319 317 318 318 318 320 321 324 325 324 324 323 322 323 324 325 324 323 322 322 324 325 324 324 324 324 322 318 315 314 317 319 327 328 327 327 328 328 327 327 330 337 336 333
322 322 321 323 324 326 326 325 324 323 323 326 325 322 320 319 321 320 319 320 317 314 314 314 318 320 321 321 323 323 322 321 321 320 318 318 317 317 317 322 322 321 320 320 322 320 320 319 313 313 316 316 314 322 329 328 327 327 327 326 324 330 334
323 324 321 322 322 325 322 323 323 322 324 322 323 324 321 321 321 323 321 319 320 320 319 318 318 315 319 320 319 318 318 318 318 317 316 316 317 313 312 313 311 313 312 312 311 313 312 312 311 311 312 311 310 310 322 329 327 326 326 327 327 326 325
324 323 321 321 321 322 321 323 323 322 321 323 322 323 324 323 324 322 323 322 323 323 322 322 320 319 319 319 321 320 318 318 317 316 314 313 313 313 313 312 312 313 310 308 310 310 310 310 310 308 307 308 310 311 313 317 324 328 327 326 326 326 327
324 324 322 323 322 322 322 322 320 319 319 321 322 321 322 323 322 323 322 322 320 321 318 315 316 319 318 317 316 316 316 315 315 316 314 313 312 311 312 311 310 310 309 312 314 312 313 313 311 308 308 309 307 308 310 310 312 314 320 325 327 325 324
323 325 322 323 323 323 323 323 321 320 320 320 321 320 322 323 324 325 323 321 321 321 322 322 322 320 319 314 317 317 317 318 317 316 315 315 313 312 313 310 310 309 310 312 310 312 312 311 309 307 307 308 308 307 309 309 311 308 312 314 317 320 323
324 324 323 324 323 324 322 323 324 322 322 321 321 321 321 323 324 323 321 321 320 320 320 320 321 321 320 315 317 319 317 318 316 316 316 314 314 312 312 313 314 309 310 307 310 309 309 310 309 309 307 304 304 307 307 308 309 310 309 312 315 321 323
324 324 325 324 324 326 323 322 324 323 324 323 323 321 321 323 322 322 320 321 321 320 321 319 320 318 320 316 317 318 316 318 317 316 315 315 314 313 312 316 311 309 310 309 311 311 311 311 311 311 310 307 303 301 304 305 307 309 312 310 313 315 315
325 323 324 324 324 328 326 323 325 325 327 325 324 322 321 323 322 321 320 320 321 321 320 321 320 319 320 318 317 318 316 319 318 317 316 314 315 315 314 312 314 312 309 315 313 312 311 313 312 311 311 308 308 304 302 302 304 305 309 312 308 311 314
327 327 329 326 325 325 328 324 327 325 327 326 324 323 322 323 323 323 322 321 321 321 321 320 318 317 320 318 317 317 317 317 316 316 317 315 314 314 314 312 311 312 312 315 312 315 317 315 313 311 310 310 309 305 304 301 302 307 308 311 312 310 313
332 330 330 329 326 324 327 325 326 325 329 326 324 323 323 322 322 322 323 320 321 321 320 321 320 317 318 317 317 317 316 317 315 316 315 315 315 314 312 313 312 314 314 315 315 313 314 312 315 307 309 309 310 309 307 305 301 307 311 308 310 312 311
329 328 331 332 330 324 329 331 328 323 327 326 325 324 322 321 321 321 322 321 320 319 318 319 319 318 319 316 317 315 314 317 315 312 312 314 312 315 312 312 311 311 312 310 309 312 313 311 310 310 310 309 308 310 308 305 302 303 309 309 310 310 311
329 328 331 328 328 329 329 326 328 329 326 325 325 323 323 321 320 319 320 320 319 318 317 318 317 318 318 317 316 317 313 314 313 312 312 312 312 313 310 310 309 311 311 308 309 311 308 308 310 311 310 309 308 309 306 305 302 302 306 310 308 307 309
331 329 328 326 326 326 327 327 332 326 327 325 324 322 321 322 321 320 319 319 319 317 318 316 317 318 316 316 315 319 313 313 313 311 311 308 310 312 313 309 310 309 310 308 308 304 305 305 304 303 307 309 306 310 312 306 303 301 301 305 306 308 306
330 333 327 327 326 325 327 328 328 323 321 327 326 323 321 323 322 319 319 320 318 318 317 316 316 317 315 315 314 316 315 312 311 313 310 310 309 309 310 310 309 310 312 309 310 308 308 306 306 304 306 305 305 306 304 305 304 302 302 303 306 306 306
329 331 329 329 328 328 329 328 329 325 326 326 325 326 324 321 322 320 319 319 319 319 318 317 317 316 315 314 313 313 312 313 313 313 310 308 307 309 308 309 310 311 309 309 308 309 308 308 308 306 306 305 306 305 308 309 308 305 304 304 305 305 306
330 327 326 326 324 325 325 324 323 322 323 323 323 321 321 321 322 321 320 319 319 318 318 317 316 315 315 316 314 313 312 310 312 312 311 311 313 310 310 309 310 309 308 308 309 307 308 309 305 305 304 304 303 305 306 305 304 303 301 300 301 303 305
326 327 326 324 323 324 324 325 324 321 321 320 319 320 322 321 319 318 318 318 318 318 318 317 316 315 314 315 315 314 313 312 312 311 312 312 310 310 310 310 309 309 308 307 308 308 307 306 307 306 304 304 303 303 304 304 304 303 302 301 301 302 303
327 325 326 327 326 326 324 324 324 325 323 321 321 319 319 318 319 319 318 319 318 318 318 318 317 316 315 314 314 313 314 313 314 312 312 310 311 310 309 309 309 309 308 307 307 307 307 307 308 305 304 303 301 301 300 300 301 300 300 300 301 301 301
319 324 327 327 325 325 322 320 320 323 322 321 320 318 318 318 317 318 319 318 319 318 318 318 318 317 315 315 314 314 314 313 312 312 312 311 311 310 309 309 308 308 308 308 305 301 301 300 300 299 299 300 300 299 299 299 299 299 298 299 299 298 300
321 325 325 325 325 323 321 320 320 320 323 322 322 321 320 320 319 317 317 319 319 319 319 319 319 317 316 314 315 314 313 312 312 311 310 310 310 308 307 307 307 306 305 300 300 300 299 299 299 297 299 299 298 298 298 297 297 296 296 297 297 299 298
317 318 317 320 322 321 321 322 320 323 322 321 320 320 320 320 318 317 318 319 318 319 321 321 315 309 310 314 314 313 313 312 311 310 309 307 307 306 307 306 309 305 303 300 297 294 293 294 296 300 297 297 297 297 296 295 294 294 295 294 294 295 295
316 317 317 319 319 318 320 321 320 320 320 318 317 317 319 319 317 317 317 318 317 320 319 319 309 301 302 305 313 313 312 312 312 311 309 307 304 305 305 303 304 302 301 300 297 293 293 293 293 293 294 295 298 298 295 294 293 294 294 294 295 295 294
315 313 316 313 311 312 314 316 318 320 321 321 321 321 320 319 318 319 319 319 320 319 318 312 305 300 299 300 306 314 313 312 311 310 309 307 306 304 303 304 305 305 303 301 301 297 295 293 292 292 292 292 292 292 294 295 293 293 294 294 294 294 294
312 314 310 312 314 315 314 316 317 319 319 321 317 316 317 319 319 321 322 320 319 318 313 298 299 299 298 299 301 306 311 310 308 309 307 306 306 307 307 308 307 307 304 306 305 302 299 295 293 292 293 293 292 292 290 290 292 296 296 294 294 294 294
311 311 311 312 314 313 314 314 317 319 318 318 318 318 319 319 319 320 321 320 317 309 306 296 295 296 295 296 299 302 307 310 307 306 307 306 302 305 304 302 304 304 305 304 301 301 300 300 298 295 294 294 295 295 293 291 291 291 293 294 294 294 296
309 310 312 314 315 314 313 314 314 316 317 317 317 316 316 316 317 318 319 314 308 305 303 293 294 294 293 294 296 301 307 311 307 306 306 307 305 303 303 305 304 304 304 304 304 303 302 301 300 299 298 297 297 296 296 296 296 295 294 295 294 295 296
313 312 312 312 313 312 314 314 313 315 316 317 317 316 316 317 316 316 318 312 307 303 298 291 292 292 291 292 296 302 306 309 306 305 305 306 305 304 305 304 302 302 302 302 298 295 297 300 298 297 296 295 294 295 296 297 296 296 298 299 298 297 297
312 313 312 311 311 312 312 313 312 313 314 315 315 315 314 315 316 316 315 311 307 303 297 292 290 290 290 293 297 301 304 303 304 305 303 304 303 303 304 303 302 303 303 301 294 291 292 295 297 296 295 294 295 294 295 298 296 294 293 293 292 292 292
311 310 312 309 311 312 312 311 310 313 311 312 313 314 315 313 314 313 310 308 306 302 297 292 290 290 291 293 296 300 300 301 302 302 305 307 306 304 306 306 304 301 302 299 289 290 290 295 296 295 294 294 293 293 294 296 298 298 295 294 294 293 292
312 312 310 311 313 312 312 312 311 312 311 312 313 314 312 312 310 309 306 304 303 302 297 293 290 289 290 292 296 298 301 301 300 300 300 300 301 303 300 303 300 298 296 290 289 289 289 293 295 295 294 293 292 292 293 294 294 293 293 293 293 294 294
309 309 308 312 313 312 312 311 312 310 312 312 311 311 311 311 308 306 304 303 302 301 296 294 293 290 290 291 293 299 300 300 298 298 299 301 299 301 302 296 292 289 289 288 288 289 288 290 291 292 292 291 291 291 293 292 292 292 291 291 291 292 292
312 313 312 312 313 312 312 311 310 310 310 311 311 312 310 309 307 304 304 303 300 298 297 295 292 290 290 290 289 293 296 297 297 296 296 296 296 297 296 294 292 289 289 289 288 288 289 289 289 291 291 290 291 292 290 289 290 291 290 290 290 291 291
312 314 313 312 312 312 312 311 310 310 309 309 311 309 308 306 303 301 301 301 301 299 298 297 294 290 290 290 289 290 296 297 295 293 293 293 294 297 297 296 292 289 288 289 289 289 289 289 288 291 290 289 289 289 290 290 290 290 289 289 289 289 289
309 310 310 310 309 309 311 311 310 310 311 310 309 307 304 302 300 299 299 298 298 297 297 295 292 292 290 290 289 289 289 293 292 295 295 294 296 296 297 296 291 290 288 288 288 289 289 288 289 289 289 289 288 288 288 289 289 289 288 289 289 289 289
305 308 307 307 307 307 308 309 309 312 311 309 307 305 302 301 299 298 297 297 297 296 296 294 292 291 291 289 289 289 289 288 289 295 297 295 294 296 297 295 292 289 290 289 289 290 289 289 289 289 288 288 288 288 289 289 289 290 289 288 288 288 289

ECMWFFLT1_sfc_thetae_003.txt.gz
Theta_e
316 315 315 316 317 318 316 316 317 317 319 320 317 314 314 316 314 311 310 313 315 316 318 317 318 319 321 322 323 322 320 322 321 319 316 316 316 316 319 318 320 319 320 320 319 314 311 310 311 317 321 323 323 324 325 325 325 324 325 329 332 332 333
316 316 317 317 316 316 314 316 317 317 315 315 314 313 313 314 316 312 309 308 310 313 316 315 316 317 317 317 316 316 314 314 318 320 320 317 317 314 315 317 317 316 317 318 318 316 312 310 309 311 313 319 322 325 325 326 326 326 326 324 326 332 332
316 315 315 315 316 315 316 314 313 313 314 312 311 311 314 314 313 313 312 312 310 313 315 313 313 313 312 313 314 314 313 312 312 313 312 309 309 309 312 316 316 314 312 313 313 314 314 315 309 310 309 306 305 311 321 324 326 326 326 325 324 324 328
313 313 314 314 316 316 314 312 312 314 311 312 313 313 313 313 314 315 312 312 313 316 312 309 310 311 311 311 313 312 311 310 309 308 309 309 308 307 308 307 306 306 305 304 303 305 305 304 303 303 304 305 305 305 309 316 323 325 325 324 324 324 323
314 314 313 314 315 314 312 312 312 311 311 314 312 311 312 314 314 313 314 313 313 312 312 312 313 313 314 313 311 311 310 309 309 309 307 306 306 305 305 305 305 306 306 305 306 305 305 304 303 302 303 304 305 305 309 309 310 317 323 323 324 325 325
314 314 313 314 315 314 314 313 312 310 311 311 312 313 312 312 314 313 312 310 310 311 310 311 311 311 310 309 309 309 309 308 307 306 304 305 306 304 303 305 304 305 305 306 306 306 306 306 305 300 302 304 302 303 306 307 306 309 317 321 324 325 324
314 314 313 315 314 315 316 314 312 312 311 311 312 311 312 313 315 313 312 312 312 314 314 312 310 310 311 310 310 310 310 309 309 307 307 306 305 305 305 302 302 304 303 304 305 305 305 304 303 301 301 302 302 302 305 304 307 306 307 309 311 315 317
315 315 315 316 315 315 315 314 313 313 312 312 312 313 315 314 314 313 312 310 311 310 311 310 314 312 311 312 312 311 311 310 310 309 306 306 307 305 305 304 305 303 302 303 305 306 306 306 305 305 303 300 298 299 301 303 305 305 305 309 310 311 313
316 316 315 316 315 316 315 314 313 313 314 313 313 314 314 315 312 312 312 312 311 312 312 310 309 309 309 309 310 310 309 312 309 308 307 305 305 305 305 305 303 303 304 306 306 304 305 307 307 306 304 302 298 296 299 299 301 302 308 307 308 310 311
316 315 315 315 315 316 316 315 314 315 315 315 314 314 315 314 313 312 312 311 311 311 311 312 311 310 310 311 310 308 308 311 310 309 308 307 306 307 306 305 305 303 304 307 305 306 307 306 307 305 306 304 303 299 296 297 297 300 303 307 305 307 310
316 315 315 315 315 314 315 316 316 316 315 315 315 316 316 314 314 318 312 312 311 311 311 312 309 310 310 309 310 310 310 308 308 309 309 307 306 308 307 304 306 304 307 306 306 307 309 308 307 307 304 304 304 301 301 298 297 301 303 305 307 305 306
317 317 316 316 316 315 313 315 317 317 316 315 315 316 315 314 314 313 312 312 312 311 311 310 309 309 310 308 309 309 309 308 307 308 307 308 308 306 306 306 306 305 308 308 308 307 306 307 307 305 304 304 305 304 303 301 297 299 305 303 304 306 305
318 319 317 315 316 316 314 316 317 318 317 315 314 316 315 314 314 314 313 313 312 311 311 312 309 307 309 307 309 308 307 309 308 306 306 308 311 308 307 306 305 305 306 303 303 306 306 307 306 305 305 304 302 305 303 301 298 298 302 304 303 304 306
320 320 319 317 315 316 315 316 317 319 318 315 315 316 315 315 314 315 314 314 312 311 310 310 310 307 310 307 308 306 306 308 307 306 305 305 306 306 305 306 304 306 304 303 303 304 304 304 304 306 305 304 304 303 303 301 299 299 300 303 304 304 306
319 318 317 317 317 316 316 317 317 319 317 316 316 316 315 315 315 315 315 314 313 312 311 311 309 309 309 307 306 311 307 306 306 305 304 304 304 308 306 303 305 305 305 304 303 301 302 301 302 303 304 305 302 304 305 303 299 298 298 300 301 304 305
318 316 316 315 315 316 317 315 315 316 317 317 316 315 315 315 315 315 315 314 314 313 312 312 310 311 309 308 306 309 308 304 305 305 304 303 304 304 303 302 304 305 307 302 303 303 303 302 303 301 302 303 301 301 302 302 300 299 298 299 302 303 303
320 317 315 315 316 317 318 318 318 318 317 316 316 316 316 316 316 314 313 313 313 313 313 312 311 311 310 310 308 309 306 305 305 306 305 304 305 304 303 303 303 304 304 302 303 303 304 304 303 302 300 300 299 300 302 302 302 302 300 299 299 300 301
320 318 318 318 317 317 316 316 317 316 315 315 315 314 315 314 314 314 314 314 313 313 313 312 312 311 311 310 309 309 307 306 306 307 304 304 307 304 304 303 303 304 302 302 302 303 303 302 303 302 300 301 300 301 301 301 301 300 298 297 298 300 301
319 318 317 316 316 317 317 316 316 315 316 315 314 315 316 316 316 315 315 315 315 315 315 314 313 312 311 310 310 309 308 307 307 306 305 305 305 305 304 304 304 304 302 301 301 302 302 302 302 300 298 297 297 297 296 297 298 297 296 296 297 297 298
319 318 317 318 318 317 317 316 316 315 315 315 316 315 315 316 316 317 316 315 316 317 317 317 315 313 312 311 310 309 308 307 307 307 306 307 305 304 304 304 303 302 302 302 302 301 300 298 299 296 297 296 296 296 296 296 296 295 295 294 295 296 296
315 317 318 319 318 317 316 315 316 317 316 315 315 316 316 315 315 316 316 316 316 316 315 315 315 314 313 311 310 309 309 307 307 306 306 305 305 304 303 303 303 302 302 302 299 297 297 295 295 294 295 296 295 294 294 294 293 292 292 292 291 291 293
315 314 317 318 319 316 314 313 316 315 314 313 314 312 314 315 314 314 315 316 315 315 315 316 316 315 313 312 311 310 309 308 307 307 306 305 304 304 302 302 301 302 305 303 301 299 298 298 294 291 293 294 295 293 292 292 293 290 290 291 291 292 292
314 314 313 313 315 314 314 313 314 313 314 314 313 314 314 315 315 314 314 314 315 315 315 316 314 309 309 313 311 311 311 309 308 307 306 304 302 302 302 302 307 307 303 300 297 295 294 296 299 296 293 292 293 293 292 291 290 291 291 290 290 291 291
305 307 310 311 310 312 312 313 312 314 315 315 315 315 315 315 314 314 314 314 314 315 315 316 308 304 301 304 311 311 310 309 309 307 305 303 301 300 301 303 302 302 301 299 297 293 293 293 293 294 296 297 297 293 291 290 290 290 291 291 291 291 290
304 305 305 305 306 308 310 311 311 312 315 315 315 315 313 313 313 313 313 313 312 313 313 309 304 302 301 299 305 311 309 309 308 307 305 303 302 300 300 301 301 301 298 297 296 294 294 293 292 292 291 292 292 294 295 293 292 290 289 289 289 290 290
304 302 303 305 305 305 305 307 309 310 310 311 310 311 312 312 313 313 313 311 311 312 312 306 300 300 299 297 299 306 310 309 307 306 304 303 301 300 300 301 302 301 301 304 303 296 294 294 294 292 292 293 293 291 290 289 291 293 291 290 290 290 290
303 303 305 306 306 305 306 306 308 310 311 311 310 310 310 309 309 309 310 309 304 300 300 294 294 295 297 295 298 303 307 306 304 303 303 303 301 301 301 300 301 301 301 302 301 299 296 294 294 293 291 291 291 293 293 292 291 291 292 291 290 289 291
300 301 302 302 303 305 304 304 305 304 308 309 308 308 308 308 307 306 303 302 300 297 294 292 291 292 294 295 297 300 306 305 302 301 301 301 300 299 298 300 298 299 301 302 301 299 297 296 294 295 292 292 292 292 292 292 292 292 292 292 291 291 292
300 300 300 301 301 301 302 304 302 302 304 305 307 306 305 307 305 305 302 300 297 293 291 291 292 293 295 295 297 303 305 303 301 302 302 301 300 299 300 301 300 299 300 299 299 295 297 298 295 293 293 292 291 292 292 295 295 295 296 295 294 294 294
300 299 300 299 299 300 301 301 300 301 300 301 302 304 304 304 304 304 301 299 295 292 290 290 292 293 293 294 296 299 300 300 299 299 300 301 301 302 301 300 300 299 300 300 296 292 292 295 293 292 291 290 291 291 292 293 294 293 293 292 292 291 291
300 300 299 299 299 299 300 300 299 299 300 299 300 303 302 302 302 304 301 298 295 292 289 290 291 292 293 293 296 297 297 297 297 297 298 300 302 302 302 305 304 301 297 293 289 289 290 294 291 290 290 290 289 289 289 291 293 293 292 292 292 291 291
300 300 299 299 300 300 300 300 300 300 300 299 300 300 303 302 300 298 299 298 299 292 289 290 291 291 292 294 296 297 298 297 296 296 296 297 298 300 295 294 296 294 293 291 288 289 289 290 289 288 288 287 287 286 287 287 288 288 288 289 289 290 290
299 300 299 298 299 301 300 301 300 299 298 299 299 299 301 300 298 297 297 297 296 292 289 288 290 291 292 293 294 297 297 295 294 294 294 294 294 294 293 291 291 289 288 289 288 288 288 289 288 287 287 286 285 286 288 287 289 288 287 287 287 287 288
300 300 299 300 301 300 300 300 299 299 299 299 298 301 300 298 297 295 295 295 294 291 290 288 289 290 290 292 292 294 294 294 293 293 292 292 293 293 292 290 290 290 289 288 289 289 288 289 289 288 287 286 286 288 289 287 288 290 287 287 288 288 287
299 302 301 300 299 299 300 300 300 299 298 297 299 300 297 297 296 295 293 292 291 291 292 292 288 289 289 291 292 294 295 294 293 293 294 293 294 294 291 290 290 289 288 288 288 289 289 289 288 290 287 288 288 288 288 288 287 286 286 286 285 286 286
298 302 300 299 299 298 298 299 299 299 299 298 299 296 295 294 294 292 292 292 291 290 290 290 291 289 289 289 289 290 291 292 290 295 293 293 293 293 293 291 291 290 288 289 289 289 289 288 289 288 288 288 288 288 288 287 285 286 285 285 285 285 286
297 297 297 297 297 296 297 298 299 298 299 299 297 295 294 293 292 291 291 290 291 289 288 288 290 290 289 289 289 289 288 288 290 294 294 293 293 294 292 290 290 289 288 289 289 289 288 288 288 288 288 288 288 288 286 286 285 286 285 285 285 286 287

ECMWFFLT1_sfc_thetae_006.txt.gz
Theta_e
310 311 312 312 313 315 313 313 314 313 313 312 311 310 311 312 311 311 313 314 315 317 319 317 316 316 318 319 320 319 319 319 318 317 314 314 316 314 316 317 317 318 317 316 310 310 306 307 307 312 314 317 318 319 321 323 323 323 322 323 326 330 331
313 314 314 315 313 314 313 312 311 310 309 309 310 310 311 312 313 309 310 311 313 314 316 314 313 314 314 313 312 312 313 314 317 316 316 313 313 313 315 314 315 315 315 315 315 313 310 306 305 306 307 309 310 312 315 319 321 323 323 324 324 326 326
314 313 313 311 311 311 311 309 309 308 308 309 310 310 309 309 309 311 311 311 311 313 313 309 310 310 311 311 310 310 310 310 309 309 307 306 308 308 313 314 311 309 307 303 303 306 307 309 307 306 304 301 302 305 310 309 309 313 320 323 324 324 323
313 312 311 310 311 310 309 308 308 308 309 309 309 309 310 311 312 313 310 310 311 314 311 309 309 310 310 309 309 308 308 307 306 306 306 306 306 306 305 305 304 305 303 301 301 303 302 300 298 299 300 301 301 301 304 307 309 309 313 319 321 322 323
313 313 311 311 312 310 308 308 307 307 307 308 307 308 308 309 311 309 310 309 310 309 310 310 310 310 309 308 307 307 306 306 306 306 303 303 303 303 303 303 303 304 304 303 303 303 301 301 300 298 299 300 300 301 304 306 306 307 311 314 315 317 319
313 313 312 313 312 309 308 308 307 307 307 307 307 308 307 308 309 307 307 307 308 310 308 308 307 307 306 306 306 305 304 303 303 303 302 301 301 301 301 301 302 302 303 303 303 303 302 302 300 297 298 302 300 299 300 303 304 305 307 309 310 310 311
313 313 314 314 312 310 310 308 308 308 307 307 308 307 309 309 308 308 308 308 308 308 308 306 306 306 307 307 307 306 306 304 304 303 303 302 302 301 299 300 300 300 300 303 302 303 302 301 299 299 299 297 298 299 300 301 303 303 305 307 308 309 309
313 314 315 315 312 311 310 308 308 308 308 308 308 308 310 309 308 308 308 307 307 308 309 309 310 308 308 309 309 308 307 306 305 305 303 303 304 302 300 299 301 301 301 302 302 303 303 302 302 302 299 298 296 294 297 299 301 302 303 305 308 307 307
315 314 315 314 313 312 311 309 309 309 309 309 309 310 311 310 308 309 309 307 307 307 308 308 307 308 308 307 307 306 306 310 306 304 303 303 303 302 301 299 300 300 302 302 302 301 302 303 303 302 300 298 296 293 295 296 296 299 303 304 305 307 306
313 313 314 314 313 313 312 310 309 309 310 310 310 312 311 308 308 308 308 308 307 307 307 307 306 306 307 308 306 305 305 306 306 304 304 303 303 302 302 301 299 300 303 303 302 304 304 302 303 302 301 300 298 296 294 293 292 295 299 303 303 304 306
313 313 314 313 313 313 311 311 309 310 310 311 312 313 311 309 309 314 308 307 307 307 308 307 306 306 307 305 305 306 307 307 306 305 306 304 304 305 304 303 302 301 304 302 303 304 305 304 303 302 300 301 299 298 297 295 294 296 298 300 303 302 303
314 313 314 314 312 312 311 311 310 311 310 311 313 312 309 309 310 309 308 307 307 307 307 307 307 306 306 306 305 306 305 305 305 304 305 305 305 304 302 303 303 302 305 304 303 303 303 304 303 302 301 301 302 300 298 297 293 295 301 299 299 302 302
315 314 314 313 312 313 312 312 311 311 311 312 312 312 310 310 310 308 308 309 308 307 307 307 306 306 305 306 307 306 304 304 305 304 304 305 307 304 303 301 303 302 302 300 301 303 303 303 304 301 301 301 300 301 300 298 296 297 298 300 300 302 303
314 315 314 314 313 313 313 313 313 313 312 311 312 311 310 310 310 310 309 310 309 308 308 308 306 306 305 304 305 304 304 304 305 303 304 303 305 303 304 303 302 302 302 301 302 300 300 300 301 302 302 301 301 300 300 298 297 298 298 299 300 301 303
315 315 313 314 313 313 312 314 314 313 311 311 313 312 311 311 311 310 309 309 309 309 308 309 307 306 307 304 305 305 305 305 303 303 302 302 302 304 302 302 303 302 303 301 300 300 300 300 300 298 299 302 300 300 300 301 297 297 296 299 300 301 301
316 315 313 313 313 313 312 314 315 313 311 311 312 312 311 311 311 311 310 310 309 309 308 309 308 306 307 305 305 306 305 304 304 303 302 301 302 303 301 301 301 301 303 299 300 301 301 301 301 299 299 300 299 299 299 300 297 296 296 296 298 298 298
316 315 313 313 314 313 313 315 315 314 312 311 312 311 311 311 311 311 310 309 309 309 309 309 308 307 307 307 305 306 305 303 303 304 304 302 302 302 301 299 300 301 302 299 300 300 300 300 300 300 299 299 297 298 298 297 297 296 295 294 294 297 298
314 313 312 312 312 312 313 315 315 313 312 312 312 312 312 311 311 311 312 311 310 310 309 309 308 308 307 307 306 306 306 304 303 304 304 303 305 302 302 301 300 302 301 299 300 300 299 299 300 298 296 296 296 297 297 296 295 295 293 292 293 295 296
313 314 315 315 315 315 314 314 312 312 313 312 312 312 312 312 312 311 311 311 312 312 312 311 311 310 309 308 307 306 306 305 304 304 304 303 304 303 302 302 301 303 301 300 299 299 299 298 297 295 294 294 294 295 294 294 294 293 292 291 291 291 292
313 314 316 316 316 316 315 314 314 311 313 312 311 310 310 311 311 312 312 312 313 313 313 313 313 312 311 310 309 308 306 305 304 304 304 304 303 303 302 302 302 302 302 300 300 299 298 296 296 295 296 294 294 293 293 293 292 291 290 289 290 290 290
313 314 315 315 315 315 315 314 313 313 313 311 312 313 312 312 312 311 311 311 311 311 311 312 313 313 313 313 311 310 309 307 305 304 304 304 303 303 303 303 303 302 302 301 300 299 296 294 294 293 294 294 293 292 291 292 290 289 289 289 288 288 289
313 314 315 316 314 313 314 315 315 314 313 312 312 311 313 314 313 313 312 311 309 309 310 311 312 312 312 312 312 311 310 308 307 305 304 304 303 302 302 302 301 301 304 305 302 300 298 297 293 291 292 293 293 291 290 290 290 289 289 289 289 290 289
314 313 313 313 315 315 314 314 314 314 315 315 314 314 313 314 313 313 311 310 308 309 310 310 310 307 308 311 310 311 310 309 308 306 306 305 303 302 302 301 304 307 306 303 299 296 295 296 298 295 292 291 293 290 290 289 289 289 290 288 288 288 288
309 311 310 311 312 312 312 311 311 311 312 313 313 313 313 311 311 311 310 308 307 308 309 312 306 302 300 301 309 309 308 308 308 307 306 305 303 302 301 301 302 305 303 301 297 294 293 294 294 294 295 296 295 291 289 289 288 288 290 289 289 288 287
307 307 306 306 307 309 310 309 308 308 309 310 312 311 311 311 310 309 308 307 306 306 306 307 300 299 298 297 299 307 309 308 308 307 306 305 303 301 301 300 300 301 297 295 293 293 294 293 293 293 293 293 293 294 294 292 291 289 288 287 287 288 287
303 302 303 303 302 301 302 303 303 304 306 308 306 307 308 306 306 306 307 307 305 306 306 293 293 296 297 297 297 299 307 308 307 306 306 305 303 301 300 300 299 300 299 302 300 292 293 292 293 292 292 292 292 291 290 290 292 293 289 288 288 287 288
300 300 300 300 300 299 299 300 302 302 303 304 305 304 304 304 305 305 305 305 306 297 295 294 293 296 297 297 296 297 305 306 307 305 305 306 304 300 301 300 299 299 298 299 296 293 293 293 293 291 290 289 290 293 292 291 290 290 292 291 289 288 289
299 299 298 297 298 297 297 298 299 298 300 301 300 301 302 302 302 304 302 299 295 292 294 292 292 293 294 294 295 299 303 303 302 302 302 302 301 300 300 300 300 298 298 298 299 297 295 293 292 292 290 290 289 290 290 291 291 290 290 290 289 289 289
297 296 296 296 296 296 296 297 298 298 296 296 299 301 301 299 300 298 297 295 292 290 291 293 292 293 294 294 296 299 299 299 298 299 299 299 299 299 299 299 299 298 299 300 298 295 296 294 293 292 292 290 289 289 290 294 293 292 292 290 290 290 290
297 296 296 296 295 297 297 297 296 296 295 293 296 296 297 298 299 299 296 293 290 288 290 293 292 293 293 294 296 297 297 297 297 298 298 299 298 299 299 300 299 297 296 292 291 290 292 295 292 291 289 287 288 288 289 291 292 291 291 291 291 291 290
297 296 295 295 296 295 294 295 295 295 298 297 296 295 297 297 298 297 296 292 291 290 289 292 292 292 293 294 295 296 295 295 294 295 295 296 298 299 298 303 301 295 293 292 289 290 290 291 289 288 287 286 286 286 287 287 289 290 291 291 290 290 290
297 296 296 295 295 294 295 296 295 295 295 294 296 295 296 295 295 294 293 293 296 291 289 291 292 292 293 294 295 294 294 293 292 292 293 295 294 293 292 294 296 294 292 291 289 289 289 290 288 287 286 286 287 285 285 285 285 286 286 287 287 288 288
296 296 297 295 295 296 295 295 296 295 292 294 294 293 294 294 293 292 292 292 292 289 290 289 291 292 293 293 294 295 294 292 291 290 291 293 292 290 291 291 291 289 289 289 288 288 289 290 288 287 287 287 287 286 284 285 287 286 285 285 285 285 286
296 297 295 295 295 296 296 296 294 296 294 293 294 294 293 292 293 291 291 290 288 287 289 289 289 291 292 292 292 292 291 291 290 291 291 291 291 290 289 289 290 290 289 289 288 288 289 289 290 289 287 285 285 286 288 285 285 290 285 285 286 286 286
297 299 296 295 296 297 296 295 295 294 293 293 294 293 291 291 291 290 289 289 288 287 291 292 288 290 291 292 291 291 291 290 292 293 292 291 289 288 288 287 288 289 289 289 288 288 288 288 289 292 287 287 287 288 286 287 285 285 285 285 283 284 284
295 298 296 295 296 296 294 296 296 293 293 293 293 292 291 290 290 289 288 287 286 286 286 289 291 289 291 291 291 290 290 290 291 292 291 291 289 289 289 290 291 290 288 288 288 288 288 288 289 288 288 287 287 287 288 285 284 284 283 283 284 284 284
295 294 293 293 293 293 292 293 295 295 293 294 292 291 289 290 289 289 287 286 287 286 286 286 289 290 289 290 290 289 289 289 290 292 291 289 290 291 290 290 291 289 288 288 288 288 288 288 287 287 287 287 287 288 286 284 284 284 284 283 282 283 283

ECMWFFLT1_sfc_thetae_009.txt.gz
Theta_e
310 310 310 309 309 312 310 309 308 308 308 308 309 309 311 314 313 312 313 314 315 318 321 315 314 315 318 318 318 317 318 317 317 317 316 317 316 315 317 316 315 317 316 314 311 310 305 304 306 310 309 309 309 313 315 317 316 316 317 319 319 322 322
311 311 312 313 311 310 309 307 306 306 307 308 309 309 309 312 314 311 312 313 314 315 316 313 312 313 313 312 312 314 315 314 315 314 316 312 311 311 315 315 314 313 310 311 313 310 306 302 301 302 303 304 305 307 308 309 308 310 314 318 321 323 322
313 311 310 310 309 308 307 305 305 306 307 307 306 307 309 310 311 312 311 311 311 312 313 310 310 310 309 309 309 311 311 309 308 312 313 310 309 309 312 313 310 305 302 302 302 304 304 306 305 303 301 298 299 302 305 306 307 310 312 312 311 311 311
311 311 309 308 308 306 306 304 304 305 306 306 308 306 308 308 309 311 309 309 311 314 311 308 308 308 307 308 307 307 307 306 306 306 306 306 305 304 304 306 305 303 302 300 300 301 300 298 296 297 296 298 299 299 302 304 307 307 307 307 307 306 307
312 311 310 310 309 307 305 305 304 305 304 305 305 306 306 307 309 308 309 308 309 308 308 308 307 307 307 306 305 305 305 304 305 305 303 302 302 302 302 301 301 302 301 301 301 300 300 299 298 296 296 297 296 298 301 303 304 305 306 305 305 305 306
312 311 310 310 309 307 306 304 304 305 303 304 304 306 305 305 307 306 306 307 307 308 307 306 304 304 304 304 303 302 302 301 301 301 300 299 300 300 299 299 300 301 301 300 302 301 300 299 299 297 297 298 297 296 297 300 303 303 304 305 304 305 305
312 311 310 311 309 307 307 306 305 305 304 304 305 305 306 305 305 307 307 305 305 305 305 304 304 303 303 303 303 303 302 301 301 301 301 300 299 298 298 299 300 301 300 301 301 301 299 298 296 297 296 294 295 296 296 299 301 301 302 304 305 304 305
313 312 311 312 310 308 306 306 306 305 304 305 305 306 306 304 305 305 305 305 305 305 305 306 308 306 306 306 306 304 303 301 302 302 300 300 300 298 297 299 301 299 299 299 300 301 301 301 300 299 296 296 292 290 295 295 297 300 301 301 304 304 304
314 313 312 312 310 309 307 306 306 306 305 305 305 306 306 306 306 306 306 304 304 305 305 306 306 306 305 305 304 304 304 305 302 301 300 300 299 298 298 297 300 298 299 299 300 300 300 301 301 299 298 296 293 291 292 293 293 295 299 301 300 303 304
313 312 313 311 310 309 308 306 307 306 305 305 307 307 307 304 306 306 304 304 305 305 305 305 306 305 305 305 304 303 303 301 303 301 300 301 300 300 298 299 300 299 301 301 301 302 302 300 301 299 299 298 296 293 292 291 291 293 296 300 299 300 303
313 313 313 312 310 309 307 307 306 307 306 307 307 309 306 305 306 311 305 305 304 305 305 305 305 305 304 304 303 303 303 302 302 301 301 301 300 301 302 301 300 301 302 299 301 302 301 301 300 300 299 299 298 297 294 292 292 293 295 296 298 299 301
313 314 314 313 311 310 308 307 307 308 307 307 309 308 305 305 306 306 305 304 304 305 304 304 305 304 304 303 303 304 304 303 302 302 301 302 301 302 300 300 300 301 303 300 300 301 301 301 300 300 299 300 300 297 297 294 293 294 298 297 297 299 300
313 313 314 313 311 311 310 309 308 307 308 309 307 308 306 305 306 305 304 305 304 304 304 304 304 303 303 304 305 305 304 303 303 302 301 302 304 301 300 300 301 300 300 298 299 300 299 301 300 299 299 300 299 298 297 296 294 296 296 298 298 299 300
313 313 313 313 312 312 311 310 309 309 308 308 308 308 306 305 306 305 304 305 304 305 304 303 303 304 304 303 304 304 303 303 303 301 303 301 302 300 300 299 299 300 299 298 298 299 300 299 299 300 300 299 298 298 298 296 294 295 296 297 298 299 299
313 312 312 313 312 312 311 311 310 308 308 309 309 310 307 306 306 305 304 304 304 304 305 304 303 303 304 304 303 304 304 303 302 302 302 301 301 303 301 299 299 299 301 298 297 298 299 299 298 298 298 298 297 298 298 296 294 294 293 294 296 296 296
312 311 311 311 311 311 311 311 311 310 309 309 309 310 308 307 307 306 305 305 304 304 305 304 303 304 303 303 303 302 304 303 302 302 301 301 302 301 300 301 300 299 300 297 298 298 299 299 298 298 297 298 297 296 297 296 294 292 292 292 293 293 294
313 311 310 311 311 310 310 311 312 311 310 309 309 308 307 307 307 306 305 305 304 305 305 305 304 303 305 303 304 303 302 302 302 302 302 301 301 302 301 299 299 299 300 297 297 298 298 298 298 297 296 296 296 296 296 295 294 293 293 290 290 293 293
313 312 311 309 309 309 310 311 311 309 308 308 309 309 309 309 308 307 308 307 306 306 306 306 306 304 304 304 304 304 303 302 302 303 303 302 304 302 302 300 299 300 299 297 297 297 297 297 297 295 294 294 294 296 295 294 293 291 290 288 289 291 291
312 311 311 309 309 310 312 312 312 311 311 310 310 310 310 310 310 308 308 308 307 307 306 306 306 305 305 306 306 305 305 303 302 302 302 302 303 302 302 301 299 300 300 299 298 298 297 296 294 293 293 293 294 293 292 292 291 290 289 288 289 289 289
312 312 312 312 312 313 312 312 312 312 312 312 312 312 312 311 311 311 310 310 310 310 309 308 306 305 307 306 306 305 303 303 304 303 303 303 303 302 301 301 300 301 300 299 299 299 297 295 295 293 294 293 292 291 291 290 289 289 289 289 288 288 289
313 313 313 313 313 313 312 312 311 311 312 312 313 313 313 313 312 312 312 311 312 311 311 310 308 307 307 307 305 304 304 303 303 303 302 302 302 303 303 302 301 301 301 300 300 299 298 296 294 293 292 292 291 290 290 290 289 288 289 288 287 287 287
313 313 314 314 314 314 313 313 313 313 313 312 313 313 312 313 313 313 313 314 313 312 310 310 311 310 308 307 307 307 306 306 306 305 304 303 303 302 302 302 301 301 304 306 303 302 300 298 294 291 292 291 290 290 289 289 289 288 287 288 288 288 287
313 313 312 313 313 313 313 313 313 313 313 313 313 312 312 312 312 312 313 313 312 310 310 310 309 306 306 307 306 308 307 306 306 306 305 304 303 303 302 302 304 306 305 305 302 298 296 297 298 295 291 291 291 289 288 287 288 288 289 288 287 287 287
313 312 312 313 312 312 312 312 312 312 312 312 312 312 312 312 312 312 312 311 309 309 309 309 303 300 301 300 304 305 306 306 305 306 305 304 304 303 302 301 300 304 305 304 301 296 295 294 294 294 294 295 294 291 288 288 287 287 290 288 287 287 286
310 309 308 308 310 311 312 311 311 311 311 311 312 311 311 311 310 310 310 308 307 308 307 300 296 299 298 297 300 305 305 306 306 305 305 305 304 303 302 300 300 302 302 300 297 295 294 293 293 292 292 292 293 293 293 291 290 288 287 287 286 287 285
307 306 306 307 308 310 310 310 308 307 307 308 307 308 309 308 309 308 307 308 308 305 304 296 293 295 296 296 297 299 304 305 306 306 305 304 303 302 301 299 298 298 299 303 300 294 294 294 293 292 293 293 293 292 291 292 293 292 288 287 287 286 286
303 304 304 304 305 308 308 308 306 304 304 304 306 306 306 306 307 306 306 306 302 296 295 295 293 294 295 295 295 295 299 300 301 302 302 302 301 299 298 299 298 297 297 299 296 294 295 294 294 292 292 292 292 293 292 291 290 290 291 289 287 287 287
299 299 298 298 299 300 303 300 301 302 303 304 304 304 304 303 302 302 301 299 296 293 294 293 293 294 295 295 295 296 297 297 296 295 296 298 297 297 297 299 297 297 297 297 298 295 295 294 294 293 291 292 292 291 292 291 289 288 290 288 288 288 287
295 295 295 295 295 296 295 296 297 296 295 295 295 295 295 296 299 297 296 295 293 291 291 293 292 293 293 293 295 296 294 294 294 294 294 294 295 296 297 298 298 298 297 297 297 294 295 296 295 294 293 291 291 291 291 292 292 293 292 289 288 288 288
296 294 294 294 294 294 294 293 293 293 293 292 294 295 297 295 295 295 293 291 292 290 292 293 293 293 293 293 294 295 294 295 294 294 294 294 295 295 296 296 295 295 293 292 292 292 292 294 295 294 292 289 289 290 289 291 291 290 291 291 290 291 290
296 295 294 295 294 293 292 292 292 293 294 293 294 294 292 294 292 293 292 290 291 292 290 292 293 292 293 293 295 294 293 293 292 292 292 291 291 292 296 302 297 291 291 292 290 290 291 293 292 291 290 290 289 288 287 286 288 288 290 290 290 289 289
296 296 296 295 294 293 293 294 292 291 293 293 292 292 294 294 292 290 289 290 297 290 288 291 292 292 292 293 294 292 293 292 291 288 290 289 289 289 290 294 295 293 292 290 289 289 290 292 291 291 290 288 287 287 287 287 287 284 284 285 284 285 286
295 295 295 295 295 296 296 295 292 293 290 293 293 291 293 293 291 289 288 287 288 287 288 288 290 292 292 292 293 293 292 292 290 288 289 290 289 288 289 290 292 289 289 289 289 289 289 290 290 289 289 288 287 288 287 285 287 285 284 284 283 283 285
295 294 293 294 294 295 294 294 293 293 293 291 292 291 291 290 290 287 286 286 286 287 289 287 289 291 292 292 292 292 288 289 289 289 289 289 288 288 288 288 289 290 288 289 289 289 289 289 290 289 288 287 288 288 286 283 286 290 284 285 285 284 285
296 297 295 295 296 297 295 295 294 292 291 291 291 290 288 289 288 287 286 285 286 286 291 292 288 291 291 291 291 291 290 289 289 290 288 287 286 286 286 286 287 289 288 288 288 288 289 289 290 291 288 288 287 287 286 287 284 284 283 283 282 283 284
298 299 298 297 296 296 295 295 294 293 292 291 291 290 288 288 288 286 285 284 284 285 286 289 291 289 290 290 290 290 290 290 290 290 288 287 285 286 286 286 288 290 288 288 288 288 288 288 289 288 288 287 287 287 287 285 285 283 282 282 283 283 283
295 295 295 295 294 294 292 294 294 293 292 292 291 289 287 287 287 287 286 284 284 284 284 284 289 290 289 289 289 289 289 289 290 290 289 287 287 287 286 287 289 288 288 288 288 288 287 288 286 287 287 287 287 288 286 285 283 283 283 282 282 281 282

ECMWFFLT1_sfc_thetae_015.txt.gz
Theta_e
326 322 324 323 324 322 322 322 324 324 325 328 331 334 337 335 334 333 334 333 332 332 332 331 331 331 332 333 334 334 332 331 330 329 326 325 326 324 326 326 326 327 328 327 324 319 317 311 308 311 314 316 316 315 315 314 315 316 318 317 315 316 318
324 323 323 323 321 322 321 321 323 323 325 326 328 332 334 335 335 334 333 332 332 333 332 331 332 332 331 331 332 331 332 331 332 332 329 327 327 325 324 326 327 326 326 327 327 324 315 309 307 308 308 313 313 314 314 314 313 315 315 315 314 314 316
323 323 323 321 320 322 321 321 322 323 324 326 326 327 329 331 333 334 333 332 333 332 331 332 332 331 332 332 332 333 333 332 332 331 330 329 330 329 330 326 322 322 323 320 316 313 313 312 307 307 311 310 307 310 315 312 312 312 312 314 314 313 314
325 324 322 321 319 321 320 321 322 322 323 324 325 326 326 327 329 330 331 331 332 331 329 330 331 330 330 330 330 331 331 331 331 330 330 330 330 329 327 323 320 319 316 314 313 312 309 308 309 309 311 311 309 308 311 313 311 310 310 312 311 312 313
325 325 324 322 321 320 321 320 320 321 322 323 325 325 325 326 327 327 327 328 326 327 326 327 326 326 326 326 327 328 328 328 329 329 328 326 326 325 323 321 319 318 316 313 311 311 309 309 310 310 309 309 309 308 309 313 311 309 309 309 309 310 311
326 326 325 323 321 320 320 320 321 321 321 323 323 324 323 324 325 327 327 326 325 324 323 323 323 322 324 324 324 324 325 326 327 327 323 322 321 317 316 319 316 315 314 315 314 312 314 313 312 309 309 311 309 308 309 311 308 309 308 307 307 308 308
325 325 324 323 321 321 321 321 322 322 322 324 324 323 321 321 323 323 324 323 322 322 322 322 321 320 322 320 322 322 321 321 321 321 319 320 320 320 320 316 316 314 314 316 314 314 312 311 309 309 309 311 310 305 307 307 309 307 307 307 306 306 306
323 322 322 323 321 319 319 320 321 322 323 323 322 321 320 321 322 322 322 321 320 321 320 320 320 320 321 319 319 320 318 318 319 319 318 318 317 316 319 316 315 315 314 314 314 313 313 313 312 311 310 307 307 308 305 306 306 307 307 306 305 304 305
321 321 320 319 318 319 317 319 320 321 321 320 320 320 319 320 321 321 320 320 319 319 319 319 319 319 320 319 317 318 315 316 319 318 317 318 317 318 318 317 314 312 315 313 314 314 313 314 313 313 314 310 307 303 306 305 306 304 306 305 304 304 304
322 320 319 319 319 318 317 318 319 319 319 320 320 320 319 319 320 320 320 318 318 318 318 318 317 318 319 319 318 317 316 316 317 316 317 316 316 316 316 317 314 313 314 316 314 315 315 316 315 315 312 311 310 306 303 303 305 305 304 304 301 301 303
322 320 321 319 317 316 315 316 318 318 319 320 320 320 320 319 320 318 319 318 318 318 318 317 316 316 318 316 316 314 314 315 314 314 315 315 315 316 316 315 315 313 316 316 314 317 316 316 315 314 312 313 312 308 307 304 303 307 305 304 302 300 302
318 317 318 320 318 316 315 316 318 318 318 319 320 319 319 319 319 318 319 318 318 318 318 317 316 316 317 316 316 314 314 315 313 313 314 315 316 316 316 315 316 314 317 317 317 316 316 316 314 314 313 313 312 312 310 308 304 304 308 302 302 302 302
320 321 320 319 316 316 315 315 316 317 319 319 321 320 319 318 319 318 318 318 318 318 318 318 317 316 317 317 316 314 315 315 313 313 312 314 312 315 314 313 314 313 314 314 314 316 314 315 316 313 313 312 311 312 310 308 306 304 307 302 302 301 302
322 322 321 319 318 318 317 315 316 318 318 319 320 319 318 318 318 318 317 317 317 318 318 318 318 317 316 316 316 316 315 314 313 313 314 314 313 314 312 311 312 312 315 313 313 314 313 313 314 314 313 311 310 311 310 308 305 304 305 305 303 300 302
323 322 320 319 319 319 318 317 316 316 317 319 320 318 318 319 318 317 317 316 316 316 316 316 317 317 315 317 317 317 317 314 313 313 315 312 314 314 315 311 310 311 313 311 313 309 310 310 309 309 309 310 308 308 311 306 304 304 302 303 301 302 301
322 322 320 319 319 319 319 318 317 316 317 317 318 320 319 318 317 317 316 316 315 316 316 316 317 316 316 316 316 318 318 316 315 314 314 313 311 313 313 313 312 313 313 313 313 312 312 310 309 308 309 309 308 306 305 306 305 303 303 300 303 301 302
322 321 319 319 319 320 319 319 318 317 317 317 316 319 318 317 316 316 316 315 315 315 316 317 316 315 315 315 315 315 316 317 316 316 315 313 312 313 313 312 313 314 313 312 312 312 312 312 311 309 310 309 308 305 306 307 308 307 305 302 301 300 301
321 321 321 321 320 319 320 319 319 318 317 317 317 318 318 317 317 316 316 315 315 315 316 316 316 316 316 316 315 315 315 315 317 316 316 316 314 315 315 314 313 313 314 312 313 311 311 312 309 310 309 307 306 305 306 306 306 307 307 304 302 302 303
321 322 322 321 320 320 321 321 320 319 317 317 317 317 317 317 316 316 317 317 317 317 318 319 318 318 318 319 318 318 317 316 316 315 315 315 315 316 317 315 315 315 314 314 313 313 313 312 310 309 307 305 304 305 306 306 307 307 306 304 304 303 304
321 322 322 322 321 319 319 321 320 319 319 318 318 317 317 318 319 318 319 319 319 321 320 320 321 322 321 320 320 319 319 318 317 317 316 315 315 316 316 315 317 316 315 315 315 315 314 314 312 310 309 308 304 305 305 305 305 306 307 305 304 304 304
321 321 322 323 322 320 320 320 319 320 319 319 319 318 318 319 322 320 320 320 321 321 321 321 322 320 320 320 320 320 320 320 319 319 320 318 317 316 316 316 316 316 315 316 316 316 316 314 312 311 311 308 307 306 306 306 306 306 306 306 305 303 303
321 321 321 322 321 320 320 320 320 319 320 321 321 320 320 319 319 319 320 321 320 321 320 320 321 322 319 317 318 318 319 320 320 320 320 320 320 319 318 317 317 317 316 313 307 308 310 310 313 311 310 308 307 306 306 306 306 306 305 305 304 304 304
321 321 321 321 321 321 320 319 319 319 319 320 320 320 319 319 319 319 319 320 321 320 321 320 314 308 309 314 314 315 317 319 319 320 320 319 320 321 320 319 319 312 307 305 303 299 298 299 303 310 311 308 305 306 306 306 305 305 306 304 304 304 303
320 320 320 321 321 320 319 320 319 319 320 319 319 317 318 318 318 318 319 319 319 318 319 316 305 301 300 302 314 318 318 319 320 320 319 319 319 320 321 320 320 315 310 307 307 298 297 296 296 296 299 301 303 307 307 305 305 306 304 304 304 302 300
319 319 319 319 320 319 319 319 319 320 320 319 317 317 317 316 316 317 318 318 320 320 318 308 300 300 299 297 302 317 319 318 318 319 319 319 319 319 319 320 320 319 318 316 316 314 304 296 295 294 294 294 294 291 293 306 306 303 304 303 302 302 301
318 318 318 319 319 320 319 318 318 318 318 320 319 317 317 318 318 318 318 318 319 319 319 301 298 298 298 297 296 304 317 317 317 318 318 318 318 317 317 317 317 318 316 308 308 312 313 309 295 293 293 293 292 291 289 289 292 306 306 304 303 303 302
317 317 317 317 318 318 318 318 318 319 319 319 318 318 319 318 319 319 319 319 319 319 320 300 297 297 297 295 294 298 313 314 315 315 314 314 314 315 315 315 314 315 314 313 313 312 311 310 304 301 302 303 303 300 294 292 292 292 299 304 303 302 302
316 316 316 316 317 317 317 317 318 318 318 318 318 317 317 318 319 319 319 319 319 318 318 297 296 296 295 294 292 298 315 313 312 312 310 309 309 310 311 312 312 312 310 309 307 306 308 307 306 305 304 303 303 303 304 303 303 303 302 302 302 301 301
315 316 316 315 315 316 317 316 315 315 315 316 317 318 318 319 318 318 318 318 317 316 313 294 294 293 293 291 295 313 313 312 311 310 309 308 308 309 309 309 309 309 308 306 297 293 299 305 304 304 303 302 302 301 298 294 291 294 300 302 302 302 302
312 313 314 314 315 315 316 315 315 314 314 315 315 316 317 317 317 317 315 316 317 316 311 296 292 292 291 293 302 312 311 309 308 307 306 306 307 308 308 308 308 307 306 304 293 291 293 299 304 303 303 302 301 300 298 297 292 290 290 290 289 289 289
309 308 307 309 312 314 316 317 316 313 314 313 312 312 312 312 313 315 314 315 316 314 309 298 292 292 293 295 303 311 310 309 307 305 304 304 305 304 301 298 304 307 305 303 290 292 293 301 305 304 303 301 300 299 298 298 298 296 290 290 289 288 289
307 307 307 308 310 312 312 312 313 312 313 314 313 311 310 311 310 310 312 313 306 311 308 299 292 293 293 292 302 312 309 308 306 305 304 302 303 303 301 296 294 297 300 295 289 290 292 301 306 304 303 302 300 299 298 298 297 297 297 298 298 297 296
306 307 307 307 306 308 309 309 307 307 308 308 307 307 307 308 306 305 305 307 307 310 309 307 300 291 293 293 296 311 311 309 307 305 305 303 302 302 301 299 295 289 289 289 289 289 290 293 303 304 303 302 300 297 297 298 297 297 296 296 297 297 297
305 307 308 307 306 305 306 308 307 307 305 305 306 305 304 304 303 303 303 305 307 308 309 307 300 291 292 293 293 301 311 310 308 306 304 302 302 301 300 299 298 290 289 289 289 289 289 290 293 302 301 300 299 297 295 298 295 291 297 296 296 296 297
306 307 307 308 308 306 305 306 307 309 308 307 306 304 303 304 303 302 301 303 305 305 303 301 303 293 291 292 292 296 308 310 307 306 303 302 301 301 300 299 298 291 288 289 289 289 289 290 291 298 294 288 287 289 297 296 297 296 296 296 296 295 296
304 306 307 307 308 308 307 306 307 308 307 306 302 300 299 300 301 301 301 301 302 303 304 301 296 299 291 291 290 292 296 300 294 306 304 302 301 299 299 298 295 289 288 288 288 288 289 289 292 293 287 287 287 287 292 296 295 296 295 295 295 294 294
303 305 305 304 304 308 307 306 306 307 308 306 303 300 298 299 299 299 299 298 299 300 301 302 294 293 294 289 290 290 291 291 294 305 305 302 301 299 299 299 294 288 288 288 288 288 288 290 291 287 287 287 288 290 296 296 295 295 293 293 293 293 293

ECMWFFLT1_sfc_thetae_018.txt.gz
Theta_e
330 331 331 330 331 329 329 328 328 328 331 332 332 332 333 332 333 332 332 331 328 329 327 329 330 330 332 336 338 336 335 334 334 330 329 330 328 329 333 332 330 330 330 330 325 320 318 312 311 316 319 321 320 320 319 319 320 321 322 322 322 323 326
332 330 330 328 327 329 328 328 327 325 328 331 332 332 332 331 331 330 331 330 330 329 328 328 331 331 334 338 337 336 334 333 332 333 332 329 329 328 330 331 330 328 328 328 329 327 319 312 310 312 313 318 319 318 318 319 319 320 319 319 319 320 322
330 329 328 326 327 328 327 327 327 326 326 328 332 331 331 330 329 330 329 331 333 329 328 330 332 333 335 336 337 337 336 334 335 334 332 331 330 331 331 330 329 327 327 326 324 324 319 317 311 309 312 313 311 314 318 317 317 317 317 318 319 318 319
330 329 327 327 325 326 325 326 326 325 326 326 328 331 331 330 330 330 330 331 332 331 328 329 331 330 333 335 336 336 336 334 333 333 333 332 332 331 330 329 327 325 323 320 320 319 317 314 312 312 313 312 312 312 314 316 316 315 315 316 316 316 318
331 329 328 326 325 324 324 323 324 324 325 326 328 328 329 329 329 329 332 331 329 330 328 330 330 330 332 332 333 336 335 334 334 333 333 332 331 331 331 328 325 323 322 320 319 318 315 315 315 313 311 312 312 312 313 315 314 313 313 312 313 314 316
331 330 329 327 326 323 322 322 322 321 322 324 325 325 327 328 327 328 329 327 328 329 329 327 329 330 330 330 332 334 335 334 333 333 331 333 332 329 324 323 318 317 317 317 317 316 316 317 316 312 312 313 311 311 313 314 311 311 311 309 310 311 313
329 330 328 326 325 323 322 322 322 322 323 325 325 325 325 326 327 329 329 329 329 329 329 329 329 327 327 324 328 330 331 333 333 330 328 327 326 324 323 318 317 315 315 316 316 315 315 315 313 313 313 314 313 310 312 312 313 309 308 308 309 309 311
330 329 328 326 326 324 323 323 323 323 323 325 323 326 326 327 328 328 328 327 328 329 329 328 327 327 327 325 324 326 326 326 324 323 322 323 322 320 321 317 315 314 314 315 315 314 313 316 316 315 314 311 310 310 309 311 311 310 307 307 308 308 309
329 329 326 325 326 326 325 323 324 326 325 324 325 326 326 326 326 325 325 325 325 325 326 325 325 325 325 323 322 323 321 321 322 321 320 321 321 320 318 317 316 314 317 315 317 317 315 316 317 316 316 314 309 307 310 308 308 307 309 307 307 308 308
329 328 327 328 327 327 325 325 327 326 326 325 325 327 325 327 326 325 323 323 323 323 323 323 322 322 322 320 319 318 319 319 319 318 318 318 319 318 319 318 316 316 317 319 317 317 317 317 317 317 317 315 314 310 308 308 309 306 306 307 305 305 308
327 327 326 325 324 324 323 322 322 324 324 324 324 325 324 324 323 322 321 321 321 321 321 320 319 319 319 317 317 316 316 317 316 317 316 316 317 318 318 318 318 317 320 319 319 321 320 319 315 315 314 316 315 312 310 308 308 311 307 308 308 305 306
327 326 326 325 326 324 324 322 321 323 324 322 322 323 322 320 321 320 319 317 318 318 319 319 318 317 317 315 315 314 315 315 314 315 317 317 317 318 319 318 319 317 320 319 319 319 320 319 317 316 315 317 317 317 314 311 308 310 312 308 306 306 305
325 326 328 326 322 321 322 325 323 323 323 322 322 321 320 319 319 319 317 316 316 316 315 316 316 316 316 316 314 313 316 315 313 314 315 317 316 318 318 318 317 317 318 317 318 318 318 320 320 317 318 318 317 318 316 314 311 309 310 309 307 306 306
324 326 326 324 322 323 326 324 323 323 322 322 322 320 320 319 318 318 317 316 316 315 314 315 316 316 316 316 315 315 316 315 314 314 315 316 317 317 316 316 316 316 318 317 316 317 316 317 318 318 318 316 316 317 316 314 311 308 309 311 309 306 307
322 325 326 325 325 326 326 324 325 324 323 322 322 318 318 319 320 318 317 317 318 317 315 315 316 317 315 316 316 316 316 315 314 314 315 313 315 316 317 315 313 315 316 314 316 313 314 314 314 314 315 316 313 315 316 314 312 311 309 309 308 308 307
322 323 325 325 326 324 325 326 325 324 322 322 323 320 319 320 319 318 318 318 318 318 318 316 318 318 318 317 316 317 317 317 316 316 316 314 313 314 315 315 315 315 316 316 316 316 315 314 314 313 315 314 314 313 313 314 313 312 311 309 311 308 309
323 322 325 326 327 327 326 326 325 324 323 323 319 324 323 319 319 319 318 318 318 319 318 319 318 317 317 318 318 318 318 319 318 318 317 316 315 315 316 316 316 317 316 316 316 316 316 316 315 315 315 315 315 312 315 315 316 315 313 309 309 308 309
326 325 326 326 328 328 327 327 326 324 325 323 322 322 322 320 319 319 319 317 317 318 319 318 318 319 319 319 319 319 319 319 320 319 319 318 317 318 317 317 318 317 317 317 317 316 317 316 315 315 314 314 313 314 314 314 315 315 315 313 311 311 312
325 325 325 326 327 327 327 327 326 326 325 323 323 322 320 320 319 318 318 317 317 317 318 318 318 318 319 320 321 321 321 320 320 319 319 319 319 319 319 318 319 319 318 318 318 318 318 317 315 315 314 313 313 313 314 314 315 315 314 314 313 310 312
326 326 326 327 328 326 326 327 326 325 325 325 324 323 321 320 320 319 318 318 318 317 317 317 319 320 321 322 323 323 323 324 323 324 322 321 321 321 321 320 320 320 319 319 319 319 319 318 316 316 315 315 313 312 313 313 312 312 313 313 313 314 312
327 326 327 327 327 327 326 326 326 326 325 325 324 323 322 321 321 320 320 320 320 320 320 319 320 321 322 323 323 323 324 325 324 324 324 324 324 322 321 321 321 320 320 320 320 320 319 318 319 318 317 317 315 313 312 312 312 311 312 313 312 311 312
327 327 326 326 326 326 325 326 325 325 325 325 325 324 324 322 321 320 322 322 322 323 322 323 323 323 323 321 322 322 322 321 322 322 322 322 322 323 323 325 324 323 324 318 308 310 309 309 322 319 318 317 315 312 312 312 312 311 312 312 312 313 311
327 327 326 325 325 325 326 326 325 324 324 324 325 324 324 324 323 322 322 322 323 325 326 327 321 311 315 321 323 322 321 320 319 320 321 322 323 324 323 324 325 316 311 309 307 302 300 300 302 312 318 318 314 312 312 311 310 311 312 311 310 310 309
325 325 326 326 326 325 325 325 326 324 324 324 324 324 324 323 323 322 322 323 324 324 324 321 302 302 303 308 319 322 320 319 319 320 321 322 323 325 326 325 328 319 314 309 311 299 298 297 297 297 297 297 302 319 313 310 310 311 310 310 310 310 308
323 323 324 324 324 324 324 324 324 324 323 324 325 325 323 322 322 323 323 324 323 322 322 313 301 298 298 301 309 319 319 318 319 320 320 321 322 321 320 322 323 323 323 322 322 319 306 297 295 296 295 295 292 290 292 310 312 311 310 309 308 309 309
322 322 322 322 322 323 322 322 323 323 322 324 324 322 321 322 322 321 321 320 320 320 320 309 302 299 297 298 301 311 319 320 321 322 321 320 319 318 319 319 320 322 320 310 314 319 322 313 295 292 293 293 292 292 291 290 293 309 312 309 308 308 308
321 322 322 321 321 321 321 321 323 324 323 323 322 322 322 322 322 320 319 319 319 320 321 308 301 299 297 296 297 302 321 322 322 320 320 320 320 319 319 318 318 319 319 318 318 318 318 318 310 306 305 305 305 301 293 293 293 294 301 308 308 306 309
321 321 322 321 321 320 320 321 322 323 323 322 322 321 321 321 321 321 321 321 322 320 321 301 298 297 296 295 294 299 323 322 320 320 319 319 319 318 318 319 318 317 316 313 310 307 316 315 313 311 309 309 309 309 311 310 311 311 309 309 308 308 308
315 318 320 321 320 321 322 322 322 322 322 323 323 322 322 322 321 321 321 322 322 321 328 294 296 296 296 295 294 316 320 318 318 316 316 317 317 317 317 317 317 315 313 309 298 291 300 314 313 311 310 310 309 306 302 295 292 294 303 308 309 309 309
311 313 316 318 319 320 321 321 322 323 322 322 321 320 321 321 321 320 320 321 321 322 322 300 295 296 295 293 300 318 318 315 315 315 315 316 315 315 315 315 315 314 311 307 294 292 294 297 312 310 309 309 308 307 304 300 293 290 290 290 289 288 289
310 310 312 314 316 318 320 321 322 322 321 321 320 320 321 320 321 321 321 320 319 318 318 302 292 294 293 293 304 317 315 314 314 314 314 314 313 309 305 297 308 313 310 306 291 292 292 304 311 310 309 308 307 306 305 304 303 299 289 290 289 289 289
310 310 310 312 315 316 318 320 321 322 321 322 322 321 320 320 320 320 319 318 311 317 317 305 292 293 293 295 307 315 314 314 312 312 312 311 310 308 305 301 294 301 305 299 289 292 291 300 311 310 309 308 307 307 306 306 305 304 304 303 301 300 299
309 310 310 311 313 315 317 319 321 321 321 321 321 321 319 319 319 319 319 319 318 316 318 317 302 292 295 296 300 314 315 313 312 311 311 309 309 308 305 303 297 289 289 289 289 290 291 292 309 311 310 309 308 305 306 306 304 305 305 303 304 304 303
308 309 310 310 311 313 314 315 318 320 320 320 320 320 319 319 318 318 318 319 318 318 318 317 306 293 294 296 297 300 316 314 314 312 310 309 309 308 306 304 302 291 289 289 290 290 291 291 294 309 308 306 304 301 299 304 299 291 302 303 302 301 302
308 309 309 311 311 311 313 314 317 319 319 319 320 319 319 318 317 316 316 316 316 317 315 307 310 294 293 295 296 292 311 316 314 313 310 309 308 308 307 304 301 293 288 289 289 290 290 292 293 302 298 289 288 290 302 301 303 303 302 302 301 300 300
306 307 308 309 309 309 311 313 314 316 317 317 318 318 317 316 316 314 313 313 315 316 314 310 301 302 293 293 293 294 301 308 298 311 310 309 308 307 307 303 296 289 289 289 290 290 291 290 293 295 287 288 289 287 292 302 300 300 300 300 299 299 298
305 306 306 307 308 309 309 311 312 313 313 314 315 315 315 315 315 314 312 311 312 313 312 311 299 297 297 290 291 293 295 296 299 310 311 310 309 307 304 302 296 288 289 289 288 289 289 291 294 287 288 288 288 289 300 300 299 300 297 297 297 298 298

ECMWFFLT1_sfc_thetae_021.txt.gz
Theta_e
331 328 329 331 331 329 329 328 328 328 330 329 329 330 331 330 332 331 331 331 328 329 327 328 330 330 330 332 332 334 331 331 332 327 326 327 328 326 333 329 330 330 330 329 324 321 316 312 314 319 321 322 322 322 322 321 321 322 323 324 323 324 326
328 328 327 327 326 329 327 327 327 325 329 331 331 331 331 329 329 330 330 329 329 329 325 325 328 328 331 335 335 335 334 332 333 334 331 328 328 328 329 330 325 326 328 329 327 323 320 314 312 313 313 317 320 319 321 321 320 321 320 320 320 322 324
328 327 326 325 327 327 326 327 325 325 325 328 331 331 331 330 329 330 329 330 330 329 328 328 329 333 337 337 336 336 336 335 335 333 332 330 330 330 329 329 326 325 324 324 327 323 320 317 311 311 313 314 312 315 319 318 318 319 318 320 320 318 319
327 327 326 324 324 326 325 325 325 325 326 326 330 331 330 330 331 331 331 330 331 330 328 328 329 331 336 337 337 337 336 334 332 333 332 332 330 329 328 326 326 323 322 322 321 322 319 315 312 312 314 314 311 312 316 317 317 315 315 317 317 317 319
327 326 325 324 323 324 325 323 324 325 326 327 329 328 329 329 330 331 331 330 330 330 329 329 329 329 332 333 335 335 334 335 334 332 332 331 330 329 328 327 325 323 321 320 318 319 317 315 315 312 311 311 312 311 313 316 314 313 312 312 314 316 317
326 328 326 324 325 323 322 323 322 322 323 325 326 326 327 327 328 330 330 329 329 330 330 329 330 330 330 330 334 334 333 332 332 332 330 332 331 328 324 323 321 320 320 319 321 319 318 319 317 312 310 313 310 310 311 312 310 310 310 310 311 312 314
331 330 328 325 324 324 322 322 323 322 323 326 326 325 326 328 329 330 330 330 329 329 329 330 329 327 328 326 333 333 333 332 331 328 329 326 326 325 323 318 318 316 315 317 318 318 317 317 314 313 313 312 312 310 311 310 311 307 307 309 310 311 313
330 328 327 326 325 323 324 324 324 325 325 326 325 327 327 328 328 329 329 328 328 329 329 329 328 328 328 326 326 327 326 325 324 324 323 323 321 320 320 316 316 316 315 314 314 315 315 318 317 316 314 309 310 311 310 311 310 308 307 308 310 310 312
331 331 327 324 325 325 325 324 325 326 326 325 325 325 325 327 326 324 325 325 327 327 327 327 327 326 326 326 324 324 322 321 322 322 321 321 320 319 318 318 317 315 317 316 317 317 315 318 318 317 316 312 308 306 309 308 308 307 310 307 309 310 311
332 329 326 326 325 327 327 326 326 326 326 325 324 324 325 325 324 323 323 323 325 326 326 325 324 323 323 322 321 320 320 321 321 319 319 319 320 320 319 319 317 317 317 319 317 318 318 319 318 318 317 314 314 309 307 307 308 306 308 310 307 308 310
331 330 328 326 326 325 327 328 327 324 324 324 323 323 326 324 323 321 321 321 322 322 322 321 320 320 320 318 318 318 318 319 318 318 318 318 320 320 320 320 321 319 321 321 320 321 319 319 318 318 317 317 316 312 311 308 308 311 309 311 310 307 309
332 330 326 324 323 322 321 323 324 324 324 323 322 324 323 318 320 319 319 319 320 320 320 319 318 318 318 316 316 314 317 317 316 317 319 320 321 322 321 320 321 319 321 321 320 320 321 319 318 317 317 319 319 319 315 312 309 312 314 310 310 310 309
330 326 323 324 322 321 321 321 323 325 323 321 323 324 318 317 318 316 316 316 317 318 317 317 317 316 317 316 315 315 316 317 315 315 316 319 318 320 320 319 318 319 319 319 320 320 320 321 321 318 319 319 318 319 318 315 312 309 313 312 311 309 310
328 326 322 323 323 322 322 322 322 323 323 321 322 320 318 317 316 317 315 315 315 316 317 317 317 318 316 315 316 316 315 315 315 316 318 318 317 319 318 317 317 319 319 318 318 318 317 317 319 319 319 317 316 317 317 315 312 310 313 315 313 309 312
328 327 325 324 324 324 324 323 324 321 322 321 319 317 318 318 318 316 315 314 314 314 315 316 317 317 316 316 317 318 317 316 316 316 317 317 318 317 318 316 315 317 317 315 317 315 314 316 315 316 316 318 316 316 318 316 313 312 311 313 311 311 311
326 327 326 326 325 323 327 327 326 322 321 321 320 318 319 319 318 317 316 316 314 314 315 315 317 317 317 317 316 318 318 317 316 316 316 315 315 317 317 316 316 317 318 317 317 318 317 316 316 314 316 316 316 316 315 315 314 312 311 311 313 311 311
325 325 325 325 324 326 327 326 325 323 320 320 320 320 320 318 318 319 318 317 316 315 315 317 318 316 316 316 317 317 317 318 317 317 315 315 314 316 317 317 318 318 318 318 318 317 316 317 316 316 316 318 317 316 318 318 316 316 313 311 313 311 311
324 324 325 324 325 327 327 326 325 322 321 321 320 321 320 318 317 318 319 318 317 317 317 317 318 318 319 319 318 319 318 318 319 319 318 318 319 318 318 319 318 319 319 319 319 318 318 317 317 317 316 316 316 317 318 317 317 316 315 313 313 314 314
326 325 325 325 325 326 326 325 325 325 322 321 320 321 322 318 317 317 317 317 318 318 318 317 317 319 319 321 321 321 321 321 321 320 320 320 319 320 321 320 320 320 320 320 319 319 320 319 317 317 317 316 315 316 316 317 317 317 315 314 314 313 315
326 326 325 325 326 326 326 325 324 323 323 322 322 321 321 319 319 318 316 316 317 317 317 317 318 318 318 319 320 321 322 322 322 322 321 321 322 321 321 321 322 321 321 321 320 319 319 319 319 319 318 318 316 316 315 315 315 314 315 314 314 314 313
327 326 326 326 326 327 326 325 324 324 324 323 323 322 320 320 321 319 319 317 317 318 318 317 318 318 318 320 321 322 323 324 323 324 325 324 324 323 323 322 322 321 321 322 322 321 321 319 319 319 319 318 318 317 315 314 314 313 313 314 313 312 312
327 327 326 326 326 326 326 326 325 324 325 325 325 324 323 321 320 319 319 319 318 318 318 318 319 320 320 321 323 323 325 325 325 325 324 324 325 325 324 324 323 323 326 315 308 311 311 311 322 320 320 320 317 317 315 314 313 312 312 313 312 313 311
327 328 328 327 327 327 326 325 325 325 325 325 325 325 325 324 322 320 319 319 319 320 319 321 320 310 312 322 322 322 325 324 323 322 322 321 323 324 325 323 325 315 311 313 312 306 304 302 303 313 319 320 319 317 315 313 313 313 313 311 310 311 309
328 327 325 326 327 326 326 326 326 325 324 325 325 326 322 324 324 322 320 320 320 322 322 324 302 302 301 305 320 322 321 322 321 321 320 320 320 323 322 320 324 322 317 312 314 302 301 301 299 297 298 299 304 317 317 314 314 314 312 312 311 311 310
325 326 326 326 326 326 327 327 326 326 326 325 325 326 325 323 324 324 323 322 322 323 325 307 299 300 302 303 309 323 322 319 319 319 318 318 319 321 321 322 321 322 322 324 323 317 307 297 296 295 293 293 292 291 294 309 312 313 313 311 311 311 310
324 325 325 325 326 326 325 325 325 324 325 326 325 323 323 324 325 324 324 323 322 324 327 299 298 298 300 300 302 310 319 320 318 318 317 317 318 319 320 319 318 319 320 314 317 318 319 308 295 293 293 293 293 292 291 291 296 306 310 311 310 310 310
321 323 324 324 324 323 323 323 325 325 325 325 324 324 325 324 323 323 324 324 324 326 324 301 297 297 297 297 298 305 319 320 319 318 318 320 320 319 319 319 316 317 321 319 320 321 320 314 310 307 307 309 307 302 293 292 293 294 301 307 309 309 312
320 322 323 323 323 322 322 324 324 325 324 325 324 322 324 321 322 322 323 323 324 323 323 300 298 296 297 297 297 301 319 320 321 322 322 321 321 320 319 319 317 318 320 319 318 312 320 318 315 313 312 311 310 309 310 310 310 311 310 310 311 310 311
314 315 318 321 321 322 323 323 323 325 325 325 325 324 323 323 322 321 322 322 321 319 320 301 300 298 297 297 297 314 318 320 323 321 320 321 320 318 317 317 317 317 316 312 299 292 298 319 316 314 312 311 311 310 303 295 291 294 304 309 310 310 308
312 313 313 315 317 319 320 321 323 325 324 324 324 324 323 321 322 321 321 320 320 321 322 307 298 299 298 296 300 316 318 320 320 319 318 316 314 316 317 317 317 315 313 310 295 292 293 295 316 314 313 312 311 308 304 301 293 291 290 290 289 289 289
310 311 312 312 313 315 317 319 319 321 321 322 323 324 325 324 324 324 323 321 321 320 320 309 295 297 297 295 303 317 318 318 317 317 314 313 316 314 309 299 311 314 310 307 291 292 290 303 314 313 312 310 309 308 306 304 304 300 291 291 290 290 291
309 310 311 312 313 314 315 316 318 319 319 320 321 322 323 323 323 323 323 323 317 320 322 310 293 295 295 295 305 318 317 316 315 313 311 311 312 311 309 302 297 304 306 300 289 291 290 301 314 312 312 310 308 308 308 308 307 305 304 303 302 301 299
308 310 310 311 312 312 313 314 315 316 319 318 318 321 322 322 322 322 323 323 323 321 321 318 303 294 295 295 299 317 318 315 312 313 312 312 308 308 308 305 298 290 290 289 290 290 291 292 313 313 311 310 308 306 309 309 307 307 307 306 307 307 306
306 308 309 310 311 311 312 313 313 314 315 317 317 318 320 321 321 321 322 322 322 321 321 321 306 293 294 295 296 300 317 314 311 309 311 308 309 307 306 305 302 291 289 290 290 290 292 292 296 311 308 305 303 303 302 307 303 294 303 304 305 304 304
306 306 307 308 309 310 312 312 312 313 313 314 316 317 317 318 319 320 320 321 321 321 318 313 314 295 295 295 297 293 312 315 311 309 313 310 307 307 306 304 301 293 289 290 290 291 291 293 294 302 298 290 288 290 304 303 305 305 304 304 302 301 302
304 305 305 306 307 307 309 310 311 312 312 314 313 315 317 317 316 317 317 319 320 319 321 315 303 303 294 296 295 295 293 301 301 312 311 309 308 307 306 302 296 290 290 290 290 291 291 291 294 295 288 290 290 286 292 302 303 302 301 301 302 300 299
303 304 304 304 305 305 306 308 309 310 310 311 312 311 313 316 316 314 315 316 318 318 319 318 302 300 300 295 298 293 293 295 301 311 311 309 309 307 303 300 295 289 290 289 289 290 290 292 295 288 289 288 288 290 300 302 301 302 299 298 298 299 300

ECMWFFLT1_sfc_thetae_024.txt.gz
Theta_e
328 328 330 329 332 330 333 334 329 331 333 329 335 332 333 332 336 334 335 336 335 332 332 331 330 332 332 331 333 330 328 327 327 325 325 325 324 324 329 329 329 328 327 325 326 323 313 310 310 315 316 318 318 319 318 317 319 320 322 324 325 326 323
328 327 326 328 329 330 330 333 329 327 330 334 331 334 331 332 334 329 334 335 331 332 326 329 331 329 332 333 334 335 333 331 331 331 329 326 326 324 325 325 326 326 327 327 325 324 319 311 309 310 310 317 317 318 317 316 316 318 319 319 320 319 317
329 329 326 328 328 332 326 329 332 332 329 334 339 335 337 330 333 336 331 330 333 329 328 329 330 332 335 334 333 335 335 332 332 331 327 327 329 327 328 327 324 324 323 322 323 322 320 317 309 308 309 310 309 313 318 317 316 316 315 315 315 316 314
329 327 325 326 327 330 326 329 336 330 336 330 334 336 331 330 331 333 334 330 331 331 330 328 330 332 335 336 336 335 333 332 332 332 332 332 329 326 324 326 326 326 322 318 318 318 317 314 309 309 310 309 309 311 315 315 312 313 313 315 315 314 315
329 327 326 326 325 326 326 328 328 333 330 330 337 330 331 331 334 334 335 332 333 332 332 332 330 330 335 336 335 335 333 333 334 332 332 329 326 325 325 324 324 323 323 321 321 321 319 313 312 310 307 308 307 306 310 309 308 308 308 311 313 314 314
331 329 326 327 330 326 328 326 325 327 328 328 330 328 330 332 331 333 335 330 330 330 330 328 328 331 331 331 332 331 330 329 331 330 327 327 329 327 324 326 325 323 322 323 324 322 321 318 313 307 307 309 305 304 306 308 304 304 306 306 308 310 313
331 330 328 326 331 328 329 327 330 326 329 328 328 328 331 333 333 330 329 329 329 331 331 332 331 329 329 327 330 329 328 329 329 327 327 327 327 326 328 317 316 315 316 322 319 322 319 319 317 310 309 308 307 305 306 303 303 301 303 306 308 310 311
330 331 331 328 330 326 327 330 331 331 329 328 329 329 329 329 330 331 330 330 330 331 331 330 330 327 328 325 326 328 327 327 327 325 324 322 319 318 320 315 313 314 321 318 320 317 319 322 318 312 308 306 307 306 304 305 303 303 303 304 308 309 311
331 332 327 327 329 330 329 330 330 330 328 326 327 328 330 328 326 327 328 329 330 331 331 331 329 327 328 326 324 322 319 322 322 320 318 320 320 321 320 320 317 316 317 318 318 315 317 317 315 317 314 310 306 302 305 303 302 302 305 303 305 308 309
332 329 326 327 328 329 331 331 330 327 327 326 325 329 328 329 330 327 325 326 329 328 326 325 325 325 324 324 323 321 320 320 320 319 320 320 320 318 316 317 317 317 316 318 318 318 318 320 321 324 316 315 315 306 304 301 302 303 305 305 302 304 308
331 329 327 326 328 329 329 329 327 326 325 325 325 326 329 327 325 325 324 326 326 327 327 326 321 321 323 323 321 320 320 320 319 320 320 320 321 322 320 318 317 317 319 318 319 318 317 316 316 319 314 316 314 312 311 303 304 308 307 307 306 303 306
331 328 328 328 328 328 327 327 326 326 325 325 324 324 324 323 324 324 323 322 324 324 322 321 323 321 319 318 318 317 320 319 318 317 319 321 320 320 319 319 319 319 321 320 320 320 320 325 319 313 316 317 317 316 309 308 304 308 312 306 308 308 307
329 327 326 325 324 324 324 325 326 325 325 323 323 323 323 322 320 318 321 320 321 321 321 321 321 319 319 317 318 318 318 317 316 316 318 320 319 320 318 317 318 318 321 319 316 317 316 318 318 317 317 317 315 317 314 309 306 306 311 310 308 306 308
330 326 325 324 322 322 323 324 326 326 323 324 324 323 322 320 317 318 317 318 318 320 321 321 321 319 319 320 318 316 317 315 315 317 318 318 318 319 316 316 316 318 318 317 318 320 317 316 319 319 318 315 314 314 315 310 307 307 310 315 314 308 310
328 324 325 324 323 322 322 323 325 324 325 324 324 322 320 322 319 318 315 315 317 317 320 319 320 320 319 318 318 320 319 317 316 316 317 317 318 318 319 315 316 318 318 317 315 313 312 314 312 312 317 317 312 316 314 314 309 307 306 310 311 308 309
327 325 326 325 323 321 323 323 322 323 323 324 324 322 321 322 320 318 317 317 315 316 318 319 321 321 319 319 318 320 321 317 317 319 317 315 314 317 316 315 316 317 321 318 318 315 316 315 313 313 313 314 314 313 314 314 311 310 307 308 312 307 307
328 325 325 325 325 325 324 324 322 322 321 321 319 320 322 320 322 321 317 315 314 316 317 320 321 317 319 319 319 319 317 317 319 318 316 314 314 316 316 316 317 319 319 317 318 317 318 317 319 315 313 314 316 314 316 315 316 314 311 308 308 307 308
327 327 326 325 325 327 327 326 326 321 322 321 320 323 319 320 320 320 321 317 314 314 317 318 319 318 321 321 320 320 317 317 319 318 318 316 319 317 318 317 316 318 319 318 317 317 317 316 315 316 314 314 313 315 318 315 314 314 313 311 312 311 311
325 326 326 326 326 328 327 326 326 325 320 318 323 324 319 320 315 317 317 319 316 315 315 318 317 316 316 320 321 321 320 320 320 319 321 317 318 320 320 320 320 318 318 318 319 319 318 317 317 315 316 316 313 314 316 316 315 315 311 312 311 312 312
326 326 327 327 328 328 329 330 325 324 322 321 320 323 322 319 320 318 316 318 319 317 316 316 318 320 319 319 320 320 322 322 322 322 321 320 320 321 322 322 322 322 320 319 320 318 318 318 318 317 317 317 315 316 315 313 312 311 313 311 310 311 310
327 327 327 328 326 327 327 329 329 328 328 323 320 318 321 322 320 320 318 317 319 318 318 317 317 319 319 321 322 323 323 322 321 322 322 322 323 322 323 322 322 322 320 318 319 320 321 320 319 317 320 317 316 315 313 315 312 311 310 311 310 310 309
329 328 326 327 327 328 328 329 328 327 328 328 326 321 321 321 322 318 319 318 317 318 318 318 318 317 317 318 320 321 322 321 322 322 323 323 321 320 322 324 323 320 318 314 308 309 309 311 318 318 319 318 317 314 313 312 311 309 309 309 308 310 308
328 328 330 330 329 329 328 330 329 326 326 327 327 327 325 322 319 319 318 318 318 320 319 321 318 310 312 318 319 321 323 323 323 321 322 321 320 320 320 321 323 317 314 314 310 304 302 301 304 313 314 315 316 315 314 312 311 310 310 309 307 307 307
325 324 329 327 328 328 329 330 330 328 327 327 327 327 327 324 323 321 318 317 318 321 321 322 303 303 305 308 320 322 322 322 320 320 319 320 320 320 320 319 321 321 319 317 316 305 302 299 298 298 299 300 305 313 312 313 311 310 310 309 308 307 306
323 323 326 326 324 326 328 326 326 326 327 327 326 327 327 324 323 325 325 322 322 321 320 306 298 300 303 306 311 322 322 321 321 320 318 318 318 320 320 320 320 321 322 321 323 319 306 298 295 294 293 294 293 292 297 304 307 310 308 307 307 307 306
322 323 323 323 326 325 324 324 324 324 323 326 327 326 327 326 324 325 325 323 321 320 316 297 299 299 300 302 304 314 321 320 318 318 317 317 317 320 320 320 319 319 319 318 319 320 315 302 295 293 293 294 294 293 293 293 295 305 307 305 305 306 306
320 322 324 323 323 323 322 321 323 323 321 324 325 325 325 324 324 324 323 323 321 315 315 306 297 299 299 300 299 307 320 319 318 317 317 316 317 319 318 317 316 316 317 318 317 318 317 309 303 301 301 304 301 295 292 292 294 295 300 305 304 305 307
318 320 322 322 324 321 320 320 321 321 321 323 323 322 323 323 322 321 322 322 319 317 318 305 298 297 298 298 297 302 317 320 319 318 317 317 318 318 319 318 317 316 315 317 316 314 316 311 309 309 307 308 305 305 304 302 301 305 307 308 306 308 307
311 312 315 321 321 321 322 323 323 325 324 324 324 324 323 323 321 320 321 322 318 317 317 304 299 296 296 296 296 311 315 317 318 318 318 320 320 319 319 318 314 315 317 312 298 294 300 315 312 310 309 308 305 300 296 293 292 293 298 301 301 302 299
309 310 311 312 312 315 321 322 323 324 323 323 323 323 322 322 322 321 321 320 318 317 318 307 301 299 297 296 299 312 314 314 314 315 317 318 319 318 317 316 314 314 311 310 296 294 293 300 313 310 309 307 306 302 299 299 293 291 291 291 290 290 290
307 308 309 309 311 312 313 314 317 322 320 320 321 320 320 321 321 321 320 319 319 318 318 310 300 299 298 296 302 312 313 313 313 314 317 316 315 312 308 303 308 314 310 305 291 291 293 305 312 310 309 307 304 301 300 300 301 296 291 291 290 290 291
306 307 307 309 311 311 311 311 313 314 316 319 318 319 320 320 319 318 320 319 315 316 318 311 297 298 297 296 301 311 314 314 312 313 315 313 312 310 304 299 302 307 305 298 290 291 293 303 311 311 309 307 305 303 301 301 300 298 299 298 297 298 296
306 306 306 307 309 310 311 311 312 312 313 313 313 315 316 316 317 319 319 318 318 317 317 318 313 298 297 297 297 310 314 314 313 313 314 309 309 306 303 301 296 291 291 290 290 290 291 296 310 311 309 307 305 304 304 305 304 303 303 302 301 300 300
304 304 304 305 306 307 308 309 311 312 312 312 312 312 314 316 316 318 319 318 318 318 318 317 315 303 299 297 296 300 313 313 314 313 312 309 308 305 303 301 297 292 291 291 291 291 293 294 296 302 300 298 298 299 300 302 299 297 301 300 299 300 301
304 305 304 304 304 304 305 306 308 310 310 310 310 311 312 312 313 314 317 319 318 318 315 312 317 304 299 296 295 295 308 313 312 310 307 305 304 305 302 298 295 292 290 290 291 291 292 292 293 295 291 289 288 290 297 301 302 300 301 300 299 298 298
303 304 304 304 303 303 304 304 305 306 306 307 308 308 309 311 312 313 314 316 316 317 318 313 306 307 297 296 294 295 299 304 299 309 305 304 304 305 301 298 295 291 290 290 291 291 291 291 292 291 289 288 288 289 294 299 299 300 298 298 298 297 295
302 302 302 302 302 302 302 303 304 304 304 305 306 307 307 309 310 310 311 313 315 316 317 316 305 301 300 294 293 295 294 294 299 308 307 304 306 304 299 295 293 289 290 290 290 290 291 291 290 288 289 288 289 292 297 298 297 299 295 295 295 295 296

ECMWFFLT1_sfc_thetae_027.txt.gz
Theta_e
321 321 321 321 322 322 321 320 322 322 324 326 328 330 330 331 330 329 330 329 330 329 328 327 327 328 329 330 327 327 326 326 323 320 319 320 318 318 322 321 323 323 321 321 318 312 307 305 306 311 313 313 313 313 314 316 320 322 322 323 318 312 312
321 319 321 322 319 319 318 320 321 322 323 323 323 323 322 325 328 325 327 328 328 329 329 327 326 327 327 326 326 324 323 323 323 323 322 320 321 318 320 320 322 322 321 320 319 317 310 306 306 307 307 310 311 311 311 312 316 319 319 314 313 312 312
320 319 318 317 318 317 316 318 318 319 321 324 324 325 324 325 325 324 323 323 323 324 326 326 326 327 326 326 327 325 324 323 323 324 323 321 322 321 321 321 319 318 317 317 317 315 314 312 306 306 306 305 305 308 311 311 312 314 314 312 310 309 308
319 318 317 317 316 314 315 317 318 320 320 321 324 323 323 323 324 326 323 322 322 326 326 326 326 328 327 326 327 328 326 325 324 322 323 323 323 323 323 321 320 319 315 313 315 314 312 307 305 306 306 307 306 306 310 311 311 312 312 311 310 308 307
319 319 317 317 317 316 317 319 319 319 319 321 320 320 321 323 323 323 324 324 324 323 323 324 326 328 327 328 327 326 327 326 325 325 323 321 322 321 321 321 320 321 319 317 317 316 312 308 307 305 305 306 306 306 310 307 308 310 310 311 310 309 307
319 319 319 318 317 316 318 317 318 317 318 320 318 318 320 321 321 323 322 321 321 322 322 323 324 325 326 327 326 325 324 324 323 324 321 319 320 320 318 319 320 320 319 319 319 317 315 310 309 305 304 304 300 302 303 302 301 302 307 310 310 309 307
320 320 318 319 317 318 316 315 318 317 319 319 317 316 319 323 322 322 322 321 320 321 322 322 323 323 324 325 324 324 323 322 322 322 321 320 320 320 321 318 319 318 315 317 318 318 315 310 306 304 304 304 301 301 302 297 300 300 302 307 309 310 309
320 319 319 319 319 318 317 318 318 320 319 319 319 320 322 321 321 322 322 322 321 320 322 323 324 322 322 323 323 323 322 321 319 319 316 314 313 310 309 309 311 311 312 313 310 312 316 312 308 305 303 301 300 300 299 298 298 299 301 304 308 309 310
323 321 320 319 317 317 319 321 320 320 319 319 320 320 319 318 318 319 320 319 320 320 321 321 321 319 317 316 315 316 315 317 313 313 313 313 312 311 309 309 310 310 312 312 313 312 313 312 310 308 305 303 300 298 298 297 298 299 305 301 304 307 308
321 318 319 319 319 320 321 320 319 318 318 318 318 318 316 317 318 318 317 318 318 317 317 318 317 316 316 315 314 313 314 314 314 313 312 310 309 311 312 312 311 311 311 312 312 312 312 313 312 311 308 305 304 298 296 295 297 297 301 302 300 303 306
320 319 319 320 321 320 319 318 317 317 317 318 319 320 317 316 317 320 317 316 316 317 316 314 314 315 314 312 312 311 311 311 311 312 314 315 313 312 312 311 311 310 312 312 313 312 312 311 311 312 311 310 306 302 298 297 300 302 301 303 300 300 304
319 320 321 321 320 319 318 317 317 317 316 317 317 315 314 313 314 314 314 314 313 312 313 313 313 312 311 310 311 311 312 311 311 312 313 313 312 313 312 312 311 312 313 311 310 311 312 312 311 310 309 311 310 306 304 302 299 303 304 302 304 303 302
320 321 321 321 320 319 319 318 316 315 315 316 314 314 313 314 313 312 313 311 310 310 311 312 310 310 310 310 311 312 311 311 312 312 312 313 315 312 311 310 310 312 310 310 311 311 310 312 312 310 310 311 310 308 306 303 301 302 306 302 302 303 304
319 319 319 319 319 318 318 317 316 315 315 313 313 313 312 311 311 312 311 312 310 310 310 309 310 309 308 309 309 309 309 310 311 311 312 312 312 311 311 310 311 311 310 310 309 310 309 310 311 311 311 309 308 307 306 304 302 301 305 307 304 303 304
318 317 316 316 316 317 318 317 316 314 313 314 313 313 311 310 310 310 310 310 310 311 310 310 309 310 310 308 308 312 311 310 310 311 310 310 310 313 310 309 310 310 310 309 308 309 308 308 308 308 309 309 308 309 308 306 302 301 302 305 305 304 305
318 316 315 314 315 316 317 316 316 315 314 313 314 313 311 311 310 309 309 309 309 309 309 309 311 311 309 308 309 311 312 309 310 310 309 309 311 310 309 309 308 311 313 310 311 309 310 309 310 310 309 309 309 309 310 310 306 303 303 303 304 302 304
318 317 315 315 315 315 315 315 316 315 315 313 313 313 313 312 310 309 309 308 308 308 309 311 311 310 312 311 312 311 310 311 311 309 310 309 310 309 308 308 310 311 311 311 311 311 309 310 311 309 309 309 308 310 309 309 309 304 303 303 304 303 304
318 317 317 316 316 316 316 315 314 314 314 312 312 312 314 312 311 309 309 307 308 308 309 310 309 309 312 311 311 311 310 310 310 310 310 310 314 311 310 308 310 311 311 309 310 312 312 311 312 311 310 309 310 311 310 309 310 309 306 304 304 305 304
319 318 318 318 318 318 318 317 316 314 315 313 311 312 311 312 312 311 310 308 308 309 310 310 310 310 311 312 311 310 310 310 311 311 310 311 312 311 311 310 311 312 311 310 311 310 310 310 312 311 311 311 309 309 309 309 309 307 307 306 306 305 304
320 319 318 318 320 320 319 318 318 315 314 313 313 312 310 310 310 311 312 310 309 310 311 312 311 310 311 312 312 311 311 311 313 312 311 312 313 312 313 312 312 312 313 312 312 310 310 310 312 310 311 310 312 309 308 308 307 308 307 307 306 305 305
319 319 319 318 319 319 319 318 317 316 314 313 312 313 310 311 310 310 310 310 310 311 310 311 312 311 311 313 312 313 313 313 313 312 312 313 316 317 317 316 315 314 313 313 313 312 312 312 311 310 311 311 309 308 307 307 305 305 305 304 305 304 303
320 319 319 318 318 318 317 317 318 318 316 314 314 312 313 313 311 310 310 309 311 311 311 312 314 313 313 314 313 314 313 314 314 313 315 315 315 317 316 316 314 312 314 315 311 310 311 313 312 309 310 309 308 308 307 305 305 303 303 303 303 303 303
319 320 320 320 319 319 318 318 319 318 317 317 314 313 312 312 311 309 310 310 310 313 312 313 314 310 310 314 313 315 315 314 314 314 315 315 314 315 316 315 315 318 313 311 306 301 301 304 309 311 309 309 309 308 307 306 304 304 304 304 303 302 300
318 317 318 319 320 320 319 319 318 318 317 316 316 315 315 314 312 311 311 310 310 313 313 314 305 301 303 306 314 314 314 313 313 314 315 314 314 314 313 314 313 314 313 312 306 299 299 298 298 299 300 304 308 309 306 306 305 304 304 304 303 300 298
318 317 317 317 319 319 318 317 316 315 316 317 318 316 315 315 314 314 313 311 311 310 309 307 299 300 301 302 308 315 316 315 315 314 315 315 315 314 314 314 312 314 313 313 312 303 300 295 294 294 294 295 294 296 300 305 304 305 302 302 301 300 300
318 317 316 316 317 315 315 315 315 315 314 314 315 315 316 316 315 314 313 312 309 309 309 301 300 299 299 301 303 311 317 316 315 315 315 315 315 315 314 312 313 314 317 318 318 311 303 299 295 294 294 294 293 293 293 295 300 304 303 302 302 300 299
312 314 315 315 315 314 314 313 314 314 313 314 314 314 315 315 315 313 311 310 309 309 308 300 299 300 299 298 301 308 317 316 315 315 315 314 314 315 315 313 313 312 311 312 313 313 307 302 299 298 298 299 297 294 294 294 294 295 299 302 302 302 302
304 306 310 313 312 311 312 311 313 312 312 314 313 313 314 313 313 312 311 310 307 308 311 300 298 298 299 300 299 306 315 316 315 314 314 312 311 314 314 315 313 312 311 311 313 312 309 305 302 301 300 300 298 299 296 295 297 302 304 304 304 303 301
301 302 303 304 306 306 307 310 311 311 310 310 311 312 312 313 312 311 311 310 308 308 311 302 296 296 297 297 298 307 310 312 312 312 312 312 311 313 315 314 312 311 311 310 304 300 305 307 305 304 304 301 296 293 292 294 291 295 301 301 299 297 296
300 302 302 303 303 304 304 305 306 309 310 309 309 311 313 312 312 312 310 310 309 308 310 306 299 297 295 295 300 306 307 308 308 309 310 311 313 314 314 314 313 312 311 307 297 296 300 302 308 306 305 300 298 294 292 294 292 291 292 293 293 292 291
300 301 300 301 302 302 304 304 305 306 304 307 310 313 311 311 311 310 310 311 312 310 310 308 301 298 296 294 301 308 307 308 306 307 309 311 311 308 306 307 313 311 309 304 292 293 296 304 308 306 304 301 298 295 293 294 295 292 292 291 291 290 290
299 300 299 299 300 300 301 302 302 303 304 305 304 306 311 312 311 311 312 313 312 312 311 309 302 299 297 296 299 306 307 307 306 304 307 309 310 306 303 302 303 307 308 300 292 296 293 299 310 307 304 301 299 297 295 294 293 292 293 292 292 292 292
299 300 299 299 300 300 300 301 301 301 302 303 304 304 303 304 309 312 312 311 313 313 312 312 308 300 299 297 297 306 308 307 307 305 307 310 310 304 300 297 296 295 294 291 291 292 295 297 306 307 305 303 300 299 298 296 295 295 294 295 294 294 294
297 298 299 300 300 300 300 300 301 301 301 303 303 303 303 304 305 305 308 311 312 312 313 313 311 300 299 298 296 299 307 308 307 308 307 306 307 303 298 295 294 292 291 292 291 292 293 295 299 307 305 303 302 301 299 299 298 297 297 296 295 295 294
299 300 300 299 298 298 299 299 299 299 299 299 299 299 299 300 300 301 303 305 309 312 312 310 313 303 299 298 296 296 305 308 309 309 306 305 303 300 295 294 294 292 290 290 291 291 291 291 292 297 294 292 293 295 300 299 298 297 296 295 294 292 292
298 301 299 298 297 296 297 297 297 298 298 298 298 298 299 300 301 302 303 304 306 310 311 311 304 308 301 298 298 296 297 304 300 308 307 304 302 298 296 296 295 292 290 290 290 291 291 290 291 290 288 289 290 292 295 297 296 296 294 294 292 292 291
296 296 296 296 296 295 295 295 296 296 296 295 295 295 296 297 296 297 298 300 302 305 309 311 306 302 305 300 298 296 295 298 299 305 306 304 301 298 296 295 295 291 291 291 290 290 290 291 291 289 289 290 291 293 297 295 293 293 291 290 292 291 292

ECMWFFLT1_sfc_thetae_030.txt.gz
Theta_e
320 320 320 320 320 322 322 323 324 322 324 325 327 325 326 327 326 325 324 324 326 326 327 326 326 326 325 325 323 321 321 320 319 319 317 317 319 317 319 318 318 319 317 314 310 308 305 304 305 309 310 310 312 315 320 321 322 322 318 313 311 310 309
320 320 320 321 319 319 318 318 321 321 322 323 325 326 324 327 327 326 324 323 323 324 327 326 324 326 326 324 323 321 321 320 318 317 319 318 317 317 317 315 317 316 316 315 313 310 305 305 303 305 305 307 309 310 316 319 319 315 311 310 311 309 310
319 319 318 317 316 317 318 317 318 318 318 319 319 320 320 322 323 325 326 325 325 324 326 324 323 324 324 324 324 322 320 320 319 319 319 318 319 319 318 318 315 313 313 312 310 308 308 307 305 305 304 305 304 306 312 314 312 310 309 308 306 305 304
318 317 316 315 315 316 317 315 316 318 319 320 319 318 319 320 320 321 318 318 321 326 326 323 323 324 323 324 323 322 321 320 320 319 318 318 319 319 318 318 317 315 312 310 310 310 306 304 304 304 304 304 306 307 309 311 310 307 306 305 304 303 303
317 316 315 314 315 316 315 315 316 318 317 318 318 317 318 320 322 319 320 319 321 322 323 324 324 324 324 324 324 322 321 320 320 321 319 319 318 318 317 317 316 316 314 314 314 312 308 306 306 304 303 304 305 305 308 306 307 307 306 305 304 304 303
317 316 314 313 314 315 315 316 315 316 315 317 316 318 316 318 319 318 318 318 319 319 321 322 323 324 324 324 324 323 322 321 321 320 319 319 319 318 316 315 317 317 315 315 316 310 308 307 306 303 303 302 301 302 303 304 301 302 306 306 305 304 303
317 317 315 314 314 316 316 316 315 316 315 315 315 316 316 319 318 319 318 316 317 319 321 321 322 322 322 323 321 321 320 320 320 319 317 316 316 316 317 316 315 315 314 316 315 310 307 306 304 304 303 300 300 302 298 296 302 301 304 307 307 305 304
318 317 316 316 315 315 315 316 315 316 315 313 314 314 317 317 316 317 317 317 318 319 319 319 322 320 321 322 321 319 319 318 318 318 315 316 316 316 313 313 312 312 312 315 315 311 309 308 307 305 303 300 297 296 296 295 296 298 300 302 306 306 305
319 318 317 316 315 315 315 316 316 316 315 315 315 316 316 317 316 317 316 316 317 318 317 318 318 319 319 318 316 315 313 316 313 311 310 310 309 308 308 307 309 308 309 311 315 312 310 309 307 305 304 303 298 294 295 295 295 298 302 300 303 306 307
317 316 316 315 314 315 316 317 317 316 316 317 317 315 314 314 315 315 314 314 316 316 316 315 315 314 314 314 312 311 310 311 311 308 307 307 307 308 308 307 308 308 308 309 313 314 311 308 307 304 303 303 300 296 292 292 294 295 299 299 299 302 307
316 316 315 315 316 317 315 316 316 316 316 316 316 316 314 315 316 318 314 313 313 313 313 312 313 312 312 311 310 310 309 309 311 310 310 310 309 309 309 308 309 309 308 309 310 311 309 308 306 306 303 303 301 298 294 293 294 297 298 300 298 299 302
316 316 317 318 317 316 315 315 315 315 315 315 316 313 313 313 313 312 312 310 311 311 311 311 311 310 310 309 309 309 309 310 310 309 308 310 309 309 309 309 309 308 307 309 310 310 310 309 308 307 306 305 302 300 298 297 296 299 299 300 299 299 302
317 318 317 316 316 315 315 314 314 313 314 313 311 311 311 312 311 310 309 309 309 309 310 309 309 309 309 309 310 310 309 311 310 310 309 309 311 309 308 308 307 308 307 308 309 309 308 307 308 308 308 305 302 302 302 300 298 299 301 298 299 300 302
317 318 316 316 315 314 314 314 313 313 312 311 310 310 311 310 310 309 308 309 308 308 308 307 307 307 308 308 308 309 308 310 310 308 309 308 309 308 309 308 307 308 307 307 306 307 308 308 308 308 307 305 304 304 303 300 299 299 302 302 300 300 300
317 317 316 315 315 314 313 313 312 312 311 310 310 310 309 309 309 308 307 307 307 306 307 306 306 307 308 307 306 310 309 309 308 307 307 307 307 309 306 306 307 306 306 306 305 306 306 307 308 307 305 306 304 304 304 301 299 299 299 303 301 302 301
317 316 315 315 315 315 313 312 312 311 311 310 310 309 308 308 308 307 307 307 307 305 306 305 306 307 306 306 307 307 309 308 308 308 307 307 308 306 306 306 306 307 309 307 307 306 306 306 307 307 306 306 305 305 305 304 302 300 300 301 300 300 301
316 316 315 315 315 314 314 313 312 311 311 310 310 308 307 307 307 306 307 306 306 306 306 307 306 306 306 306 307 308 307 307 308 308 308 308 307 307 307 307 306 307 308 308 307 306 307 308 307 306 306 306 306 307 305 304 304 301 300 301 301 301 301
315 315 314 315 315 314 313 313 312 312 311 309 309 308 308 306 306 306 307 306 305 305 306 307 306 306 306 307 308 308 307 307 307 307 308 307 310 307 307 307 308 308 308 308 307 308 308 308 308 308 306 305 306 306 307 306 305 303 301 301 302 303 301
317 314 315 315 315 314 313 313 312 312 311 309 308 309 310 307 308 306 305 305 305 305 307 306 306 307 308 308 308 307 307 307 307 307 307 308 308 307 307 308 308 308 308 309 308 308 308 308 308 308 307 307 307 306 305 305 305 303 302 301 302 303 302
317 317 315 315 315 314 313 312 312 312 311 309 309 309 308 308 308 306 306 305 306 307 307 307 306 307 308 308 308 308 307 307 307 307 306 308 307 307 307 307 307 308 309 309 309 308 308 307 309 308 309 308 308 306 305 304 304 304 303 302 302 301 301
318 318 318 317 317 316 315 313 313 311 312 310 310 309 308 309 308 307 306 306 307 307 308 307 306 307 308 308 307 307 307 308 308 307 306 307 308 308 308 308 308 308 309 309 309 309 310 309 307 307 307 308 306 306 305 304 303 303 302 301 301 301 300
317 318 318 319 318 317 316 316 315 313 312 311 312 311 309 308 308 308 307 306 306 308 309 309 309 308 308 308 307 307 307 309 308 307 306 307 309 309 309 309 309 309 312 316 311 311 311 311 311 309 306 306 305 305 303 302 304 302 301 301 301 299 298
316 315 317 317 317 317 316 316 315 314 313 312 310 311 309 309 307 308 307 306 306 308 309 310 311 307 307 310 308 310 309 309 308 308 310 309 309 310 311 310 312 317 315 313 309 305 304 306 310 312 310 307 307 306 306 303 302 302 302 301 300 299 298
315 315 315 315 315 316 316 316 315 315 314 314 312 310 311 310 307 307 308 307 307 308 309 310 305 300 300 304 310 310 309 309 308 311 311 311 311 311 309 309 309 313 312 311 305 300 300 300 301 303 305 308 310 308 307 304 303 303 303 303 300 299 297
314 314 315 315 315 315 315 315 314 314 313 315 314 313 313 310 309 307 307 306 307 309 309 307 301 299 300 300 306 311 310 310 311 311 311 312 312 311 311 310 308 309 308 307 305 301 299 297 296 296 295 297 297 297 302 307 306 304 304 304 303 301 298
313 313 312 313 313 313 312 313 313 314 313 313 312 313 311 311 311 309 308 307 306 308 308 305 301 298 298 299 301 308 312 311 311 311 312 312 311 311 311 310 310 310 312 315 311 303 301 298 296 294 295 294 294 294 294 297 300 307 306 305 304 301 300
305 308 310 310 311 311 312 312 312 311 310 311 310 311 309 311 309 309 308 307 306 305 305 303 298 298 297 297 297 302 313 312 312 312 313 313 312 312 312 311 311 310 309 311 309 305 302 300 298 296 296 297 296 295 294 294 295 298 302 306 304 303 300
300 302 304 304 304 304 306 308 309 309 308 310 310 311 310 310 309 308 309 308 307 308 308 303 296 296 297 296 296 296 307 312 312 312 313 313 313 313 313 313 312 311 310 310 311 308 305 301 299 299 297 298 297 298 297 297 298 299 298 301 303 302 301
298 298 299 299 299 300 301 302 303 305 306 306 307 307 308 309 309 312 312 310 309 309 311 302 296 295 296 296 297 304 307 310 311 311 311 312 312 313 313 313 311 311 309 309 307 302 303 304 303 302 301 299 296 294 293 293 291 293 299 301 301 301 299
298 297 297 297 297 297 298 298 298 301 300 300 302 304 306 307 307 307 308 310 310 310 309 305 297 295 295 295 298 307 310 311 312 311 310 310 310 311 313 313 312 311 310 308 303 298 299 301 305 304 303 299 296 294 293 294 292 292 294 294 294 294 294
297 297 296 296 296 296 296 296 297 298 297 298 298 300 303 304 306 306 306 306 307 308 309 307 299 296 295 294 299 308 308 310 309 309 308 309 309 309 310 311 313 311 310 308 299 295 296 302 305 304 301 298 296 294 293 294 294 292 292 291 291 291 291
297 297 297 296 296 296 295 296 296 296 296 296 296 297 299 300 300 300 303 304 309 309 309 307 301 297 296 295 298 304 305 307 307 305 307 307 306 306 303 304 307 309 310 304 295 294 295 302 308 305 302 299 297 295 294 293 292 291 290 291 290 290 289
298 297 297 296 296 296 296 295 295 296 295 296 296 296 297 296 297 298 298 301 303 305 307 309 308 301 298 296 296 305 305 305 305 305 305 307 308 305 301 300 300 297 299 298 294 294 295 298 307 306 303 300 298 297 295 293 293 292 293 294 292 292 291
297 298 298 297 297 296 296 296 296 296 296 296 296 296 296 297 297 297 298 299 300 301 305 307 308 301 300 299 296 298 306 306 306 306 305 305 305 306 303 299 296 294 295 294 293 293 294 296 300 305 303 301 300 299 296 294 294 295 295 295 294 293 293
297 298 297 297 295 295 295 296 296 295 294 294 293 293 293 294 295 295 296 297 298 298 301 303 305 303 301 300 298 296 303 306 307 307 305 305 305 304 304 302 298 294 292 293 293 293 294 294 297 303 303 297 294 293 297 297 297 296 295 295 294 292 291
295 296 295 295 294 293 293 293 293 293 293 293 292 292 292 292 292 292 293 294 294 296 297 300 298 300 299 298 299 297 296 301 299 306 307 306 305 306 303 299 297 294 291 292 293 293 294 294 296 299 295 293 292 292 295 298 296 295 293 293 292 291 290
294 293 294 293 293 292 292 292 293 293 292 292 291 291 291 291 291 291 291 291 293 294 296 297 297 296 297 297 297 297 296 295 297 304 307 308 307 304 299 297 295 291 291 291 291 291 291 293 296 291 292 292 292 294 298 296 295 295 291 291 291 291 290

ECMWFFLT1_sfc_thetae_033.txt.gz
Theta_e
322 321 321 321 319 322 322 320 319 320 322 324 325 324 325 326 325 324 324 324 324 325 326 324 323 322 323 322 322 320 318 319 318 319 316 314 319 318 318 315 315 315 312 309 308 308 305 306 306 310 310 313 318 320 324 323 320 314 309 308 307 306 305
321 321 320 321 320 321 319 316 318 318 319 320 321 323 323 325 327 324 323 323 323 324 327 324 323 323 322 322 320 319 318 318 318 317 319 318 316 316 316 313 313 312 311 310 309 307 304 305 304 305 305 312 317 317 319 317 312 310 309 307 309 307 308
320 319 318 318 318 317 318 315 315 316 316 316 316 319 319 321 322 323 322 322 322 323 325 323 322 323 321 321 321 320 319 318 316 319 319 318 318 316 317 315 311 309 309 308 306 307 307 306 306 304 308 312 312 312 313 310 308 307 307 305 303 302 302
318 318 317 316 316 317 317 314 314 314 314 315 315 315 317 318 317 321 319 319 321 326 325 322 322 324 322 322 321 318 319 318 317 317 316 316 317 317 316 316 313 312 310 307 307 307 305 304 303 303 304 306 312 312 308 308 307 304 303 302 301 300 301
318 317 316 315 316 316 315 314 314 316 314 315 314 315 315 317 317 316 317 317 321 321 322 322 322 322 322 321 320 319 318 317 317 318 317 317 316 317 315 315 314 312 311 310 309 308 308 307 306 303 304 306 306 303 305 304 304 303 303 302 302 301 301
318 316 315 315 315 315 314 314 314 314 313 315 313 316 314 315 316 316 314 316 319 321 320 320 320 321 321 321 320 319 318 318 319 318 317 317 317 318 317 313 314 313 312 312 311 308 308 307 306 303 302 303 301 301 303 302 302 302 304 304 303 302 301
316 315 313 314 314 314 315 315 315 314 314 314 313 314 314 316 315 316 316 314 316 317 318 318 319 319 321 322 320 319 318 319 318 317 316 315 315 314 316 315 314 312 312 313 309 309 307 306 304 305 301 299 301 303 297 298 301 302 303 304 304 303 302
315 314 313 314 314 314 313 314 314 313 315 311 312 313 315 314 313 313 314 316 315 316 316 317 320 318 318 319 319 319 316 315 316 316 314 316 316 314 314 316 315 312 313 312 308 309 309 308 307 305 304 301 296 297 295 294 296 298 300 300 303 304 303
317 315 315 314 313 314 313 314 313 312 312 312 313 313 314 314 314 314 314 313 314 315 314 315 317 318 318 318 315 315 314 317 314 313 313 314 315 314 315 311 315 313 313 313 309 308 308 308 308 306 306 305 300 294 294 296 295 296 300 302 302 304 304
316 315 314 313 312 312 313 313 314 312 312 313 314 313 312 312 312 313 314 312 313 313 313 313 314 314 315 315 313 310 310 309 311 310 308 311 309 310 308 309 312 311 312 313 310 308 308 307 307 305 306 304 302 297 292 293 294 294 300 297 301 303 305
316 315 314 314 313 314 312 314 314 315 313 313 314 314 312 312 314 316 313 311 310 311 311 311 312 311 311 310 309 309 308 308 308 307 307 308 307 307 307 307 307 308 310 313 311 308 307 306 305 304 302 302 301 300 295 295 295 294 299 299 297 300 302
315 315 315 316 314 314 313 312 313 313 313 313 315 313 311 311 310 310 311 310 309 309 309 309 309 309 309 308 308 308 307 308 308 307 306 308 307 308 307 306 305 306 308 311 311 309 308 306 305 303 301 302 301 300 299 296 294 296 298 301 299 298 301
316 316 316 316 314 313 313 313 312 312 313 313 311 311 311 310 310 309 308 309 308 307 308 308 308 307 307 307 307 309 306 307 308 307 306 306 309 307 306 305 305 306 306 308 309 308 306 306 305 303 303 303 298 298 299 298 296 298 299 299 298 298 300
315 315 315 314 314 312 312 313 313 313 311 310 310 310 310 308 307 307 308 309 307 306 306 306 306 306 306 305 306 306 306 307 308 305 307 306 307 306 306 306 305 305 306 308 308 307 307 306 306 305 304 301 300 299 299 297 296 297 300 299 298 299 299
315 315 314 313 313 312 312 312 312 310 309 308 308 309 308 307 306 306 306 306 305 305 305 305 304 305 306 306 305 308 308 306 306 305 304 305 305 307 305 306 304 303 304 307 307 307 307 306 306 305 303 302 300 301 300 298 296 297 299 301 300 300 299
315 314 314 313 312 313 312 311 311 310 309 308 308 308 308 307 306 306 305 305 304 304 305 304 304 305 305 305 305 305 306 305 305 305 305 304 305 304 304 305 303 304 306 304 304 305 305 306 306 306 304 303 301 301 302 300 298 298 298 299 299 298 298
314 314 314 313 312 311 311 311 311 310 309 307 308 306 306 306 306 305 305 304 304 303 304 304 304 304 305 304 305 305 305 305 305 304 305 304 304 304 303 304 304 304 304 304 303 304 303 304 305 304 304 303 302 302 303 300 301 299 298 300 299 299 299
314 313 313 313 312 312 311 310 310 309 308 307 306 305 306 305 304 304 306 304 304 303 304 304 304 304 304 304 304 304 304 305 305 305 305 304 309 303 304 304 304 304 304 305 303 304 304 304 304 304 303 303 302 304 304 303 301 300 300 299 300 299 299
314 313 313 313 312 312 312 311 310 309 308 307 306 305 305 305 306 304 304 304 304 304 303 304 304 303 304 304 304 304 304 305 305 305 305 305 305 304 304 304 304 304 305 306 305 304 304 304 304 304 304 304 304 303 303 302 301 300 301 300 300 300 299
315 315 315 315 314 313 312 312 311 310 309 306 306 305 306 305 306 304 304 304 304 304 305 304 303 303 304 304 304 304 304 305 305 304 304 304 305 304 304 305 304 304 305 305 305 305 304 303 306 304 305 305 305 304 303 303 302 300 300 299 298 298 299
315 315 315 316 315 314 312 311 311 309 309 306 306 306 306 306 304 305 304 304 304 305 304 304 302 303 304 305 305 304 304 304 304 304 304 304 304 304 304 305 305 305 305 305 306 306 306 306 304 304 303 304 304 304 303 302 301 300 299 299 298 300 298
315 315 314 315 315 314 314 312 311 310 310 308 309 306 306 306 305 305 304 303 304 305 305 305 305 304 304 304 304 304 305 305 305 305 304 304 304 304 304 304 304 305 309 313 309 308 308 309 307 306 303 303 303 303 301 301 302 300 299 300 299 297 298
315 313 313 313 315 315 314 313 312 312 310 309 308 308 306 306 305 305 304 303 303 304 305 306 308 306 306 306 304 305 305 305 305 305 305 305 304 306 306 304 308 315 314 313 308 304 303 305 308 309 307 305 305 303 302 301 300 301 301 300 300 299 299
315 314 313 314 314 314 313 312 311 311 311 310 308 307 307 306 305 305 305 303 302 304 305 307 304 300 299 303 305 304 304 304 304 304 304 305 306 307 307 305 305 311 312 313 307 302 301 301 302 304 304 305 307 306 303 301 300 300 301 302 298 296 298
313 314 315 313 311 312 312 312 312 311 311 312 311 308 308 307 306 305 304 304 303 304 305 305 301 300 298 297 303 307 305 305 306 304 305 306 306 306 307 308 305 306 307 305 303 301 301 300 300 300 300 300 301 302 302 305 303 300 299 300 298 299 297
308 308 310 312 312 310 311 312 311 312 310 309 310 311 309 308 307 305 305 305 304 304 304 303 300 299 298 296 296 302 307 307 307 307 307 308 307 308 308 308 307 306 309 313 310 302 301 299 297 296 296 296 295 295 295 298 300 304 304 303 303 301 300
300 301 301 302 303 304 305 306 307 307 308 309 308 308 308 308 307 307 307 306 305 304 304 302 301 300 298 296 295 297 304 305 306 307 308 309 309 309 309 309 309 308 306 308 306 303 302 300 298 297 297 297 298 297 295 294 294 296 301 306 304 304 303
299 299 299 299 299 299 299 299 300 301 301 303 305 305 305 306 307 308 308 307 306 306 306 303 299 297 296 296 295 296 301 303 305 306 308 308 309 310 310 311 310 310 309 308 309 306 304 303 301 300 298 298 296 296 296 295 296 296 298 302 303 304 301
298 298 298 298 297 297 296 296 297 298 299 298 299 300 302 303 304 307 308 306 306 307 308 302 296 294 294 295 295 300 301 303 305 306 308 308 309 310 310 311 311 311 310 309 307 300 302 305 303 302 301 297 295 294 294 295 292 292 295 297 300 302 301
298 297 297 296 295 295 295 296 296 297 296 296 297 298 298 299 300 301 304 306 306 306 307 304 298 297 296 293 296 302 302 304 304 305 307 308 309 309 310 311 311 311 311 310 305 299 297 301 302 302 301 298 296 295 294 293 292 292 294 295 295 295 294
297 296 296 295 294 294 294 294 294 295 294 294 294 295 296 296 297 298 298 300 302 303 305 304 298 298 297 295 297 303 305 305 305 305 307 308 308 308 309 310 312 311 310 310 302 298 296 302 305 305 303 300 297 297 295 293 293 292 292 292 291 291 291
296 296 296 296 295 294 294 294 294 293 294 293 293 293 296 294 295 295 296 298 302 301 301 301 298 296 296 296 297 300 303 304 305 306 306 306 307 307 308 308 308 309 310 307 301 295 296 301 305 304 303 301 300 297 295 292 292 291 291 292 290 292 292
296 296 295 295 295 295 295 294 294 294 293 294 293 293 294 294 294 294 295 296 297 297 298 299 299 295 295 295 296 300 301 303 304 305 306 307 308 307 305 303 303 299 299 299 298 295 296 297 305 306 304 302 301 301 295 292 293 294 294 293 292 292 291
295 295 295 294 294 294 295 294 294 293 293 293 293 293 293 293 293 293 293 294 295 295 297 298 298 294 294 294 294 296 300 302 304 305 305 304 305 306 307 305 300 299 297 298 297 295 294 294 299 306 306 304 304 300 293 294 293 294 294 293 293 291 291
295 295 295 294 293 293 293 294 293 293 293 292 292 291 291 292 291 291 291 292 293 293 296 298 296 295 293 293 293 294 297 301 303 304 304 304 304 303 304 304 303 300 296 295 295 295 294 295 294 302 304 298 293 291 295 296 294 294 294 293 293 291 290
293 294 294 293 292 292 292 293 293 293 292 292 291 291 291 291 290 290 290 291 291 292 292 294 294 294 294 293 293 292 293 296 295 300 303 304 305 305 305 304 303 300 296 295 294 294 294 293 293 298 296 293 292 291 293 295 294 294 293 293 292 290 289
291 291 292 292 292 291 291 291 291 291 291 290 290 289 289 289 289 288 288 288 290 291 291 291 293 293 293 292 292 292 292 292 292 297 301 304 306 306 305 304 302 298 295 294 293 293 293 293 297 295 294 293 292 292 297 295 294 294 292 291 291 290 290

ECMWFFLT1_sfc_thetae_039.txt.gz
Theta_e
333 332 334 333 333 332 332 332 333 334 334 335 335 335 335 335 335 334 335 335 334 334 333 333 333 332 334 334 335 335 335 334 335 332 331 330 328 327 330 333 331 330 329 327 326 322 318 315 315 322 324 325 325 325 322 317 315 317 318 317 314 314 315
335 334 333 333 332 332 331 331 333 333 333 334 335 334 334 335 334 334 334 334 334 333 333 333 334 333 333 334 333 333 333 333 333 336 334 330 332 330 329 329 328 325 324 327 328 326 320 318 316 317 317 322 323 323 323 318 316 317 317 316 314 313 314
333 332 333 332 332 332 330 330 332 332 332 331 332 333 333 334 334 334 334 334 334 334 333 334 334 334 334 334 334 334 335 333 334 334 334 335 333 334 331 328 325 323 323 323 325 324 324 324 317 316 318 317 315 318 322 318 314 314 313 314 314 312 313
333 333 332 331 331 332 330 330 331 331 332 332 332 332 333 333 333 333 333 334 335 334 333 334 335 335 335 335 334 334 334 333 333 334 333 335 334 333 330 328 326 324 323 322 323 323 323 321 319 317 318 318 317 316 319 318 313 311 311 313 313 312 313
334 334 333 332 333 333 331 331 331 332 332 332 333 332 332 332 332 332 332 332 332 333 333 334 335 335 335 334 334 333 333 334 333 333 332 332 333 332 332 330 328 328 327 325 324 326 324 323 321 318 316 317 317 317 317 318 312 310 310 310 310 312 312
336 335 335 334 334 333 332 330 329 330 330 331 332 332 333 332 332 332 331 332 333 333 334 334 335 334 334 334 334 333 333 333 333 333 331 332 333 332 332 332 329 327 326 327 327 326 328 327 323 318 318 319 315 314 315 315 310 311 310 309 310 310 309
336 336 335 334 333 332 332 332 332 332 331 332 332 333 333 333 333 334 333 333 333 333 333 334 334 334 335 333 334 332 332 335 334 334 333 333 334 334 335 331 330 327 326 326 328 328 327 326 322 320 317 318 318 313 314 313 311 309 309 310 309 309 309
335 335 334 334 333 332 332 332 332 331 331 331 331 332 330 332 332 332 333 333 331 331 332 333 333 334 335 334 335 336 335 334 333 333 332 332 331 331 333 332 331 328 325 325 326 326 327 326 325 322 319 314 313 314 311 311 311 312 309 309 309 308 309
334 335 333 332 333 333 332 331 330 330 331 330 330 330 329 330 330 330 331 332 332 332 332 333 333 333 334 334 334 335 334 331 333 332 332 332 332 332 333 333 330 327 327 325 326 327 326 328 328 325 322 317 310 307 311 309 310 310 312 309 309 310 308
332 333 331 331 331 332 332 332 330 329 329 331 331 331 329 329 331 332 332 332 332 333 334 334 334 334 333 333 334 334 334 333 333 331 332 332 333 332 332 332 331 328 326 327 325 327 329 330 328 326 322 318 313 308 306 307 310 310 310 313 307 309 310
332 332 331 330 330 330 329 330 330 328 330 331 330 330 331 330 330 330 332 332 332 333 333 333 333 333 333 332 333 333 334 333 332 332 332 332 333 332 332 332 332 328 327 324 325 327 328 329 328 326 324 322 317 310 309 307 308 313 311 314 313 310 310
330 330 330 330 330 329 328 328 329 330 330 329 329 329 329 329 330 330 332 331 331 331 332 332 332 332 332 331 331 330 330 332 331 331 331 331 331 331 331 331 331 330 328 325 325 325 327 328 327 326 325 324 320 318 314 311 308 312 316 312 312 314 311
328 328 328 328 328 328 327 328 328 329 329 328 329 329 329 328 329 329 329 329 329 330 330 329 330 330 331 331 330 329 328 329 329 330 328 328 327 330 331 330 330 330 328 323 323 324 323 325 327 324 324 323 320 322 319 314 310 310 315 315 314 313 314
327 327 326 327 328 328 328 327 327 328 327 327 327 327 328 329 328 329 327 327 328 328 328 328 328 329 329 328 328 327 325 326 325 325 325 325 324 327 328 328 328 328 328 325 322 323 321 322 323 324 323 321 318 319 317 315 311 312 315 318 317 313 313
326 326 326 327 327 326 327 327 327 326 327 327 327 326 327 328 328 327 326 326 326 325 325 325 325 327 327 326 325 324 324 322 322 321 323 322 323 323 326 327 325 326 327 327 324 320 320 319 319 319 319 320 316 316 319 312 311 310 311 315 314 315 313
323 324 325 325 326 325 326 326 325 327 327 325 326 326 326 326 326 326 325 325 324 324 324 323 324 325 325 325 323 323 323 322 321 321 322 321 319 320 321 323 323 323 325 327 325 322 321 319 318 318 318 318 317 316 314 314 313 311 312 311 315 312 312
323 324 325 325 326 326 325 325 325 326 325 325 324 324 325 324 324 325 324 322 323 322 321 322 321 321 321 323 322 321 321 322 322 322 322 320 319 320 322 322 322 321 323 326 325 323 321 321 319 318 318 318 319 316 316 317 316 314 313 311 312 311 312
323 324 325 325 326 325 325 324 325 324 324 325 323 322 321 322 323 323 324 322 320 321 321 321 320 320 322 324 324 323 321 321 322 321 322 322 320 322 321 323 321 321 322 324 325 323 321 321 318 319 318 317 316 317 316 315 314 314 314 312 313 314 315
322 323 323 324 324 324 324 324 324 324 323 322 323 322 320 320 320 320 321 320 320 320 320 321 320 320 320 322 323 324 323 322 321 320 321 321 320 321 322 321 321 321 322 323 324 324 322 321 319 319 318 317 316 317 316 316 315 315 313 312 314 315 314
321 321 321 321 322 321 322 323 322 321 322 322 321 320 320 319 320 319 318 319 319 319 319 318 320 320 320 320 322 322 322 322 322 323 322 320 320 321 321 321 322 322 322 323 324 324 323 322 322 320 320 321 318 317 317 316 313 313 313 313 313 314 314
321 319 319 319 320 320 320 320 320 320 320 321 321 319 319 319 319 318 319 318 319 320 319 318 318 319 318 320 321 322 323 323 322 322 322 321 321 320 321 322 322 322 322 323 324 324 324 323 322 322 322 321 320 319 318 317 316 313 313 313 311 311 312
320 320 319 319 319 320 320 320 319 319 320 320 320 319 320 319 318 317 317 319 318 319 319 320 318 319 319 319 321 321 321 320 321 321 321 321 321 320 320 322 322 322 322 317 309 313 315 315 323 322 322 321 320 319 319 317 316 314 314 313 312 315 313
319 319 319 318 318 320 320 321 322 321 320 320 319 319 319 319 318 317 316 316 318 319 318 319 311 304 306 319 320 319 322 322 320 320 320 321 322 321 321 321 322 317 313 311 306 302 301 304 309 318 324 322 320 320 319 318 316 315 315 313 312 313 312
315 314 316 316 316 317 318 319 320 320 320 319 318 317 318 319 319 319 318 317 316 316 316 312 298 299 300 301 315 320 320 320 321 321 321 320 320 321 323 322 324 319 318 314 313 299 300 299 300 301 304 310 315 321 320 317 317 317 314 313 313 315 313
306 306 307 307 308 309 310 311 312 314 316 318 319 320 320 320 319 319 318 318 319 318 312 296 295 296 296 298 306 318 319 319 319 320 320 320 320 322 322 323 324 325 324 325 324 320 308 299 298 298 298 299 300 302 306 319 319 318 317 315 316 316 316
302 302 302 304 305 305 306 306 308 309 310 312 314 315 318 320 321 322 321 318 315 312 307 293 293 294 295 295 296 307 318 319 318 318 319 319 319 320 322 321 322 322 320 315 318 323 324 320 300 297 298 297 298 297 296 297 299 322 322 319 317 318 318
301 302 303 303 303 303 304 304 306 307 307 308 309 309 311 312 316 317 315 312 310 307 304 295 293 293 294 294 293 302 318 318 319 318 319 319 320 320 320 320 319 320 322 321 323 323 323 324 322 318 317 318 319 310 297 296 297 294 308 320 319 318 321
301 301 302 302 302 301 302 303 303 303 304 305 305 306 307 308 309 311 312 310 308 306 301 292 292 292 293 295 297 305 319 318 319 318 318 319 319 320 320 320 320 320 321 321 322 320 321 320 321 321 321 322 323 322 320 318 317 318 318 319 321 322 324
300 301 301 301 301 301 301 301 302 302 303 303 304 304 304 305 306 306 307 309 307 305 302 292 292 292 293 293 297 318 320 321 321 320 320 319 319 319 319 320 320 320 321 321 312 301 308 320 320 319 319 320 321 320 318 304 298 301 314 320 321 322 321
299 300 300 300 300 301 301 301 301 302 302 302 302 302 302 302 303 304 304 305 306 305 303 295 291 292 292 292 304 315 317 316 318 319 319 319 320 320 320 320 320 320 321 322 308 296 296 303 319 318 318 319 320 319 317 312 296 291 292 293 296 299 301
299 298 299 299 299 300 301 301 301 303 301 301 301 301 301 301 302 302 302 302 303 304 303 296 291 291 292 291 299 310 311 312 314 315 316 318 318 319 317 309 312 319 321 322 301 298 293 304 318 319 319 318 318 318 318 314 310 307 292 292 292 292 292
300 299 298 299 300 300 300 300 301 302 302 302 301 300 299 299 299 299 299 299 298 301 302 299 292 291 291 291 299 308 308 309 310 312 312 313 316 316 318 313 306 309 311 308 293 298 294 302 318 319 319 319 317 318 319 317 312 312 310 309 307 305 304
298 298 297 297 298 298 298 299 301 301 301 300 299 299 298 298 297 297 297 298 298 299 300 301 297 290 291 292 292 304 307 306 307 307 309 309 310 313 314 317 310 296 296 294 294 292 294 294 313 319 320 318 317 317 321 319 314 314 313 311 314 311 312
296 296 296 296 296 296 297 298 300 300 298 298 298 297 297 297 297 297 297 298 298 298 299 299 299 291 291 291 291 295 305 304 304 304 305 306 307 308 309 310 313 301 294 293 293 293 293 292 295 313 317 318 318 318 314 319 314 301 313 312 313 311 310
297 297 297 297 296 296 297 298 298 299 299 299 299 297 296 296 296 297 297 296 297 297 297 296 297 294 291 291 290 291 300 301 298 302 304 304 305 306 307 308 310 301 292 292 292 292 292 293 292 305 312 302 301 300 314 316 317 311 310 311 310 307 307
297 297 297 297 297 296 297 298 298 299 299 299 298 298 298 298 298 298 298 298 297 297 297 297 293 295 292 290 290 291 290 294 290 300 302 302 303 304 306 307 307 296 292 291 291 291 292 292 293 302 297 296 296 295 298 312 313 311 309 309 308 307 306
298 298 297 297 297 297 297 298 298 298 298 298 297 298 297 298 297 297 296 297 297 297 297 297 295 292 293 290 290 290 290 289 289 297 298 301 302 303 304 304 300 292 291 291 291 291 291 291 299 296 293 293 293 294 306 310 308 308 305 304 304 305 305

ECMWFFLT1_sfc_thetae_042.txt.gz
Theta_e
332 334 335 336 338 339 337 337 338 338 339 339 338 338 338 338 339 339 342 342 340 340 338 338 338 337 337 337 339 339 336 336 337 332 332 333 330 331 334 335 333 334 333 332 329 324 322 319 321 328 330 330 329 324 321 318 317 319 321 320 318 318 319
332 333 335 336 335 337 336 337 337 337 338 339 338 338 338 338 339 338 338 340 341 339 337 337 339 337 339 339 339 338 338 337 336 335 333 333 332 331 331 333 332 331 331 332 330 327 322 320 319 321 323 326 326 324 321 320 319 320 319 317 315 315 318
335 333 334 333 334 335 335 335 337 336 336 337 338 338 338 337 337 338 337 337 339 338 336 338 339 339 338 339 340 340 341 339 338 335 333 333 334 335 332 332 329 329 328 329 328 325 324 323 319 319 322 320 318 321 322 318 318 317 316 318 318 315 317
333 332 332 332 332 334 333 334 334 335 336 335 337 338 338 337 338 338 337 337 337 338 336 339 339 338 339 339 340 340 340 339 337 337 335 334 332 333 331 330 328 328 327 325 325 325 323 321 320 320 322 321 319 317 320 318 316 315 315 317 316 316 317
334 333 333 332 333 332 333 333 334 334 334 335 336 336 337 337 337 336 338 337 336 337 336 339 340 339 339 339 339 339 338 339 339 338 337 335 331 332 332 331 330 328 328 326 325 332 328 322 323 322 321 320 317 316 314 317 315 314 313 313 314 315 315
337 336 336 335 335 334 332 332 334 332 332 333 334 334 336 336 336 336 336 335 335 337 336 336 340 339 339 339 339 339 338 338 338 338 335 337 336 332 332 333 330 329 329 331 328 328 328 326 325 321 320 319 316 314 313 312 311 312 313 312 313 313 313
336 337 335 334 334 334 333 332 333 331 331 332 333 333 335 335 335 336 336 336 336 336 336 337 336 339 339 334 338 337 338 339 339 339 338 338 338 336 335 331 332 330 330 331 330 329 327 326 324 323 321 320 317 312 312 312 311 309 311 312 313 313 311
336 335 335 337 336 335 335 334 335 334 333 333 333 335 336 335 335 336 336 335 335 336 336 336 336 338 339 337 336 338 338 338 339 339 337 337 335 335 334 333 331 331 332 330 331 330 328 327 326 325 322 316 314 313 310 311 310 312 310 311 312 312 313
336 335 337 336 336 336 336 334 334 334 333 333 334 335 336 335 335 334 335 335 336 336 336 336 335 337 339 338 336 337 337 337 338 338 337 337 337 336 337 336 333 331 334 331 331 329 327 328 328 328 323 318 313 308 311 309 310 311 312 310 311 312 312
336 336 336 334 334 335 336 334 333 333 335 335 334 336 335 334 334 334 333 333 336 336 336 335 334 333 337 339 336 337 337 337 337 335 336 336 337 338 337 337 334 332 332 333 331 331 331 330 330 328 323 318 316 311 308 307 310 311 312 312 309 310 312
335 337 335 334 335 333 333 333 333 332 332 332 333 335 334 334 334 333 333 333 334 335 335 335 334 334 334 334 337 337 336 337 336 337 337 336 336 337 336 336 335 333 333 333 332 334 333 332 328 325 322 321 317 312 310 308 310 313 312 316 315 310 311
335 335 334 334 334 332 331 331 330 330 333 334 332 333 332 331 332 332 333 332 333 333 333 334 334 334 333 334 338 336 338 337 335 335 336 336 337 336 336 335 336 333 334 333 333 333 333 331 329 324 322 322 319 317 313 312 309 315 317 315 316 314 312
335 333 335 334 332 331 331 331 331 332 332 331 331 331 330 330 331 331 331 331 331 332 332 332 333 333 335 337 336 335 336 336 335 334 334 336 335 336 335 334 334 333 334 331 331 330 328 329 330 323 322 322 319 319 315 314 312 314 319 317 317 316 314
335 334 334 334 332 332 332 333 333 333 331 331 331 330 329 329 329 329 329 328 329 330 331 332 333 333 335 336 335 336 335 334 331 329 331 332 331 335 334 333 333 334 335 332 330 328 325 326 327 323 322 319 317 319 318 317 313 314 319 322 318 316 316
336 335 334 333 332 332 332 332 333 332 331 331 330 328 329 330 330 329 328 327 328 329 330 331 332 333 331 334 335 336 334 330 328 326 328 327 330 331 335 333 332 335 334 331 330 323 323 322 321 320 319 319 316 316 320 316 314 313 314 319 318 318 316
335 336 334 333 332 330 331 332 332 331 329 329 330 329 330 330 329 329 328 327 327 329 329 328 331 330 330 330 330 332 332 330 327 327 327 325 324 328 332 333 333 334 335 334 331 325 324 321 320 318 319 319 319 317 316 317 316 315 315 314 318 316 317
336 335 333 331 331 331 331 331 331 330 330 330 329 330 330 329 328 329 328 326 326 327 328 329 329 328 328 327 327 329 330 328 327 326 325 323 322 324 325 327 333 334 335 334 331 326 324 323 321 319 319 320 321 318 320 319 319 318 316 314 315 314 316
335 335 333 331 331 332 331 331 331 329 330 329 329 329 328 328 328 327 328 325 324 325 326 326 326 327 327 327 326 326 325 323 325 325 325 323 324 323 324 324 324 328 332 333 333 328 325 325 320 320 319 319 319 320 321 319 318 317 317 316 316 316 317
333 333 332 331 331 331 331 331 330 330 329 328 329 328 327 326 324 324 325 325 323 324 324 325 324 324 325 326 326 325 324 324 323 324 324 322 322 324 324 323 325 325 326 328 331 329 327 327 322 321 320 319 318 320 322 321 320 319 317 316 318 316 317
327 330 331 330 331 330 330 331 330 329 329 329 328 326 325 325 325 324 325 325 323 323 323 323 324 324 324 325 325 324 324 324 323 324 323 322 322 322 322 322 325 326 325 325 324 326 327 329 325 324 322 322 320 320 321 320 319 318 318 318 317 318 317
324 324 326 329 330 329 330 330 329 329 329 328 326 324 324 323 323 323 323 323 324 324 323 322 323 323 323 323 324 324 324 324 323 323 324 323 323 323 323 324 323 324 325 326 327 327 328 327 326 327 324 324 323 321 320 319 320 318 318 318 316 316 316
323 323 323 325 326 327 328 328 329 329 328 326 325 324 323 321 320 320 320 322 321 321 322 322 321 323 322 321 322 323 323 322 323 323 323 323 324 323 323 324 324 324 335 322 312 317 318 320 327 324 324 325 324 322 321 319 319 317 317 316 316 317 316
324 324 324 324 324 324 325 326 326 326 325 325 324 322 321 320 319 319 319 320 322 323 324 323 305 298 303 321 322 320 322 322 321 322 323 324 323 323 323 323 326 319 313 312 309 306 305 309 314 323 328 325 323 322 321 320 318 317 317 315 315 315 314
323 321 321 321 321 321 323 325 324 324 325 324 324 323 321 320 319 319 319 319 321 324 320 308 293 293 295 299 316 323 321 321 321 319 320 323 322 322 323 321 325 322 319 314 316 300 301 301 302 302 303 307 313 331 323 319 319 319 316 316 316 316 314
314 315 317 317 317 317 317 318 320 323 324 324 324 325 324 322 322 323 324 324 322 319 313 296 292 293 293 293 299 320 322 322 321 321 320 319 320 321 322 323 324 324 324 328 324 321 309 299 298 299 298 299 301 300 301 323 323 319 319 317 316 316 317
310 310 311 313 315 315 315 315 316 317 319 323 325 325 324 324 325 325 322 320 317 315 310 293 293 292 293 293 292 303 321 321 320 320 322 322 322 323 323 323 324 325 322 317 321 323 324 324 300 295 298 298 297 296 297 297 298 322 325 320 319 318 318
308 308 310 311 311 311 310 311 313 315 317 320 322 323 324 323 321 319 318 315 311 309 305 295 292 292 293 291 291 297 323 322 321 321 321 321 322 323 323 323 323 323 325 325 322 323 324 324 327 324 323 323 323 316 298 296 296 293 304 322 321 320 322
306 306 307 306 306 306 308 310 309 311 313 315 316 318 318 318 317 316 314 312 309 306 302 291 292 291 292 292 292 296 326 324 323 323 324 324 324 323 324 323 323 322 324 324 324 323 323 323 324 324 324 323 323 323 325 324 321 321 321 321 322 322 323
306 306 306 307 306 306 306 307 307 307 309 311 313 312 311 312 313 314 313 311 308 305 302 291 291 292 292 292 293 321 324 325 324 324 325 326 325 325 325 326 324 323 324 324 311 301 307 321 324 323 321 322 322 323 325 320 314 315 326 329 326 325 327
303 304 305 305 304 304 304 305 306 307 306 307 306 307 307 308 309 310 311 311 309 306 304 295 291 291 292 291 305 322 323 321 322 324 325 326 326 327 329 328 327 325 326 326 300 299 297 298 321 322 322 322 322 322 322 328 304 296 296 294 293 292 292
303 304 305 304 305 305 306 306 305 306 306 306 305 305 305 305 305 306 307 309 310 308 304 296 291 291 292 291 299 317 317 319 320 320 321 323 323 324 318 307 314 325 326 317 292 295 292 305 320 322 323 323 322 322 323 325 324 315 294 293 293 293 293
303 304 304 304 305 305 306 306 307 308 307 306 305 305 304 304 304 305 305 306 304 308 307 300 291 291 291 291 301 314 313 315 316 316 316 317 319 320 322 312 301 304 307 300 292 292 291 300 319 324 325 325 322 323 324 326 326 323 318 316 315 313 310
301 303 304 304 304 303 304 305 306 307 306 306 305 304 304 305 304 304 305 306 306 307 307 305 297 290 291 292 291 306 311 310 311 310 312 312 313 316 317 318 304 292 291 291 292 290 292 291 307 318 322 322 323 322 323 324 324 325 325 322 321 320 319
301 301 301 302 302 302 303 303 303 305 306 306 305 305 305 305 304 303 304 304 305 304 304 305 301 290 291 291 290 295 310 308 306 307 308 308 310 311 312 313 316 294 291 291 291 290 291 292 292 308 315 319 321 311 304 321 324 307 322 323 323 321 321
301 302 302 302 302 302 303 303 303 304 306 305 305 305 305 305 304 302 302 302 302 302 300 297 303 293 290 291 290 290 304 305 300 303 304 306 306 307 308 309 311 296 290 291 291 290 290 291 291 303 310 299 295 295 309 312 318 320 321 321 320 319 320
300 302 302 302 301 301 302 303 303 304 305 305 305 305 305 305 305 304 304 303 301 300 300 300 293 298 290 290 289 290 288 296 290 303 303 304 303 304 305 306 304 293 290 290 291 291 291 290 291 301 296 295 295 293 297 313 315 317 317 318 317 317 317
300 301 302 303 303 303 303 303 303 303 303 303 303 303 302 302 303 302 302 302 302 302 303 304 295 292 295 289 290 289 289 289 289 297 298 299 301 303 304 304 299 290 290 290 290 290 291 291 297 294 292 292 292 293 304 308 310 313 312 312 313 313 314

ECMWFFLT1_sfc_thetae_045.txt.gz
Theta_e
334 333 335 337 337 330 331 334 337 339 338 338 338 339 341 342 343 342 341 340 339 339 337 338 337 336 336 335 337 337 335 335 336 331 333 336 331 330 335 334 334 334 333 329 328 324 319 318 320 325 327 327 323 322 321 321 321 321 321 321 320 322 324
337 335 333 333 331 331 330 331 335 336 337 338 338 337 337 338 339 340 339 339 339 339 336 338 338 337 336 336 335 339 335 335 335 338 336 334 332 330 329 329 331 329 332 331 330 326 323 319 318 320 323 327 324 322 322 322 321 322 320 319 318 317 319
334 332 334 331 331 331 329 331 336 335 335 337 337 337 338 337 337 339 340 340 340 341 337 336 338 336 337 337 336 338 337 338 337 336 336 336 335 336 329 329 329 328 326 328 328 325 325 323 318 319 322 321 317 319 322 320 320 319 318 319 319 317 317
331 331 328 328 328 330 328 333 335 335 336 336 337 338 338 336 338 337 338 342 342 341 337 337 338 336 337 337 338 339 337 338 335 335 335 336 336 335 335 332 328 327 327 325 325 326 325 321 319 320 321 321 319 317 319 320 319 318 318 319 317 316 318
331 329 327 325 327 328 332 333 334 335 335 336 337 337 338 337 338 337 338 338 338 338 337 340 339 338 338 338 337 337 335 336 337 335 336 335 335 333 335 334 331 331 331 329 326 327 327 326 326 320 319 320 318 318 317 319 318 317 316 315 314 316 315
332 331 328 328 329 332 333 333 334 333 334 334 335 335 337 337 337 337 337 336 336 338 337 339 340 338 338 337 337 337 337 336 337 334 335 337 336 334 334 334 333 327 329 330 331 329 328 329 326 321 319 320 316 313 314 314 312 313 314 313 314 314 314
335 333 329 330 333 332 334 334 334 333 333 334 334 334 336 337 336 337 337 336 336 336 336 338 339 339 339 338 337 336 336 336 336 335 333 336 336 336 337 334 332 331 334 332 331 330 329 327 324 321 320 319 316 311 310 310 311 309 310 312 314 314 313
336 332 331 331 333 334 335 335 334 332 333 333 332 333 335 336 336 337 337 337 336 336 336 337 338 340 339 337 337 338 335 336 335 337 335 334 333 333 333 333 332 329 331 330 331 329 329 328 325 324 320 316 315 311 308 309 308 309 309 312 313 313 315
334 333 332 332 334 335 335 334 334 334 333 333 335 335 334 335 335 335 336 335 335 336 336 336 337 337 339 337 335 336 336 334 334 335 336 333 333 334 333 335 333 331 331 330 330 330 328 329 328 326 322 318 312 307 309 306 308 308 311 309 312 313 315
333 332 332 332 336 337 336 335 334 334 335 335 334 335 335 335 335 335 334 333 334 335 336 335 335 335 337 337 335 335 335 335 335 334 334 333 334 333 334 333 333 332 332 333 329 330 329 329 329 327 322 319 316 310 307 305 309 307 309 310 308 311 315
335 334 333 333 335 336 335 335 335 334 334 335 334 335 335 335 335 333 333 333 335 334 335 335 333 334 336 336 336 336 335 337 335 334 334 334 334 337 334 333 333 331 333 332 330 332 330 330 329 325 323 320 318 313 311 308 309 310 309 312 312 310 314
336 334 332 332 335 333 333 334 334 334 334 334 334 334 334 332 332 332 332 331 332 332 333 333 333 333 333 334 335 335 334 335 334 333 335 335 333 335 334 334 333 333 333 332 330 330 331 329 327 325 323 322 319 323 314 313 309 311 314 312 313 313 313
334 330 331 330 331 331 331 333 333 333 332 331 331 331 329 329 329 329 331 330 330 332 331 332 333 332 333 333 335 334 333 335 333 331 334 334 333 333 332 331 332 332 332 330 330 330 330 331 328 324 323 322 318 319 316 315 312 311 316 315 315 313 314
334 333 331 329 329 330 332 331 331 332 331 331 331 330 330 330 330 331 331 330 330 331 331 331 332 332 332 332 336 335 335 334 330 331 332 333 334 333 333 332 329 331 332 330 330 331 327 327 327 324 323 320 318 318 316 317 312 313 317 320 318 314 315
333 330 331 329 331 330 330 331 333 332 331 331 331 329 330 330 330 330 329 328 329 328 329 329 330 331 330 333 333 333 334 331 329 328 331 329 329 332 333 330 329 331 330 330 328 324 323 324 323 321 319 319 317 316 318 315 314 314 314 319 317 317 315
331 332 328 330 330 330 331 332 332 331 330 330 330 329 329 330 329 328 328 327 327 328 328 328 330 329 330 333 332 334 334 330 329 327 328 328 327 331 332 330 329 329 330 330 329 326 325 323 321 319 319 317 316 316 317 316 316 314 315 315 319 316 316
329 332 329 329 330 331 331 332 332 331 330 329 328 329 330 328 327 328 327 326 326 327 327 328 329 329 328 330 332 329 331 329 328 327 327 326 325 327 331 329 329 330 331 329 328 325 323 323 321 319 318 319 317 314 320 320 319 317 316 314 317 316 316
330 329 329 329 331 331 331 331 331 328 328 327 328 329 327 328 326 327 328 325 325 326 327 328 328 328 330 330 329 328 329 327 327 327 326 325 327 325 328 329 329 330 331 329 330 324 322 323 320 320 318 318 317 316 319 318 319 318 316 315 315 316 317
332 329 329 330 331 331 330 330 330 331 328 327 329 328 327 327 325 325 325 325 325 325 325 326 326 327 327 328 329 329 327 326 326 325 325 324 324 325 325 326 328 331 332 331 329 325 324 323 320 320 319 318 317 318 320 318 319 319 316 315 317 313 318
333 331 330 330 331 330 330 330 329 328 328 329 328 327 326 326 326 326 327 326 324 323 324 324 325 325 326 326 326 325 326 325 325 325 325 323 323 324 324 324 325 326 330 330 329 326 325 324 323 322 321 321 318 319 318 318 317 317 317 317 316 317 315
333 332 329 330 329 329 327 329 327 330 329 328 327 325 325 325 326 327 328 326 324 324 323 323 323 324 325 325 325 325 324 325 324 324 325 323 323 323 324 325 324 325 325 326 329 329 331 324 323 323 323 323 321 321 318 319 319 317 316 317 316 317 316
332 332 328 328 327 326 327 326 330 330 330 329 327 326 326 326 325 325 325 325 323 323 323 321 314 314 321 321 323 323 324 323 324 323 323 323 324 323 324 325 324 327 325 317 310 314 317 318 330 325 324 324 323 322 322 320 318 317 318 317 316 318 316
328 330 330 328 326 327 326 328 329 329 329 327 325 325 324 323 322 322 321 322 323 325 321 317 302 296 300 314 323 321 324 324 323 323 323 323 323 324 324 324 328 316 314 312 309 304 304 305 307 319 326 326 324 323 321 321 318 318 318 316 316 316 315
327 327 329 329 328 327 327 328 328 327 327 326 324 323 322 320 320 320 321 322 324 322 318 307 294 292 294 295 314 327 322 322 323 322 323 323 322 323 324 323 326 322 322 318 322 301 301 301 300 299 299 301 307 328 326 321 319 319 316 316 316 316 315
325 325 326 326 326 326 326 327 324 324 324 324 323 323 321 320 320 321 323 325 322 319 313 295 291 293 293 292 296 318 324 323 322 321 321 320 322 322 322 323 323 322 322 328 321 321 314 303 301 300 299 298 297 296 301 317 321 320 320 318 316 316 317
320 320 321 322 323 322 322 323 323 324 325 325 324 321 322 323 323 325 324 320 318 316 312 292 292 292 292 292 289 301 321 323 321 320 320 319 319 320 321 321 322 323 319 320 322 324 322 323 301 292 297 299 300 299 298 298 300 316 319 320 321 317 317
314 314 316 318 319 319 320 319 321 322 324 324 324 323 323 323 322 321 318 317 314 311 307 295 292 292 292 292 291 297 321 322 321 321 320 320 321 323 323 323 322 322 323 323 323 326 321 322 326 323 326 324 321 318 300 297 296 294 304 318 320 319 323
312 312 311 312 314 315 315 315 315 317 320 323 324 321 320 318 316 315 314 312 310 307 303 291 291 291 291 292 290 297 325 323 320 321 322 322 322 323 323 323 323 322 323 323 315 316 321 322 323 324 324 324 322 321 322 324 327 325 324 324 322 321 321
310 310 309 309 308 309 310 310 311 312 314 315 317 319 320 318 316 314 312 310 308 306 303 291 291 291 291 291 292 320 323 322 321 321 321 322 321 322 322 323 322 321 323 320 301 293 298 317 321 321 321 322 322 323 324 318 317 320 326 326 324 324 324
307 307 308 308 307 308 307 307 309 311 311 312 312 313 313 315 314 313 311 310 308 306 302 294 290 291 292 290 300 320 322 321 322 322 323 323 323 323 326 326 327 325 326 313 293 291 292 300 322 320 319 319 320 322 322 324 312 305 306 304 300 296 294
307 307 307 306 306 307 308 309 309 311 310 309 309 308 308 308 309 311 311 309 308 305 302 295 291 291 292 291 297 317 320 320 321 322 323 323 324 324 316 308 319 324 318 307 291 292 291 307 322 322 322 321 320 319 320 323 326 323 308 306 304 300 297
307 306 306 306 307 307 308 308 307 307 307 308 307 307 305 305 305 306 307 307 308 307 305 299 291 291 291 292 299 310 316 318 319 320 320 321 322 321 313 304 299 302 303 297 290 291 291 300 317 320 322 323 321 322 323 325 323 323 321 322 324 323 317
303 303 303 304 305 306 307 306 307 307 307 306 306 308 307 307 306 305 306 307 307 308 305 299 294 291 291 292 291 305 314 312 312 314 315 315 316 318 316 307 299 291 290 290 290 290 291 291 305 311 313 315 317 319 314 314 317 320 322 321 321 322 322
302 302 303 303 303 304 304 304 306 307 307 306 307 307 307 306 305 306 305 306 305 304 303 304 297 290 291 291 291 295 311 308 306 306 307 309 311 311 314 314 306 291 289 290 290 290 291 290 291 304 309 310 313 304 301 310 311 305 315 319 320 320 321
303 303 304 305 304 304 304 305 306 306 306 306 306 305 305 306 306 305 305 305 306 305 301 301 303 292 290 291 291 291 303 303 299 303 304 305 306 308 308 310 308 295 290 291 290 290 290 291 290 300 306 297 293 293 304 305 308 309 310 311 315 317 318
303 304 303 304 304 304 304 305 306 307 306 306 306 306 306 307 306 306 306 306 306 306 304 301 296 298 290 290 290 291 290 296 291 306 305 304 304 305 306 308 305 293 291 291 291 290 290 289 291 300 294 292 292 290 294 307 307 307 306 306 307 310 313
302 303 304 304 303 303 304 304 304 305 306 306 306 305 304 305 305 306 306 304 305 305 306 302 296 295 295 290 290 289 289 288 289 299 300 301 301 303 303 304 299 291 291 291 291 291 290 290 294 292 290 290 290 292 303 306 305 306 304 305 306 307 309

ECMWFFLT1_sfc_thetae_048.txt.gz
Theta_e
330 333 335 337 338 338 337 338 341 340 339 340 340 339 339 340 340 340 339 339 338 337 337 338 338 335 336 335 335 338 337 337 334 330 330 328 327 327 332 332 332 332 330 330 324 320 317 315 317 322 321 322 319 320 319 317 317 319 319 319 321 324 324
333 334 335 336 335 334 334 334 337 338 337 336 337 338 338 340 339 338 339 338 339 337 336 336 337 335 337 335 336 334 333 332 332 332 330 330 329 328 329 329 330 329 328 329 328 326 319 316 315 318 317 319 319 320 320 319 317 318 320 321 318 318 321
332 333 334 333 333 333 332 332 334 335 336 338 339 338 337 339 339 339 339 338 338 338 336 335 335 336 337 336 336 335 334 334 333 330 330 333 332 333 331 331 328 327 325 325 325 323 323 321 316 317 317 314 313 316 320 318 319 318 315 314 314 315 317
332 332 331 330 331 331 330 330 332 335 337 337 341 338 339 337 339 339 339 339 339 340 337 336 335 335 337 337 337 336 333 334 334 335 334 334 333 332 331 331 327 328 325 323 322 322 322 319 318 318 319 317 314 313 317 319 315 315 313 317 313 313 314
332 331 330 329 330 330 330 330 332 335 336 338 339 340 339 339 339 339 340 339 339 338 338 340 337 337 336 337 338 337 336 337 336 335 335 333 333 332 333 332 328 328 328 327 327 326 324 322 320 317 317 317 315 314 315 317 316 313 312 311 311 312 312
332 331 331 330 330 330 329 330 331 332 335 335 336 337 338 339 339 339 338 337 337 338 337 337 338 337 335 334 336 336 336 335 336 336 334 333 333 331 332 332 329 328 328 329 329 328 328 328 328 317 317 317 312 311 312 314 311 312 312 310 310 309 309
332 331 330 330 331 330 331 332 333 334 333 334 335 336 338 337 338 341 340 339 339 338 338 340 340 338 337 335 334 335 334 334 334 335 335 335 335 333 333 331 331 328 329 330 330 330 328 324 322 319 316 316 312 309 310 309 309 306 307 309 310 310 309
332 331 331 332 333 331 331 331 332 335 335 335 335 337 337 338 338 338 340 339 339 338 338 338 340 340 339 338 335 336 334 336 334 335 334 335 335 334 333 332 330 330 331 332 330 328 329 327 325 324 318 311 308 306 305 306 305 306 305 307 309 309 310
332 331 330 331 333 333 331 333 334 334 336 336 336 335 337 337 337 337 337 338 338 337 337 336 338 337 338 335 336 334 333 334 334 334 333 334 333 333 333 333 330 329 331 330 331 329 328 330 331 328 323 315 307 302 305 302 302 303 307 305 308 312 312
329 328 328 328 329 330 331 331 330 333 335 336 336 336 335 337 337 336 335 335 337 337 337 337 337 336 335 334 334 334 333 333 333 333 333 333 333 334 332 332 331 332 330 331 330 331 331 330 330 327 322 319 312 305 302 300 304 301 305 307 305 310 312
329 330 329 329 331 330 331 330 331 334 335 336 335 335 336 336 337 336 336 334 336 337 337 336 334 335 336 335 333 333 332 333 332 333 332 333 332 332 332 332 332 330 330 333 333 331 331 329 326 326 322 320 319 309 307 302 304 305 304 306 308 308 311
332 332 332 331 332 331 331 332 333 337 336 335 333 334 335 334 335 335 336 333 334 335 335 335 336 334 334 334 334 334 334 334 333 332 333 331 332 332 331 331 330 330 333 331 329 328 330 330 328 326 323 323 322 316 310 309 302 308 308 306 307 311 312
332 333 330 330 330 331 331 333 333 334 334 333 333 333 333 333 333 333 334 333 331 333 333 332 333 333 334 333 334 333 334 333 331 331 332 333 332 333 330 329 329 330 331 330 329 328 330 328 328 325 323 322 322 328 315 312 305 307 310 311 308 310 313
332 331 331 330 330 330 331 332 333 334 333 333 333 332 332 330 329 330 330 331 330 332 332 333 334 335 333 333 334 333 332 332 330 329 330 330 332 332 331 330 329 330 331 329 327 328 330 327 326 325 324 320 322 321 313 314 307 308 313 320 308 309 313
331 331 330 330 329 330 332 332 333 332 331 331 330 328 328 328 329 329 328 329 332 329 331 330 332 334 333 332 334 334 333 333 328 328 329 328 331 329 332 328 328 328 330 328 329 327 327 325 325 321 320 321 317 318 318 315 309 308 310 314 310 310 311
331 331 330 329 329 328 331 331 331 331 330 330 330 329 329 330 330 329 330 330 328 329 328 329 331 331 332 332 331 332 333 330 328 328 328 327 326 328 328 328 327 329 331 328 328 325 324 323 323 319 319 318 314 314 313 315 312 310 310 311 315 310 309
331 330 329 327 327 329 330 331 331 330 329 329 329 331 331 328 329 330 329 329 328 329 329 330 329 328 328 329 330 332 331 329 330 330 328 327 325 327 328 328 327 329 329 327 326 325 325 323 321 319 318 318 317 313 315 319 314 313 312 312 311 310 310
331 329 327 327 330 330 330 330 330 329 331 329 328 330 328 329 329 327 330 325 326 328 330 327 328 329 332 331 330 329 329 328 329 329 329 328 328 325 329 327 328 328 329 327 326 326 323 320 320 319 316 314 311 313 321 316 316 315 313 312 312 313 312
331 328 327 329 330 330 331 331 330 331 328 327 328 330 327 328 325 325 325 325 324 327 328 326 326 327 327 330 331 330 329 327 327 326 326 327 326 326 327 328 330 328 326 325 327 326 324 320 319 319 315 314 312 311 316 315 317 315 314 313 312 311 313
330 329 329 329 330 329 328 329 329 327 327 328 328 328 326 327 326 325 324 326 324 324 326 325 327 325 325 327 328 326 329 328 328 328 326 324 324 325 325 327 326 329 327 326 326 327 327 323 320 322 317 320 315 312 312 316 314 314 315 314 312 311 312
328 330 330 329 328 328 328 328 329 328 329 329 327 326 323 326 326 326 329 329 329 325 320 317 317 321 324 328 325 328 327 328 324 326 325 325 326 324 326 326 326 325 327 328 327 328 328 325 324 322 325 319 321 315 312 313 314 314 314 313 312 312 313
328 328 329 328 327 327 327 328 328 327 328 328 328 329 327 325 327 326 329 328 321 319 315 310 306 306 316 316 329 324 327 326 326 323 325 324 326 323 323 322 320 321 323 320 312 311 311 317 325 322 323 324 321 318 314 318 315 316 314 314 313 314 313
327 327 327 326 326 326 326 326 326 326 327 325 325 325 326 326 324 326 327 323 320 317 313 309 300 295 297 310 318 321 326 325 325 323 323 324 321 324 324 320 319 317 313 312 307 302 300 302 308 315 316 319 322 321 320 318 317 314 315 314 314 314 312
325 325 324 323 325 325 325 326 326 327 327 326 326 325 326 325 326 325 323 321 318 313 308 300 294 292 293 295 312 319 324 324 325 323 325 323 324 323 324 323 318 318 318 318 311 301 301 297 297 298 299 303 310 318 321 320 318 319 316 315 315 313 312
324 323 324 323 323 325 326 326 325 325 325 325 324 324 323 322 323 322 320 318 314 311 304 295 292 293 293 293 296 309 320 325 325 324 323 322 321 323 324 323 323 323 321 321 319 315 309 300 300 298 297 297 298 299 306 316 315 314 316 314 314 315 313
322 322 323 325 325 325 324 323 324 324 324 324 322 321 321 323 321 320 317 314 311 307 303 293 292 292 293 292 292 301 315 320 325 322 322 323 321 322 320 321 322 321 319 323 321 318 318 313 297 293 295 298 298 298 298 299 305 317 317 313 313 314 315
317 319 320 321 321 321 321 322 323 323 322 321 319 316 315 315 314 314 313 309 306 302 299 293 291 292 292 292 291 296 316 318 321 323 321 322 324 321 321 323 322 322 320 316 310 311 322 317 314 315 319 320 319 312 297 296 297 300 308 315 314 312 316
312 313 313 314 315 315 315 316 317 318 319 318 317 315 312 311 310 310 309 307 303 302 297 291 291 291 291 292 292 298 318 321 323 320 324 323 321 322 324 323 321 319 313 308 301 297 309 320 319 321 321 321 319 319 320 319 312 308 308 313 314 315 316
309 310 310 310 309 309 310 311 313 314 314 314 315 315 314 312 310 309 308 306 303 301 298 291 291 291 292 291 294 315 320 322 321 322 321 322 321 321 323 324 322 314 309 302 295 293 296 308 320 318 319 318 319 322 321 319 310 310 315 319 319 318 315
307 306 307 307 306 307 306 307 308 311 309 309 309 309 309 311 310 309 308 306 303 300 298 294 291 292 292 291 297 311 318 320 320 324 322 323 318 311 314 320 317 311 304 299 292 292 294 305 320 319 319 317 318 318 320 321 306 302 302 303 302 302 301
305 306 306 305 305 305 305 306 306 307 307 306 306 306 306 306 307 308 307 306 304 302 300 296 291 291 292 292 296 307 312 316 321 321 321 322 313 305 301 304 308 303 300 295 290 291 294 305 313 313 314 315 317 318 314 314 319 319 310 309 307 304 301
304 304 304 304 306 306 305 305 306 306 306 306 305 306 306 305 305 306 306 306 306 303 300 296 292 291 291 292 297 307 311 307 313 315 317 318 310 305 299 296 296 295 295 291 290 290 291 300 305 306 306 309 310 312 306 306 308 310 312 314 317 320 316
303 303 302 303 304 305 306 306 305 305 306 307 307 306 306 305 305 305 305 304 303 304 302 298 294 291 291 292 293 305 305 303 303 305 306 308 311 307 304 299 295 290 290 290 289 289 289 292 300 303 305 305 306 306 302 303 305 306 305 306 308 312 315
302 304 304 304 304 305 305 305 306 306 306 306 306 305 304 305 305 305 305 305 303 302 303 301 296 290 292 292 292 297 302 299 299 303 305 304 306 309 307 301 298 292 290 290 290 289 289 289 292 300 303 303 304 298 297 302 303 300 303 304 304 306 309
304 304 304 305 305 304 305 306 306 307 306 305 305 305 304 304 304 304 305 306 302 299 300 300 298 292 291 291 291 293 298 298 296 303 304 303 302 303 304 305 299 292 291 291 291 290 290 289 287 298 301 297 293 293 298 300 302 303 303 303 302 301 303
303 305 304 304 304 304 305 305 306 307 306 306 305 305 305 305 304 303 303 304 301 300 299 298 295 296 291 291 291 291 291 294 292 301 301 300 299 300 303 301 300 294 292 292 291 291 291 289 291 297 294 293 292 290 291 299 301 302 302 302 302 301 301
302 302 303 303 303 303 304 304 303 305 307 306 306 305 305 306 305 305 303 303 303 302 300 299 295 294 294 290 291 291 290 290 290 296 299 301 304 303 300 299 297 292 292 292 291 291 290 291 292 291 289 289 289 290 295 298 299 300 299 300 300 299 299

ECMWFFLT1_sfc_thetae_051.txt.gz
Theta_e
326 326 328 329 331 330 332 331 331 332 333 333 335 335 333 333 332 334 335 334 332 333 334 332 332 332 331 331 331 332 332 330 328 326 324 324 321 321 325 325 325 324 324 320 320 317 314 312 312 317 317 317 318 316 317 318 320 320 320 321 322 321 319
329 331 331 331 330 332 331 331 332 332 332 333 335 335 334 336 334 335 336 334 333 333 335 333 331 331 329 329 330 331 330 329 329 327 326 323 323 322 323 324 323 322 322 322 322 319 313 312 310 311 309 313 315 314 314 316 317 318 319 320 322 321 320
328 330 332 331 331 331 329 330 331 332 332 332 332 333 333 335 334 334 335 334 332 332 332 331 331 331 330 330 330 329 328 327 328 328 326 325 325 325 326 324 322 320 321 320 319 318 317 316 312 311 309 309 308 312 313 313 315 316 316 319 321 321 319
327 329 329 328 329 329 327 328 328 329 330 331 330 331 332 333 332 334 333 333 332 332 331 329 329 331 330 331 331 330 328 327 326 326 327 326 326 326 325 324 323 321 319 317 317 318 317 314 314 312 312 311 309 309 312 314 312 311 312 314 316 315 315
328 329 328 327 328 327 326 326 327 328 330 331 331 331 330 332 331 332 332 334 333 331 330 330 331 332 332 331 330 329 329 328 328 329 328 326 327 325 324 324 323 324 322 321 320 320 318 317 316 314 312 311 311 310 314 313 312 310 310 311 313 313 313
329 329 328 328 328 327 326 325 326 326 328 329 330 330 330 332 332 332 333 331 330 329 329 331 332 334 333 331 330 329 330 330 330 330 328 327 328 326 325 323 324 323 322 323 323 322 320 319 318 315 315 312 308 309 310 311 309 309 308 310 311 311 310
329 328 326 327 327 327 327 326 326 327 329 329 329 329 331 332 333 333 332 330 330 329 328 328 331 333 332 333 332 332 332 332 331 330 329 328 328 327 326 324 323 323 323 324 324 324 322 320 316 316 314 312 310 309 309 310 309 305 305 308 309 309 309
326 325 327 327 326 326 326 327 328 329 330 329 330 331 331 330 332 332 332 330 330 330 330 329 330 331 331 331 332 332 331 330 331 330 329 328 327 327 326 325 324 323 324 324 325 325 325 322 320 317 313 307 306 306 306 307 305 304 303 304 307 307 307
325 326 326 326 326 326 327 327 328 330 331 330 331 331 331 331 331 331 331 331 331 331 330 328 329 331 332 330 330 330 330 332 330 329 329 329 328 328 327 325 324 324 325 326 326 324 324 323 322 320 313 309 305 302 303 301 301 301 305 302 306 307 308
326 326 326 326 326 327 328 328 328 331 331 331 331 331 331 331 331 330 330 329 329 330 330 329 329 330 329 330 330 328 329 331 330 329 328 328 328 328 326 324 324 324 324 325 326 325 325 324 323 322 316 310 308 303 299 297 298 298 302 306 303 305 307
327 326 327 327 327 327 327 327 327 329 330 331 331 331 330 330 330 332 329 329 329 329 329 330 329 329 327 328 330 329 329 330 329 328 328 328 327 328 326 325 325 323 324 324 324 324 325 323 322 322 320 315 307 304 301 298 298 300 300 305 305 304 306
326 325 326 327 327 326 326 326 326 328 330 330 330 329 329 328 328 328 328 327 327 328 328 328 328 329 329 328 328 328 327 328 328 326 327 328 328 327 326 325 324 323 324 324 324 323 324 323 322 321 320 318 313 305 303 301 298 301 304 304 305 308 307
325 325 325 326 325 325 326 327 327 329 329 329 329 328 328 327 326 326 326 327 327 327 328 327 327 328 328 327 327 327 327 328 328 326 326 327 330 327 326 325 324 323 323 323 322 321 322 323 323 322 321 318 316 312 305 303 300 301 303 305 306 306 307
326 327 326 326 325 325 326 327 328 329 328 328 328 328 327 326 325 325 326 326 326 325 325 324 325 326 326 327 327 328 328 328 328 326 327 326 328 328 327 326 324 324 323 322 322 322 323 323 323 323 321 317 316 315 306 302 301 302 305 307 307 306 306
327 326 324 324 325 325 326 327 328 328 327 327 328 327 326 325 323 323 323 324 324 325 325 325 324 325 325 327 327 329 328 327 326 326 325 326 326 328 326 325 325 324 325 323 322 323 322 322 322 321 320 319 316 313 309 306 303 302 304 305 305 307 306
327 325 324 323 324 326 327 327 328 327 326 326 326 325 324 323 322 322 322 323 323 324 324 324 324 323 322 325 327 327 326 324 323 324 324 324 324 325 325 325 324 325 326 322 321 321 321 321 321 320 318 317 315 310 310 307 305 303 304 303 305 306 306
326 325 324 324 324 324 326 326 326 326 325 325 324 323 323 323 323 321 323 322 323 323 323 324 324 323 324 324 325 325 324 323 324 324 324 323 323 323 323 323 322 323 322 322 322 320 320 320 320 319 317 316 315 311 310 308 307 306 305 304 305 307 307
326 325 324 324 324 324 325 325 324 324 324 324 323 323 323 323 323 322 321 321 322 322 322 324 323 322 322 324 324 324 323 323 323 324 324 323 325 323 322 322 322 322 322 320 320 319 319 318 319 319 316 315 312 310 313 309 308 309 308 306 306 307 308
325 325 324 323 324 325 326 325 324 324 324 323 322 324 322 322 322 321 320 319 320 320 322 322 321 321 324 324 323 323 323 321 322 321 322 322 323 323 322 322 322 322 322 321 321 321 319 318 317 316 316 314 310 309 310 309 310 310 309 307 307 307 305
325 325 324 323 325 325 325 325 324 324 324 323 322 321 321 320 320 321 319 318 318 318 318 319 319 320 322 323 323 322 321 319 319 319 319 320 322 324 323 323 322 323 322 321 320 320 320 319 318 314 314 313 309 307 310 310 311 310 308 308 306 306 306
325 324 324 325 326 326 325 325 324 322 322 322 321 321 320 320 319 318 315 314 312 310 309 308 309 312 317 320 320 319 320 319 318 319 318 318 320 323 324 324 324 323 322 322 321 320 321 319 318 314 318 317 312 306 307 308 309 308 308 307 307 305 306
325 324 325 325 325 325 324 324 322 322 322 321 321 320 320 319 318 316 314 310 309 307 305 303 301 301 309 315 318 317 318 318 318 316 316 317 318 321 322 322 322 323 324 324 317 317 316 319 318 313 314 316 314 305 303 306 308 308 307 307 307 307 306
325 325 325 324 324 324 323 322 321 321 321 321 320 319 319 319 317 313 310 308 305 304 301 301 299 297 299 310 313 318 317 316 316 314 315 316 316 317 317 317 320 322 318 312 307 302 302 307 312 314 314 315 315 310 309 307 307 308 309 307 306 307 306
322 324 324 324 324 323 322 321 321 320 319 319 319 318 318 316 314 311 308 305 302 300 298 297 294 293 294 299 309 311 315 314 315 314 315 315 314 313 312 313 315 318 315 313 305 299 298 299 300 302 305 309 314 316 313 311 311 310 308 309 307 306 305
320 321 323 323 323 322 321 321 320 319 318 318 317 317 316 314 312 309 305 302 300 298 296 295 292 293 293 293 301 310 312 314 314 313 314 315 315 313 312 311 311 313 311 310 307 303 301 297 296 296 297 299 300 303 306 310 309 309 308 306 306 308 307
317 317 318 320 321 321 321 320 319 317 316 316 316 314 312 310 307 304 301 299 297 296 295 293 292 293 293 292 294 304 311 312 314 313 312 314 313 314 314 314 314 315 314 314 313 311 308 303 297 296 298 298 298 299 299 301 305 309 309 307 305 306 308
316 317 317 317 318 319 319 317 316 315 313 312 310 309 307 306 304 302 300 298 296 295 294 293 292 293 293 293 293 302 312 313 315 314 313 315 315 315 316 314 311 308 305 303 302 303 310 309 306 305 306 307 307 302 299 298 300 303 306 309 308 306 307
312 313 314 313 312 313 314 314 313 312 311 309 307 306 305 303 302 301 300 298 297 295 294 292 292 292 293 293 296 304 313 315 314 313 314 316 317 316 313 311 307 303 300 298 297 297 306 310 311 313 311 313 311 312 311 310 308 306 306 310 308 308 308
307 308 308 309 309 309 309 309 309 309 309 308 307 306 305 304 302 301 300 299 297 295 294 291 291 292 293 294 298 307 309 311 313 312 309 309 310 312 309 306 301 298 296 295 295 295 300 313 315 314 313 313 314 313 311 306 301 302 308 309 308 309 309
305 304 304 304 304 305 306 305 306 307 306 306 306 305 305 304 303 301 301 300 298 295 294 292 291 292 294 295 301 306 306 310 312 305 302 300 300 301 302 300 298 296 294 294 293 294 297 303 307 307 308 309 311 307 304 304 302 299 298 298 299 301 301
303 304 304 303 303 303 304 304 304 305 304 304 303 304 304 304 304 303 302 300 298 296 295 294 292 292 293 295 300 303 304 307 308 303 300 298 297 296 299 302 299 295 294 293 291 292 294 300 301 303 304 304 307 304 301 301 303 303 299 298 298 299 300
303 303 303 303 303 303 303 304 304 304 304 304 303 303 303 303 302 302 302 302 301 297 296 295 292 292 293 294 299 300 301 303 305 305 303 300 298 297 296 296 297 296 294 292 290 291 292 297 299 301 301 302 302 301 299 298 299 299 299 299 299 302 301
303 303 303 303 304 304 304 304 304 304 303 303 303 303 303 302 301 301 301 300 300 298 295 294 293 292 293 293 295 298 299 301 302 303 305 303 300 298 297 296 295 290 290 290 289 289 289 292 297 299 300 300 297 297 297 297 298 298 298 298 299 300 300
302 303 303 303 304 304 304 304 304 303 303 303 303 302 302 302 301 299 299 298 297 297 297 295 294 292 292 292 293 295 297 298 300 300 299 299 302 300 298 296 295 292 290 290 290 289 289 288 289 297 297 298 298 295 294 295 297 297 297 298 298 298 298
303 303 303 303 303 303 304 305 304 304 303 303 302 302 302 301 301 299 298 298 297 297 298 298 296 293 292 292 292 294 296 296 297 299 297 297 298 299 298 297 295 293 291 291 291 291 290 289 287 293 294 292 290 291 294 294 295 296 297 298 296 296 297
302 303 303 303 302 302 303 304 305 305 304 304 303 303 303 302 301 299 298 297 297 297 296 297 294 295 292 292 291 291 291 294 293 300 299 297 297 298 298 298 297 294 292 291 291 291 291 291 291 292 291 290 288 286 289 293 293 296 295 296 298 297 297
300 301 301 302 301 301 300 300 300 302 304 304 303 303 302 302 302 300 297 297 297 297 297 296 294 292 293 291 291 290 290 290 291 298 301 301 301 299 297 297 295 291 292 291 291 291 291 292 292 291 291 290 289 288 293 294 295 296 294 294 295 295 296

ECMWFFLT1_sfc_thetae_054.txt.gz
Theta_e
326 326 326 327 329 329 330 330 331 331 332 332 332 330 331 331 330 330 330 329 329 329 331 331 331 330 330 330 330 328 328 328 327 325 323 324 322 320 322 320 320 322 321 315 316 316 314 312 312 313 313 317 321 318 318 320 322 323 322 322 321 318 317
326 324 326 328 329 330 329 329 330 330 331 332 333 330 331 331 331 330 329 329 329 330 332 332 331 331 330 329 328 327 327 327 327 326 324 323 321 320 321 318 320 320 318 317 319 315 309 309 307 308 308 311 314 315 317 318 321 322 322 321 320 318 317
325 325 326 327 328 328 328 328 329 329 329 329 332 332 330 331 331 330 329 330 330 331 331 331 331 329 328 329 329 328 328 326 326 326 325 323 322 322 323 321 318 317 316 316 314 314 314 311 309 308 307 309 309 310 314 315 317 319 320 320 318 317 316
325 325 325 326 326 327 327 327 328 328 329 329 331 331 330 332 330 331 330 331 331 332 331 330 329 328 328 328 329 328 328 327 326 325 323 323 322 323 322 322 321 320 318 315 316 315 314 309 307 306 307 309 309 309 310 313 315 318 319 318 317 316 314
326 327 326 325 327 326 326 326 328 328 328 329 329 329 330 332 330 331 331 329 329 328 327 328 329 329 328 328 328 327 327 327 327 326 324 323 322 323 322 321 321 321 319 318 318 318 316 312 309 307 307 307 308 308 311 309 311 316 317 317 316 315 313
325 326 326 326 327 326 324 325 326 327 327 326 326 327 328 330 330 330 329 327 326 327 328 326 327 329 328 328 328 326 326 325 326 325 324 324 324 323 322 320 321 321 320 319 320 319 317 314 311 308 308 308 306 306 308 307 305 307 312 314 314 314 312
325 326 326 328 328 329 328 327 327 327 327 327 327 328 329 329 329 329 331 330 328 328 328 328 329 329 329 328 327 326 326 326 326 325 325 324 324 323 322 321 321 320 320 321 320 319 317 314 310 309 308 308 307 307 307 306 305 306 305 308 310 311 310
326 326 326 326 327 328 328 328 327 327 328 329 329 329 328 329 328 329 329 328 327 327 328 328 329 329 328 328 328 327 327 327 327 326 324 325 325 323 321 322 322 321 320 321 321 320 320 317 314 312 309 306 304 305 305 306 303 304 305 303 307 308 308
324 324 324 325 327 328 328 327 326 327 329 329 329 330 329 330 330 329 328 327 327 327 327 327 328 328 328 327 327 328 327 330 327 326 325 325 325 324 323 321 321 321 321 322 323 322 321 320 318 315 311 309 305 302 302 303 300 299 304 303 303 305 306
323 322 324 325 325 326 326 326 325 326 327 327 330 330 329 330 330 329 328 327 327 327 327 327 328 328 327 327 328 327 328 328 328 327 326 326 325 324 323 322 321 321 322 323 323 323 322 320 320 316 313 310 308 304 300 300 300 297 301 302 301 303 306
323 323 324 326 325 324 324 325 325 326 327 326 328 330 329 329 329 332 328 327 327 327 327 327 329 328 327 326 327 328 328 329 328 327 326 326 325 325 323 322 321 320 322 323 323 322 322 321 319 316 312 311 310 307 304 302 301 298 300 301 301 301 304
324 324 325 324 324 324 324 325 326 327 328 329 327 329 328 328 328 327 327 327 328 327 326 326 327 327 326 326 326 326 326 328 327 326 326 326 326 325 323 322 321 321 321 322 322 321 322 321 320 318 313 311 309 308 306 304 300 298 302 302 302 304 305
326 325 324 324 323 324 326 326 325 324 325 328 329 329 328 328 327 326 326 327 327 327 326 326 327 326 325 326 326 326 326 327 326 325 325 325 328 326 324 322 321 321 320 319 320 321 321 321 320 318 315 311 308 306 303 303 301 300 302 303 303 304 304
325 325 324 325 325 326 326 326 326 327 327 326 328 328 327 327 327 326 326 326 326 325 325 325 325 325 325 325 325 326 326 327 325 323 325 324 325 325 324 323 322 321 320 320 320 320 321 321 320 319 318 314 309 306 303 301 300 298 302 304 304 303 304
324 324 324 324 323 324 326 326 327 327 327 328 329 328 327 326 326 326 325 325 325 325 324 325 324 325 325 324 324 325 325 325 324 323 323 324 324 326 324 323 322 321 322 322 320 320 320 321 321 319 318 316 314 310 305 303 299 299 299 302 303 303 303
324 324 323 323 323 324 325 326 328 328 328 328 328 328 326 325 326 325 325 324 324 323 323 323 323 324 324 324 324 324 325 324 323 322 323 324 325 325 323 323 322 322 323 320 319 320 319 320 321 320 319 317 315 313 308 304 301 300 300 301 302 302 302
324 324 322 323 323 324 325 326 328 328 328 327 327 326 325 324 324 324 323 323 323 323 322 322 322 323 324 324 324 324 324 324 323 323 324 324 325 324 323 322 322 322 322 321 319 319 318 318 319 319 317 315 315 312 309 304 304 302 301 301 301 303 302
324 324 323 323 323 324 324 326 327 327 327 326 326 324 323 323 322 322 322 322 322 323 322 322 322 321 322 324 325 324 324 323 323 323 324 324 326 324 323 322 322 322 321 320 318 318 318 317 318 317 316 313 313 310 309 306 303 304 303 302 303 303 303
323 324 323 323 323 324 325 325 326 324 324 324 323 323 323 322 322 321 321 322 322 322 322 322 321 320 321 323 324 324 323 322 322 323 322 322 323 322 323 323 322 321 321 321 320 318 316 315 315 314 314 314 310 309 307 305 304 304 304 303 303 302 302
324 324 323 323 323 324 324 325 325 324 324 323 322 322 322 321 321 321 319 319 320 321 322 321 320 319 321 322 322 322 321 321 321 321 322 321 322 322 322 322 321 321 321 321 319 318 316 313 314 313 314 313 308 308 308 305 305 305 303 302 302 304 304
323 323 323 323 323 323 323 323 323 324 324 323 323 322 321 320 316 313 311 311 310 311 310 308 309 314 321 321 320 320 320 319 319 318 319 320 321 321 321 321 321 321 322 321 320 317 317 317 313 312 311 312 308 306 307 305 305 304 303 302 303 302 301
321 321 321 322 323 323 322 322 323 322 322 321 323 322 318 314 311 309 307 306 305 304 304 302 301 301 308 318 318 319 318 318 316 316 315 317 319 320 320 320 320 320 322 322 316 317 317 317 316 312 311 311 307 306 306 306 306 305 303 303 302 303 301
320 321 321 322 323 323 323 322 322 321 321 322 320 317 314 311 309 307 305 303 302 301 300 300 300 298 298 308 314 317 316 315 314 313 314 314 315 319 320 319 319 322 319 316 312 309 308 309 311 315 313 312 307 304 304 305 304 305 305 304 304 303 302
321 320 322 322 323 323 322 321 320 320 320 318 316 314 311 308 306 305 304 302 300 299 298 297 295 293 295 303 311 312 312 312 312 313 313 314 316 317 314 315 315 319 317 315 308 302 303 303 304 306 307 310 310 306 305 305 305 304 304 305 303 304 303
319 320 322 322 322 322 321 320 319 318 317 315 313 310 308 305 304 302 301 300 298 297 296 295 292 293 294 296 304 310 311 312 312 312 313 313 314 315 314 312 311 312 311 308 306 304 303 301 300 300 301 300 300 301 303 308 307 306 306 306 304 304 303
319 318 319 321 320 319 319 318 317 315 314 312 309 306 304 302 301 300 300 298 297 297 296 294 293 294 295 296 300 308 311 311 311 309 310 312 312 312 310 310 307 306 306 311 310 305 302 301 299 298 299 301 300 297 295 295 299 306 306 305 306 305 304
316 316 316 317 317 318 316 315 314 313 311 308 305 302 301 300 300 299 298 297 296 296 295 294 293 294 295 297 300 306 313 313 313 313 312 312 312 311 309 307 305 301 299 300 300 301 306 302 302 305 309 309 310 307 303 301 300 300 304 306 303 303 304
311 312 312 312 312 311 311 310 310 309 306 304 302 301 300 299 299 299 298 297 296 295 295 293 293 294 295 297 300 304 311 310 308 307 307 307 306 305 302 300 298 297 298 299 299 299 306 306 309 311 311 310 307 305 304 304 304 305 306 308 308 307 305
307 308 309 309 308 307 307 306 305 305 304 303 302 301 300 300 298 298 298 297 296 295 295 292 293 294 296 299 302 308 306 304 302 300 300 300 299 298 298 296 295 295 295 296 296 295 302 310 312 311 309 306 304 301 300 302 297 297 301 303 304 304 303
303 304 305 306 305 305 304 304 304 305 303 302 302 301 301 300 299 298 297 296 295 294 294 293 293 294 296 299 302 305 302 300 298 297 297 297 298 298 297 296 295 295 294 294 294 293 296 301 305 307 307 305 302 299 297 299 298 296 295 294 295 295 296
302 303 303 303 303 303 303 303 303 303 303 302 301 301 301 300 299 298 297 296 296 295 294 294 292 294 295 297 302 303 301 299 297 297 296 296 296 296 299 302 300 295 294 293 291 292 294 299 299 300 300 299 297 295 295 297 299 298 296 296 296 296 296
303 302 302 302 303 302 302 302 302 303 302 302 301 301 300 298 298 298 297 298 299 296 295 295 293 292 294 296 302 305 304 301 299 298 297 296 296 295 295 296 296 295 294 292 290 291 292 297 298 298 296 294 294 294 295 295 296 295 296 297 298 299 298
302 302 302 303 303 303 303 303 302 302 302 301 300 299 298 297 296 296 297 297 297 296 295 295 294 292 293 294 298 305 305 303 302 301 301 299 297 296 296 295 295 290 290 290 290 290 290 293 298 297 295 294 293 293 295 294 296 295 295 296 296 296 296
301 302 302 302 303 303 303 303 302 302 301 301 299 298 297 297 297 297 297 298 298 298 298 296 294 292 293 293 294 297 301 301 301 301 299 298 298 297 297 296 295 292 290 290 290 290 290 290 293 297 296 295 296 295 294 293 294 296 296 296 296 296 296
301 301 301 301 301 301 303 304 303 302 301 300 299 298 297 297 296 296 296 297 297 297 298 298 296 293 292 292 293 295 298 299 299 300 298 298 297 297 297 297 295 292 290 290 290 290 290 290 291 296 293 290 287 288 294 294 294 295 296 296 297 297 297
299 300 300 300 300 299 300 302 304 303 302 301 299 298 297 297 297 296 296 297 297 297 297 297 294 295 292 292 291 292 293 296 295 300 298 297 297 296 297 296 296 292 290 290 291 291 291 291 293 292 289 288 286 286 291 293 293 295 295 295 295 296 296
298 298 298 298 299 298 299 299 300 302 303 302 300 298 298 298 297 296 296 296 297 297 297 297 294 293 293 291 291 291 290 291 294 298 299 298 298 297 296 295 293 290 291 291 291 291 291 292 292 290 290 289 288 289 293 295 296 296 294 295 296 296 296

ECMWFFLT1_sfc_thetae_057.txt.gz
Theta_e
326 325 325 325 326 328 329 330 329 330 331 331 330 331 331 331 328 327 328 327 328 330 331 330 328 328 328 328 327 326 326 326 325 323 321 321 320 319 320 320 319 318 320 313 316 316 316 314 313 314 312 318 320 320 320 320 322 322 321 319 319 316 314
326 322 324 325 326 327 328 329 329 329 329 329 330 328 329 329 330 328 328 327 327 328 331 330 329 329 328 328 326 325 325 325 325 324 323 321 321 319 320 314 317 317 315 314 316 313 310 311 310 311 309 311 315 314 315 318 321 322 322 320 319 316 315
324 322 323 324 325 327 327 327 327 328 328 327 329 329 329 329 328 328 328 327 327 328 330 330 329 328 328 329 327 326 326 325 325 325 324 323 322 321 322 318 315 314 312 312 312 311 311 308 312 312 308 312 313 312 312 316 319 319 320 319 318 316 313
324 322 322 324 326 327 326 326 326 327 328 327 328 328 328 328 328 328 327 328 328 329 329 328 328 328 328 328 328 327 326 326 325 324 323 323 323 321 320 320 319 318 317 314 314 314 312 306 308 306 306 312 314 311 310 313 317 319 319 317 316 315 313
324 323 322 324 326 326 325 325 326 327 326 326 328 328 327 328 328 327 327 327 328 328 329 329 329 328 328 328 327 326 326 326 325 325 323 322 321 321 320 319 319 320 317 316 317 316 314 310 313 308 308 306 310 308 309 308 314 317 316 317 316 315 313
324 325 324 324 324 325 325 324 324 324 324 324 326 328 327 328 328 327 327 326 326 327 328 328 328 328 327 327 327 326 326 325 325 324 323 322 322 321 322 319 319 319 319 316 318 316 313 311 311 307 306 308 305 305 306 309 308 310 312 315 314 314 312
325 325 325 325 324 325 323 324 325 325 324 325 326 327 329 329 327 327 328 327 327 326 327 327 328 327 327 327 326 326 325 326 325 324 324 323 322 322 322 320 319 319 316 318 318 316 312 310 309 309 307 305 306 306 304 304 306 312 310 310 311 311 311
325 326 326 325 324 324 323 323 324 326 326 327 327 326 328 327 327 327 327 327 326 326 326 325 326 326 326 326 326 325 325 325 325 325 324 322 322 322 320 322 320 319 318 318 319 317 314 313 311 309 309 305 303 303 304 302 304 311 310 305 308 309 309
326 326 325 324 325 326 325 325 324 325 324 323 326 326 325 326 326 326 327 327 326 326 326 325 325 325 325 324 324 324 325 326 324 324 324 323 323 323 322 321 321 320 319 319 319 318 315 313 313 311 311 309 305 301 301 300 302 306 304 307 303 307 308
326 325 324 323 324 325 326 326 325 326 325 324 326 326 325 325 325 326 326 326 325 325 325 325 326 326 326 325 325 325 325 325 325 324 324 323 323 323 322 321 322 320 319 320 320 319 317 314 313 312 312 310 309 305 300 299 299 301 301 303 306 306 307
325 325 324 323 323 324 324 324 324 325 325 325 326 326 326 326 327 328 326 325 324 324 325 326 327 327 326 326 326 326 326 326 325 323 324 324 323 323 322 320 319 319 319 320 320 319 318 315 314 312 310 310 310 307 304 301 301 299 300 301 302 304 303
325 324 324 324 323 324 324 324 323 325 325 325 325 325 325 325 326 326 326 325 324 324 325 326 327 326 326 325 325 325 325 325 325 323 324 324 323 323 321 320 318 318 319 320 320 320 319 317 315 313 310 310 309 309 306 304 300 302 301 304 303 302 304
325 324 324 323 323 323 323 324 323 323 324 325 325 325 325 325 325 325 326 326 325 324 324 324 325 326 325 325 325 324 324 325 325 324 323 323 324 323 321 320 319 318 318 319 319 319 319 319 317 314 311 310 308 307 307 305 303 304 301 303 304 301 303
325 324 324 324 323 323 324 324 324 324 325 324 324 325 325 326 326 326 326 326 325 323 323 323 324 324 324 323 324 324 324 325 325 323 323 322 323 323 322 321 319 318 318 319 319 319 319 319 318 316 312 310 308 306 306 304 303 300 299 301 302 302 302
326 325 323 323 323 323 323 323 324 324 324 325 325 325 325 326 325 324 325 325 325 325 324 324 323 323 323 323 323 324 324 324 323 321 320 322 322 324 322 321 320 319 319 321 319 319 319 319 318 317 314 310 309 305 305 305 302 300 298 300 301 300 301
326 325 323 323 322 323 323 324 324 324 324 324 326 326 326 326 325 324 324 325 325 324 324 323 323 322 322 323 322 322 323 323 322 321 321 322 323 322 321 321 321 320 320 318 317 318 318 319 319 318 316 312 309 307 304 304 301 299 298 298 300 300 301
325 324 322 322 322 322 323 324 325 325 325 326 326 326 326 326 325 325 324 323 323 323 323 323 323 323 323 323 322 322 322 322 322 322 322 323 323 323 323 321 321 320 319 319 317 316 316 317 318 318 316 315 315 311 306 303 303 302 300 300 300 301 301
323 323 322 322 321 321 322 323 325 325 325 325 325 323 323 325 324 324 323 323 323 322 322 323 323 322 322 322 323 322 322 322 322 322 322 323 326 323 322 322 322 320 319 319 317 316 316 315 317 317 317 318 317 314 311 306 303 302 301 300 301 300 300
322 322 322 321 321 321 321 322 322 324 325 324 322 321 323 323 323 324 323 323 323 323 322 322 322 321 321 321 322 322 322 322 322 322 322 322 324 323 323 322 322 320 320 320 319 317 316 315 315 316 316 317 317 314 311 308 305 302 302 301 301 300 298
322 322 322 322 322 322 322 321 322 323 323 323 322 321 321 320 318 321 322 322 322 322 321 320 320 319 320 321 322 321 321 321 321 321 321 322 323 323 323 323 321 320 320 320 320 318 316 314 315 315 316 314 314 314 311 308 305 302 301 301 299 300 300
320 320 321 322 322 322 322 322 322 321 322 321 320 320 320 319 319 319 317 319 318 319 319 317 316 318 320 321 320 320 320 320 319 319 320 320 321 321 321 322 322 321 321 321 321 319 317 316 314 314 314 314 311 310 312 310 303 302 300 300 300 299 299
318 319 322 322 321 322 322 321 321 321 320 320 320 320 319 318 313 311 310 311 310 311 313 310 308 312 318 318 319 320 319 319 319 318 318 318 318 319 319 319 319 319 321 322 317 316 316 316 316 314 311 312 311 309 308 306 304 302 299 299 298 299 298
319 318 320 320 321 322 321 321 321 320 320 321 320 319 317 314 312 309 307 305 305 306 304 303 304 302 306 317 317 319 318 317 317 317 316 315 315 316 317 315 316 321 319 318 313 308 307 309 313 318 315 313 311 310 309 306 303 302 301 300 299 300 298
316 318 319 320 321 321 321 320 320 319 319 319 317 315 313 310 308 307 306 304 302 302 300 300 296 294 296 302 314 314 315 315 314 315 315 315 315 315 311 311 311 318 317 317 312 306 305 305 305 303 308 311 310 310 307 305 304 303 302 301 299 300 300
310 317 318 320 321 321 319 319 318 318 318 316 313 311 310 308 305 304 302 301 300 299 298 297 293 295 298 301 308 313 314 314 312 312 313 314 314 314 312 310 308 310 309 308 307 304 302 296 295 295 295 294 294 294 300 306 305 302 302 302 300 301 300
307 312 317 319 321 319 319 319 318 317 317 315 309 308 306 304 302 301 300 299 298 298 296 294 294 295 298 300 302 307 311 310 310 308 307 308 311 311 310 307 305 302 303 312 309 303 303 304 302 301 302 300 298 297 295 295 298 304 305 304 303 300 299
304 306 313 317 317 317 318 318 317 315 311 308 306 304 302 301 300 299 298 298 297 297 297 295 295 297 298 298 300 305 310 310 309 308 308 308 309 307 306 305 303 301 299 300 300 302 303 305 307 307 305 303 302 300 298 297 298 299 302 305 305 304 305
303 304 305 312 314 315 317 316 313 309 306 305 303 301 300 299 298 298 297 297 297 296 296 294 295 297 298 299 300 302 306 305 303 301 300 300 300 300 300 299 298 297 297 298 300 300 304 307 307 305 302 300 299 299 298 298 299 302 305 307 307 306 304
302 303 303 305 310 311 313 310 306 304 303 301 301 300 299 299 297 296 296 296 296 295 295 293 296 297 298 298 299 303 301 300 299 298 297 296 296 296 296 296 296 295 296 296 297 299 303 308 306 303 300 298 297 296 297 299 294 295 299 301 302 301 300
302 302 302 302 303 305 305 303 302 302 300 300 299 299 298 297 297 296 296 295 295 295 295 294 295 296 296 296 298 300 299 298 297 296 296 296 297 298 297 296 294 294 294 295 295 297 300 303 305 303 299 296 295 295 295 298 296 294 294 294 293 293 293
302 302 302 301 301 302 302 302 301 302 300 299 298 298 298 297 297 296 296 295 296 296 295 295 294 295 295 296 299 300 298 297 295 294 293 294 294 295 298 300 298 293 293 293 292 293 296 302 302 299 296 294 293 292 293 295 297 297 295 295 294 294 294
300 302 302 302 302 301 301 301 301 301 300 299 298 298 298 297 296 296 296 297 300 297 296 296 294 294 295 296 299 300 299 298 296 295 294 294 294 294 294 295 296 295 293 292 291 292 293 296 296 295 294 293 292 291 292 292 294 296 296 297 297 298 298
300 300 302 302 302 302 302 300 299 299 298 298 297 297 297 297 296 296 297 297 297 296 295 295 294 293 295 296 298 302 301 299 297 296 296 296 295 295 294 294 294 290 290 290 290 291 292 293 294 293 293 292 292 292 293 294 295 295 296 296 295 296 296
299 300 301 302 302 302 302 300 299 298 297 297 297 297 297 296 296 296 296 297 297 297 297 295 294 292 294 294 296 299 302 300 298 297 297 297 296 296 295 295 294 292 290 290 291 291 292 292 294 295 294 293 293 294 293 295 296 297 296 296 296 296 296
299 300 300 301 301 301 302 302 300 299 298 297 297 296 296 296 296 296 296 296 296 296 298 297 296 293 292 293 294 295 300 300 300 299 298 297 297 297 296 296 294 292 291 291 291 291 291 292 292 295 291 289 288 290 295 296 296 297 297 296 296 295 295
296 298 299 300 300 300 301 301 301 300 299 298 297 297 297 297 296 296 296 296 296 296 296 295 293 294 291 291 292 292 293 296 294 300 298 297 297 296 297 296 296 293 291 291 291 291 292 292 293 290 288 288 289 291 294 295 296 296 296 296 296 295 295
296 296 297 298 299 298 299 300 300 300 299 298 297 296 296 296 296 295 295 294 295 295 295 295 293 292 292 290 290 290 290 291 294 298 299 297 297 296 296 295 294 291 291 291 291 291 290 291 292 290 290 291 292 294 297 296 296 295 294 294 294 294 294

ECMWFFLT1_sfc_thetae_060.txt.gz
Theta_e
325 323 326 328 329 331 330 329 329 329 331 332 331 330 330 330 329 329 328 329 329 329 330 328 328 328 329 329 329 328 328 328 327 325 324 324 322 322 323 321 321 319 323 320 322 318 316 314 316 319 317 322 325 326 326 326 326 325 324 323 322 320 320
325 324 326 327 327 329 328 327 327 328 329 330 331 330 329 330 330 328 328 328 328 329 330 329 328 329 328 328 327 326 326 327 327 327 325 323 323 322 320 318 318 320 320 319 321 319 318 315 315 317 317 318 321 320 321 323 325 325 325 324 323 320 320
324 323 325 326 326 326 326 326 326 327 327 328 329 329 329 329 329 329 328 327 327 328 330 329 328 328 328 328 328 327 327 326 327 326 325 325 324 323 323 320 318 317 319 318 318 317 316 318 315 316 318 318 317 318 318 321 323 324 324 323 323 320 318
323 323 323 323 325 325 325 326 325 327 327 327 328 328 328 328 328 329 328 328 328 329 329 330 328 328 329 328 328 328 327 327 326 325 325 325 324 323 323 322 321 320 319 318 317 318 318 314 315 316 314 318 319 316 316 317 322 323 323 322 321 319 318
323 323 322 322 324 324 325 325 327 327 326 326 326 327 327 328 327 328 328 328 328 328 328 329 329 328 329 329 328 327 327 327 327 326 325 324 323 323 323 323 322 322 321 320 320 320 318 316 318 315 314 313 315 311 312 316 320 322 321 321 320 319 317
324 324 324 323 325 325 326 326 325 325 326 325 324 326 326 327 327 326 327 327 327 327 328 329 329 329 328 328 328 327 327 326 326 326 324 324 324 323 323 322 323 322 322 321 321 320 318 317 317 314 311 314 313 309 311 315 317 316 320 320 319 318 316
324 324 324 325 325 326 327 326 326 325 325 325 325 325 327 327 327 327 327 327 327 327 328 328 329 329 327 327 328 327 326 327 327 326 326 325 324 325 325 322 321 322 322 320 321 319 316 316 314 315 312 309 311 309 307 312 310 318 316 317 318 317 316
324 324 324 325 325 326 326 326 326 326 326 325 325 325 328 328 327 327 327 327 327 327 328 328 328 326 327 327 327 327 327 327 326 326 325 324 324 323 323 324 322 322 321 320 321 319 317 318 317 315 314 310 307 309 309 306 310 316 317 311 315 316 316
324 325 325 325 325 326 326 325 325 326 326 326 326 326 327 328 327 326 327 327 327 327 327 327 326 326 327 326 326 326 326 327 326 325 325 325 324 324 324 324 323 322 322 321 321 320 317 318 318 316 317 315 311 306 306 308 308 312 312 314 310 314 314
323 323 324 325 326 327 327 326 325 326 326 326 326 326 327 328 327 327 327 327 327 326 326 326 327 326 326 327 326 326 325 326 326 326 325 324 324 324 324 323 324 323 322 322 321 320 317 317 317 317 318 317 315 310 305 306 307 309 312 312 313 312 313
324 324 325 326 326 326 326 326 325 325 325 325 326 326 327 326 326 328 326 326 326 326 325 325 327 326 326 326 326 326 326 326 325 325 325 324 323 324 324 323 324 323 322 321 321 321 317 316 316 316 317 318 317 313 309 308 308 308 310 308 312 312 309
325 326 326 326 326 326 326 325 324 325 325 325 326 325 325 326 326 326 326 325 325 325 325 325 326 326 326 325 325 325 325 326 325 324 324 324 324 324 323 323 323 323 321 322 321 321 319 316 316 315 315 315 315 316 311 310 307 309 310 309 309 308 309
326 326 326 325 324 325 326 325 324 324 324 325 325 326 325 325 325 325 325 325 325 324 324 325 325 326 326 325 325 324 324 325 324 324 324 324 324 324 324 322 322 322 321 322 321 321 320 317 316 315 315 314 314 313 313 310 309 310 308 310 310 308 308
325 325 324 324 324 325 326 325 324 324 324 324 325 325 325 325 325 325 325 325 324 324 324 324 325 326 325 325 325 325 325 325 325 324 324 323 324 324 324 323 322 322 321 322 322 321 321 319 317 316 315 314 313 312 312 311 310 308 305 307 309 307 306
326 327 325 324 324 324 324 324 323 323 324 324 325 325 325 325 325 325 325 325 324 324 324 324 324 325 324 324 324 325 325 326 325 324 324 323 323 324 324 323 322 321 321 322 321 321 321 320 318 315 314 313 312 311 312 311 310 310 308 305 306 305 306
326 326 325 324 323 324 323 323 323 323 324 324 325 325 325 325 325 325 325 325 325 324 324 323 324 324 324 324 324 323 325 325 325 324 323 324 324 324 323 323 322 321 320 321 321 322 322 321 320 317 315 313 312 312 309 312 309 307 307 305 306 304 306
322 322 324 325 324 323 323 323 323 323 324 324 324 324 325 326 325 324 324 324 324 324 324 323 323 324 324 324 323 322 323 325 325 325 325 325 325 324 323 322 322 321 321 320 320 320 321 322 321 319 317 315 314 312 310 311 310 311 307 306 304 305 305
322 321 321 322 323 323 322 323 323 324 324 324 324 324 324 325 324 324 323 323 324 324 324 323 323 323 324 324 324 323 323 324 325 325 325 325 326 325 324 323 323 322 321 321 319 320 319 320 320 320 319 317 315 314 312 311 309 308 307 306 306 305 305
317 322 321 320 321 322 322 322 323 324 325 324 324 324 324 324 324 324 324 324 324 324 324 323 323 323 323 323 324 324 324 324 324 325 324 325 326 326 325 325 324 323 322 322 320 320 319 320 320 319 319 319 318 316 314 312 310 307 307 307 307 305 304
310 315 321 321 320 321 321 321 323 323 324 324 323 322 323 322 321 322 321 322 323 323 323 323 323 323 323 323 323 323 323 323 322 323 323 324 325 325 326 325 324 323 323 323 322 321 320 319 319 319 319 319 319 317 315 314 310 308 306 306 305 307 306
309 312 317 321 321 321 321 321 322 322 323 323 323 322 322 322 321 320 320 321 321 322 322 322 322 322 323 323 323 323 323 322 322 322 322 323 324 324 324 324 324 324 324 324 324 322 321 320 319 319 319 319 319 318 316 314 311 309 307 306 306 304 304
308 311 315 319 320 320 321 321 321 321 322 322 322 322 322 321 320 319 319 319 319 320 320 320 321 321 322 322 322 322 322 322 322 322 321 322 323 323 324 324 324 324 324 323 317 317 318 318 319 318 317 318 318 318 317 316 313 310 308 308 307 305 304
306 308 312 317 320 321 321 320 321 321 321 322 321 321 320 320 319 318 317 315 315 316 318 317 315 312 313 321 322 322 322 321 321 321 321 320 320 321 322 321 321 321 318 317 315 309 303 305 309 315 313 317 317 315 316 315 313 311 311 308 308 305 304
305 306 308 313 318 321 321 320 320 320 320 320 320 319 319 317 315 316 316 314 312 312 311 310 304 302 305 309 319 321 320 320 320 320 320 320 319 318 318 318 319 321 320 319 309 298 299 297 295 297 299 303 306 314 314 313 312 310 309 309 308 304 305
304 305 306 308 314 320 321 320 319 319 319 318 318 318 317 316 314 312 312 311 311 309 307 302 295 296 299 302 309 319 319 319 318 319 319 319 319 317 316 314 314 315 315 315 310 305 301 298 295 295 295 295 294 292 295 309 314 310 308 308 305 304 304
303 303 304 306 309 316 320 320 319 318 318 318 315 315 315 312 310 308 308 307 306 305 304 296 294 294 295 297 302 311 317 317 317 315 315 316 316 316 314 311 308 308 313 315 311 308 307 304 299 297 298 298 297 295 293 292 295 311 311 309 308 306 304
302 302 303 304 307 312 318 318 318 317 316 313 312 311 309 308 306 305 305 305 303 301 301 297 294 294 295 296 298 306 313 312 311 310 311 313 314 314 313 311 307 305 306 308 307 309 309 308 307 306 304 303 302 300 297 296 296 299 303 308 308 307 308
301 302 302 302 303 303 307 315 315 313 312 310 308 306 306 303 302 302 302 301 301 300 299 296 295 294 295 296 299 303 309 306 304 302 302 304 306 307 307 307 306 305 305 305 307 308 309 307 305 303 301 300 301 302 302 301 300 304 308 310 310 310 308
301 301 301 301 300 300 301 301 304 305 305 302 302 301 301 301 300 299 299 300 300 299 298 295 294 294 296 297 299 306 304 302 301 300 299 299 299 299 300 301 302 302 303 305 302 300 303 306 302 300 299 299 299 300 300 297 294 295 301 303 304 304 303
300 300 300 299 299 298 298 299 299 300 301 301 300 299 298 298 298 298 298 299 300 299 299 296 295 295 296 296 300 303 301 300 299 298 298 299 299 299 298 298 301 303 304 304 298 296 297 300 302 299 298 298 298 298 299 300 295 294 293 293 293 293 294
300 300 300 299 298 298 299 299 298 299 298 297 297 297 298 297 298 298 298 298 300 299 297 295 294 295 295 296 300 302 300 298 297 296 295 296 297 298 301 300 300 302 304 303 295 296 296 300 300 298 297 297 297 297 298 300 301 299 295 295 294 294 294
300 300 300 299 299 298 298 298 298 298 298 298 297 298 298 297 297 297 298 298 300 298 298 296 293 293 294 296 300 300 299 297 296 295 295 295 296 296 295 296 297 298 301 300 295 296 295 299 299 298 298 297 297 297 297 299 300 300 301 301 300 300 299
300 300 300 300 300 299 299 299 298 298 298 298 297 297 297 297 296 296 297 297 297 297 296 296 295 293 294 295 296 300 300 298 296 296 296 296 296 296 295 295 294 290 291 291 291 292 293 294 298 298 298 297 297 296 297 299 300 300 299 299 299 299 299
298 300 300 300 300 300 300 299 299 298 298 298 298 297 297 297 296 296 296 296 296 296 297 295 294 292 293 294 295 297 299 298 297 297 297 296 296 295 295 295 295 292 291 291 291 291 291 292 294 298 298 298 298 297 297 299 299 297 299 299 299 299 299
297 299 300 300 300 299 300 300 299 299 298 298 297 296 296 296 296 295 295 296 295 295 296 296 295 292 292 293 293 295 299 299 299 298 297 297 297 296 296 295 295 292 291 291 291 291 291 292 293 297 294 291 291 293 299 300 300 299 299 298 298 297 297
294 296 297 300 299 299 299 299 299 299 298 298 297 296 296 296 295 295 295 295 295 295 295 295 293 293 291 291 291 292 293 296 294 300 298 297 296 296 296 295 294 292 291 291 291 291 292 292 293 293 291 291 292 292 295 298 298 298 297 296 296 295 296
292 293 294 296 298 298 298 298 298 298 298 297 296 295 295 295 294 294 293 294 294 294 295 295 294 292 292 290 291 291 291 291 293 297 298 297 297 296 295 294 292 290 291 291 290 291 291 293 293 291 292 292 293 294 297 296 296 296 294 294 295 294 294

ECMWFFLT1_sfc_thetae_063.txt.gz
Theta_e
331 332 332 332 334 336 336 335 336 336 336 336 335 333 332 332 333 333 334 334 334 332 333 331 331 334 334 334 334 334 336 334 333 331 329 329 326 327 331 330 330 332 332 330 329 324 321 318 320 326 328 331 333 333 332 332 331 331 332 332 331 331 332
334 332 333 333 333 335 335 336 335 335 335 337 337 335 333 332 333 332 333 333 334 334 332 332 332 332 333 333 332 332 333 334 334 334 333 329 329 329 329 328 329 329 330 331 330 329 323 320 319 320 322 327 329 332 333 335 333 332 332 332 331 331 332
331 331 332 332 332 334 333 334 334 334 333 335 335 334 333 332 333 332 332 331 332 333 332 332 332 331 332 333 332 332 333 333 335 336 333 332 331 333 331 329 327 328 328 327 327 326 327 326 321 319 322 321 321 326 330 329 331 332 331 332 332 330 331
334 332 331 330 331 332 331 332 333 332 333 333 333 332 333 332 333 334 332 331 333 332 331 332 330 331 333 333 334 333 332 332 333 334 333 333 333 333 333 331 329 328 326 324 324 325 325 324 323 322 322 322 323 324 327 329 329 330 331 332 331 331 331
333 331 330 330 330 330 331 331 332 333 333 333 334 332 332 332 332 333 332 331 331 331 331 332 331 331 333 333 332 331 330 331 334 333 332 331 331 333 333 333 331 331 331 328 329 328 327 326 325 323 321 322 323 325 327 328 329 329 330 330 330 331 331
331 332 332 331 332 330 330 330 331 331 332 331 331 330 331 331 331 331 331 330 329 329 330 331 331 332 332 332 331 329 330 330 331 331 329 331 331 331 331 333 332 332 331 332 332 330 330 330 327 325 323 324 321 323 324 326 325 328 329 329 330 330 330
328 329 329 329 330 330 330 331 331 331 330 331 329 329 332 332 331 331 331 331 330 329 329 331 331 332 331 331 331 331 329 330 332 332 332 333 332 333 335 332 333 331 331 333 333 331 330 328 325 324 323 323 324 322 323 324 326 323 326 328 328 329 329
328 327 328 329 329 329 330 329 331 332 331 332 331 332 332 332 331 330 330 330 329 330 330 331 332 332 332 331 331 330 330 332 331 332 332 334 333 333 334 334 333 333 333 332 332 331 330 329 328 327 324 319 319 322 320 322 323 323 324 327 328 328 330
328 327 327 328 329 329 329 330 329 331 331 333 332 330 331 331 330 329 329 329 330 330 330 330 331 331 330 331 332 331 330 331 330 330 330 334 335 334 333 334 333 332 334 333 332 332 330 331 330 331 327 324 319 317 320 320 320 321 326 324 326 329 329
328 327 326 328 329 330 330 329 329 330 330 330 330 331 330 330 331 329 329 330 330 330 330 331 331 331 331 331 331 330 329 330 330 330 331 334 333 335 334 333 332 333 333 334 333 332 332 332 331 330 328 326 325 320 316 317 319 320 324 325 321 325 328
329 329 330 330 330 329 330 330 329 328 328 330 330 330 331 330 331 330 329 330 329 329 331 331 331 331 331 332 332 331 332 332 331 331 331 331 334 334 333 332 332 332 334 334 333 334 332 331 330 329 329 329 328 323 321 318 319 324 323 326 325 323 325
329 329 330 330 331 329 329 329 328 328 328 329 330 329 330 329 330 331 330 329 330 330 331 330 330 330 331 331 331 330 329 330 329 330 331 332 332 332 331 330 331 331 333 333 333 333 331 329 329 329 328 329 329 328 325 322 318 325 326 323 324 326 324
329 329 329 329 329 328 328 328 328 328 329 329 328 329 330 329 329 328 330 330 330 330 329 330 330 330 330 330 331 329 330 330 330 330 330 332 331 331 329 328 329 331 331 332 332 331 329 328 329 328 328 329 328 329 327 323 321 321 323 324 325 325 324
326 330 330 330 329 328 328 328 328 329 330 329 328 328 329 329 328 329 329 329 330 330 328 328 329 331 329 329 330 328 328 328 327 329 329 327 328 329 329 329 329 331 333 332 332 332 330 327 327 328 328 327 327 328 326 324 321 320 320 322 323 322 322
319 324 329 330 328 327 328 328 328 329 329 330 329 328 328 329 329 329 328 329 330 330 330 330 329 330 328 327 327 327 327 328 329 328 327 326 329 329 329 329 330 332 333 331 333 330 330 327 326 325 326 326 325 325 326 323 322 320 319 317 317 318 319
316 318 321 326 328 328 328 329 329 328 328 328 329 329 329 329 329 329 329 329 329 328 328 329 329 327 326 326 325 327 328 328 327 327 327 328 329 329 330 330 331 331 331 331 331 331 331 329 327 326 325 325 325 325 324 324 323 320 320 317 319 316 317
314 315 317 320 324 328 329 328 328 328 328 329 330 330 330 330 330 329 329 329 329 329 329 330 330 328 326 326 327 327 328 328 328 329 329 330 330 330 331 331 332 332 330 330 329 330 330 330 328 327 326 326 325 324 325 324 323 321 321 318 315 315 316
311 312 313 317 320 324 327 328 328 327 327 328 329 329 329 330 329 328 326 327 328 328 329 329 329 328 328 328 327 328 327 328 329 331 333 333 332 332 331 331 332 331 330 330 329 328 329 329 328 328 327 326 325 325 324 322 321 322 322 320 318 316 317
311 311 312 314 317 321 324 326 327 327 327 327 328 329 329 329 327 328 327 326 327 328 329 329 329 330 329 329 328 327 328 329 329 332 333 333 333 333 332 332 333 331 330 330 330 329 330 330 329 329 328 327 326 324 323 322 321 320 320 321 321 316 315
310 311 311 312 315 319 321 325 326 326 327 327 327 327 328 328 328 329 328 327 326 327 329 329 328 327 329 330 329 330 330 329 331 332 332 333 333 333 333 333 332 331 330 330 330 330 331 331 330 329 329 329 327 325 323 321 320 319 319 319 320 321 317
309 310 311 312 314 317 320 323 325 326 327 326 326 327 327 328 328 328 329 328 328 329 330 330 329 328 329 329 330 330 331 331 331 331 332 332 331 333 332 331 331 331 331 331 330 330 331 331 331 329 329 331 330 328 325 324 321 320 319 319 320 316 315
308 309 309 310 311 312 315 320 323 325 325 326 327 327 328 329 329 328 328 329 328 329 329 329 329 330 329 329 330 330 331 331 331 331 331 330 331 331 329 329 330 331 331 328 321 321 320 320 324 324 328 331 330 329 328 327 325 322 323 322 321 319 315
307 308 308 309 309 310 311 315 320 323 324 325 326 327 328 328 329 328 327 327 327 327 328 329 323 315 317 328 330 330 331 331 331 330 329 328 329 329 329 328 330 325 321 318 311 307 306 309 315 324 329 330 330 330 329 327 325 324 321 318 318 318 315
306 306 307 308 308 308 309 313 317 321 323 324 325 326 326 327 328 328 328 327 325 325 326 324 309 303 305 311 327 331 331 331 331 331 330 330 329 329 330 330 331 327 323 317 314 303 304 304 306 307 311 316 322 331 330 327 326 325 322 321 321 319 316
304 304 305 305 305 306 307 309 314 319 322 323 324 325 325 326 327 327 328 327 326 325 323 312 302 302 302 303 312 330 332 332 331 331 330 331 331 331 331 331 331 329 328 327 326 315 308 302 301 300 299 300 302 303 306 325 327 325 324 323 322 321 320
303 304 304 304 304 304 304 305 305 309 316 323 324 323 324 325 326 327 327 326 326 324 321 304 299 300 300 300 302 317 330 332 332 331 331 332 331 329 330 330 328 327 327 318 321 321 318 311 298 296 296 296 295 296 298 297 299 324 328 324 323 322 322
303 303 303 304 303 302 302 302 303 304 306 312 321 322 323 323 324 323 324 324 324 323 321 302 296 297 298 298 299 309 330 330 330 330 330 330 331 330 330 329 326 325 325 323 323 320 318 316 314 313 315 317 314 306 297 295 296 296 310 324 322 321 322
303 302 303 303 302 301 300 301 301 301 303 302 301 306 316 319 318 317 317 320 321 319 316 297 294 295 295 296 296 305 328 327 326 326 326 328 330 329 327 327 324 322 325 324 322 318 318 317 317 316 315 314 314 312 313 315 317 318 317 320 321 321 318
303 303 302 302 301 301 300 300 299 300 300 300 301 301 301 303 304 306 307 309 312 314 310 293 293 293 293 294 297 321 324 323 322 320 319 320 322 324 325 325 324 322 322 323 309 302 309 317 316 314 312 311 310 308 305 298 295 301 315 319 318 315 313
303 303 302 301 301 300 300 300 300 300 299 299 299 299 299 300 302 303 304 306 306 306 306 297 292 293 293 294 305 321 320 318 317 316 314 314 315 316 318 319 320 321 321 320 304 298 300 305 315 313 311 310 310 309 307 303 296 293 293 293 293 293 293
303 303 302 301 301 301 302 301 301 300 299 298 297 298 298 299 299 300 301 301 301 301 302 298 292 294 294 295 307 319 318 316 314 312 310 310 312 313 309 305 313 318 319 317 296 296 297 309 315 313 311 309 309 308 307 307 305 302 294 294 294 294 294
303 302 302 302 302 302 301 301 302 301 300 299 298 298 298 297 297 298 299 299 300 298 299 298 292 291 294 295 307 316 315 314 310 309 309 307 308 309 308 305 299 307 314 306 294 295 296 308 316 314 312 311 308 308 308 309 308 308 309 309 309 308 305
302 302 302 302 302 302 303 302 302 301 300 300 299 299 299 298 296 296 298 298 298 298 298 298 294 291 292 293 295 311 313 311 308 307 307 307 307 307 308 307 302 293 295 294 293 293 295 302 313 314 314 311 309 306 309 310 309 309 308 307 307 307 307
302 303 303 302 302 302 302 302 302 301 301 300 300 299 298 297 296 296 297 297 297 297 297 297 295 291 292 292 292 298 309 309 308 307 306 305 307 307 306 305 303 293 292 292 292 292 294 297 301 313 314 312 310 307 304 306 305 301 308 307 306 305 305
302 302 302 303 302 301 301 302 302 301 301 300 299 298 298 297 296 296 296 296 296 296 297 296 296 292 291 292 292 294 301 301 303 305 304 304 303 303 302 301 300 293 290 291 291 291 292 293 295 308 304 295 293 295 307 306 307 307 306 305 304 303 304
301 301 301 302 302 301 301 300 300 300 299 299 299 298 297 296 296 295 295 296 296 296 297 297 293 294 291 291 292 292 293 297 295 303 300 299 299 298 298 297 295 292 291 291 291 292 293 293 297 298 292 293 293 294 299 306 304 304 303 302 302 301 301
300 301 301 301 301 301 301 300 300 299 299 298 297 297 297 296 295 294 294 294 295 295 296 296 294 292 292 290 291 291 291 291 293 299 299 298 299 298 297 296 293 290 291 291 291 291 291 293 294 291 292 292 293 296 302 302 301 300 298 298 299 298 298

ECMWFFLT1_sfc_thetae_069.txt.gz
Theta_e
338 337 338 339 343 342 341 341 343 340 339 342 342 342 340 340 340 342 339 336 335 335 338 340 340 338 336 339 341 338 339 337 335 333 332 333 329 330 336 336 334 337 334 333 331 325 323 319 323 330 330 331 332 333 332 331 332 333 332 334 331 332 334
339 338 339 340 339 341 340 340 342 341 341 342 343 342 342 341 341 340 340 338 336 336 338 336 335 338 340 340 339 338 334 335 335 337 335 334 331 329 328 332 332 331 333 333 332 331 327 325 323 325 328 330 332 333 332 332 332 334 332 331 331 332 333
341 341 338 338 340 341 339 339 339 340 340 340 342 342 342 341 341 340 340 339 340 340 337 336 338 338 338 339 338 338 336 336 339 337 336 333 334 333 330 329 325 331 331 329 329 329 329 326 322 321 324 325 323 328 333 332 332 333 333 332 332 331 332
339 338 338 337 339 340 338 338 338 338 339 339 340 341 342 342 342 341 340 339 339 339 337 336 337 336 335 339 334 336 338 338 338 335 335 336 335 331 331 328 328 328 327 327 326 327 327 327 325 323 325 325 325 327 330 333 332 332 333 333 331 331 333
336 335 335 335 337 337 337 337 338 338 338 338 339 340 340 341 342 342 341 339 338 337 336 336 336 336 336 335 336 339 339 339 337 336 335 334 332 330 329 330 331 329 330 331 330 330 328 329 326 325 325 326 326 325 329 332 333 332 332 332 332 331 332
334 334 333 334 335 335 336 336 336 334 334 335 336 337 339 341 342 341 340 338 337 338 337 337 337 337 336 337 339 338 338 336 334 335 332 333 332 331 331 334 333 331 330 333 332 331 333 331 329 323 326 328 324 326 328 332 329 332 333 332 332 331 331
333 334 334 333 333 334 335 335 335 336 334 336 336 337 339 341 340 341 341 340 339 338 338 338 337 337 337 337 336 337 336 337 338 335 334 333 333 332 335 333 330 331 332 332 334 332 331 329 326 325 326 324 325 325 327 327 330 328 330 331 331 331 331
330 331 332 333 333 333 334 334 334 334 335 336 336 338 338 341 341 340 340 340 340 339 338 339 337 336 338 338 337 336 336 334 334 333 334 335 333 332 332 333 331 331 330 334 333 333 332 332 330 329 328 322 321 324 324 327 328 328 329 330 331 330 331
329 330 329 332 334 335 334 334 334 335 335 336 337 338 339 337 338 340 340 339 339 339 339 339 338 337 337 336 336 337 332 334 332 332 334 334 334 334 333 333 331 332 332 332 334 333 335 334 332 331 329 326 321 317 321 322 323 324 329 325 328 330 330
327 328 329 330 332 335 335 335 335 335 336 336 336 337 337 337 335 333 333 340 339 335 336 340 336 337 336 334 333 334 333 335 332 335 334 332 335 335 334 332 330 333 333 333 335 333 334 335 333 333 330 328 326 321 318 319 321 322 324 327 324 327 330
326 327 328 329 331 332 335 335 335 335 335 336 337 337 337 337 337 335 333 333 335 334 334 334 336 336 335 335 333 332 333 335 333 333 332 334 334 335 335 332 333 333 337 338 332 332 334 334 334 332 331 330 332 323 322 318 319 325 324 327 327 325 328
324 325 326 327 329 331 333 334 334 335 336 336 336 335 337 337 336 337 336 335 333 334 336 336 336 334 334 333 334 334 334 335 334 332 332 330 331 335 333 330 332 332 338 337 336 332 333 333 335 333 335 332 329 331 327 324 321 324 327 325 326 328 327
323 323 324 324 325 328 330 332 333 335 335 335 336 336 336 335 334 335 336 335 336 337 336 336 336 334 334 333 333 334 333 333 333 331 332 332 333 330 331 330 333 332 337 337 336 334 332 330 332 332 332 332 332 331 335 330 324 324 331 330 326 327 329
322 322 322 323 323 325 326 326 328 331 332 334 334 334 334 334 334 335 334 333 334 334 333 333 334 335 333 332 333 333 332 331 330 329 329 330 334 331 331 330 331 332 337 337 335 335 335 332 333 331 331 330 331 334 331 328 324 323 329 331 331 326 328
320 320 321 321 320 321 322 323 325 326 328 330 332 333 332 334 334 334 333 333 332 332 333 333 332 334 334 333 331 331 330 328 327 329 332 331 333 332 331 330 331 331 336 335 332 335 334 332 333 330 332 330 329 331 331 326 324 324 324 327 328 328 327
319 319 318 319 319 319 320 322 323 323 324 327 329 331 332 333 333 333 333 333 333 333 333 334 335 334 333 331 331 331 329 328 328 330 331 332 331 332 331 330 332 333 334 333 332 335 334 333 332 331 331 329 332 330 330 329 328 325 324 323 327 327 326
318 317 317 317 317 318 320 321 322 322 322 323 324 328 330 332 332 332 333 332 333 331 333 334 333 332 331 330 332 331 329 329 329 328 328 329 330 330 329 330 330 331 334 330 330 331 330 331 332 333 329 331 328 332 330 332 330 328 325 323 323 322 325
316 317 316 316 316 317 318 318 319 320 321 321 323 324 326 330 331 332 331 332 331 332 333 333 331 330 332 333 333 332 331 331 331 330 329 331 329 328 328 329 330 333 329 327 328 329 330 331 329 327 330 330 329 330 330 331 329 328 328 325 323 323 325
315 316 315 316 316 316 316 316 316 318 319 321 323 324 324 327 330 330 332 330 333 332 333 333 330 330 331 333 334 333 333 333 332 332 331 332 330 328 329 330 333 330 326 327 327 329 332 330 330 331 332 331 329 329 329 330 329 327 325 324 325 320 323
314 314 314 314 315 314 315 315 314 314 316 317 318 320 323 325 328 330 331 331 330 332 333 332 330 330 329 332 335 334 334 333 332 331 331 332 332 330 330 331 328 329 329 329 331 330 329 331 331 332 333 331 329 331 328 327 328 328 327 324 324 323 320
313 314 314 314 313 313 313 313 313 313 314 314 314 314 315 319 325 328 330 329 330 330 329 332 330 331 330 333 333 333 333 333 332 330 331 332 332 333 329 328 330 330 330 331 330 328 332 333 334 334 333 331 329 327 324 325 328 327 325 325 325 321 319
313 313 313 312 312 312 312 312 312 311 311 311 311 311 312 314 317 323 327 329 330 329 330 329 328 328 331 330 330 331 332 330 331 330 330 331 332 332 331 331 330 332 333 331 323 325 327 326 333 330 329 329 328 328 325 325 327 327 329 328 326 324 320
311 312 311 311 311 311 311 311 310 309 309 309 309 308 309 310 312 315 318 321 324 326 327 326 317 312 313 324 329 330 329 329 329 329 329 329 329 329 331 331 333 327 322 322 318 313 313 313 318 329 330 329 328 327 326 329 327 328 324 323 323 321 320
310 310 310 310 310 310 310 310 309 308 308 308 307 307 306 306 308 310 312 315 318 320 313 300 294 294 302 307 321 329 328 329 330 330 330 329 328 329 330 330 331 330 325 322 323 308 307 307 305 306 311 314 314 326 327 327 327 329 324 323 325 324 323
308 308 309 309 309 309 309 308 308 307 307 307 306 306 304 304 304 306 307 310 313 313 304 297 292 293 293 294 299 317 328 328 330 330 330 331 331 330 328 328 329 331 330 331 331 327 315 306 303 303 305 306 305 299 304 326 330 327 328 325 327 327 326
308 308 308 308 308 308 308 307 306 306 306 306 306 304 303 303 303 303 303 303 306 311 303 294 292 292 292 292 293 300 317 327 331 331 329 326 327 326 326 328 329 328 329 322 327 330 329 325 309 303 304 304 304 303 299 299 304 334 331 328 328 327 326
307 307 308 308 308 307 307 306 306 306 306 306 305 304 303 302 302 301 301 301 302 306 302 295 292 292 292 292 292 295 312 319 325 329 329 327 326 327 327 326 326 324 327 327 328 328 329 328 327 322 322 325 327 315 298 296 296 300 317 331 329 326 326
306 306 306 306 307 306 306 306 306 306 306 305 304 303 303 302 302 301 301 300 301 301 303 293 292 291 291 292 291 295 312 317 322 326 327 330 330 329 329 328 327 325 325 326 327 324 327 327 328 326 326 327 328 328 329 327 328 329 328 330 332 330 329
306 306 306 305 305 305 305 305 305 305 306 306 306 305 304 303 302 301 301 300 299 298 301 294 292 291 291 291 291 306 314 318 321 324 326 327 327 329 327 325 325 325 326 326 317 305 312 326 328 325 327 327 327 328 313 298 293 297 315 331 334 333 331
305 305 305 304 304 304 304 304 304 305 304 305 304 304 304 304 303 302 301 300 298 298 299 296 292 291 291 291 294 306 312 318 321 322 324 325 328 329 329 328 327 327 326 325 314 303 303 307 326 324 326 326 328 323 316 309 296 293 293 294 295 295 294
305 305 305 304 303 304 304 304 304 304 303 303 303 303 303 304 305 304 302 300 300 298 298 297 293 292 291 291 293 304 311 315 319 323 323 324 325 326 327 322 326 325 323 323 308 303 301 309 323 325 324 325 321 321 317 315 313 305 294 294 294 294 295
305 304 304 304 304 303 303 303 304 304 303 303 303 303 303 303 303 303 303 302 302 299 298 297 294 292 291 291 293 302 311 314 314 317 321 323 323 324 321 319 316 319 320 317 303 301 303 311 325 326 320 321 321 320 318 317 315 313 313 313 313 312 309
304 304 304 304 304 304 304 304 303 303 303 302 302 302 302 302 301 301 302 302 302 301 299 298 297 292 292 292 291 298 310 308 308 310 315 321 321 322 323 321 309 293 299 305 302 300 301 301 314 322 323 322 321 320 320 318 317 317 317 317 317 317 316
304 304 304 304 304 304 304 303 303 302 302 302 302 301 301 301 301 300 300 301 300 300 300 299 297 293 293 292 292 293 301 301 302 309 311 311 316 317 317 313 309 293 292 296 297 298 299 299 296 314 322 324 325 320 314 318 317 309 318 317 316 315 315
304 304 304 304 303 303 303 303 303 302 302 301 301 301 301 300 300 299 299 300 299 299 299 298 298 295 293 292 292 292 294 296 296 304 307 305 304 303 302 300 298 293 291 292 292 292 293 296 299 318 313 300 300 302 321 317 318 318 316 315 314 313 313
303 303 303 303 303 302 302 302 302 302 301 301 300 300 300 300 299 298 298 298 298 298 298 297 295 295 294 292 292 292 291 292 292 299 298 298 299 299 298 297 296 292 290 291 291 292 294 295 299 301 294 296 297 299 307 318 316 316 314 314 313 312 311
303 303 302 302 301 301 301 299 299 300 300 300 299 299 299 299 298 298 297 297 297 297 297 296 295 293 294 292 292 291 291 291 291 295 296 295 295 296 296 296 294 291 291 291 291 291 291 292 295 292 294 295 297 303 316 314 314 315 311 310 310 308 308

ECMWFFLT1_sfc_thetae_072.txt.gz
Theta_e
337 337 340 341 343 343 344 343 343 345 345 342 342 340 341 340 340 340 340 338 337 337 336 335 336 336 336 336 337 336 336 335 332 329 328 330 327 327 332 331 330 331 328 330 329 323 322 318 320 327 329 329 328 329 328 327 327 328 329 329 331 331 330
339 339 339 339 341 342 342 343 342 343 345 343 342 342 341 340 340 339 340 338 336 335 336 335 336 337 336 335 334 334 334 334 333 331 330 329 330 328 330 329 328 328 328 329 329 326 319 318 319 321 322 327 329 329 329 328 328 329 329 329 329 330 330
336 336 338 338 339 341 340 340 342 341 340 341 340 340 338 337 340 340 340 338 337 337 336 336 335 335 336 334 334 334 334 333 334 333 331 331 332 331 331 330 327 327 325 323 325 324 324 325 321 320 322 321 319 324 330 329 329 330 329 329 328 329 329
333 333 333 333 335 336 336 336 339 337 336 337 340 342 335 334 336 337 337 335 337 336 336 336 335 335 336 336 334 334 334 332 333 333 332 332 332 331 331 330 328 327 324 322 323 324 323 321 320 319 322 324 322 321 327 330 328 329 330 328 327 327 329
331 331 331 332 333 333 333 334 338 338 337 337 337 339 340 339 337 338 335 335 336 336 335 336 336 336 336 336 335 333 332 332 333 332 332 331 332 331 330 330 329 329 327 326 327 326 324 323 322 321 321 323 324 324 328 329 330 328 328 327 328 327 328
329 329 329 330 332 332 332 332 333 333 335 335 336 336 337 339 338 336 335 334 333 334 334 334 332 333 336 336 335 334 333 333 332 332 330 331 331 330 330 331 330 329 328 330 329 326 326 327 323 320 321 323 319 321 325 327 326 328 329 328 327 327 328
327 327 328 328 330 331 332 332 332 332 333 334 334 335 337 338 338 338 336 334 334 334 334 332 333 334 335 335 335 334 332 333 333 332 332 332 332 332 332 330 329 329 329 329 329 328 327 326 323 322 321 322 323 321 323 324 327 325 326 329 328 327 328
325 325 326 328 329 330 332 332 333 334 333 334 334 334 337 338 339 340 335 334 334 332 333 332 333 332 331 332 334 333 332 332 332 331 329 330 330 331 332 331 330 330 330 331 330 328 329 327 325 325 322 318 318 319 321 324 324 324 324 327 329 328 327
325 325 326 326 327 328 329 331 332 333 334 334 335 335 336 336 338 338 337 336 334 333 333 332 331 331 330 329 330 331 330 333 332 330 329 330 329 331 332 332 331 330 331 331 331 330 331 330 329 328 324 322 316 315 319 319 323 323 327 326 327 328 327
323 323 323 325 326 326 327 329 331 334 334 334 334 335 335 336 336 336 336 336 333 333 333 332 332 331 330 331 332 332 331 331 330 330 330 329 330 332 331 331 330 331 330 331 330 332 330 330 329 329 328 324 321 319 316 315 318 319 323 327 323 325 328
322 322 322 321 322 323 325 326 327 327 328 330 332 334 334 334 335 336 335 336 335 333 332 332 332 331 331 328 329 330 331 329 329 331 331 332 331 330 329 329 329 330 331 330 330 331 329 329 328 328 328 328 327 321 319 316 316 322 322 326 326 324 326
320 320 321 321 320 320 321 322 322 323 325 326 326 328 329 332 333 333 334 334 334 333 334 333 333 333 332 329 330 330 330 331 331 330 330 330 330 329 329 329 330 330 331 331 330 331 331 329 328 329 329 329 326 325 321 321 316 323 329 323 324 326 325
319 319 319 319 319 318 318 319 320 321 322 324 325 326 326 328 330 331 332 332 332 331 329 330 331 331 330 330 331 328 329 331 331 329 329 329 329 329 329 328 328 330 331 331 331 332 332 331 329 328 329 328 327 326 325 323 320 318 323 324 324 324 326
318 318 318 318 318 317 317 318 319 320 321 322 322 323 323 325 326 328 330 330 329 330 330 329 329 328 327 328 330 330 329 329 327 326 328 328 329 328 329 329 328 329 331 329 329 331 332 332 331 330 330 328 326 326 325 322 320 320 327 331 327 324 325
316 317 317 317 316 316 316 316 317 317 317 318 320 321 322 324 325 325 327 329 329 329 329 329 329 328 327 328 327 328 329 328 327 328 328 327 328 329 327 326 327 328 330 328 328 329 331 331 330 330 328 328 326 323 327 326 323 320 321 325 324 329 324
315 315 315 315 314 314 315 315 316 315 315 315 317 317 319 320 321 324 325 327 330 327 329 329 329 329 328 327 326 326 328 329 327 327 328 328 329 328 327 326 327 327 328 327 327 328 330 331 331 330 328 329 327 326 327 327 324 319 318 320 325 323 323
315 314 314 313 313 313 314 314 314 314 313 314 313 315 316 315 316 317 320 324 327 328 328 326 327 328 327 327 328 327 329 330 329 329 328 327 328 327 327 326 326 328 328 326 326 327 328 329 331 330 329 328 328 327 326 325 324 322 321 320 322 322 324
313 313 313 313 313 312 312 312 313 312 311 311 311 311 311 312 313 314 316 320 325 327 328 327 326 327 328 328 328 327 326 327 328 327 326 327 327 327 327 326 327 329 327 326 325 326 327 327 329 330 328 329 327 327 326 326 326 327 323 319 320 323 324
311 311 311 311 312 311 311 311 310 311 310 309 309 309 308 308 310 311 314 317 320 324 324 324 319 316 320 326 328 327 326 326 328 327 326 326 327 327 327 326 326 327 327 325 324 326 327 326 328 329 328 328 328 328 326 327 327 326 325 322 321 320 322
310 310 310 311 311 311 310 310 309 308 309 308 308 307 307 306 307 308 310 312 317 311 306 304 303 303 304 309 319 327 326 326 326 328 327 328 327 326 326 326 326 327 327 326 325 326 326 327 327 327 327 327 328 326 325 325 326 325 323 322 322 321 319
310 310 310 310 310 310 309 309 308 308 308 307 307 306 305 305 305 306 306 307 312 308 304 301 300 299 299 301 305 314 325 326 327 326 326 326 327 326 325 325 325 327 327 325 325 326 326 325 326 326 329 329 329 326 324 324 323 323 321 321 321 319 319
310 309 309 309 309 309 308 308 308 307 307 307 307 306 305 304 304 304 303 304 305 307 302 300 299 297 296 297 299 306 313 322 325 324 325 325 326 326 326 324 326 328 328 326 320 320 322 322 326 325 327 328 327 324 323 323 322 321 320 320 319 318 318
308 308 308 307 308 308 308 308 307 307 306 306 306 306 305 304 304 303 302 302 303 305 300 299 298 296 295 295 297 300 305 313 321 326 325 325 326 326 327 325 326 324 322 321 317 313 311 313 316 325 327 326 327 325 322 321 321 322 320 319 319 318 316
307 306 307 307 307 306 306 307 307 306 307 306 306 305 305 303 303 303 302 301 301 303 301 298 294 292 292 293 295 296 299 307 315 321 325 324 324 324 326 328 328 326 322 319 317 308 307 307 307 308 313 317 322 326 323 320 321 323 321 319 320 319 317
306 306 306 305 305 305 305 305 305 305 306 306 306 305 304 303 303 302 302 301 301 301 300 297 293 293 293 292 294 295 297 303 312 317 322 324 325 324 324 327 327 327 325 324 325 320 311 306 304 304 306 308 308 310 314 322 322 322 321 320 320 319 319
305 305 305 305 305 305 304 304 304 304 304 305 306 305 304 304 303 303 302 301 300 300 300 296 293 293 293 292 292 293 296 302 310 315 318 321 324 325 325 324 325 326 328 322 324 326 324 319 306 303 304 305 304 304 304 305 311 324 324 322 320 320 319
304 304 304 304 304 304 303 303 304 304 304 304 303 303 303 304 303 302 302 301 300 300 299 296 293 293 293 292 291 292 297 304 311 315 318 320 322 323 323 322 322 323 325 326 326 327 326 325 319 313 312 315 316 309 301 302 302 308 316 323 322 321 322
303 304 303 303 303 303 303 303 303 303 303 303 302 302 302 302 303 303 302 301 300 300 300 295 293 293 292 292 292 294 300 306 312 315 318 321 322 323 324 324 324 324 324 325 326 324 326 326 325 321 319 319 321 318 316 315 317 320 323 325 325 324 325
303 303 303 302 302 302 302 302 302 303 303 302 302 302 302 302 301 301 301 301 300 299 299 295 293 293 292 292 292 297 298 304 310 314 317 320 322 324 325 324 323 323 323 324 317 307 311 323 325 323 321 321 321 322 313 304 299 310 320 325 326 327 326
302 302 302 302 301 301 302 301 302 303 302 302 301 301 301 301 301 300 300 299 298 298 298 296 293 292 292 292 294 296 299 303 307 310 312 313 318 323 324 324 323 322 323 323 312 304 304 307 322 322 321 321 321 318 306 305 296 294 296 304 309 308 304
301 301 301 301 300 300 301 302 302 302 301 301 300 301 301 300 300 300 299 298 298 297 297 296 293 292 292 292 294 295 297 298 300 303 307 311 313 320 324 321 318 322 323 323 308 301 300 306 319 321 322 321 319 310 309 309 308 301 294 295 297 297 295
301 300 300 301 301 299 299 300 301 302 301 301 301 301 301 300 299 299 299 299 300 297 296 296 294 292 292 292 294 295 296 296 296 299 305 304 305 306 308 305 302 296 297 297 293 297 297 305 319 321 323 322 317 311 311 310 309 308 309 308 308 310 309
301 300 299 300 300 299 299 299 299 300 300 300 300 301 300 300 299 299 299 299 298 298 297 296 295 292 292 292 293 295 296 294 294 297 299 299 301 301 301 301 299 293 290 291 293 294 297 298 315 321 320 317 316 315 313 312 312 313 312 312 312 313 312
301 301 300 300 301 300 299 298 298 299 299 300 300 300 300 299 299 299 299 299 298 298 298 296 295 292 292 292 292 293 294 294 294 296 295 295 296 296 296 297 296 293 290 291 291 291 295 297 299 312 317 317 318 315 310 314 311 308 314 313 313 313 313
302 302 301 300 300 299 299 299 298 298 298 299 298 298 298 299 298 298 298 298 298 297 298 297 295 294 292 292 292 292 293 294 293 296 294 294 293 293 294 294 294 293 291 291 291 292 292 293 297 310 309 304 303 300 314 314 313 314 313 312 312 310 310
302 302 301 300 299 299 299 298 298 298 297 297 297 296 297 298 297 296 297 297 297 297 297 297 295 294 293 292 292 292 291 292 291 296 295 293 293 293 294 294 294 293 291 291 291 291 292 293 296 295 293 295 297 300 306 313 310 313 311 310 309 309 309
302 302 301 300 299 299 298 298 297 297 297 296 295 295 295 296 296 295 295 295 296 296 297 297 295 293 293 292 292 291 291 291 291 293 295 294 294 293 292 292 292 291 291 291 291 292 291 292 293 292 293 294 295 298 308 309 310 307 301 301 301 301 301

ECMWFFLT1_sfc_thetae_075.txt.gz
Theta_e
332 332 333 334 334 335 335 335 335 333 333 333 333 334 334 335 336 336 336 335 334 334 334 333 332 332 332 333 333 332 332 330 328 326 325 326 324 324 327 326 327 328 326 326 324 320 316 315 318 323 326 327 326 326 326 327 327 325 328 330 331 332 330
331 331 333 334 333 335 334 333 334 334 332 331 331 332 333 333 335 336 335 335 334 334 335 334 333 333 332 332 332 329 329 329 329 329 327 325 326 324 326 326 327 327 326 325 325 324 317 315 315 319 321 323 324 324 325 326 326 325 328 330 331 331 330
328 329 330 330 331 332 332 332 333 333 333 334 333 333 332 332 333 335 334 334 334 334 333 334 332 331 332 332 332 331 331 329 328 329 328 327 327 327 328 327 325 326 325 323 323 323 321 319 315 317 320 319 319 322 325 325 326 325 327 329 329 329 329
325 325 325 326 328 328 329 329 330 331 332 332 333 333 333 330 331 332 331 331 333 333 333 333 332 330 331 332 333 332 332 330 329 329 328 328 327 327 327 328 327 326 324 321 321 323 322 318 317 317 319 321 320 320 322 326 325 326 328 328 328 328 328
324 323 323 324 325 326 327 327 328 329 329 331 331 330 331 331 331 331 331 331 330 330 331 332 331 332 331 331 332 331 331 331 330 329 328 328 327 327 326 328 329 328 327 325 325 325 323 321 320 318 318 320 321 322 324 325 327 326 326 327 328 328 328
321 323 323 323 324 324 325 326 327 327 328 329 329 330 330 331 333 332 331 329 328 329 328 327 328 329 328 329 329 329 330 329 329 329 329 328 327 326 327 328 328 327 327 328 327 326 326 325 322 319 320 321 318 318 322 324 323 325 325 326 327 327 328
318 320 321 322 323 323 324 324 325 327 328 328 329 329 331 332 332 332 332 331 331 329 329 328 328 329 329 328 328 328 328 329 331 330 329 327 327 328 328 326 327 326 326 328 328 327 325 324 322 321 319 318 320 319 321 321 326 323 325 326 326 326 327
319 319 319 320 319 319 321 323 324 324 324 325 327 327 330 330 332 332 332 332 331 330 329 329 329 329 329 328 328 328 328 329 328 328 329 329 329 328 327 328 328 327 326 327 329 328 327 326 324 323 320 316 315 317 317 320 322 323 323 325 327 326 326
319 318 317 317 317 318 319 320 319 320 322 323 324 325 326 327 328 331 331 331 329 328 328 327 327 327 327 327 326 326 326 328 327 327 327 328 327 328 328 329 328 327 328 328 328 329 328 327 326 325 323 320 316 312 315 316 319 320 325 323 325 327 326
315 314 314 314 314 316 316 316 317 318 319 320 321 323 323 324 325 327 329 330 331 328 327 326 326 326 327 328 326 325 325 328 327 326 327 327 327 327 326 327 327 327 327 329 329 329 329 328 327 327 326 322 321 316 313 313 315 317 322 325 322 325 326
313 313 314 314 314 313 313 314 315 315 315 317 318 319 320 321 322 325 325 327 330 330 327 327 327 328 328 327 327 326 326 327 327 327 326 327 327 327 326 326 327 327 328 329 329 328 328 327 327 327 326 325 323 318 317 314 314 319 320 324 325 324 325
313 313 313 313 312 312 312 313 313 313 314 315 315 315 316 317 317 318 320 322 327 329 329 326 326 327 327 327 327 327 327 327 326 325 326 326 326 327 326 325 326 326 328 328 328 328 328 328 327 328 327 326 324 321 319 318 314 318 323 320 324 326 326
313 312 312 311 310 310 311 312 313 312 312 313 313 314 314 313 314 315 316 319 321 325 328 328 326 324 325 324 324 324 326 326 325 325 325 327 328 327 326 326 327 327 328 327 326 326 327 328 328 327 327 326 325 324 323 319 317 316 322 323 325 325 326
311 311 310 311 310 309 310 311 312 311 311 311 311 311 310 310 311 312 314 316 319 316 313 316 324 326 325 325 325 325 325 325 325 325 326 326 327 326 326 325 325 326 328 327 326 327 328 328 327 327 327 326 324 325 323 320 318 317 320 323 324 326 328
310 310 309 309 309 309 308 309 310 310 308 309 309 308 307 308 309 309 312 313 313 306 306 306 307 308 308 311 318 325 325 325 324 324 325 326 326 326 325 325 325 327 329 328 327 328 328 328 327 325 326 326 324 324 325 322 320 318 318 320 322 327 327
309 308 308 308 308 307 307 308 309 308 307 307 307 307 306 306 307 306 308 308 308 305 303 305 304 304 304 305 308 312 319 324 325 324 323 324 325 326 326 326 325 326 328 327 327 327 327 327 328 327 327 327 325 325 324 324 321 319 318 318 320 322 325
307 307 307 307 307 307 306 307 308 307 306 306 305 305 305 305 306 304 306 305 306 301 301 301 300 299 300 300 301 304 308 314 323 325 325 325 325 326 326 326 326 327 327 326 325 325 327 328 328 328 328 327 326 324 324 323 324 321 320 318 320 322 323
306 306 306 307 307 307 306 307 308 307 306 305 305 304 304 305 304 303 303 303 305 300 300 299 298 298 298 298 298 300 302 307 313 321 325 325 326 326 326 325 326 326 325 323 323 324 325 325 327 327 326 326 324 325 324 324 324 322 319 319 319 323 323
305 305 306 307 307 307 307 307 307 307 306 305 304 304 303 303 304 303 302 302 304 300 299 299 298 297 297 297 297 298 300 303 308 313 320 325 325 325 324 324 325 326 325 323 323 323 324 324 325 325 325 325 325 325 323 322 322 322 322 319 319 319 321
305 304 305 305 306 306 306 307 307 306 306 305 304 303 303 302 303 303 302 302 303 301 299 299 298 297 296 296 296 296 297 299 303 308 313 322 326 325 325 324 324 325 325 325 324 324 324 324 324 324 325 325 326 323 322 322 322 322 321 320 319 320 320
304 304 304 304 304 305 305 305 306 306 307 305 304 303 302 302 302 302 302 302 302 302 299 298 297 296 296 296 295 296 296 298 300 303 308 316 323 325 325 324 324 324 324 325 325 324 325 324 325 324 325 325 325 323 321 321 321 321 321 320 319 317 316
303 303 303 303 303 303 303 304 304 305 305 305 306 305 304 303 302 301 301 301 301 301 299 298 297 296 295 295 295 295 296 296 298 300 306 312 319 324 324 324 324 323 325 324 318 318 320 320 324 322 323 324 324 324 322 321 321 320 319 319 318 317 316
302 302 302 302 302 302 302 303 303 302 303 303 304 304 304 304 303 301 300 300 301 301 298 297 298 296 296 295 295 295 296 296 297 299 304 311 316 321 325 325 325 322 319 317 314 310 308 310 314 321 323 324 324 322 320 319 319 320 319 318 317 316 315
301 301 301 301 301 301 302 302 302 302 302 302 302 303 302 302 302 301 300 299 299 300 298 297 294 293 293 294 295 295 295 296 298 300 305 310 314 317 321 324 323 324 320 318 317 309 306 306 306 308 311 316 320 324 321 320 319 319 318 318 318 317 316
300 300 300 300 300 300 300 301 301 302 301 301 301 302 300 300 300 300 300 299 298 299 298 296 292 293 293 293 295 296 297 299 301 303 306 311 315 317 319 321 322 323 323 324 322 321 313 305 303 304 305 305 307 310 312 319 319 319 318 317 317 317 317
299 299 299 299 299 299 299 299 299 300 300 301 301 300 300 299 299 300 299 298 297 298 297 295 292 293 293 292 293 295 297 298 301 304 307 311 314 316 318 320 321 322 323 320 322 323 322 319 307 303 304 304 303 302 303 304 309 321 321 319 318 318 318
298 298 298 298 297 298 298 298 298 299 299 300 299 299 299 298 298 298 299 298 297 297 296 295 292 292 292 292 292 294 297 297 298 300 302 306 308 309 312 315 319 320 321 321 322 322 323 322 321 316 311 312 315 313 302 303 304 306 313 322 320 319 320
298 297 296 296 296 296 296 297 297 298 298 299 298 298 298 297 297 297 297 297 297 296 296 294 292 292 292 292 292 295 297 297 297 298 301 303 303 304 304 304 304 310 319 322 322 321 322 322 321 320 317 316 316 318 317 313 314 316 318 322 322 323 322
297 296 295 295 294 294 295 295 296 297 298 298 299 298 297 297 296 296 297 296 296 294 295 293 292 292 292 292 293 296 296 296 296 297 298 298 300 300 302 302 300 298 298 307 311 304 309 320 322 320 317 316 317 319 317 314 310 312 320 323 323 323 324
296 295 295 294 293 293 294 294 295 297 296 296 296 296 296 297 298 296 296 296 295 294 294 294 292 292 292 292 293 295 295 295 296 296 296 297 298 298 299 300 299 296 296 297 295 290 293 303 320 320 319 317 318 318 317 313 300 300 303 306 308 308 309
294 295 294 294 293 293 294 294 295 296 295 295 295 296 296 296 297 297 296 295 296 294 294 294 293 292 292 292 293 293 294 294 295 295 295 296 296 296 298 301 301 295 294 294 291 290 291 301 316 320 319 317 317 315 314 314 310 306 299 298 300 303 305
294 294 294 294 294 293 293 294 294 295 295 295 295 295 297 295 295 295 296 297 299 295 294 295 293 292 292 292 293 293 293 293 294 294 294 294 295 295 295 297 298 295 294 293 290 291 290 298 313 316 318 318 316 315 315 313 311 309 308 309 309 309 308
295 294 294 293 294 293 293 293 293 293 293 293 293 293 294 294 293 294 295 296 296 296 295 294 294 292 292 292 292 293 293 292 292 293 293 293 292 293 294 294 295 292 290 290 291 290 290 290 300 314 317 317 316 314 315 311 311 311 310 311 312 312 312
295 294 294 294 294 294 293 292 292 292 292 292 291 292 292 293 293 292 293 294 295 295 295 294 293 292 292 292 292 292 292 292 292 293 293 292 292 291 291 292 293 292 290 290 290 291 291 291 292 301 312 317 316 313 309 311 309 307 312 310 310 310 310
297 297 295 295 293 293 293 293 292 291 291 291 291 290 290 292 291 291 292 292 293 293 295 296 293 292 291 291 291 292 291 292 291 293 292 291 291 290 291 291 292 291 290 290 290 290 290 291 292 295 295 290 298 298 311 311 311 311 311 310 309 308 308
296 297 295 295 293 292 292 292 292 292 291 290 290 290 290 290 290 290 290 291 291 292 292 293 293 292 291 291 291 291 291 291 290 293 292 290 290 290 291 291 292 291 290 290 290 290 290 291 292 292 290 292 295 297 304 311 308 310 308 308 307 304 303
295 294 294 294 293 292 292 292 291 291 290 290 289 289 289 289 289 289 289 289 290 291 291 292 292 292 291 290 290 290 290 290 290 291 292 291 291 291 290 290 290 289 290 290 290 290 290 290 291 290 291 292 295 301 309 307 305 303 300 300 300 300 300

ECMWFFLT1_sfc_thetae_078.txt.gz
Theta_e
327 327 329 331 333 334 329 328 329 329 329 331 330 329 328 329 330 331 333 333 333 331 332 330 328 329 330 330 330 330 329 328 327 326 325 325 323 323 325 325 325 326 324 323 321 318 316 313 317 322 324 325 326 326 327 327 328 327 327 330 331 331 330
326 326 327 329 329 330 330 332 331 330 330 330 329 328 329 330 331 330 331 333 333 331 331 330 330 330 330 330 330 329 329 328 327 327 325 324 324 323 323 323 324 324 324 324 323 321 317 315 315 318 320 322 323 325 325 326 327 327 326 328 330 331 330
323 324 325 324 326 327 326 326 328 330 332 331 331 330 328 330 330 330 330 331 332 331 331 330 330 329 330 330 330 329 330 328 328 327 326 325 325 325 326 324 321 322 322 323 321 320 320 319 316 317 319 319 319 323 325 324 325 326 325 327 328 330 330
321 322 321 321 322 322 322 323 324 326 328 329 331 331 330 330 329 330 330 330 331 332 331 330 330 329 329 328 329 329 329 329 328 327 326 326 326 326 325 325 323 322 321 320 321 322 321 319 318 317 318 320 321 320 322 325 325 326 325 326 328 329 330
319 319 319 317 318 319 320 321 323 324 324 326 327 327 328 331 331 330 331 330 329 328 328 328 329 330 330 331 330 329 329 329 329 328 327 326 325 324 324 326 325 326 325 324 324 324 322 321 320 319 318 320 320 321 323 323 326 325 325 325 328 329 330
316 316 316 315 317 317 319 319 318 318 320 322 322 323 325 328 329 328 330 331 329 328 328 328 328 329 328 328 328 328 328 328 328 327 327 326 325 324 324 325 325 325 325 327 326 324 323 324 322 319 320 321 318 318 321 322 321 325 327 326 327 328 329
315 314 313 313 314 315 316 316 316 316 317 318 319 320 322 324 325 327 329 330 330 330 329 329 329 329 329 328 328 327 327 328 328 327 326 326 327 327 326 324 324 325 326 327 327 326 323 322 319 319 319 319 319 318 318 320 322 321 324 326 327 328 328
314 313 313 314 312 312 313 314 314 315 314 315 316 317 319 319 320 322 323 325 327 329 329 328 328 327 327 327 327 327 328 329 329 328 327 327 327 326 325 325 325 326 326 326 326 326 326 324 322 321 319 317 316 317 316 319 319 321 322 324 326 326 327
313 312 312 312 312 312 311 311 312 312 313 313 314 315 315 315 315 317 319 320 323 322 322 324 326 326 324 323 323 325 325 328 327 327 327 327 326 326 326 326 326 325 326 326 326 326 326 326 325 324 322 321 317 313 315 315 316 318 324 322 324 326 326
310 309 309 309 309 311 311 311 310 310 311 311 311 312 311 311 312 314 315 318 312 311 312 313 314 320 324 324 324 325 326 327 327 326 327 326 326 326 325 325 325 325 326 327 327 326 326 326 327 326 324 322 321 317 314 313 315 316 321 324 320 323 326
309 309 308 308 308 309 310 309 309 308 308 309 309 308 308 308 309 312 313 309 307 308 308 308 309 310 312 317 321 325 326 327 326 327 327 327 327 327 326 326 326 325 327 327 327 327 326 326 326 326 325 324 323 319 318 314 314 318 319 323 324 323 325
308 308 308 308 307 308 308 307 306 306 306 307 306 306 306 307 307 308 310 306 306 306 305 306 306 305 306 308 310 314 318 321 323 325 326 326 326 326 325 325 325 325 326 325 325 326 327 327 326 326 325 325 324 323 320 317 314 317 321 319 323 326 325
308 308 307 306 306 307 307 306 305 305 304 305 305 306 305 305 305 307 307 304 302 303 302 303 303 302 303 303 304 306 308 310 312 316 323 326 327 326 326 325 325 325 326 326 325 326 326 327 326 326 326 325 325 324 322 319 316 316 321 322 323 325 326
306 307 306 306 305 306 306 306 305 304 304 303 304 304 304 304 304 305 306 304 301 300 300 300 300 300 300 299 300 301 303 306 307 310 314 320 325 326 326 325 326 327 327 326 325 326 326 327 327 326 326 325 324 324 322 320 317 316 319 321 323 324 327
306 306 305 305 305 305 305 305 304 304 303 303 303 303 303 303 303 303 304 303 300 300 300 299 299 299 298 298 298 299 300 300 302 305 309 313 318 324 326 325 325 326 327 325 325 325 326 326 326 325 325 325 324 324 324 321 318 317 317 318 320 324 324
305 305 305 305 305 306 306 305 305 303 303 302 303 303 302 302 302 302 302 303 301 300 299 299 298 298 297 297 297 297 298 298 299 301 304 308 312 316 321 324 325 325 326 325 325 325 326 326 325 324 323 324 324 324 325 324 321 318 318 318 320 321 322
303 303 304 305 305 306 306 306 306 303 303 302 302 302 302 301 301 301 301 301 301 299 298 298 298 297 296 296 296 296 297 297 298 299 300 304 308 311 316 320 323 325 326 325 325 325 326 326 325 325 324 324 324 324 324 324 323 321 320 318 319 321 321
302 302 302 303 303 304 305 305 307 306 304 303 302 302 302 302 300 300 300 300 299 298 297 297 297 296 296 296 296 296 296 297 297 297 298 300 306 308 312 317 321 324 325 324 324 324 325 325 326 325 325 325 324 325 324 324 323 323 320 319 319 321 322
301 301 302 301 302 303 303 303 303 304 305 304 303 302 301 301 301 299 300 300 299 298 297 297 296 295 295 295 295 296 296 296 297 298 298 299 301 304 309 315 320 323 324 323 323 323 323 323 324 324 324 324 324 324 324 323 323 322 321 320 320 318 320
300 300 300 301 301 302 301 301 302 302 303 302 302 302 301 300 300 299 300 300 299 298 297 296 295 295 295 295 295 295 296 296 297 298 299 300 301 303 307 313 318 322 323 324 323 323 323 323 322 323 323 324 325 324 323 323 323 322 321 320 320 319 320
300 301 300 300 300 300 301 301 301 301 302 300 300 300 300 300 299 299 299 299 299 298 296 295 295 295 294 295 295 295 296 297 297 299 300 301 303 305 309 313 317 320 323 324 324 324 324 323 323 322 323 323 323 322 321 322 321 322 321 319 319 317 318
300 300 300 299 299 299 300 300 300 300 300 300 301 299 299 299 298 298 297 297 297 297 296 295 295 294 294 294 295 295 296 297 298 299 301 303 305 307 311 314 316 319 321 320 316 317 318 319 323 321 322 322 322 322 321 320 320 320 319 318 317 318 317
298 298 298 298 298 298 299 299 299 298 299 299 298 299 298 298 298 297 296 296 297 297 295 295 297 295 295 294 294 295 296 297 298 298 300 301 304 305 306 306 308 309 309 313 313 309 306 307 312 321 323 323 322 322 321 320 319 319 318 317 317 316 315
296 296 296 297 297 298 298 298 298 298 298 298 298 298 297 297 297 297 296 296 296 296 295 295 294 292 292 293 295 295 296 296 297 298 299 299 300 301 301 303 304 306 306 307 309 309 306 304 304 304 309 314 318 322 321 319 319 319 318 317 317 317 315
294 294 295 295 296 296 297 297 297 297 297 297 297 297 296 296 296 296 296 295 295 295 295 295 292 292 292 292 294 296 296 296 297 297 298 298 299 298 299 300 301 303 302 303 304 308 310 308 303 302 302 302 303 306 310 318 319 318 318 317 316 317 317
293 293 293 294 295 295 295 295 296 296 296 297 296 296 295 295 295 296 295 294 294 294 294 294 292 292 292 292 292 294 296 296 296 296 296 297 297 297 298 299 299 300 299 302 303 301 299 299 303 304 302 303 303 302 300 302 307 320 321 319 318 318 318
293 292 293 293 294 294 294 294 294 295 296 295 295 295 294 294 295 295 295 294 294 294 294 294 292 292 292 291 291 293 295 295 296 296 296 296 296 296 297 297 297 297 296 297 298 297 295 296 298 304 312 310 311 310 303 300 300 302 311 320 320 318 319
292 292 292 292 292 292 293 293 293 294 294 294 293 293 293 293 294 294 294 294 293 293 294 293 292 292 291 291 292 293 294 295 295 295 295 295 296 295 295 297 297 296 295 295 297 294 293 293 295 299 308 316 314 314 316 314 311 311 312 319 321 321 322
291 291 292 292 292 291 291 291 291 292 293 292 293 293 293 293 293 292 293 293 293 292 293 293 291 291 291 291 292 294 293 293 294 295 294 295 294 295 295 296 296 294 293 293 295 291 292 293 295 301 307 315 317 316 316 314 309 309 315 319 321 322 322
291 291 291 291 290 290 290 291 291 292 290 291 291 292 292 292 292 292 293 293 292 291 292 293 291 291 291 291 292 292 293 292 293 293 294 294 294 294 294 296 296 294 292 292 292 290 290 292 296 301 306 313 318 317 315 316 306 302 303 304 306 307 308
291 291 290 290 290 290 290 290 291 292 290 290 290 290 292 291 291 291 291 291 293 291 291 292 292 291 291 291 293 291 292 291 291 293 293 293 293 293 294 298 298 293 292 292 291 290 290 292 294 297 302 307 315 316 315 316 314 310 301 301 302 303 303
291 290 290 289 290 289 289 290 291 290 290 289 290 289 293 290 290 290 290 291 295 291 290 292 292 291 291 291 292 292 291 291 290 291 292 292 293 292 292 294 295 294 292 291 290 290 290 291 293 295 298 302 308 314 316 314 312 312 310 309 309 310 309
291 290 290 289 290 290 290 289 289 289 289 289 288 288 289 289 289 289 289 289 290 290 290 290 292 291 291 291 291 292 292 291 290 290 291 292 291 291 291 291 292 291 290 289 289 290 290 290 292 294 296 297 300 307 315 314 312 313 312 311 312 313 313
291 290 290 290 291 290 289 289 289 288 288 288 287 288 288 288 288 288 289 289 289 289 291 291 291 291 291 291 290 291 291 291 290 290 290 290 290 290 290 290 291 292 290 289 290 290 290 290 291 294 293 292 294 297 296 301 311 306 312 310 310 310 310
293 293 292 291 290 290 289 290 289 288 287 287 287 287 287 288 287 287 288 289 289 289 291 293 290 291 291 291 290 291 290 290 290 290 290 290 290 290 290 290 290 291 289 289 289 290 290 290 290 293 291 290 291 291 298 309 310 309 309 308 307 306 306
292 294 292 291 290 289 288 288 288 288 286 286 286 287 287 287 287 287 287 288 288 288 289 290 291 290 291 290 290 290 290 290 290 291 289 289 289 289 290 290 291 291 289 289 289 289 290 289 291 290 290 290 291 292 301 309 307 308 306 305 303 302 302
291 290 292 291 290 289 288 288 288 288 286 286 286 286 287 287 287 286 286 287 288 288 288 288 290 291 290 290 290 290 289 290 290 290 290 289 289 290 289 289 290 289 289 289 289 289 289 289 289 289 290 290 291 293 298 301 301 301 299 299 299 298 298

ECMWFFLT1_sfc_thetae_081.txt.gz
Theta_e
324 324 325 325 326 327 325 325 326 327 328 329 328 328 327 328 328 327 326 327 329 331 331 330 329 329 329 329 330 330 330 328 327 325 324 325 322 323 325 324 324 324 324 322 321 318 315 313 314 318 323 325 326 327 328 328 328 329 329 329 330 330 330
325 324 325 324 323 324 322 323 324 325 325 326 327 326 326 327 328 327 328 327 327 329 331 329 329 330 330 329 329 329 329 329 328 327 326 325 325 324 323 323 324 323 323 323 323 321 317 314 315 316 317 321 324 325 326 327 328 329 329 329 330 331 330
321 322 321 320 321 322 321 321 321 322 322 323 324 324 324 325 325 326 327 328 328 328 330 330 330 330 329 329 329 329 329 328 329 328 326 326 326 326 325 324 321 322 322 321 321 320 320 320 316 316 317 318 318 322 325 325 327 328 328 328 329 330 330
316 316 315 316 317 318 318 318 318 318 318 319 320 321 320 321 322 324 325 327 328 329 329 329 329 329 330 330 330 329 329 328 328 328 327 326 326 325 325 324 323 322 320 319 320 321 320 318 317 317 318 319 319 320 323 326 326 327 328 328 327 329 330
313 313 312 312 313 314 315 315 315 316 315 316 316 316 316 318 318 319 321 323 323 323 324 326 328 329 329 329 329 329 329 329 329 328 327 327 327 326 325 325 325 324 323 322 322 322 321 320 319 318 318 319 320 321 323 325 327 326 326 326 327 328 329
311 310 310 309 310 311 312 312 312 312 312 312 313 313 313 314 315 316 318 317 315 316 316 317 319 323 327 328 328 328 328 327 327 327 326 326 327 326 325 325 325 325 324 325 324 323 323 323 321 318 320 321 318 318 321 323 322 325 327 326 326 327 327
310 310 310 309 309 309 309 309 309 310 310 309 310 310 310 311 312 315 316 311 310 311 312 311 313 315 316 321 325 326 326 327 328 327 327 327 327 327 327 325 325 325 325 325 325 325 323 322 320 319 319 320 320 319 319 319 322 321 323 326 327 326 327
309 308 308 310 309 308 307 307 307 308 307 307 307 308 309 309 311 312 309 308 307 308 308 307 309 308 310 314 318 321 325 326 326 326 326 327 326 327 327 326 326 325 325 326 326 325 326 324 322 322 319 316 316 317 317 319 319 321 322 324 326 325 326
310 307 307 308 307 307 305 305 305 305 305 306 306 308 308 308 309 309 305 305 306 305 305 304 305 304 306 309 310 312 315 318 319 323 326 327 326 326 326 327 326 325 326 326 326 326 326 326 325 324 322 319 316 313 316 315 317 318 324 322 325 327 326
306 305 305 306 305 305 305 304 303 304 304 305 305 307 305 306 308 308 304 303 303 303 303 303 303 302 303 304 305 307 308 309 311 314 319 323 325 327 326 326 326 326 326 327 327 326 326 326 326 325 325 322 319 315 314 313 315 316 320 324 321 324 327
305 305 305 305 305 304 303 303 303 302 302 304 305 305 305 305 306 308 304 302 302 302 301 301 301 301 301 302 302 303 303 305 307 309 312 316 319 323 325 326 326 325 326 326 326 326 326 326 325 325 324 324 323 318 317 315 315 318 318 323 324 323 326
305 305 305 305 304 303 302 302 302 302 302 303 303 303 303 303 304 305 304 301 301 300 300 300 300 299 299 299 300 300 301 302 302 303 306 309 312 317 320 322 325 325 326 326 326 326 327 326 326 326 325 325 324 322 320 318 314 318 321 319 323 327 326
305 304 304 304 303 302 302 302 302 301 301 302 301 301 301 301 302 303 303 301 300 299 299 299 298 298 298 297 298 298 299 299 299 300 302 304 307 311 314 317 321 324 325 325 325 325 325 326 326 325 325 324 324 324 322 320 317 316 320 321 322 325 327
304 305 305 305 304 303 303 303 302 302 302 301 301 300 300 300 301 302 301 300 298 297 297 297 297 297 296 296 296 297 297 298 297 298 300 300 302 304 307 310 313 319 323 323 324 325 325 326 326 326 325 325 323 324 323 320 317 317 320 322 323 323 326
304 304 305 306 306 305 303 302 302 301 300 301 301 300 299 300 301 301 300 298 297 297 296 296 296 296 295 295 295 296 296 296 296 297 298 298 299 301 302 304 308 312 318 321 322 323 325 325 325 325 325 324 324 324 325 321 319 318 317 319 320 323 324
302 302 303 303 303 305 306 304 304 301 301 300 301 300 299 299 300 301 299 298 297 296 296 296 296 295 295 295 294 295 296 296 296 296 297 298 299 300 301 302 304 307 313 317 320 322 324 324 325 325 324 325 324 324 324 324 321 318 318 319 321 320 322
300 300 300 301 301 301 302 303 304 302 301 301 300 300 300 299 299 299 299 298 297 296 295 295 295 295 295 295 295 295 295 296 297 297 297 298 299 300 301 301 303 306 309 312 316 320 323 324 324 324 324 324 324 324 324 324 323 321 320 318 319 320 322
299 299 299 300 300 300 300 300 301 300 300 300 300 299 299 299 298 298 298 297 296 295 295 295 295 294 295 295 295 295 296 296 297 297 298 299 302 300 301 302 303 306 308 311 315 318 321 322 323 323 323 323 324 324 324 324 323 323 321 319 319 320 322
298 299 300 299 299 299 299 299 299 299 299 298 298 298 298 297 298 296 297 297 296 295 295 295 294 294 294 294 295 295 296 297 297 298 299 300 301 302 303 303 305 307 310 309 307 309 310 313 319 322 323 323 323 324 323 323 323 322 321 320 320 319 320
298 298 298 298 299 299 298 298 298 298 299 298 297 297 297 296 297 296 296 296 296 295 294 294 294 294 294 294 294 295 296 297 297 298 299 300 300 301 302 303 304 305 305 305 305 305 305 306 309 313 320 322 323 323 322 322 322 321 321 320 320 320 319
297 298 298 297 298 298 298 297 298 298 298 297 297 296 296 296 296 296 296 295 296 296 294 294 294 294 293 294 294 294 296 296 297 297 298 298 299 299 300 300 301 303 303 303 302 302 302 302 302 303 310 318 322 321 321 321 321 321 320 320 319 319 319
296 297 297 297 297 297 297 297 297 297 297 297 298 296 296 296 295 295 295 295 294 295 294 294 294 293 293 293 294 294 295 296 296 296 296 296 297 298 299 299 299 301 303 304 301 301 301 300 299 298 300 304 311 319 320 320 320 319 320 319 319 319 318
294 295 295 295 296 296 296 297 296 296 296 296 295 297 295 295 295 294 294 294 294 294 294 294 296 295 294 293 293 294 295 295 296 296 295 295 295 297 297 297 299 302 301 300 299 298 297 297 297 297 297 298 300 305 313 318 319 319 318 317 318 318 317
293 293 294 294 294 295 295 296 295 295 295 295 295 295 294 294 294 294 294 293 292 293 293 294 293 292 292 293 294 293 294 294 295 295 295 294 294 295 296 296 297 300 300 299 298 297 295 295 294 294 295 296 298 299 302 309 316 319 317 317 317 317 317
292 292 293 293 293 293 294 294 294 294 294 294 294 294 293 293 293 293 293 292 292 293 293 294 291 292 292 292 293 293 293 293 294 294 294 294 294 294 294 294 295 297 297 297 297 295 295 294 293 293 293 294 295 296 297 302 309 315 318 317 317 317 317
291 291 291 292 292 292 292 292 292 292 293 294 292 292 292 292 292 292 292 291 292 292 291 293 291 292 291 291 292 293 292 292 292 293 293 294 294 293 293 293 294 295 296 298 297 294 293 293 294 293 294 295 298 299 298 297 298 307 316 318 317 317 317
290 290 290 290 290 290 290 290 290 291 292 292 291 291 290 290 291 291 292 291 291 291 291 293 291 291 291 291 291 292 291 291 292 292 293 293 293 293 293 293 293 294 294 293 293 293 292 292 292 292 293 296 300 304 303 301 299 297 301 312 318 317 319
290 289 289 289 290 290 290 289 290 291 290 289 289 289 289 289 290 291 290 290 290 290 291 292 291 291 291 291 291 292 291 292 291 292 292 293 293 293 293 293 293 293 292 292 293 293 291 291 291 292 293 296 299 303 307 312 314 311 308 309 313 318 321
288 288 289 289 289 289 288 288 288 289 290 288 288 288 289 289 288 288 289 289 289 289 290 291 291 291 291 290 292 292 291 291 291 291 291 292 293 293 293 293 293 292 292 291 293 291 291 291 291 291 292 294 297 300 304 308 307 309 313 315 315 317 320
289 288 288 288 288 287 288 288 288 290 287 287 287 287 288 288 288 287 288 288 288 288 288 290 291 291 291 290 292 291 291 291 291 291 291 292 292 292 292 293 293 292 291 291 292 289 290 291 291 291 292 293 295 297 300 306 306 302 301 302 302 303 304
288 288 286 287 287 287 287 287 288 289 286 286 286 286 288 287 287 288 287 287 289 288 287 290 291 291 291 291 292 290 290 290 290 290 290 291 292 292 292 296 296 292 291 291 290 289 290 291 290 290 291 291 292 293 296 301 307 311 303 299 299 299 300
287 287 287 286 287 287 287 287 287 286 286 285 286 286 289 286 286 287 287 288 292 289 287 290 291 290 291 291 292 290 290 290 289 289 290 290 291 291 291 293 294 293 292 291 289 289 289 291 290 290 291 291 291 291 293 296 298 301 306 310 310 308 305
288 288 287 287 287 287 288 285 286 285 285 286 286 285 286 286 285 286 287 287 288 287 288 289 291 290 291 291 291 291 290 289 288 289 289 290 289 289 290 290 291 291 290 289 289 289 289 290 290 291 291 290 290 290 293 294 295 297 299 305 311 311 311
289 287 287 288 288 287 285 285 285 285 285 286 285 285 285 286 286 286 286 287 287 288 290 289 290 291 291 291 291 290 289 289 288 288 288 288 288 288 289 289 290 291 290 289 289 289 289 290 290 291 291 289 290 291 292 296 298 297 299 305 310 310 309
289 291 289 288 286 285 286 286 286 284 285 284 285 285 285 286 285 285 286 287 288 288 290 292 290 291 291 291 290 290 289 289 290 289 288 288 288 288 288 289 289 291 289 289 289 289 289 289 290 291 290 289 290 290 295 297 301 305 307 306 305 302 301
289 291 289 287 286 285 285 285 285 285 284 285 285 285 285 285 285 285 286 287 287 288 288 290 291 291 291 290 290 290 290 289 290 290 288 287 288 288 289 289 290 291 289 289 289 289 289 289 290 289 289 289 290 290 294 295 296 297 298 298 298 297 297
288 287 288 287 286 285 285 285 285 286 284 284 285 285 285 285 285 285 285 285 287 287 288 288 290 291 291 290 290 290 290 290 290 290 290 288 288 288 288 288 289 289 289 289 289 289 289 289 289 289 289 289 290 291 294 294 293 294 294 294 295 295 295

ECMWFFLT1_sfc_thetae_087.txt.gz
Theta_e
323 322 322 323 324 323 321 321 322 321 320 319 320 321 322 322 322 321 322 321 321 323 324 324 325 326 328 331 334 334 334 332 331 328 327 329 326 326 331 329 329 330 328 328 328 322 318 315 319 327 329 331 332 332 333 333 334 335 335 335 334 333 334
321 319 319 320 319 319 318 318 318 319 318 317 317 318 319 317 316 316 317 317 317 318 319 318 319 320 322 323 324 326 329 331 331 331 329 328 328 327 328 328 329 329 330 330 330 329 321 317 319 321 323 328 331 332 332 335 335 337 336 336 336 334 334
318 317 317 316 316 316 315 315 316 315 315 316 317 316 316 314 314 313 313 313 314 314 315 314 313 315 318 319 320 321 323 324 327 328 328 329 330 330 330 328 326 326 327 326 328 328 327 327 318 319 323 322 322 327 332 333 335 336 336 337 337 336 335
315 315 314 314 314 314 314 314 314 314 314 314 315 315 313 314 314 313 311 311 311 311 310 311 310 311 314 316 318 319 320 320 320 320 322 325 327 328 329 329 327 327 325 322 323 324 323 321 321 321 323 323 322 323 328 331 332 332 334 336 336 336 337
313 312 311 311 311 311 312 311 312 313 313 313 313 313 311 311 312 311 311 310 309 309 308 309 309 309 310 313 315 316 317 318 316 316 318 320 320 322 326 328 328 330 327 325 324 326 324 322 322 320 320 323 324 324 325 330 331 331 332 333 335 336 337
312 311 310 309 310 310 310 310 310 310 310 310 310 310 310 309 310 309 308 307 307 308 308 307 308 308 308 311 312 312 312 313 313 313 314 314 315 317 318 321 324 326 327 329 328 327 327 328 324 320 321 323 321 322 325 327 326 330 331 332 333 334 335
310 310 309 308 308 308 309 308 308 308 308 308 308 309 309 308 307 307 307 307 307 307 307 307 307 307 307 308 309 309 310 310 310 310 311 311 313 314 314 315 316 318 323 327 327 327 325 324 322 320 320 322 323 322 325 325 326 325 329 332 333 334 335
309 309 308 308 308 307 307 307 307 307 307 307 307 308 307 307 307 306 306 306 305 306 306 306 306 306 306 307 307 306 307 306 306 307 307 308 308 308 309 310 311 314 317 320 323 326 327 325 324 323 321 317 318 321 321 323 324 325 325 329 332 333 334
309 309 308 308 308 308 307 307 306 307 307 307 307 307 306 306 306 305 305 305 305 305 305 304 304 304 305 305 304 304 304 304 304 305 305 306 306 306 307 308 309 310 313 313 314 316 319 322 323 324 323 321 315 313 319 320 321 322 328 326 329 333 334
308 308 307 307 307 307 307 306 306 306 307 307 306 307 306 306 305 305 304 304 304 304 304 304 304 304 305 303 303 303 302 303 304 304 304 304 305 306 306 307 307 308 310 311 312 313 314 316 319 322 323 320 317 314 314 316 318 319 324 327 325 329 334
308 308 307 306 307 306 306 306 306 305 305 306 306 306 305 305 304 304 303 303 303 303 303 303 303 304 303 303 303 303 303 304 304 304 304 304 305 305 306 306 307 307 309 310 310 312 313 314 315 317 319 321 321 315 316 313 314 321 322 327 327 327 331
309 308 307 307 306 305 304 304 304 304 304 305 305 305 304 303 303 303 303 302 302 302 302 302 302 302 302 302 302 302 303 303 303 303 304 304 305 305 305 305 306 306 308 308 309 310 312 313 313 313 313 314 314 316 315 315 311 319 325 324 327 330 329
309 308 307 307 306 305 304 304 304 303 303 304 304 304 303 302 302 302 302 302 301 302 301 301 302 302 302 302 302 301 301 302 302 302 303 304 304 304 304 304 305 306 306 307 308 309 309 309 309 308 309 310 310 311 312 311 309 311 322 325 327 328 330
307 306 306 305 305 304 304 304 304 304 304 303 303 303 303 302 302 302 301 301 301 301 300 300 301 301 301 301 301 301 301 301 301 301 302 302 303 303 303 303 304 305 305 305 306 307 307 306 306 306 306 307 307 308 307 305 304 307 314 322 326 328 331
305 305 305 305 304 303 303 303 304 303 303 303 303 302 302 302 302 301 301 300 300 300 300 300 300 301 300 300 301 301 301 300 300 300 301 301 302 303 303 302 302 303 304 303 304 305 305 304 303 303 303 303 303 304 306 303 303 303 304 311 317 324 327
304 304 304 304 303 303 303 303 304 303 302 302 303 302 302 302 301 301 300 300 300 300 300 300 300 300 300 300 299 300 301 301 300 300 300 300 301 302 301 301 301 302 302 302 303 304 304 302 302 301 301 302 301 301 302 303 301 300 301 304 311 315 321
304 304 303 303 303 303 304 303 303 302 302 302 302 302 302 301 301 301 300 299 299 299 299 299 299 300 299 299 299 299 300 300 300 300 300 300 300 300 300 300 300 300 300 300 301 302 302 301 300 300 300 300 300 300 300 300 300 299 300 301 306 310 315
303 303 303 303 303 303 303 303 303 302 302 301 301 302 301 301 300 300 299 299 299 299 299 299 298 299 299 300 300 299 299 300 300 300 300 300 300 300 299 299 299 299 299 298 299 299 300 299 299 299 298 299 299 299 299 299 299 300 299 299 302 307 312
303 303 303 303 302 302 302 302 302 302 302 301 301 301 301 301 300 299 299 299 299 299 299 299 298 298 298 299 299 299 300 300 300 299 299 299 299 300 299 299 298 298 298 298 298 298 298 297 297 297 297 297 297 298 298 298 299 300 300 299 300 302 307
303 302 302 302 302 301 301 301 301 301 301 301 300 300 300 300 300 299 299 299 299 299 298 298 298 298 298 298 298 298 298 299 299 299 299 299 299 299 299 299 298 298 297 298 297 297 297 296 296 295 296 295 296 296 296 296 298 298 299 299 300 302 304
302 302 301 301 301 301 300 300 300 300 301 300 300 299 299 299 300 299 299 299 299 299 298 298 297 297 297 297 298 298 298 298 298 298 299 299 299 299 299 298 298 298 298 298 297 297 297 295 295 294 295 295 295 295 295 295 296 297 297 298 299 300 303
301 301 300 300 299 299 299 300 299 299 299 299 300 299 299 299 299 299 299 299 299 299 298 298 297 296 296 296 297 297 297 297 297 297 297 298 298 298 298 298 298 298 299 299 297 297 297 296 295 294 294 295 295 294 294 294 295 295 296 296 297 300 301
299 299 298 298 298 298 298 299 299 298 298 298 299 299 298 299 298 298 298 298 299 299 298 298 295 293 294 295 297 297 297 297 297 297 297 297 297 298 297 297 298 298 297 297 296 296 294 294 295 295 294 294 294 293 293 293 293 294 294 294 296 297 298
298 297 297 297 297 297 297 297 297 297 298 298 298 298 298 298 298 298 298 298 298 298 298 297 292 291 292 292 296 297 297 297 297 297 297 296 296 296 296 296 297 298 297 297 296 295 294 293 293 293 293 294 295 294 293 292 293 294 294 294 295 296 296
297 296 296 296 296 296 296 296 296 296 297 297 297 298 298 298 298 298 298 298 298 298 298 294 291 292 292 291 293 297 297 297 297 296 296 296 295 295 295 295 296 296 296 296 296 295 295 293 293 293 292 293 293 293 293 294 293 293 293 293 294 295 296
296 296 296 296 296 296 296 296 295 295 296 297 298 297 297 298 298 298 298 298 298 298 297 293 291 292 291 291 291 295 297 297 296 296 296 295 295 295 294 294 295 296 296 298 297 295 294 294 294 294 294 294 294 294 292 292 292 295 295 293 293 294 295
295 296 296 296 296 295 295 295 296 296 296 297 297 297 297 297 298 298 298 298 297 297 297 293 291 291 291 291 291 293 298 297 297 296 296 295 295 295 295 294 294 294 295 295 295 294 293 293 294 294 295 295 296 296 294 294 293 293 295 296 295 294 296
295 295 295 296 295 295 295 295 296 296 296 296 296 296 296 297 297 298 298 298 297 296 297 292 291 291 291 291 291 294 298 298 297 297 297 297 296 296 296 295 295 295 294 294 295 293 292 292 293 293 294 294 295 295 296 297 297 296 296 296 295 295 296
295 295 295 295 295 294 295 295 295 296 296 296 297 297 297 297 297 297 298 298 296 295 296 292 291 291 291 290 292 298 298 297 297 297 297 297 297 297 296 296 296 295 295 295 294 291 291 293 293 293 293 293 294 295 296 296 294 294 295 295 295 296 297
295 295 295 295 294 295 294 295 295 296 296 296 296 296 296 296 297 297 297 297 296 295 296 294 291 291 291 290 294 298 297 297 297 296 297 297 297 297 297 296 296 295 295 295 292 289 290 291 293 292 292 292 292 293 294 296 294 293 293 293 293 293 293
295 295 295 294 294 295 295 295 295 296 295 295 295 296 296 296 297 297 296 296 296 296 296 295 291 291 290 290 293 297 297 296 296 296 296 297 297 297 297 296 296 295 294 294 290 289 289 292 293 292 291 290 290 291 293 294 294 295 294 294 294 294 294
296 295 295 295 295 295 294 295 295 296 296 296 296 296 296 296 296 296 297 297 295 296 297 296 292 290 290 290 293 297 296 296 295 295 295 295 296 296 296 296 295 294 293 292 289 289 289 292 293 292 291 290 289 290 291 292 291 292 293 294 296 297 298
297 296 295 295 295 295 295 295 295 295 295 296 295 295 295 295 295 295 296 297 297 297 296 297 296 290 291 291 290 295 297 295 294 295 295 295 294 295 295 296 295 292 289 289 289 289 289 290 292 293 292 289 287 287 290 291 293 292 292 293 294 295 296
297 297 296 296 296 295 295 295 295 295 295 295 295 295 295 295 295 295 296 296 296 297 296 296 296 291 291 290 290 291 296 295 295 295 295 294 294 294 294 294 296 293 289 289 289 289 289 290 290 293 292 290 289 290 291 292 292 293 292 292 293 293 294
298 297 297 296 296 295 295 296 295 295 295 295 295 295 295 295 295 294 295 295 296 296 296 294 295 293 290 290 290 290 293 295 293 296 295 294 294 294 294 294 295 292 289 289 289 289 289 290 290 292 290 289 289 289 291 292 292 292 291 291 291 292 292
298 298 297 297 296 295 296 295 295 296 295 295 295 294 294 295 294 294 295 295 296 296 297 297 292 294 291 290 290 290 289 291 290 295 295 294 294 294 295 294 294 291 289 289 289 289 289 289 291 291 289 289 289 289 291 291 291 291 290 290 290 290 290
298 298 297 297 296 296 295 296 295 295 295 295 295 294 294 294 294 294 293 293 295 295 296 297 294 291 293 290 290 289 289 289 289 293 295 295 295 294 294 294 292 289 289 289 289 289 289 290 290 289 289 289 289 290 291 291 290 290 289 289 289 288 288

ECMWFFLT1_sfc_thetae_090.txt.gz
Theta_e
328 325 325 325 325 325 323 323 324 324 324 323 322 321 321 321 322 322 322 322 322 323 323 323 323 324 325 326 327 329 330 330 329 329 330 330 328 328 333 333 334 333 334 334 333 327 324 320 323 329 331 333 334 334 333 333 335 335 335 335 334 336 337
326 325 325 325 324 324 323 323 323 323 323 323 323 323 324 322 321 321 321 321 321 320 320 321 321 322 323 324 324 325 325 325 324 326 326 326 328 328 329 330 330 329 330 332 332 331 327 324 321 322 324 330 332 332 334 334 335 338 338 336 334 334 336
324 324 324 323 323 323 321 321 321 320 320 320 320 320 321 321 320 319 318 319 319 319 318 320 320 320 321 321 323 324 326 325 324 323 322 323 323 324 325 326 327 328 328 327 327 327 326 327 322 321 324 323 322 327 333 332 334 335 337 338 337 334 334
323 322 321 321 320 321 320 320 319 318 318 317 318 317 318 318 318 318 317 317 318 318 317 317 318 317 318 320 322 323 324 322 322 322 322 323 320 320 321 320 320 322 323 324 324 325 324 322 321 321 324 324 323 324 329 332 332 333 333 335 336 336 335
321 320 319 318 318 318 318 317 317 317 316 315 315 314 315 316 316 315 316 316 315 316 315 316 317 316 317 319 318 318 319 319 319 318 320 317 317 318 319 318 319 320 321 322 323 324 324 323 322 321 321 323 324 325 327 331 332 332 332 332 333 335 336
318 318 317 316 317 316 316 316 315 313 313 313 313 313 313 314 314 314 314 313 314 315 315 315 315 315 316 316 315 315 315 314 313 314 314 313 314 313 314 317 318 319 319 321 321 320 322 322 321 320 322 323 321 323 326 327 326 328 332 332 333 334 334
316 316 315 314 315 315 314 314 313 313 311 312 312 312 313 313 312 313 313 313 313 314 313 313 314 314 315 314 313 312 312 312 312 312 312 312 312 312 314 313 315 316 318 319 317 317 317 316 315 315 315 317 319 318 323 324 327 326 329 331 333 334 335
315 314 313 314 314 313 313 313 313 312 311 312 312 312 312 312 312 312 312 312 312 312 313 313 313 314 313 313 312 312 311 311 312 311 310 311 310 310 311 311 312 314 314 314 314 316 317 317 316 316 314 310 312 315 316 320 322 323 324 327 331 332 333
314 314 313 312 312 313 313 311 311 311 312 311 312 311 311 311 311 310 311 311 311 311 312 311 312 312 312 311 311 311 310 311 311 311 310 311 310 310 310 310 311 311 313 312 313 313 314 315 316 317 316 314 311 307 312 313 317 319 325 325 329 332 332
313 312 311 312 312 312 312 311 310 310 312 312 311 311 311 310 310 310 310 309 310 310 310 310 310 311 311 311 310 310 309 311 311 311 310 310 310 310 310 311 310 311 311 312 312 312 313 314 313 312 312 310 310 305 306 307 310 312 318 322 322 327 331
311 311 312 311 311 311 311 311 311 310 310 311 310 310 310 309 309 309 309 308 309 309 309 310 310 310 310 309 310 309 309 310 310 310 310 310 310 310 310 309 310 309 311 311 311 312 312 311 310 310 310 310 310 307 307 305 306 311 312 318 319 320 326
311 311 311 311 311 310 310 310 310 310 311 310 310 309 309 308 308 307 308 307 308 308 308 309 309 309 309 308 309 308 309 309 308 309 310 310 310 310 309 308 309 309 310 310 310 310 311 310 310 310 310 309 309 308 306 305 302 308 313 311 315 319 318
311 310 310 311 310 310 309 310 309 310 309 310 309 308 307 307 307 307 307 306 306 307 307 307 308 308 308 308 308 308 308 308 307 307 308 309 309 309 308 307 308 307 308 308 308 309 309 309 309 308 309 309 308 308 306 304 301 302 309 310 312 315 316
311 310 310 310 310 310 310 310 309 310 309 308 308 307 307 307 306 306 305 305 305 306 306 306 307 308 307 307 307 307 307 307 306 307 308 307 308 308 306 306 305 306 307 306 306 307 307 307 307 307 307 307 306 308 306 303 300 301 305 310 310 311 314
310 310 310 310 309 309 309 309 309 309 308 308 307 306 306 307 306 305 305 305 305 305 305 305 306 307 306 306 306 307 306 306 306 306 306 305 306 306 306 305 304 304 305 304 304 304 304 304 304 304 304 305 304 304 306 303 302 301 301 305 307 310 311
309 310 310 309 309 308 308 308 308 308 307 307 307 307 306 306 306 305 305 305 305 304 304 304 306 305 305 305 305 306 306 306 305 305 305 304 304 305 304 304 303 303 304 303 303 303 303 302 302 302 302 303 302 303 303 304 302 300 300 302 305 306 309
309 308 308 308 308 308 307 307 307 307 306 307 306 307 306 305 305 305 305 305 304 303 303 303 304 305 304 304 304 304 305 305 305 305 304 304 304 304 303 303 302 302 302 301 301 301 301 300 300 300 301 301 301 301 302 302 302 300 300 300 303 304 307
308 308 308 308 308 308 307 307 307 306 306 306 306 306 305 305 305 304 305 303 303 303 302 303 302 303 304 305 305 305 305 304 305 304 304 304 303 303 303 302 301 301 301 300 300 299 300 299 299 299 299 299 299 300 301 301 301 301 300 299 301 304 307
307 307 307 307 307 307 307 307 307 307 306 305 306 305 305 305 304 304 303 303 303 302 302 302 302 302 303 304 305 305 305 304 304 304 304 304 303 304 303 302 301 301 300 299 299 299 298 298 298 298 298 298 299 299 299 300 300 301 300 300 301 301 304
306 307 307 307 307 306 306 307 306 305 306 305 305 305 305 304 305 304 304 303 302 302 301 301 301 301 302 303 304 304 304 304 304 304 304 303 303 303 302 301 301 300 300 299 298 297 297 297 297 298 298 298 299 298 298 298 299 299 300 299 300 302 302
306 306 306 306 306 306 305 306 306 306 305 305 304 304 304 304 305 305 304 303 302 302 300 299 299 299 300 302 304 304 304 304 303 303 304 303 303 303 302 301 301 300 299 299 298 298 298 297 297 297 298 299 298 297 297 297 297 297 297 298 298 299 301
305 305 304 304 304 305 305 305 305 305 305 305 305 304 305 305 304 304 303 303 301 301 300 299 298 298 299 301 304 303 303 302 302 302 302 302 302 302 301 302 301 301 300 299 299 298 297 297 297 296 297 297 297 296 296 296 295 295 296 296 296 298 299
303 304 303 303 303 304 304 304 304 304 304 304 304 304 304 305 304 303 302 302 301 300 299 299 296 293 294 297 302 303 303 303 302 302 301 300 301 301 301 301 301 300 300 299 298 296 295 295 296 297 296 296 296 295 295 294 294 295 295 294 295 296 295
302 302 303 303 303 303 303 303 303 303 303 304 304 304 304 303 303 303 302 302 301 300 298 297 292 291 292 292 298 303 302 302 302 301 301 300 299 300 300 300 301 301 300 299 299 296 295 295 294 294 294 295 296 296 295 294 294 295 294 293 294 294 294
301 302 302 302 302 302 303 303 303 303 303 304 304 305 304 303 302 302 302 301 300 299 298 294 291 291 292 291 293 300 302 302 301 301 300 299 299 299 299 299 300 300 299 299 299 299 297 295 294 294 294 294 294 294 294 296 295 294 294 293 293 294 294
301 301 302 302 303 302 302 302 302 303 303 304 304 303 303 302 302 302 302 300 299 298 298 293 291 291 292 291 291 295 302 301 301 300 300 300 300 299 299 299 299 299 299 299 299 298 298 298 296 295 296 296 296 295 293 292 293 297 297 295 294 294 294
301 301 302 302 302 302 302 302 303 303 303 304 303 302 302 302 302 302 302 301 299 298 297 293 291 291 291 290 291 293 303 301 301 300 300 300 300 299 299 299 298 298 298 299 299 296 296 296 297 297 298 298 298 298 295 295 294 294 296 296 294 293 294
300 301 301 302 302 302 302 302 302 303 303 303 302 302 302 301 301 302 302 301 300 298 297 291 291 290 291 291 290 295 303 302 301 301 301 301 300 300 299 299 299 298 298 298 297 294 294 294 296 297 297 296 297 298 298 298 298 297 296 296 295 294 294
301 300 301 301 301 301 302 302 302 303 302 302 302 302 302 302 301 300 301 301 300 299 297 291 291 291 290 290 291 301 301 301 300 300 300 300 300 300 300 299 298 298 297 297 295 290 291 293 296 296 296 296 296 297 298 297 294 294 296 296 296 296 295
300 300 300 300 300 301 301 301 302 302 302 302 301 301 301 301 301 300 300 301 301 300 298 294 290 291 290 290 294 301 300 300 300 299 299 300 300 300 300 299 297 296 296 296 293 289 290 291 296 295 295 295 295 296 296 297 295 293 293 293 292 292 292
300 300 300 300 300 300 301 302 302 302 301 301 300 301 301 300 301 300 299 299 300 300 299 295 291 291 290 290 293 300 299 299 299 299 299 299 300 300 299 299 297 296 295 295 291 289 289 293 296 295 294 293 293 293 294 295 295 296 294 293 293 293 292
300 300 300 300 301 300 301 301 302 302 301 301 301 301 301 300 300 301 301 300 297 299 300 297 292 291 290 290 294 300 298 298 298 298 298 297 299 299 299 298 297 294 294 293 289 289 289 292 295 296 295 294 292 292 293 294 294 293 294 295 296 296 295
300 300 300 300 301 300 301 302 302 301 301 301 300 300 300 300 300 300 301 301 300 299 299 299 296 290 291 291 290 297 299 296 296 298 298 297 297 298 298 298 297 292 290 289 289 289 289 289 294 297 296 294 292 290 293 294 295 293 293 294 294 294 294
301 300 300 300 301 301 301 301 301 301 300 300 300 300 300 300 300 300 300 301 301 300 299 299 297 291 291 291 290 292 298 296 296 297 297 296 297 297 296 296 297 293 290 289 289 289 289 290 290 296 295 294 293 292 292 294 294 294 293 293 293 293 293
302 301 301 301 300 300 301 301 301 300 300 300 300 300 300 300 299 300 300 300 301 301 299 297 298 293 291 291 291 290 296 297 296 297 297 296 296 296 296 295 296 293 290 290 289 290 289 290 290 295 294 289 289 289 294 295 295 294 293 292 292 292 292
302 302 302 301 300 300 300 300 301 301 301 300 300 300 300 300 299 298 299 299 300 301 301 300 293 297 292 291 290 291 290 293 291 297 297 296 296 296 296 296 296 293 290 289 290 289 290 289 292 294 289 289 289 289 293 295 294 293 292 291 291 291 291
302 302 302 301 301 300 300 300 300 301 301 299 298 298 298 299 298 297 297 297 299 299 300 300 295 292 295 292 291 290 290 290 290 296 298 297 297 297 296 297 295 290 289 289 290 290 290 291 293 289 289 289 289 292 295 295 292 291 291 290 290 290 289

ECMWFFLT1_sfc_thetae_093.txt.gz
Theta_e
329 327 327 327 328 327 326 325 325 325 325 325 325 325 324 324 325 326 326 327 325 325 324 325 325 325 325 326 326 328 327 327 326 323 323 325 322 323 326 327 327 330 330 330 329 323 322 319 321 328 328 329 332 333 333 333 333 334 335 337 336 336 339
328 327 326 326 325 326 324 324 324 323 322 323 322 322 323 322 323 323 324 323 322 322 322 324 324 323 324 325 325 324 323 323 324 323 322 321 321 320 321 322 324 325 325 327 328 326 322 319 319 322 324 330 331 332 332 334 334 335 334 334 335 335 337
326 326 326 325 324 324 321 321 321 320 320 320 321 320 320 320 320 320 320 319 320 320 320 321 320 320 321 323 322 321 321 320 320 320 320 319 318 320 320 319 319 320 321 321 322 322 321 322 318 319 322 323 321 325 331 330 332 333 333 334 335 335 336
325 325 323 322 322 322 321 320 319 318 318 318 319 318 318 319 319 319 319 319 319 319 319 319 319 319 320 320 320 321 320 318 318 318 319 317 317 317 317 318 317 317 316 315 316 317 316 315 315 316 318 320 320 320 325 328 329 330 330 332 333 333 334
324 322 322 320 320 319 319 318 318 317 317 317 317 316 316 317 317 317 318 319 318 318 317 318 319 319 320 319 318 318 317 317 317 317 317 315 315 315 317 316 317 318 319 317 315 315 314 314 314 313 314 316 316 317 319 322 324 325 326 328 329 331 333
322 321 320 319 319 318 317 317 316 315 315 315 315 314 315 315 316 316 316 316 316 317 318 318 317 318 317 317 316 316 316 315 314 315 313 313 313 312 313 315 315 316 315 315 315 314 315 315 315 312 314 315 313 314 317 319 319 322 324 325 328 329 329
319 319 318 317 317 317 316 315 315 314 314 314 314 313 314 314 314 315 315 315 315 316 316 316 316 316 317 315 315 314 314 315 315 315 314 314 313 313 314 312 313 314 314 314 314 313 312 312 311 311 310 312 313 312 315 315 318 317 320 323 326 327 328
317 316 316 316 315 315 314 314 314 315 314 314 312 314 315 314 314 313 313 314 314 314 314 315 315 315 315 315 313 314 314 315 314 313 313 313 312 313 313 312 313 313 312 311 313 312 312 311 310 309 308 305 306 309 309 311 313 314 315 319 321 321 323
316 315 315 314 314 314 314 313 314 314 314 313 314 313 313 313 312 311 312 312 313 313 314 313 314 314 314 313 312 312 313 314 314 312 312 313 312 313 312 312 312 311 311 311 311 312 312 311 311 310 309 306 303 300 304 304 307 309 313 313 316 318 319
315 314 313 313 314 314 314 314 314 314 314 314 313 313 312 312 312 312 312 312 312 313 313 313 313 313 312 312 311 311 311 312 312 312 311 312 312 312 311 312 310 310 309 311 311 311 312 311 311 310 309 307 306 302 300 300 302 304 307 310 309 313 316
314 314 314 314 314 314 314 314 314 313 312 312 311 312 312 311 311 311 311 310 311 311 312 312 311 311 312 311 312 310 311 312 311 312 311 311 310 311 310 310 309 308 309 309 308 310 310 310 309 308 308 309 308 303 302 299 300 304 305 309 309 308 311
314 314 314 314 314 313 313 313 313 312 312 312 311 311 310 309 310 310 310 309 309 310 311 311 311 311 310 309 310 309 310 311 309 309 310 310 310 310 309 308 308 307 308 308 308 308 309 308 307 306 306 307 307 306 304 302 299 303 306 304 307 309 309
313 313 313 313 313 312 311 312 312 311 311 311 311 310 309 308 308 308 308 308 308 308 309 309 310 310 310 309 309 309 309 309 308 308 308 309 309 309 308 306 306 306 306 306 306 307 306 306 306 304 304 304 304 306 305 302 300 299 304 304 305 307 308
312 313 313 313 313 312 312 312 311 311 310 310 310 309 309 308 308 308 307 307 307 307 307 308 309 309 309 308 308 309 308 308 307 307 308 308 308 308 306 305 304 304 305 304 305 305 304 304 304 303 304 304 303 304 303 301 299 299 302 305 305 305 307
313 313 313 312 312 311 311 310 311 310 310 309 309 308 308 309 308 307 306 306 306 306 307 307 308 308 307 307 308 308 307 307 307 307 307 305 306 306 307 305 303 303 304 303 304 303 302 302 301 301 301 302 301 302 303 300 299 298 297 301 302 305 305
312 313 312 311 310 310 310 310 310 309 308 308 309 308 308 308 308 307 306 305 305 305 306 306 307 307 307 307 306 307 307 307 306 306 305 305 305 306 305 304 303 303 303 302 303 302 303 301 301 300 301 301 301 301 302 302 299 297 297 298 301 301 304
312 311 311 310 310 310 309 309 309 309 309 309 307 309 308 307 307 307 306 305 304 304 304 305 306 307 307 307 306 306 306 307 306 306 305 305 305 304 304 303 303 302 302 301 301 300 300 300 300 300 300 300 300 300 301 302 301 299 298 297 300 301 302
310 310 310 310 310 310 310 309 309 308 308 308 308 308 307 307 306 306 305 304 304 303 303 304 304 305 307 307 307 307 306 306 306 305 306 305 305 304 303 302 301 301 301 300 299 299 299 299 299 299 299 299 299 300 300 300 300 299 298 297 298 300 302
309 309 309 310 310 309 310 309 309 308 308 308 308 307 307 307 306 304 304 304 303 302 302 303 303 304 306 307 307 307 307 306 306 305 305 305 304 304 303 302 302 301 300 299 299 299 299 299 299 299 299 298 299 299 299 299 299 298 298 297 297 297 300
309 309 309 309 309 309 309 309 308 307 307 307 307 307 306 306 306 305 303 303 302 302 301 301 301 302 304 306 306 306 306 305 305 305 304 304 303 304 303 302 302 301 300 300 299 299 299 299 298 298 299 299 299 298 297 297 297 297 297 296 296 297 297
309 309 309 308 308 308 308 308 308 308 308 307 307 306 306 306 306 305 304 302 302 302 300 299 299 300 302 304 306 306 306 305 305 304 304 304 304 303 303 302 302 301 301 300 299 300 299 298 298 298 298 298 298 297 296 296 296 296 296 296 295 295 296
308 308 307 308 307 307 307 307 307 307 307 307 307 307 307 306 305 304 303 302 301 300 299 299 298 298 299 300 303 305 305 304 304 303 303 303 303 302 302 302 302 302 302 301 301 300 299 298 297 297 298 298 297 296 296 296 296 295 295 295 294 296 295
306 307 306 306 306 307 306 307 307 306 306 307 307 306 306 306 305 304 303 301 301 300 298 299 296 293 294 297 301 304 305 304 303 303 302 302 302 302 302 302 302 303 302 301 300 297 296 296 297 297 297 297 297 296 296 296 295 295 295 294 294 294 293
305 305 305 306 306 306 306 307 306 306 307 307 306 306 306 305 304 303 302 301 300 299 298 297 292 291 292 292 298 302 304 303 303 302 302 301 301 301 301 301 302 302 301 300 299 296 295 295 294 294 295 296 297 298 297 295 295 295 294 294 294 294 293
304 304 305 304 305 305 305 305 306 306 306 306 306 306 305 305 304 303 302 301 300 298 298 294 291 292 291 291 293 298 304 304 303 302 302 301 301 301 300 300 300 301 300 300 299 297 296 295 294 294 294 294 295 295 295 297 296 295 295 294 293 293 293
304 304 304 304 305 305 304 304 305 305 305 305 305 305 305 305 304 304 302 300 299 298 297 293 291 291 291 291 291 295 303 304 303 302 302 301 301 300 300 299 299 300 299 300 298 296 296 296 296 295 296 297 297 296 293 293 294 298 297 294 293 292 293
303 303 304 304 304 304 304 304 305 305 305 305 305 305 305 304 304 303 303 301 300 298 297 294 291 291 291 290 291 292 303 303 303 302 302 301 301 301 300 299 298 298 298 299 297 295 295 295 296 298 299 299 298 298 296 295 295 294 296 296 294 293 294
302 303 303 303 303 303 304 305 305 305 305 304 304 303 303 303 304 304 303 302 301 298 297 291 291 290 291 291 290 294 305 304 303 303 302 302 301 301 301 300 299 297 297 298 296 294 294 294 295 297 298 297 297 298 298 299 299 298 297 297 296 296 296
302 302 302 303 303 303 304 304 304 303 303 303 304 304 303 303 303 304 304 303 301 298 297 290 291 291 291 290 291 302 302 303 302 302 301 301 301 301 301 300 299 297 297 297 295 291 292 294 295 297 296 297 297 297 298 298 296 295 298 298 298 297 297
301 301 302 302 302 303 303 303 303 304 303 303 302 302 302 302 302 302 303 303 302 299 298 293 290 291 291 290 294 302 301 301 301 301 301 300 301 301 301 300 299 297 296 296 294 290 290 292 295 295 296 296 296 296 296 298 296 295 294 294 293 293 293
301 301 301 301 303 303 304 304 304 304 303 302 302 302 302 302 302 301 301 301 302 301 298 294 290 291 291 290 294 300 300 299 301 301 300 300 301 300 300 297 298 296 295 295 292 290 290 293 295 294 295 295 294 294 295 296 297 298 296 295 294 294 294
301 301 301 301 303 302 303 303 303 304 303 303 303 302 302 302 302 302 301 300 300 301 300 297 291 291 291 291 294 300 299 298 299 299 300 298 300 300 299 300 297 295 295 294 290 290 290 292 295 295 295 294 293 293 294 295 294 295 296 296 295 295 295
302 302 301 302 303 302 303 304 304 303 303 302 301 301 301 301 301 302 302 302 300 300 300 299 295 291 291 292 291 297 299 297 296 297 299 298 298 299 298 298 297 292 290 291 290 290 290 290 294 295 296 294 293 292 295 294 295 295 296 296 295 294 294
302 302 303 302 303 303 303 303 303 302 301 302 301 301 301 302 301 301 302 303 302 301 301 300 298 291 292 292 291 293 298 297 296 296 298 298 298 298 298 298 299 295 291 291 290 290 290 290 291 295 296 294 294 295 293 294 295 296 296 296 295 294 294
303 303 303 303 302 302 303 303 302 301 301 302 302 302 302 301 301 301 302 302 303 303 301 300 300 293 292 292 292 291 296 297 295 296 297 298 298 297 298 298 298 295 291 291 290 290 290 290 290 296 297 291 290 289 293 295 296 295 295 294 294 293 293
303 303 303 303 302 302 303 303 302 302 302 302 301 301 301 301 301 300 301 301 302 302 303 299 294 297 293 291 291 291 290 294 292 297 296 296 297 297 298 299 298 295 291 291 290 290 290 290 292 296 291 290 290 289 292 296 295 295 293 293 293 292 292
303 303 303 302 302 301 301 302 302 303 303 302 301 300 300 301 300 299 299 299 301 300 301 301 295 292 295 292 291 291 290 290 290 296 297 297 298 297 297 298 297 292 290 290 290 290 290 290 295 291 290 290 289 292 296 295 294 294 293 293 292 292 291

ECMWFFLT1_sfc_thetae_096.txt.gz
Theta_e
327 326 327 327 328 327 325 324 323 322 322 321 321 320 320 320 321 321 321 321 321 321 322 320 320 321 323 322 322 321 321 321 319 317 317 316 314 315 318 318 319 321 321 322 322 317 314 312 313 319 321 321 321 322 326 323 324 326 326 330 330 330 332
328 327 326 326 325 325 323 322 321 321 323 321 319 319 319 319 320 320 319 319 319 319 319 319 319 320 319 318 318 318 317 317 317 318 315 313 314 313 313 314 316 315 316 318 317 315 312 309 310 311 312 316 317 320 321 322 322 322 322 323 326 329 329
328 326 325 324 323 323 320 319 320 321 321 318 319 318 319 317 318 319 318 318 318 318 319 318 319 319 318 317 317 317 316 315 316 315 313 313 313 314 313 313 312 312 312 311 310 310 310 311 307 308 310 310 309 313 317 318 318 319 320 321 321 322 325
327 325 323 323 322 321 318 317 318 319 318 318 318 317 317 317 317 318 317 317 317 319 318 316 316 316 316 316 316 316 315 314 314 313 313 312 312 312 312 312 311 311 309 307 307 308 308 306 306 306 308 309 308 308 312 315 315 316 318 319 319 321 322
326 324 322 320 319 318 318 316 319 318 316 317 316 315 315 315 316 315 316 316 315 316 315 315 315 315 314 315 314 314 314 314 314 314 312 310 311 311 311 312 312 312 311 308 309 309 307 306 306 305 305 305 306 306 309 311 312 313 313 315 317 316 316
324 322 319 319 319 318 317 316 318 315 315 313 314 313 313 314 314 314 314 313 313 314 315 314 314 315 314 313 313 313 313 311 312 312 310 310 311 309 309 311 312 310 308 309 310 308 308 308 306 303 303 304 302 303 306 307 307 309 311 313 312 311 311
320 320 318 317 317 316 317 316 315 314 313 313 313 313 313 312 312 313 313 313 313 313 314 314 313 313 313 311 312 312 312 312 311 311 311 311 311 310 310 309 310 308 308 309 308 308 307 305 304 303 302 302 303 302 304 304 306 305 307 309 310 310 310
318 316 316 317 316 315 317 316 314 314 313 312 311 312 313 312 313 312 312 312 312 312 312 313 313 312 312 311 311 312 312 312 311 311 310 310 310 309 309 308 309 307 306 307 307 307 307 306 305 304 302 298 298 300 300 301 302 303 303 305 308 308 308
316 315 315 315 315 317 316 314 313 314 313 312 312 312 312 312 311 311 311 311 312 312 311 311 311 311 311 310 310 310 310 312 310 309 309 308 309 309 308 306 306 305 306 307 306 306 306 306 305 304 302 300 297 295 297 297 299 300 304 302 305 306 306
314 313 313 313 314 316 315 314 313 312 313 313 312 312 311 311 311 311 310 310 311 311 310 310 310 311 311 311 309 309 309 310 310 308 308 307 308 308 307 305 305 305 304 306 305 305 305 304 303 302 302 300 300 296 294 294 295 296 300 302 300 302 305
313 313 313 312 314 314 314 314 313 312 311 311 311 311 311 310 310 310 309 309 309 310 310 310 309 309 310 309 309 308 309 309 308 308 308 308 307 307 307 305 304 303 304 304 303 304 303 303 301 301 301 301 300 297 296 293 294 297 298 300 301 300 303
314 314 314 314 314 312 311 311 311 311 311 311 311 311 309 308 308 309 309 308 308 308 309 309 309 309 308 308 308 308 308 308 307 307 307 307 307 306 305 303 303 302 303 303 302 302 302 301 300 300 300 300 300 299 297 296 293 296 299 297 299 302 301
312 312 313 313 312 311 309 310 310 310 310 310 309 309 308 307 307 306 307 307 307 307 307 308 308 308 308 307 308 307 307 307 306 305 305 306 307 306 303 302 302 301 302 301 300 301 300 300 300 299 299 299 299 299 298 296 294 293 298 298 299 300 301
312 312 312 313 311 311 311 310 310 309 309 309 309 308 307 306 305 306 305 305 305 305 306 307 308 308 307 307 307 307 306 305 305 305 305 304 305 305 303 301 300 301 301 300 299 300 299 299 299 299 299 298 298 298 297 296 294 294 297 299 299 299 300
311 312 312 311 310 309 309 309 310 309 308 308 308 307 307 307 305 305 304 304 304 304 305 306 307 307 306 306 306 307 306 305 304 304 304 303 303 304 302 300 300 300 301 299 299 298 298 298 297 297 297 298 297 297 298 297 295 294 293 296 297 299 299
311 310 310 310 309 308 309 309 309 308 307 308 308 307 306 306 305 304 303 303 303 303 304 305 306 306 306 305 305 305 306 305 304 304 303 302 302 302 301 301 299 300 301 299 298 298 298 298 297 297 296 297 297 297 298 298 295 293 293 294 297 296 297
310 309 309 309 309 309 309 309 309 308 307 308 307 307 306 305 304 303 302 301 302 302 303 304 305 306 306 305 304 304 304 304 304 303 303 302 302 301 300 300 299 299 299 298 297 297 297 297 296 296 296 297 297 297 297 297 297 295 294 293 295 295 297
310 309 309 309 309 309 308 308 308 307 307 307 307 306 305 304 303 302 302 300 300 300 300 301 302 304 306 306 305 304 304 304 303 303 302 302 302 301 301 299 299 299 298 297 297 296 297 296 296 296 295 296 296 297 297 297 296 296 295 293 294 296 297
309 309 308 309 309 309 309 308 307 307 306 305 306 306 305 303 302 301 300 300 299 299 299 299 300 301 302 305 305 305 304 304 303 302 302 302 302 301 300 300 299 299 298 296 296 297 297 295 295 295 295 295 296 296 296 296 296 296 295 295 294 294 296
309 309 309 309 309 307 307 308 307 306 307 306 305 305 304 302 302 301 300 299 299 298 298 298 298 298 300 301 303 304 304 304 303 304 303 302 301 302 300 300 299 299 298 297 297 296 295 294 294 294 295 295 296 296 295 296 295 295 295 294 294 294 294
308 308 308 308 307 307 307 307 307 307 307 306 305 304 303 302 302 300 300 299 299 299 298 296 296 296 297 299 300 304 303 303 303 302 303 302 301 301 300 300 300 299 299 298 297 296 295 293 294 293 294 295 295 295 295 295 295 294 294 293 293 293 294
308 308 307 307 306 306 306 306 306 306 306 306 306 305 304 303 301 300 299 298 297 297 297 296 295 294 295 296 298 300 303 302 303 302 302 302 301 300 300 300 300 300 300 302 299 298 297 297 295 293 293 294 295 294 295 295 294 293 293 293 293 294 293
306 306 306 305 306 306 306 306 306 306 305 305 305 305 304 303 301 300 298 297 297 296 295 296 295 293 293 294 296 299 301 304 302 302 302 302 300 301 300 299 301 302 302 302 299 296 295 295 296 296 294 294 294 294 295 294 293 293 293 292 292 292 291
305 305 305 305 306 305 305 306 305 305 305 305 305 304 303 301 300 299 298 297 296 296 295 294 293 291 292 292 295 297 299 303 303 302 301 301 299 301 300 299 299 299 300 300 297 295 294 294 294 294 295 296 297 295 295 293 293 293 293 292 292 292 291
304 304 304 304 304 304 305 305 304 304 304 304 304 305 303 301 300 300 299 297 296 295 294 293 291 291 292 291 293 295 299 303 303 301 301 301 300 300 299 299 298 299 298 299 295 294 294 294 294 293 294 294 295 294 295 294 293 292 292 291 291 292 292
303 303 303 303 304 304 304 304 304 304 304 305 305 304 303 303 301 300 298 296 295 294 294 292 291 291 291 291 291 294 299 304 302 303 301 302 301 300 298 299 298 299 297 300 297 293 293 293 294 294 295 296 297 296 293 292 293 295 294 292 292 292 293
302 302 303 303 304 303 303 303 304 304 304 305 304 303 303 303 302 301 299 297 295 294 293 293 291 291 291 291 291 293 301 305 303 303 300 300 301 300 299 297 297 297 296 296 295 293 293 292 292 293 294 295 295 297 295 295 294 294 295 294 293 292 294
302 302 302 303 303 303 303 303 303 303 303 303 302 302 302 302 302 302 300 298 296 295 294 291 291 291 291 291 291 295 302 305 303 303 300 300 301 300 299 299 298 296 294 294 295 293 292 292 292 293 293 293 294 295 295 295 295 295 295 295 294 295 295
302 301 302 302 302 302 303 303 302 303 302 302 302 302 303 303 303 302 301 299 297 294 294 291 291 291 291 291 292 299 301 300 301 301 300 299 300 301 300 299 297 295 294 293 294 292 292 292 292 292 292 292 293 294 295 297 295 294 295 294 294 295 295
301 301 302 302 302 302 302 302 302 303 302 302 301 301 301 301 302 303 302 300 298 295 294 292 291 291 291 291 293 297 299 298 299 299 300 300 300 301 301 298 298 296 295 293 293 290 291 292 292 292 292 292 293 293 293 295 295 294 294 293 293 292 292
301 301 301 301 301 302 302 302 302 303 301 300 300 300 300 299 299 300 300 300 300 296 294 293 291 291 291 291 294 296 297 296 296 297 297 299 299 300 298 303 298 296 294 294 292 291 291 293 292 292 292 291 291 292 292 294 295 295 294 294 294 293 293
301 301 301 302 302 302 302 303 303 304 303 302 302 301 301 299 298 299 299 300 302 300 296 295 291 291 291 291 294 295 297 295 294 294 296 297 298 298 300 299 298 296 295 294 291 291 291 292 291 292 291 291 291 291 292 293 292 292 293 293 294 295 295
302 301 301 302 303 302 302 302 303 302 303 301 300 301 301 301 300 299 299 299 300 300 299 297 295 291 291 292 292 295 296 294 293 293 295 296 296 297 297 297 298 293 292 292 291 291 291 291 291 292 292 291 291 290 293 292 293 293 293 294 293 294 294
302 302 302 302 302 302 303 303 304 303 303 302 301 301 301 302 301 301 301 300 299 301 301 299 296 291 292 292 291 292 295 295 293 293 294 294 295 295 295 295 296 295 292 292 291 291 291 291 291 292 292 293 293 293 292 291 292 295 293 293 293 293 293
303 303 302 303 302 302 303 304 304 303 301 301 301 301 301 300 300 300 302 303 303 301 299 301 299 292 292 291 291 291 295 295 295 294 294 293 294 295 295 294 295 295 292 292 291 291 291 291 290 293 294 292 291 290 291 293 293 293 292 292 292 292 292
302 303 303 303 302 301 302 302 303 302 301 302 302 302 303 303 301 301 301 302 302 301 299 297 294 297 292 291 291 291 291 292 292 296 294 292 294 294 294 294 295 295 292 291 291 291 291 290 291 293 291 290 290 290 291 293 293 292 291 291 291 291 291
302 302 302 302 302 302 302 302 301 301 301 301 300 299 300 300 300 299 299 300 300 300 300 298 294 293 295 291 291 291 290 290 290 293 294 294 294 294 293 294 294 291 290 291 291 291 290 290 292 291 290 290 290 292 294 293 291 291 291 290 290 290 290

ECMWFFLT1_sfc_thetae_099.txt.gz
Theta_e
322 321 322 322 323 322 320 319 319 317 315 315 315 315 315 316 317 315 315 315 315 316 318 315 315 314 315 315 315 313 314 313 311 308 307 308 307 307 312 311 312 312 311 309 309 306 305 303 305 309 310 310 310 311 310 310 310 310 312 312 314 315 320
323 322 322 322 320 319 317 317 317 316 314 314 314 314 314 314 317 315 314 314 315 315 316 314 314 314 313 312 311 311 310 311 311 310 307 307 307 306 306 308 308 307 307 308 307 307 304 301 301 302 302 306 306 307 308 309 309 310 310 310 313 310 312
321 321 320 319 317 316 314 313 314 313 312 311 312 312 312 313 313 314 313 313 313 314 315 312 312 311 312 312 311 310 310 309 309 309 308 307 307 307 307 307 305 304 303 304 304 303 303 303 299 300 301 300 299 302 306 306 307 308 308 309 308 308 309
321 320 319 317 315 314 312 312 312 311 311 310 310 310 311 312 312 314 312 312 313 314 312 311 310 310 310 310 311 309 309 309 308 307 308 307 306 306 306 305 303 303 301 301 301 302 302 300 299 299 300 301 300 300 302 305 306 305 307 307 306 306 307
321 320 319 317 315 313 312 311 311 310 309 310 309 308 308 310 311 309 311 310 311 310 309 310 310 310 310 310 309 308 307 308 308 309 306 305 305 305 305 304 303 304 303 302 302 302 301 300 300 298 298 299 299 300 302 302 304 303 305 304 305 305 304
317 317 317 316 316 314 312 311 309 308 308 307 307 306 307 308 310 309 308 308 308 310 310 309 309 308 308 308 308 307 306 306 307 306 305 305 303 303 303 303 303 303 303 303 303 302 301 300 299 295 297 299 296 297 299 300 299 301 303 302 303 303 303
315 315 314 313 313 314 313 310 309 307 306 306 306 306 308 308 308 309 309 308 308 309 310 309 308 308 307 307 307 307 306 305 306 305 305 305 303 302 303 301 301 302 302 302 301 301 299 298 296 295 295 296 296 295 297 297 299 297 299 301 302 302 302
313 313 314 314 313 312 310 308 307 307 306 306 306 307 309 307 307 308 309 307 307 307 307 307 309 306 306 306 307 307 307 305 304 305 304 304 302 301 301 301 301 301 301 301 301 300 299 298 297 296 295 292 293 294 294 296 296 296 296 299 301 301 301
314 313 312 313 313 312 310 309 307 306 307 306 307 307 307 307 306 306 307 306 306 306 306 306 306 306 306 305 304 305 305 308 304 303 303 303 302 301 300 300 300 299 300 300 300 299 298 298 297 297 296 294 292 290 292 292 293 294 298 296 298 300 300
312 311 311 311 312 311 309 308 307 307 307 307 308 307 306 306 306 305 305 305 305 306 305 305 305 305 305 304 304 303 303 304 304 303 302 302 301 300 300 300 299 299 298 299 299 299 298 298 297 297 296 295 294 291 289 289 291 291 295 297 295 298 300
311 311 311 311 311 309 308 307 306 306 305 307 308 308 305 305 305 308 304 304 304 305 305 305 304 304 304 303 304 303 303 303 303 303 304 302 301 300 300 299 299 298 298 298 298 298 297 297 296 296 296 296 296 292 291 290 290 293 293 296 297 296 298
311 311 312 312 309 307 306 305 305 305 305 307 307 303 303 303 303 303 303 303 303 304 304 304 304 304 303 302 303 302 303 302 301 301 302 303 301 300 298 297 298 297 297 297 297 297 297 297 296 296 295 296 296 294 293 292 290 293 295 293 296 298 297
312 312 310 308 306 305 306 305 304 304 304 306 303 303 302 302 301 301 302 302 302 302 303 303 303 303 303 302 302 301 301 301 301 300 300 301 301 299 298 297 297 297 297 296 296 296 296 296 296 295 295 295 295 295 295 294 291 291 295 295 295 296 298
310 310 308 307 306 305 306 306 304 305 304 303 303 302 301 301 301 301 301 302 301 301 302 302 303 302 302 302 302 301 301 301 300 299 300 299 300 298 298 297 297 297 297 296 295 296 296 295 295 294 295 294 294 294 294 293 291 291 294 296 296 296 297
308 306 305 305 305 305 304 304 304 303 302 303 302 302 301 301 300 300 300 300 300 300 301 302 302 302 301 301 301 303 302 301 300 299 298 297 298 299 297 296 296 296 296 295 295 295 295 295 294 293 293 294 294 294 295 293 292 292 291 294 294 296 296
307 305 304 304 304 304 304 304 304 303 302 302 302 301 300 300 299 299 298 298 298 299 299 299 300 301 301 300 300 300 301 300 299 298 298 297 297 297 296 296 295 296 297 294 294 294 295 293 293 292 293 294 293 294 294 295 293 292 291 292 294 294 294
305 305 304 304 303 303 303 303 304 303 303 302 301 300 300 299 298 297 297 297 297 297 297 297 298 298 300 300 300 299 299 299 298 297 297 297 297 297 295 295 294 295 295 294 294 293 293 292 292 292 292 293 293 293 294 294 295 293 292 291 292 293 294
304 304 303 303 303 303 303 303 304 302 302 301 300 300 300 299 297 297 296 296 296 295 295 296 296 296 298 299 299 299 298 298 298 298 298 298 302 296 296 295 295 295 294 293 293 292 291 291 292 292 291 292 293 294 294 294 294 294 292 291 291 293 295
304 303 303 303 303 303 303 302 302 302 302 300 299 299 298 298 297 296 296 296 295 294 294 294 294 294 295 297 297 299 299 299 299 298 297 297 297 297 296 295 295 295 294 292 291 291 290 290 291 291 291 291 292 293 293 293 294 293 292 292 291 292 293
303 303 303 303 303 303 302 302 302 301 302 300 299 298 297 296 297 296 296 295 294 294 293 293 292 293 294 294 296 297 298 298 298 298 297 297 296 296 296 296 295 295 293 292 291 290 290 290 291 290 292 291 292 292 292 292 293 292 291 291 291 291 291
303 303 303 303 302 302 302 302 302 302 302 299 298 297 296 296 296 295 295 294 294 294 292 292 292 292 292 293 294 296 297 298 297 297 296 296 296 295 295 296 296 295 294 293 292 291 291 291 291 290 290 291 291 291 291 292 292 291 290 290 290 289 290
303 303 302 302 301 301 301 301 301 302 302 301 300 298 297 296 294 294 293 293 292 293 292 292 293 292 291 292 293 294 296 297 296 297 296 295 295 295 294 295 295 296 300 299 297 296 296 296 292 290 290 291 292 291 291 291 291 290 290 290 289 290 289
302 302 301 301 301 301 301 301 301 300 300 300 299 298 297 296 295 294 293 292 291 292 292 293 294 293 294 292 292 294 296 297 296 296 297 295 295 295 295 294 299 300 300 297 296 295 294 294 296 294 292 292 291 291 291 291 290 290 290 289 288 288 288
302 301 301 301 300 301 301 301 300 300 300 299 298 298 296 295 294 293 292 291 290 291 291 292 293 291 292 293 294 292 294 296 296 295 295 295 294 295 295 294 294 298 298 297 295 294 293 293 293 293 294 295 296 293 291 290 290 290 290 289 289 288 288
301 301 301 300 301 301 301 300 300 299 299 298 298 297 295 295 294 293 292 290 290 291 290 293 291 292 292 292 294 294 293 296 297 295 295 295 295 294 294 294 294 295 296 295 293 290 292 293 293 293 293 293 293 293 294 292 291 290 290 289 288 289 288
300 300 299 300 301 300 300 300 299 299 299 299 297 296 295 294 293 292 291 290 289 289 289 292 291 292 291 291 292 295 295 295 296 295 293 294 294 293 293 295 294 293 294 297 296 290 290 290 293 293 294 294 294 294 292 291 293 294 292 290 289 289 289
299 299 299 300 300 299 299 299 299 299 299 299 298 297 296 295 293 292 291 290 289 288 289 292 291 291 291 291 292 294 296 297 296 293 293 294 295 293 293 293 291 291 290 291 291 291 290 290 290 290 290 290 290 293 293 293 293 293 294 292 290 289 291
298 299 299 299 299 298 298 298 298 298 298 298 297 297 296 294 294 294 292 290 289 289 290 292 291 291 291 292 293 294 295 296 295 295 294 294 295 294 293 293 290 290 290 289 293 293 291 290 290 290 290 290 290 291 291 292 292 293 293 292 291 291 291
298 298 299 298 298 298 297 297 297 297 297 296 297 297 297 296 294 292 292 290 288 287 288 291 291 291 291 291 293 295 293 293 293 293 293 294 294 294 293 291 290 291 290 290 294 292 292 292 290 290 289 289 290 291 291 295 294 294 294 292 292 292 292
298 298 298 298 297 297 296 296 296 297 296 295 295 294 295 296 295 293 292 291 288 287 287 290 291 291 291 291 293 292 291 291 291 291 292 293 294 294 293 292 291 291 290 291 293 291 291 293 290 290 289 289 290 290 291 293 294 293 293 292 292 292 292
298 298 298 297 296 296 296 296 296 297 295 294 293 293 294 294 295 295 293 290 290 288 287 291 291 291 291 291 293 291 290 290 289 290 291 292 293 293 294 301 298 292 292 292 292 291 291 292 290 289 289 288 288 289 290 292 292 292 293 293 293 292 292
298 298 297 296 297 296 296 296 297 296 295 294 294 293 294 292 292 292 293 293 297 291 288 291 291 291 291 291 292 290 291 289 289 289 290 291 292 292 292 297 300 296 294 293 291 291 291 292 290 289 288 288 288 288 289 290 290 290 290 291 291 292 292
298 298 297 297 297 296 297 297 296 296 295 295 294 294 293 293 292 292 293 294 296 292 290 289 290 291 291 291 292 291 291 289 289 288 289 292 291 290 291 291 293 292 291 291 291 290 290 291 290 289 289 288 288 288 290 290 291 292 290 290 290 291 291
298 298 297 297 297 297 297 296 296 296 295 295 294 294 294 293 293 292 292 292 293 292 292 289 290 291 291 291 291 291 288 289 287 288 287 289 289 289 290 289 290 293 291 291 290 290 290 290 291 291 289 288 289 291 291 290 291 294 290 290 290 290 290
299 299 298 297 296 296 296 297 296 295 295 295 295 295 295 295 293 293 292 292 293 293 297 296 290 291 291 291 291 291 289 289 290 289 288 287 288 288 288 288 289 292 291 290 290 290 290 291 290 292 290 290 290 290 291 292 290 290 289 289 289 289 289
298 299 298 298 297 296 296 296 296 296 296 295 295 294 294 294 293 293 293 294 292 291 292 294 294 292 291 290 290 290 290 289 289 291 288 287 287 288 288 289 291 293 290 290 290 290 290 290 291 290 290 290 290 290 291 290 289 289 288 288 288 287 288
298 298 298 297 297 296 295 295 296 296 296 296 294 294 294 294 293 292 292 292 294 291 291 290 292 293 290 290 290 290 289 289 290 289 289 288 287 288 289 288 290 290 290 290 290 290 290 290 290 290 290 290 290 291 290 289 288 288 288 287 287 287 287

ECMWFFLT1_sfc_thetae_102.txt.gz
Theta_e
319 318 318 317 317 317 313 313 312 312 313 313 312 313 314 315 314 312 313 313 313 314 314 311 310 310 310 311 311 310 310 309 307 305 304 305 304 304 308 305 306 307 305 304 303 300 299 296 296 302 302 302 303 303 303 302 303 302 304 304 304 303 303
320 319 318 317 314 314 311 311 310 310 311 312 312 311 312 313 315 312 311 311 311 312 314 311 310 310 309 308 308 307 306 307 308 307 304 303 303 302 302 302 302 302 303 302 302 302 299 295 295 296 296 299 299 301 301 301 303 302 303 302 303 303 303
319 316 314 312 311 311 309 309 309 308 309 309 310 310 310 311 311 311 310 310 311 312 312 308 309 308 308 308 308 307 306 305 305 305 304 303 303 302 302 301 299 299 299 299 299 298 298 297 293 293 294 294 293 297 299 299 301 300 300 301 300 301 301
316 314 311 310 310 310 308 308 308 308 308 307 308 309 309 309 310 312 310 310 310 313 310 308 307 307 307 306 306 306 306 304 303 302 303 303 302 301 301 300 299 298 297 296 295 296 295 293 292 292 293 294 294 293 296 299 300 299 300 300 299 300 300
315 313 311 310 310 308 307 306 306 306 306 306 306 307 307 308 309 307 309 308 308 306 306 307 307 307 307 306 305 305 304 304 303 303 301 300 300 300 300 300 299 299 298 297 297 296 295 294 293 292 292 294 294 294 296 297 298 298 298 298 299 299 299
315 313 312 311 310 308 307 306 305 305 305 305 305 305 306 307 308 306 306 306 306 307 306 306 306 306 306 305 304 303 303 302 301 301 300 299 299 298 298 299 299 298 297 298 297 296 295 295 293 291 292 294 291 292 294 295 294 297 298 298 298 299 299
313 312 311 310 309 308 307 305 305 304 304 304 304 305 305 307 306 307 306 305 306 307 307 306 305 306 305 304 303 303 302 302 301 300 300 299 299 298 299 297 297 297 297 297 296 296 294 293 292 292 291 291 291 291 293 293 294 293 295 297 298 299 298
311 311 310 310 308 307 306 305 304 304 304 304 305 306 306 305 305 306 306 304 304 304 305 304 305 304 304 305 304 303 303 302 301 300 299 298 298 297 297 297 298 297 296 296 295 295 295 294 293 293 292 289 289 289 290 291 292 292 293 295 297 297 297
313 311 310 310 309 308 306 305 304 304 304 304 305 305 305 304 304 304 304 303 303 304 304 304 303 303 303 302 302 302 302 304 300 299 298 298 297 297 296 296 296 295 296 296 296 295 294 295 294 294 293 291 288 286 289 288 290 290 294 293 295 297 297
309 309 309 308 308 307 306 304 304 304 304 304 305 305 304 304 303 303 303 303 303 303 302 303 303 302 302 302 301 301 301 301 300 298 298 297 297 296 296 296 295 296 295 297 296 296 295 294 294 294 293 292 292 287 287 286 288 289 292 294 292 294 297
309 309 309 308 307 306 305 305 304 304 303 305 305 305 303 302 303 305 302 302 302 302 302 302 302 302 301 301 301 300 301 301 300 299 299 297 296 297 297 296 295 295 296 295 295 295 294 294 293 293 292 293 293 290 290 288 288 291 290 293 293 293 295
309 309 309 308 306 305 304 303 303 303 303 303 303 301 300 301 301 301 301 301 301 302 302 302 302 301 301 300 301 299 299 299 298 298 298 298 297 297 295 295 295 294 295 294 294 294 294 294 293 292 292 293 293 292 291 290 287 290 293 291 293 295 295
310 308 307 306 304 304 303 302 301 301 301 301 300 300 299 300 300 300 300 300 301 301 301 301 301 300 300 299 299 299 298 298 297 297 297 297 297 296 295 294 294 294 294 294 293 293 292 293 293 292 292 293 292 292 292 291 289 288 292 292 293 294 295
307 307 305 304 303 303 303 303 301 301 300 299 299 299 299 299 299 299 299 300 299 299 299 299 300 300 300 299 299 299 298 297 297 296 298 296 296 295 295 294 294 294 294 293 293 292 291 291 292 292 293 292 291 292 291 290 288 289 291 293 293 293 295
307 306 304 304 303 302 302 301 301 300 299 299 299 298 298 298 298 298 298 297 297 298 298 298 298 299 299 299 298 300 298 297 296 296 296 294 294 296 294 293 294 294 293 292 291 291 290 290 290 290 290 292 290 291 292 291 290 289 289 292 292 294 293
305 304 303 302 301 302 301 301 301 299 298 298 298 297 297 297 297 297 296 296 296 296 296 297 297 298 298 297 297 297 297 296 296 295 295 294 294 293 293 294 293 292 293 290 290 289 290 289 290 290 290 291 290 291 292 292 290 289 289 290 292 292 292
304 302 301 301 301 301 301 301 301 299 298 297 297 297 296 296 296 295 295 295 294 294 294 295 295 296 297 296 297 296 296 296 295 295 295 294 294 294 292 292 292 291 291 289 289 288 289 289 289 290 289 290 290 290 291 292 291 290 290 289 291 291 292
302 301 301 300 300 301 301 300 300 298 297 297 296 296 296 295 294 294 294 293 293 293 293 293 294 294 295 295 296 296 296 295 295 295 295 296 300 293 294 292 292 291 290 288 288 288 288 288 289 289 289 289 290 291 292 291 291 291 290 289 290 292 292
301 301 301 300 300 300 300 299 298 298 297 296 295 295 295 295 295 293 293 292 292 292 292 292 292 292 293 294 295 295 296 296 295 294 294 294 294 295 293 292 292 291 289 288 287 288 288 287 289 288 288 289 289 290 290 290 291 291 290 290 290 290 290
301 301 301 300 300 300 299 298 298 297 297 295 295 294 294 293 294 293 292 292 292 291 291 291 291 291 291 292 293 295 295 294 294 294 293 293 293 293 293 293 292 290 290 289 288 288 288 288 290 288 290 289 290 289 289 289 290 290 289 289 289 289 289
301 301 300 300 300 299 299 298 297 297 296 295 294 294 293 293 293 292 292 292 292 293 291 291 290 290 291 291 292 293 294 296 294 293 293 293 293 292 293 293 292 291 291 291 290 289 289 289 289 289 288 289 289 289 289 289 289 288 288 288 288 288 288
301 301 301 300 300 299 299 298 297 296 296 295 295 293 292 292 291 290 290 290 290 291 291 292 292 291 290 291 290 292 293 294 294 293 293 293 293 293 293 293 293 294 296 297 296 295 295 295 291 288 289 289 290 289 288 288 288 288 288 288 288 288 288
300 300 300 299 299 299 298 298 297 296 295 294 294 293 292 292 290 290 289 289 289 290 291 292 294 294 294 293 291 292 294 294 294 294 293 293 293 293 292 293 298 298 298 297 297 295 294 294 295 294 291 290 289 289 288 288 288 288 288 287 287 287 286
299 299 299 299 298 299 298 298 296 296 295 294 294 294 292 291 290 289 289 288 288 290 290 292 293 291 292 294 293 292 292 293 294 294 293 292 292 293 292 292 292 297 297 297 294 294 293 293 293 293 293 295 295 292 289 288 288 288 288 287 288 287 287
299 299 299 298 298 298 298 297 296 295 294 293 293 292 290 290 289 289 289 288 288 289 289 294 291 292 292 293 296 293 292 293 294 292 293 292 292 292 291 291 291 293 293 294 293 290 292 293 293 293 293 293 293 292 293 291 289 288 288 287 287 287 287
298 298 298 298 298 298 297 296 295 294 293 293 292 291 290 289 288 288 288 287 288 288 288 293 291 292 292 293 294 295 294 294 292 290 292 292 291 291 291 291 291 290 290 297 296 289 289 290 293 293 293 293 293 293 291 290 292 292 290 288 288 287 287
298 298 298 298 298 297 296 295 294 294 294 293 291 290 289 289 288 288 288 288 287 288 288 292 291 292 292 292 292 293 292 292 292 292 291 291 291 290 289 289 289 290 289 289 289 290 290 290 289 290 289 289 289 291 292 292 292 292 293 291 288 287 289
297 298 298 297 297 297 296 295 295 295 293 292 290 290 289 288 288 289 287 287 287 288 290 292 291 292 292 292 292 292 290 292 291 290 291 291 291 290 289 290 290 289 289 289 292 292 290 289 289 289 288 288 288 289 289 290 290 291 292 291 289 289 290
297 297 297 297 297 296 296 296 295 295 294 292 291 291 289 290 289 287 287 286 287 286 288 291 291 291 292 291 292 292 289 290 290 290 290 291 291 291 290 289 289 289 289 289 293 292 292 291 289 288 288 288 288 288 289 293 293 293 293 291 291 291 291
297 297 297 297 296 296 295 295 295 295 294 293 292 290 290 289 289 288 288 287 286 285 287 290 291 291 291 291 291 289 288 289 289 289 289 290 290 290 290 291 290 290 290 289 293 290 290 292 288 288 287 287 288 288 288 290 292 292 292 292 292 291 291
297 297 296 296 296 295 295 294 295 296 294 293 292 291 291 290 289 289 287 286 286 286 286 290 291 291 291 291 291 287 288 288 287 288 288 288 289 288 291 298 298 290 289 290 291 290 290 291 288 287 287 286 286 287 288 289 290 291 292 292 291 291 291
297 297 296 296 295 294 294 294 295 294 293 293 293 292 293 291 290 288 287 287 295 288 286 290 291 290 291 291 290 286 287 287 287 286 287 288 288 289 289 292 295 294 292 291 290 290 290 291 288 287 286 286 286 286 287 288 288 289 289 288 288 289 290
297 297 296 295 295 294 295 294 293 292 292 292 292 292 293 292 290 290 290 291 293 288 287 287 289 291 291 291 292 288 287 286 287 285 285 289 289 287 287 288 291 291 290 290 289 289 290 290 288 288 287 286 286 286 288 288 290 290 288 288 287 288 288
297 296 296 295 295 295 294 294 293 292 291 291 291 291 292 291 291 291 292 292 290 287 288 286 289 290 291 291 291 290 285 286 284 285 284 286 284 285 287 287 287 291 290 290 289 290 290 290 290 290 288 287 287 289 290 288 289 292 287 288 288 288 288
297 297 296 296 295 294 294 294 293 292 291 291 291 291 291 291 291 291 291 291 291 290 293 295 287 290 290 291 290 291 288 288 286 286 285 284 284 285 285 286 287 290 290 289 289 290 290 290 290 291 289 289 289 289 289 290 288 287 287 287 286 286 287
297 298 297 296 295 294 294 293 293 293 292 291 291 290 290 291 290 289 289 291 292 292 291 294 293 289 290 290 290 290 290 288 290 290 285 285 285 286 285 286 288 292 289 289 289 290 290 290 291 289 289 289 289 289 290 287 287 286 286 285 286 285 286
297 297 296 296 295 294 293 293 294 293 293 292 291 291 291 291 290 290 291 291 292 291 291 290 292 292 289 289 290 289 289 289 289 288 288 287 286 285 286 286 289 289 289 289 289 289 289 290 289 289 289 289 289 289 288 287 285 285 285 285 284 284 284

ECMWFFLT1_sfc_thetae_105.txt.gz
Theta_e
317 315 314 313 313 313 310 310 310 310 311 311 311 312 313 314 313 312 312 312 311 311 311 308 307 306 307 307 307 306 306 305 303 301 300 300 299 299 303 301 301 301 299 298 297 296 295 291 291 295 296 296 297 298 298 298 298 298 298 298 300 298 298
316 315 315 316 312 311 308 308 308 308 309 310 310 310 311 312 314 310 310 310 309 310 312 308 307 307 306 304 303 303 303 303 303 302 300 299 298 297 298 297 298 297 296 296 296 296 293 287 287 289 290 294 295 296 297 297 298 298 298 298 300 298 299
316 313 312 310 309 308 307 306 306 306 307 308 308 309 309 309 309 310 309 309 309 310 310 306 306 305 304 304 303 302 302 301 301 301 300 299 299 298 297 296 295 294 294 293 293 293 292 292 288 288 290 290 289 293 296 296 297 297 297 297 297 297 297
313 311 308 307 307 306 305 305 305 305 305 305 307 307 307 308 309 310 308 308 309 311 308 305 304 304 303 302 302 301 301 300 299 299 299 299 298 297 296 296 295 294 292 291 291 292 291 289 289 288 290 291 291 290 293 296 298 296 296 297 297 296 296
312 309 307 306 306 305 304 304 304 304 304 305 305 305 305 306 307 306 308 306 306 305 304 304 304 303 303 302 301 300 299 299 300 300 297 296 296 296 295 295 295 295 294 293 293 292 291 291 290 288 289 290 290 290 294 294 295 295 295 295 296 296 296
311 309 308 306 305 305 304 303 303 303 303 303 303 304 304 305 306 305 305 305 304 305 304 304 303 302 302 301 300 299 299 298 298 297 296 296 296 295 294 295 294 294 293 294 294 293 292 292 291 288 289 290 287 289 290 292 292 294 295 295 296 296 296
310 309 308 306 306 305 305 304 303 303 302 302 303 303 303 305 305 305 305 304 305 305 305 304 303 302 301 300 299 298 298 297 297 296 296 296 296 295 295 294 294 293 293 293 293 292 291 291 289 289 289 289 288 288 289 289 291 291 292 294 295 295 295
311 309 307 307 305 305 304 304 303 303 303 303 303 303 305 303 304 303 303 303 303 303 303 303 303 302 302 301 300 299 298 297 297 297 296 295 295 294 294 295 295 294 293 293 292 292 292 291 291 290 289 287 286 286 287 288 289 289 290 292 294 294 295
312 309 308 307 305 305 304 304 303 302 303 302 303 303 303 303 302 302 302 302 302 302 302 302 301 301 300 299 298 298 297 300 296 295 295 295 294 294 294 294 294 293 294 293 293 292 292 292 292 291 291 289 286 284 287 285 287 287 291 290 292 294 295
308 307 306 305 305 306 305 304 303 302 302 302 303 303 302 302 301 301 301 301 301 301 301 301 301 300 300 299 298 297 296 296 297 295 295 294 294 294 294 294 293 293 293 293 293 293 292 292 292 291 291 290 289 285 285 284 286 286 289 291 290 292 295
308 307 307 306 306 306 305 304 303 302 301 303 303 303 302 302 302 304 301 301 300 301 300 300 300 300 300 299 298 297 297 297 296 296 296 295 294 295 295 293 293 292 293 291 291 292 292 291 291 291 291 291 290 288 286 285 285 287 289 291 292 291 294
307 306 307 307 307 305 304 302 301 301 301 302 302 300 300 300 300 300 300 300 300 300 300 300 300 299 299 298 298 297 297 296 295 295 295 295 295 294 293 292 292 292 292 291 290 290 291 292 291 290 291 291 291 289 288 287 285 288 291 289 292 294 293
307 306 306 306 305 304 303 301 300 299 299 300 299 299 299 299 299 299 299 299 299 299 299 299 299 298 297 297 297 296 296 295 295 294 294 295 295 293 292 292 292 291 290 290 289 290 289 291 292 290 291 291 290 290 290 288 287 287 291 291 292 293 294
305 305 305 305 304 302 301 301 299 299 299 298 298 298 298 298 298 299 299 300 298 298 298 298 298 298 297 296 296 296 295 295 295 294 295 293 294 293 293 292 291 291 290 289 289 289 289 289 290 290 291 290 289 289 289 287 286 287 290 292 292 292 294
304 304 304 303 302 300 299 298 299 298 297 297 298 298 298 298 297 297 297 297 297 297 298 298 297 298 297 296 296 297 295 295 294 293 293 293 293 294 291 291 290 290 290 288 288 288 289 288 289 288 288 290 288 289 289 289 287 287 287 290 290 292 292
303 303 302 301 300 299 298 298 299 297 296 296 297 297 296 296 296 296 296 296 296 296 296 296 296 296 296 295 295 295 295 294 294 293 292 292 291 291 291 291 289 289 291 288 288 287 288 288 289 288 288 289 288 289 289 289 287 286 287 288 290 290 291
302 302 300 299 298 298 297 297 298 296 296 296 296 296 296 296 296 295 295 295 295 295 295 295 295 295 295 295 295 294 294 293 293 293 292 292 291 290 289 289 289 289 288 287 287 287 287 287 287 288 288 288 288 288 289 290 289 287 287 287 289 289 291
301 300 299 299 298 297 297 296 297 295 295 295 295 295 296 295 294 294 294 293 293 293 293 294 294 294 294 294 294 294 294 293 293 293 293 293 297 291 292 289 289 288 287 286 286 287 287 286 287 288 287 287 288 289 290 289 289 288 287 287 287 289 290
300 299 299 298 298 297 297 296 295 295 295 294 293 294 294 294 294 292 292 292 292 291 291 292 292 292 293 294 294 294 294 293 293 293 292 292 292 291 290 289 289 289 287 286 286 287 286 286 287 287 287 288 288 288 288 288 289 288 287 287 287 287 289
300 299 299 298 297 296 296 295 295 294 295 294 293 292 292 292 293 292 291 291 291 291 291 291 290 291 291 292 294 294 293 292 292 291 291 292 292 291 290 290 290 288 288 288 287 287 287 287 289 288 290 288 288 287 288 287 288 287 287 286 286 287 287
300 299 298 298 296 296 295 295 294 295 294 292 292 292 291 292 292 291 291 291 291 292 291 290 289 289 290 292 294 293 293 292 292 291 291 291 291 291 290 290 289 289 288 289 289 288 288 288 289 289 289 289 289 288 287 287 287 286 286 286 286 286 287
299 300 298 297 296 295 295 294 294 294 293 293 293 291 290 290 290 289 289 290 290 291 291 291 291 290 290 290 290 293 293 293 292 291 290 290 290 290 291 291 290 289 295 296 297 296 295 295 291 289 289 288 289 288 287 287 287 286 286 286 286 287 286
299 298 297 296 295 295 294 294 293 292 292 291 291 291 289 290 289 289 289 289 289 290 291 291 294 295 297 291 290 291 293 292 292 291 291 291 290 291 291 291 295 298 297 298 298 296 294 294 295 293 291 289 288 287 287 286 286 286 286 286 285 285 285
298 298 297 296 295 295 294 293 292 291 291 291 291 292 289 288 288 288 288 288 288 290 290 291 293 292 292 295 291 291 292 291 292 291 291 290 289 291 291 289 287 294 297 297 294 295 293 293 293 293 294 294 294 290 287 286 286 286 286 286 286 286 285
298 297 297 296 295 294 294 293 292 291 291 290 291 289 288 287 287 287 288 288 288 289 289 294 291 292 293 294 297 293 291 292 292 291 290 289 291 291 289 288 289 289 291 292 293 290 292 293 292 292 292 293 292 292 292 289 288 286 286 286 286 286 285
297 297 297 296 295 294 293 292 292 291 290 290 289 288 287 287 286 286 287 287 288 288 288 293 292 293 293 293 293 293 291 290 292 290 289 289 289 289 289 290 290 290 289 296 295 289 288 289 292 293 293 293 292 293 290 290 291 291 289 287 286 285 286
297 296 296 296 295 293 293 292 291 291 291 289 287 287 286 286 286 286 287 287 287 287 288 293 292 292 292 292 292 293 290 290 290 290 289 289 289 288 288 288 287 290 289 289 288 289 289 288 287 288 287 287 287 290 291 291 291 291 292 289 286 285 287
296 296 296 295 294 293 292 291 291 291 289 288 287 286 286 285 286 288 286 286 287 287 289 292 291 291 291 291 291 292 290 291 290 288 288 289 289 288 287 287 286 288 288 288 290 291 289 288 287 287 287 287 287 287 287 287 288 289 290 289 288 287 288
297 296 296 295 294 292 292 291 290 290 289 287 286 286 286 286 286 286 286 286 287 285 287 291 291 291 291 291 292 291 289 289 289 288 288 288 289 288 288 287 286 288 289 287 292 291 291 290 286 286 286 286 286 287 287 291 292 292 291 290 289 289 289
297 297 296 295 293 292 292 291 290 291 288 287 287 286 286 285 286 285 286 286 286 284 286 290 291 291 290 290 291 289 289 289 288 287 287 288 287 288 288 291 291 288 288 287 292 290 290 292 286 286 285 285 286 286 286 288 291 291 291 291 291 290 290
298 297 296 295 294 293 292 292 291 291 289 287 286 286 286 286 284 286 286 285 287 287 286 290 291 291 291 291 290 287 287 287 286 286 286 286 286 286 287 296 296 289 287 288 291 289 290 290 286 285 285 285 284 285 286 287 288 289 291 291 290 290 290
298 297 296 295 294 293 292 292 292 291 289 288 288 287 289 286 285 285 284 285 295 288 286 289 291 290 291 291 290 286 287 286 286 284 284 285 285 286 286 290 293 292 290 291 289 289 289 290 285 284 284 283 284 284 285 286 286 286 287 286 286 288 288
299 298 296 295 294 294 294 293 292 291 290 289 289 288 289 288 287 285 286 289 291 288 288 287 290 290 291 291 291 288 286 286 286 284 284 288 287 285 285 286 290 290 289 289 289 289 289 290 286 285 284 283 284 284 286 286 288 288 286 286 285 286 286
298 298 297 295 295 294 294 293 292 291 290 290 289 288 289 288 288 286 286 288 288 287 289 287 290 290 291 291 291 290 284 283 282 282 282 286 283 284 285 286 286 290 289 289 289 289 289 290 290 288 284 284 284 288 288 285 287 290 285 286 286 286 286
299 298 297 296 294 293 292 293 292 291 291 290 290 290 289 290 289 287 287 289 289 287 291 295 286 290 290 290 290 290 286 286 285 284 283 283 282 283 284 284 286 289 289 289 289 289 289 289 289 288 287 288 288 288 288 289 286 285 284 285 284 285 285
298 298 297 296 294 293 292 292 292 292 291 291 291 290 289 289 287 287 287 288 289 289 287 292 293 289 290 290 290 290 290 287 289 289 283 286 284 284 284 285 287 291 289 289 289 289 289 289 290 286 288 288 288 288 288 285 286 284 284 284 284 283 284
298 297 297 296 295 293 292 293 293 293 293 292 292 291 290 289 287 287 289 289 291 290 289 288 292 292 289 289 289 289 289 289 289 286 286 285 284 283 285 284 288 289 289 289 289 289 289 289 287 288 288 288 288 288 286 285 283 283 284 283 283 283 283

ECMWFFLT1_sfc_thetae_108.txt.gz
Theta_e
315 312 312 312 313 313 311 311 310 310 311 311 312 312 313 314 313 311 311 311 310 310 309 306 305 305 305 306 306 304 304 303 301 299 298 299 298 298 301 299 299 299 298 297 298 298 295 293 293 296 296 297 299 298 298 298 298 298 298 300 298 297 299
314 313 314 313 311 311 309 308 308 308 309 309 310 310 311 312 313 310 309 309 308 308 308 306 305 304 303 302 302 302 301 301 302 300 298 297 297 296 296 296 297 296 296 296 296 297 292 289 290 290 291 295 298 298 298 299 299 298 298 299 299 297 299
313 311 309 308 308 308 307 307 307 307 307 308 309 309 309 309 310 310 309 308 307 308 307 304 303 302 302 302 301 301 301 299 300 299 297 297 297 296 296 295 294 294 294 293 293 293 293 293 289 289 290 290 291 295 298 298 298 298 297 298 298 297 297
310 308 307 306 306 306 306 305 305 305 306 306 307 308 308 309 309 311 308 307 308 308 305 303 302 301 301 301 301 300 299 298 297 297 297 297 296 295 295 295 294 293 292 291 291 292 292 290 290 290 291 291 292 292 295 297 298 297 296 297 297 297 297
310 308 307 306 306 306 305 305 305 305 305 305 306 306 306 307 307 306 307 305 305 303 302 302 302 301 301 300 300 299 298 298 298 297 295 294 294 294 294 295 294 294 294 293 293 293 292 291 291 290 290 291 292 292 294 297 297 296 296 296 296 297 297
310 308 308 307 307 306 305 304 304 304 304 304 304 305 305 306 306 305 305 304 303 304 303 301 301 301 300 299 298 298 297 297 297 296 295 295 295 294 294 295 294 294 293 294 294 293 293 293 292 290 290 292 291 291 293 294 293 295 296 295 296 297 297
310 309 308 307 306 305 305 304 304 304 304 304 304 304 304 306 306 306 305 304 304 303 302 301 301 300 299 298 298 297 297 297 297 296 296 296 295 295 295 294 294 294 294 294 294 294 293 293 291 290 290 291 292 291 292 292 293 293 294 295 296 297 297
310 308 308 307 306 305 304 304 303 304 304 303 304 305 306 304 304 304 304 303 303 303 302 301 301 300 299 299 299 298 298 297 297 297 295 295 294 294 294 294 294 294 294 294 294 293 294 293 292 292 291 288 288 290 289 290 291 292 291 294 296 296 296
311 309 308 307 306 306 305 305 304 304 304 303 304 303 304 304 303 303 303 302 302 302 301 300 299 298 298 298 297 297 297 299 296 295 295 295 294 294 293 294 293 293 294 294 294 294 294 294 293 293 293 291 288 286 289 289 290 290 293 292 294 296 296
308 307 306 306 306 307 307 306 305 303 303 303 303 303 302 302 302 302 302 301 301 301 301 300 299 298 298 297 297 296 296 297 297 295 296 295 295 294 294 293 293 293 293 294 294 294 294 294 293 293 293 292 291 288 286 287 288 289 291 293 291 294 296
308 308 307 306 307 306 306 305 304 303 302 303 304 304 303 303 303 304 301 301 301 300 300 299 298 298 298 297 297 297 297 297 296 297 297 295 295 295 295 293 293 292 293 293 292 294 294 293 293 293 293 293 293 290 289 287 287 291 291 293 293 292 295
308 307 307 307 307 306 304 304 303 302 302 304 303 301 301 301 301 301 301 300 300 300 300 299 299 298 298 297 297 296 296 296 296 295 296 296 295 295 293 292 293 292 292 292 292 292 293 294 293 293 293 293 293 292 291 290 287 291 293 291 293 295 294
308 307 307 306 306 305 304 303 302 301 300 302 300 300 300 300 300 300 300 300 299 299 299 299 298 298 297 297 297 296 296 296 295 295 295 295 295 294 293 292 292 292 292 292 292 292 292 292 293 293 293 292 292 293 293 290 288 288 293 292 293 294 294
307 307 306 306 305 304 303 302 300 300 300 299 300 300 300 299 300 300 300 301 299 299 298 298 298 298 297 296 296 296 296 296 295 295 296 294 295 294 294 292 292 292 292 291 291 291 292 291 292 292 293 292 292 292 291 290 288 289 292 294 293 293 295
305 306 305 304 303 303 301 300 300 299 299 299 299 299 299 299 299 299 299 298 298 298 298 298 298 297 297 296 296 296 295 295 294 294 294 293 294 294 293 292 291 292 292 290 291 291 291 291 291 291 291 291 291 291 292 290 289 289 288 292 292 294 293
304 304 303 302 301 300 300 299 300 298 298 298 299 298 298 298 298 298 298 298 298 298 298 297 297 297 297 296 296 296 296 295 294 294 293 293 293 293 292 293 291 291 292 291 291 290 291 291 291 291 291 291 291 291 291 292 290 288 288 289 292 291 292
303 303 302 301 300 299 299 298 299 298 297 297 297 298 297 297 297 297 297 297 297 297 297 296 296 296 296 296 295 295 295 295 294 294 294 293 292 292 292 291 291 291 291 290 290 291 291 291 291 291 291 291 291 291 292 292 291 290 289 288 290 290 291
301 301 300 299 299 298 297 297 298 297 296 296 296 297 297 297 296 297 296 296 296 296 296 296 296 296 296 296 295 295 295 294 294 294 294 294 297 293 293 291 291 291 291 291 291 291 291 291 291 292 291 291 291 291 292 291 291 291 289 288 289 291 292
300 299 299 298 297 297 297 297 297 297 297 295 295 295 295 296 296 295 295 295 295 295 295 295 295 295 295 296 295 295 295 295 295 295 295 294 293 294 292 292 292 292 291 291 291 292 292 291 292 292 291 291 291 291 291 291 291 291 290 289 289 289 291
299 298 298 297 297 297 296 296 296 296 296 295 295 294 294 294 295 294 293 294 294 294 293 294 294 295 295 295 295 295 294 294 294 295 294 294 294 293 293 293 294 292 292 292 292 292 292 292 292 292 293 291 292 291 291 291 291 290 289 289 289 290 289
299 298 297 297 296 296 295 295 295 296 296 294 294 293 293 293 294 293 293 293 293 294 293 293 293 294 295 295 295 294 294 294 294 293 294 294 295 294 293 293 293 293 293 294 296 295 294 293 293 293 293 292 292 291 291 290 290 289 289 289 288 288 289
298 298 297 296 295 295 294 294 294 295 295 294 294 293 293 293 292 292 292 293 293 293 293 293 293 294 294 294 294 294 294 294 293 293 293 293 293 294 295 295 293 292 301 298 299 298 297 295 294 293 293 292 293 292 291 290 290 289 289 288 288 289 288
298 297 296 295 294 294 294 294 293 293 292 292 292 292 292 292 292 292 292 291 292 293 293 295 298 297 297 295 294 294 294 294 294 294 294 294 294 294 294 292 296 299 301 298 298 296 294 294 295 294 294 293 292 292 291 290 289 289 289 288 288 288 287
297 296 295 294 294 293 293 293 292 291 291 291 291 293 291 291 291 291 292 291 291 292 293 295 295 293 294 295 295 295 295 294 294 294 294 293 293 295 294 292 292 296 296 295 297 295 293 293 292 292 293 294 294 293 291 290 289 290 289 288 288 288 287
296 295 295 294 293 293 293 292 291 291 291 290 291 291 290 290 290 290 290 291 291 292 293 295 292 293 293 294 296 296 295 295 295 293 293 293 294 294 293 293 292 293 294 297 296 293 293 292 292 292 292 292 292 292 292 291 290 289 289 288 288 288 288
296 295 294 294 293 293 292 291 291 290 290 291 290 289 289 289 289 289 290 291 291 293 292 293 292 293 294 294 294 295 295 295 295 293 293 293 293 293 294 294 293 293 292 296 294 291 292 291 292 292 292 292 292 292 290 289 290 292 292 290 289 288 288
296 295 295 294 293 292 291 291 291 291 291 290 289 288 288 288 288 289 290 291 290 290 292 294 292 293 293 292 292 293 293 294 294 293 293 293 293 292 292 293 292 292 293 292 292 293 292 291 290 290 290 290 290 291 291 290 290 290 291 291 290 288 290
296 295 294 293 292 291 291 290 290 291 289 289 288 288 288 287 288 291 290 289 290 291 292 292 291 292 291 291 291 292 293 293 293 292 292 292 293 292 291 291 291 291 291 291 293 293 292 291 291 290 290 290 290 290 290 291 292 292 292 292 291 290 290
296 295 294 293 292 291 291 290 290 290 289 288 288 288 287 289 289 288 288 289 290 289 291 291 291 291 291 291 292 293 292 292 292 292 292 292 292 292 292 291 292 292 292 290 292 291 291 292 291 289 289 290 290 290 290 292 291 291 292 292 292 291 291
296 295 294 293 292 291 291 290 290 290 288 287 287 287 287 288 288 287 288 289 289 289 290 291 290 291 291 291 292 291 292 292 291 291 291 291 291 291 291 294 294 293 292 290 292 289 289 292 290 289 289 289 289 289 290 291 291 290 290 290 290 290 289
297 296 294 293 293 292 292 291 290 291 288 287 287 287 287 287 287 288 289 288 289 289 289 291 291 291 291 291 292 291 291 291 290 291 290 290 290 290 292 297 297 293 291 291 291 289 289 292 290 289 289 288 288 288 289 290 290 291 291 290 290 289 289
297 296 295 294 293 292 291 290 291 290 288 288 287 287 290 286 286 287 287 288 294 290 289 291 291 290 290 291 292 290 290 290 289 288 289 290 290 289 289 292 293 294 292 292 289 289 289 291 291 290 289 288 288 287 289 289 289 289 290 289 289 290 290
298 296 295 294 294 292 292 291 290 289 288 288 288 288 289 287 287 287 289 292 293 289 290 290 292 290 291 290 290 290 289 290 289 288 288 292 291 289 288 289 292 290 289 289 289 289 289 289 291 291 289 288 288 288 290 289 290 290 289 288 288 289 289
298 297 296 295 294 294 292 291 290 289 289 289 288 288 287 287 287 287 289 289 288 288 290 289 292 290 291 290 290 290 288 289 288 288 288 291 287 287 288 289 289 291 289 289 289 289 289 289 290 293 290 289 289 291 290 289 289 290 288 289 289 288 289
298 298 297 296 294 293 293 292 290 290 290 289 288 288 287 288 287 288 288 289 289 288 293 294 289 291 290 291 290 290 289 289 288 288 288 287 286 286 287 288 289 290 289 289 289 289 289 289 289 293 291 288 288 288 290 291 289 288 288 288 287 287 288
298 298 297 296 295 293 293 292 291 291 290 290 290 289 289 289 288 288 289 289 290 289 288 293 292 292 290 290 290 290 290 289 288 292 288 290 288 288 288 289 289 290 289 289 289 289 289 289 290 290 288 288 288 288 289 289 288 287 287 287 287 287 287
298 298 297 296 295 294 293 292 292 291 291 291 290 290 290 290 289 289 289 289 290 290 291 290 292 292 291 289 289 289 289 288 289 290 289 288 287 288 288 288 290 289 289 289 288 288 289 289 290 288 288 288 288 289 289 288 287 287 287 287 286 286 286

ECMWFFLT1_sfc_thetae_111.txt.gz
Theta_e
321 318 318 318 319 319 319 319 319 319 321 321 321 320 321 320 320 319 319 318 316 316 315 313 313 313 313 313 313 312 311 311 311 309 307 308 304 302 307 305 305 305 306 305 307 303 300 297 295 300 300 303 303 303 302 301 301 302 303 303 302 301 303
321 320 319 319 318 319 317 317 318 319 319 319 319 319 319 318 318 317 317 316 315 314 313 312 312 311 311 311 310 309 309 308 308 308 307 305 306 304 305 304 304 302 302 304 304 303 301 300 295 296 297 301 302 302 304 303 302 302 302 302 302 301 303
319 318 319 317 317 317 316 317 318 318 318 318 318 318 318 317 317 317 315 315 314 312 311 311 310 310 309 308 308 308 308 307 307 306 305 305 305 305 305 305 304 305 303 302 302 302 301 299 295 294 298 299 297 299 302 302 302 301 301 302 302 301 302
317 317 317 317 316 317 316 317 317 317 317 317 317 317 317 316 316 316 315 314 313 312 311 310 309 308 308 307 307 306 305 305 304 305 304 305 304 304 303 303 301 301 300 299 300 301 300 300 298 297 298 297 296 297 299 301 302 301 300 301 301 301 302
318 318 319 318 318 316 315 315 316 316 316 316 316 315 315 315 315 313 313 312 311 311 309 309 308 307 307 306 305 304 304 304 305 304 304 303 303 303 303 303 302 302 302 301 300 301 300 299 299 297 296 298 299 297 298 302 301 300 300 300 300 301 301
320 320 319 317 317 316 315 315 316 315 314 314 314 314 314 314 313 312 312 311 310 310 309 307 307 307 306 305 305 304 304 303 303 303 303 303 304 302 302 303 302 302 301 302 302 302 302 301 300 298 296 297 296 296 297 299 298 301 301 300 300 300 300
320 319 318 316 316 316 316 316 316 315 314 314 314 313 313 313 313 312 311 310 309 308 308 307 306 306 306 303 304 303 302 303 303 303 303 303 304 304 304 302 302 301 302 302 302 301 300 300 298 299 299 298 297 296 298 297 298 296 297 299 300 300 300
319 318 317 316 315 314 315 316 315 315 314 314 313 313 313 312 312 311 311 310 309 308 307 306 306 306 305 304 303 303 302 303 302 302 302 302 302 302 303 302 301 301 301 301 302 301 301 301 300 300 299 296 298 299 298 298 298 297 296 298 300 300 300
318 317 314 313 313 315 315 314 314 315 314 313 313 313 313 312 311 310 309 308 308 307 306 305 305 305 305 303 302 302 302 303 302 301 300 301 301 302 302 302 301 300 301 301 301 301 301 301 301 301 299 298 295 293 296 296 296 295 297 296 298 300 299
315 313 312 312 313 314 314 313 313 313 313 313 312 313 312 311 310 309 308 307 307 306 305 305 305 304 304 303 303 302 302 302 302 301 301 300 300 300 301 301 300 300 300 302 302 301 302 302 301 301 300 298 297 294 292 292 295 294 295 296 295 297 299
313 312 312 312 312 312 312 312 312 312 312 312 312 312 311 310 310 309 308 307 306 305 305 304 303 304 304 303 303 302 302 302 301 301 301 300 300 300 300 300 300 298 300 300 300 301 301 301 300 300 299 299 298 294 294 292 293 297 295 298 297 296 298
312 312 312 312 312 312 311 311 312 312 312 312 311 311 311 310 309 308 307 306 305 304 304 304 304 304 303 302 302 302 302 302 300 300 301 300 300 300 299 299 299 298 300 300 300 300 301 300 299 299 299 299 298 298 296 294 292 296 298 296 297 299 298
311 310 311 312 312 311 311 311 311 312 312 312 311 311 310 309 308 307 306 305 304 304 303 303 304 304 304 303 302 301 302 301 299 299 299 300 300 299 299 298 298 299 299 299 299 300 299 300 300 298 299 299 298 299 298 295 294 294 298 298 298 299 299
311 311 311 312 312 311 311 311 311 312 311 310 310 310 309 308 307 306 305 304 304 304 304 304 304 304 303 302 301 301 301 300 299 299 299 299 299 299 298 297 297 298 300 299 299 299 299 299 299 299 299 298 298 299 297 296 294 294 297 299 299 298 300
311 312 312 311 311 310 310 310 311 310 310 310 310 309 309 309 308 306 305 304 304 304 304 304 304 304 302 301 302 302 301 300 299 299 298 297 298 299 299 297 297 298 300 299 299 298 298 298 298 297 297 298 297 298 299 296 294 294 293 297 297 299 298
312 312 312 312 310 309 309 310 310 310 309 309 310 309 308 308 307 307 306 305 304 304 303 304 304 303 302 300 300 301 301 300 299 298 297 297 297 298 298 298 298 299 300 299 299 299 300 299 298 298 298 298 298 298 298 299 296 293 294 294 297 296 297
313 312 312 311 309 309 309 309 309 309 308 308 308 309 309 308 307 307 305 305 304 304 304 304 304 303 302 301 300 300 300 300 299 298 297 297 297 298 298 298 298 299 299 298 298 298 299 299 298 298 298 299 298 298 299 299 298 296 295 294 296 296 297
312 311 310 309 308 308 308 308 309 308 308 308 307 307 307 307 307 306 306 304 304 303 303 303 302 302 302 302 301 300 300 300 299 298 298 298 298 298 298 298 298 299 299 298 298 298 298 299 298 298 298 297 297 298 298 298 298 297 296 295 295 297 298
311 310 309 308 307 307 307 308 308 308 307 307 307 307 307 307 306 305 305 305 304 304 304 303 301 301 301 302 302 301 301 300 300 299 298 298 298 299 299 298 299 299 299 298 298 298 299 298 299 298 298 297 297 298 298 298 297 297 297 296 296 295 298
309 309 309 308 307 307 307 308 307 307 307 307 307 306 306 306 307 305 305 305 304 304 304 303 302 302 301 301 301 301 301 301 300 300 299 298 299 299 299 299 300 300 300 300 299 299 299 299 299 298 298 298 298 298 297 296 297 296 296 296 296 297 296
309 308 308 307 306 307 307 307 307 307 307 306 306 306 306 305 306 306 305 305 305 305 305 303 302 302 302 302 302 301 301 301 300 300 300 299 299 299 300 300 300 301 300 300 300 300 300 299 299 298 298 298 298 297 296 296 296 296 296 295 295 295 295
307 307 306 306 306 306 306 307 306 306 306 306 306 306 306 305 304 304 304 305 304 305 304 303 303 303 302 302 302 302 301 301 300 300 299 299 299 300 300 300 301 300 301 299 297 297 296 296 299 297 298 298 298 297 296 296 295 295 295 295 294 295 295
305 305 305 305 305 305 305 305 305 305 305 305 305 305 305 305 304 304 303 304 304 305 305 306 303 300 301 302 302 302 302 302 301 300 299 299 299 299 299 300 301 299 299 299 297 294 294 294 295 298 298 298 296 295 295 295 294 295 295 294 294 294 293
304 304 304 305 305 304 304 305 304 304 304 304 303 304 304 304 304 304 303 303 304 305 305 304 297 294 295 298 302 303 302 301 301 300 300 299 298 298 299 300 301 300 301 300 300 295 294 293 293 293 293 293 294 296 294 293 293 295 294 294 294 295 294
303 303 303 303 303 304 304 304 303 303 303 303 303 304 303 303 304 304 304 304 304 304 305 300 293 294 294 294 299 303 303 302 301 301 300 299 299 299 299 299 300 301 301 300 300 300 299 296 293 293 292 292 292 292 292 293 293 293 294 293 294 294 294
302 302 302 302 303 303 303 303 302 302 302 303 303 302 303 303 303 304 304 303 304 305 305 294 293 293 293 293 294 300 303 303 301 301 300 300 300 299 299 298 299 301 301 298 299 300 300 299 297 295 295 295 295 293 290 289 291 294 295 295 294 294 295
301 301 301 301 301 301 301 301 302 303 302 302 302 302 302 302 302 303 303 304 304 304 305 295 292 293 293 293 293 296 304 303 303 301 301 300 300 300 299 299 298 299 301 301 301 300 300 300 299 298 298 297 297 297 294 293 292 291 294 296 296 294 296
300 300 300 300 300 300 300 301 300 301 301 301 301 301 301 302 302 302 303 304 303 304 304 293 292 292 292 292 292 295 305 305 303 303 302 301 301 301 300 300 300 299 300 300 299 296 299 299 299 298 297 296 297 297 298 297 296 296 296 296 296 296 296
300 299 298 298 298 299 299 299 299 299 299 300 301 301 301 301 301 301 302 303 303 302 302 291 292 292 292 292 292 303 305 304 303 302 301 301 301 301 301 301 300 300 300 300 295 290 293 298 298 296 295 296 296 298 298 297 293 292 295 296 296 296 295
299 298 297 296 297 297 297 297 298 298 298 298 298 299 299 299 300 300 300 301 303 302 301 294 291 291 291 291 296 304 304 303 303 302 301 301 301 301 301 301 300 300 300 300 293 289 289 294 297 295 295 295 296 297 296 297 295 292 291 291 291 290 290
299 298 297 296 295 296 297 297 297 298 297 296 296 297 298 298 298 299 299 300 302 302 302 296 290 291 291 291 298 303 302 302 302 302 301 301 301 300 300 298 299 300 301 300 290 289 289 297 297 296 295 295 295 295 295 296 298 298 294 293 293 292 291
299 298 297 296 296 296 296 297 297 298 297 297 297 297 297 296 296 297 299 300 299 302 302 297 291 291 291 291 298 304 302 300 300 301 300 299 300 299 299 298 296 297 298 295 288 290 288 295 297 296 295 296 294 295 295 296 296 295 296 297 297 297 297
299 298 298 297 297 297 297 297 297 296 296 296 296 295 295 296 296 296 297 298 299 301 301 301 296 290 291 291 293 302 302 300 299 299 299 298 298 298 298 299 297 289 289 289 289 288 289 289 297 297 297 295 295 294 296 296 296 296 296 296 297 298 298
300 299 299 298 298 298 297 297 296 295 295 295 295 295 295 295 296 295 296 298 299 299 301 301 298 290 291 291 291 295 300 300 300 299 298 298 298 298 297 297 300 292 289 289 289 288 289 289 291 298 297 296 296 296 292 295 297 295 297 297 297 296 296
301 300 299 299 297 297 297 296 296 296 295 294 294 294 294 294 295 296 297 297 297 298 297 297 298 291 290 290 290 291 298 300 300 299 298 297 297 297 297 297 299 294 288 289 289 289 288 290 288 297 297 292 289 288 294 295 297 297 297 297 296 295 295
301 300 299 298 297 296 296 296 296 296 295 294 294 293 293 294 294 295 296 297 297 298 299 296 293 295 290 290 289 290 292 296 290 300 298 297 297 297 298 299 299 292 289 289 289 289 289 288 290 297 291 288 288 287 290 296 296 297 296 296 296 295 295
301 300 299 299 298 298 296 296 295 295 294 294 293 293 292 294 294 294 294 294 295 296 297 297 293 293 294 289 290 289 289 290 290 297 298 297 297 297 298 300 298 289 288 288 288 289 289 289 295 291 288 288 288 289 295 297 296 297 296 295 295 294 295

ECMWFFLT1_sfc_thetae_114.txt.gz
Theta_e
328 327 326 325 326 325 325 326 327 328 329 329 328 327 328 328 327 327 326 325 323 323 322 322 322 322 321 321 321 321 319 320 320 315 315 313 307 308 313 310 309 311 313 314 315 312 305 303 301 303 305 307 307 307 306 305 305 306 307 308 305 305 307
330 327 327 326 325 325 324 324 326 327 328 327 327 326 326 325 325 325 324 323 321 320 319 320 319 319 318 318 318 317 316 316 316 316 314 310 310 308 310 311 310 307 307 310 311 312 307 304 300 302 303 306 306 305 308 307 305 306 306 306 305 305 307
328 327 327 325 325 324 324 325 326 326 325 324 325 325 325 323 323 323 321 321 321 319 318 318 317 316 315 315 316 315 315 314 315 315 313 313 313 314 314 315 313 311 309 308 308 307 306 305 300 299 303 304 303 303 307 306 306 305 305 306 306 304 305
329 328 327 324 322 322 323 324 325 325 324 323 323 324 324 323 323 322 321 319 319 318 316 315 314 312 312 312 313 314 314 313 311 313 313 313 312 312 311 309 308 307 306 305 306 306 307 306 302 301 301 300 300 301 304 305 306 304 304 305 304 305 306
329 328 326 324 324 325 325 324 323 325 324 323 323 322 322 321 321 319 320 319 317 317 314 314 313 312 311 311 311 311 312 312 313 312 312 311 311 310 310 309 308 308 308 307 306 307 307 306 305 301 300 303 301 300 302 308 306 305 303 304 304 304 305
329 330 330 329 327 326 325 324 323 322 323 323 321 321 320 320 319 319 318 316 315 315 314 312 312 312 312 311 312 311 311 311 311 312 311 312 312 309 307 308 308 308 307 308 309 308 308 308 308 304 300 301 301 300 302 302 301 303 303 303 303 303 303
330 331 330 327 327 325 324 324 324 323 323 322 321 319 319 319 319 318 318 316 315 313 312 312 312 311 311 308 310 309 309 310 311 311 311 311 311 310 310 307 308 307 307 308 308 307 307 306 304 305 306 305 304 302 304 303 302 300 300 302 303 303 303
330 330 328 329 327 325 325 324 324 324 323 322 320 320 319 318 317 316 315 314 313 312 311 311 311 311 310 310 309 310 309 310 310 309 309 310 309 309 309 308 307 307 307 306 307 307 307 306 305 305 304 303 304 302 302 301 301 299 298 302 303 303 303
329 330 328 327 325 325 325 324 323 323 322 321 320 318 317 317 316 315 314 313 312 311 310 310 310 309 309 308 307 308 307 308 308 308 308 309 309 309 308 308 307 305 307 306 307 307 306 307 306 305 304 303 300 298 300 300 301 299 301 299 302 303 303
329 329 326 324 323 323 323 323 322 322 322 321 319 318 317 316 315 314 313 311 311 310 310 310 309 309 309 308 308 307 307 308 308 307 307 307 307 307 307 307 306 306 306 308 307 307 307 307 306 305 303 302 302 299 297 298 299 297 299 301 299 301 303
328 328 325 321 321 321 322 322 322 321 320 320 319 318 316 315 314 313 312 311 310 310 309 309 309 309 309 308 308 307 307 308 307 307 307 307 307 307 307 306 306 305 306 306 306 307 307 306 304 304 303 302 303 300 299 297 298 300 299 302 301 300 302
326 325 322 321 321 321 321 321 321 320 320 319 317 316 315 313 313 312 311 309 309 308 309 309 309 309 309 307 308 307 307 307 306 306 307 307 306 306 305 305 305 305 306 306 306 305 306 305 304 304 303 304 302 303 301 300 297 300 302 300 301 302 301
324 322 321 321 321 320 319 321 320 319 318 318 317 315 314 312 311 310 309 308 308 308 307 308 308 308 308 308 307 306 306 306 304 304 305 306 305 305 305 305 305 305 305 305 305 305 304 305 305 303 304 304 303 303 301 300 299 298 302 300 301 302 303
323 320 320 322 321 320 320 321 320 319 318 317 316 315 313 312 310 309 308 307 307 307 307 308 308 308 307 307 306 306 305 304 303 304 305 305 305 305 304 303 303 304 305 305 304 304 304 304 304 303 303 303 301 303 301 300 298 299 301 304 303 302 304
320 319 319 320 320 319 320 320 320 318 318 317 316 314 312 312 310 309 307 306 307 306 307 307 307 307 306 306 306 306 305 304 303 303 304 303 304 304 304 303 302 304 304 303 304 303 303 302 302 302 301 302 301 302 303 301 299 298 298 302 301 303 303
317 319 319 320 319 318 320 320 319 317 316 315 315 314 313 312 310 308 307 307 306 306 306 307 307 306 306 305 305 305 305 304 303 303 303 303 302 304 303 304 303 304 305 305 304 304 304 304 303 302 302 303 302 302 302 303 301 298 299 299 302 301 302
318 319 320 319 319 320 319 319 317 316 315 315 314 315 313 311 310 309 308 307 307 306 307 307 306 305 305 305 304 304 304 304 303 303 302 302 303 303 303 303 304 305 304 303 303 303 303 304 303 302 302 303 302 302 303 303 302 300 300 299 301 300 302
318 320 320 320 319 319 319 318 317 315 315 315 314 314 312 312 311 309 309 307 307 307 307 307 305 305 305 306 305 304 303 303 303 303 304 303 303 303 303 303 303 304 304 303 303 302 303 303 303 303 302 302 301 302 303 303 302 302 301 300 300 302 303
319 319 319 319 319 319 318 318 316 315 314 314 314 313 312 312 310 309 309 308 308 307 307 307 305 305 304 305 305 305 304 304 303 303 303 303 304 304 304 304 304 304 304 303 303 303 304 303 304 303 302 302 302 303 303 302 302 302 301 300 301 300 302
319 319 318 319 319 318 317 317 315 314 314 314 313 312 312 311 311 310 309 309 308 308 307 306 305 305 305 305 305 305 305 304 303 303 303 303 303 304 304 305 305 304 303 303 302 302 303 303 303 303 302 302 302 302 302 301 301 301 301 300 300 300 300
319 317 318 318 317 317 317 316 315 314 314 313 313 312 311 311 311 310 310 309 308 308 307 305 305 305 305 306 306 305 305 305 304 303 304 304 304 304 304 305 304 303 302 301 302 301 301 301 303 302 301 302 301 301 300 300 300 299 299 299 298 298 299
319 317 316 316 316 317 316 316 314 314 313 313 313 312 312 311 310 310 309 309 308 308 307 306 305 306 306 305 306 305 305 304 304 303 303 303 303 303 304 304 303 302 301 299 298 299 298 299 301 299 300 300 299 299 299 299 299 298 298 298 297 299 298
317 316 315 314 315 316 315 315 314 313 312 312 312 312 312 311 310 310 309 308 309 308 307 307 305 302 302 306 306 306 306 305 305 304 304 303 303 303 303 302 301 301 301 299 297 295 294 295 296 299 298 298 297 298 298 298 297 297 297 296 296 297 296
315 314 314 313 314 314 314 314 313 311 312 312 312 311 311 310 310 310 309 308 308 308 307 306 298 296 296 299 306 307 306 305 305 304 304 304 302 303 304 303 304 302 303 302 301 295 295 294 293 294 294 295 297 297 297 296 296 297 295 296 297 297 296
313 313 312 312 312 313 313 312 311 311 311 311 311 312 311 310 310 310 309 309 309 308 308 302 295 295 296 296 300 307 307 306 306 305 304 304 303 303 303 303 303 303 301 301 303 303 300 295 293 293 292 292 291 292 293 296 296 295 296 296 297 297 296
312 312 312 312 312 311 311 310 310 310 311 312 311 310 310 309 309 309 309 308 308 307 308 296 294 294 294 294 295 301 307 306 305 305 305 304 304 303 304 304 304 304 302 299 302 302 302 303 298 294 295 294 293 292 290 289 292 297 298 298 297 296 296
310 311 311 311 310 310 309 309 310 311 311 311 310 310 310 310 310 309 309 308 308 308 308 296 294 293 294 293 294 296 308 306 306 305 304 304 304 303 303 304 303 303 304 303 302 302 302 302 303 302 302 302 302 300 292 290 289 290 296 299 298 297 297
310 310 310 309 309 309 309 309 310 310 310 309 309 308 309 309 309 309 309 309 308 307 309 294 293 293 293 292 293 294 308 307 307 306 306 305 305 305 303 303 304 304 303 302 300 300 301 302 302 302 301 301 302 303 302 301 300 300 300 300 300 299 299
309 309 308 308 308 308 309 309 309 309 309 309 309 309 309 309 308 308 308 308 308 306 309 292 293 292 292 292 292 302 306 307 306 306 306 305 305 304 303 304 304 303 303 302 298 288 294 301 303 301 301 302 303 303 303 301 295 296 300 301 301 301 300
308 307 306 306 306 307 308 308 309 309 308 308 307 307 308 307 308 307 307 307 307 307 307 295 292 292 292 291 295 303 305 306 306 306 306 305 305 305 303 303 303 302 302 303 295 289 290 291 302 301 301 302 302 302 301 303 295 291 291 291 292 292 292
307 306 306 305 305 306 307 307 308 308 307 307 306 306 307 307 308 308 307 307 307 306 307 298 291 292 292 291 298 304 305 305 306 305 305 305 305 305 304 302 303 302 302 303 289 288 290 297 302 301 301 301 301 301 301 302 303 302 296 295 294 292 292
307 306 305 306 306 306 306 306 306 306 305 304 304 305 305 306 307 307 308 307 306 307 306 300 291 292 291 291 298 305 305 304 303 303 303 303 304 304 303 299 299 300 302 299 285 290 288 295 303 301 301 301 299 300 299 301 301 300 301 302 303 303 302
305 304 304 305 306 306 306 306 305 304 303 303 303 304 304 305 305 305 306 306 306 307 307 305 298 291 292 291 293 304 305 303 302 302 302 302 302 303 302 302 299 289 288 288 289 288 290 289 299 302 303 301 299 297 299 300 300 300 301 302 302 302 302
304 304 304 305 305 305 305 305 304 303 301 301 302 302 303 304 304 304 305 305 306 306 307 305 301 290 292 292 292 294 305 303 302 302 302 301 302 301 301 301 302 293 288 290 289 288 289 289 290 301 302 300 299 299 294 299 299 298 301 302 301 301 301
304 304 304 304 303 303 304 305 303 302 301 301 301 302 303 303 302 303 303 304 305 305 306 303 304 292 291 291 291 290 301 304 303 303 302 302 301 302 302 301 303 295 288 290 289 289 288 290 288 299 305 292 288 287 297 298 301 301 301 300 300 299 299
303 304 304 304 303 303 304 304 303 302 301 301 301 301 301 301 302 301 302 302 304 305 305 303 297 298 291 290 290 290 291 297 294 303 303 301 301 301 303 302 302 290 289 289 289 289 290 288 289 298 292 289 290 287 291 300 300 301 299 299 300 299 298
304 305 305 304 304 305 304 304 302 301 301 301 300 299 299 300 300 300 300 300 302 302 303 302 296 295 295 289 290 289 290 289 290 301 302 302 302 301 301 302 300 289 289 289 288 288 289 289 296 290 288 289 288 289 297 301 300 300 298 298 297 297 298

ECMWFFLT1_sfc_thetae_117.txt.gz
Theta_e
335 333 333 333 335 334 333 332 332 332 332 331 330 329 329 329 329 329 329 329 327 327 326 326 325 324 323 323 323 324 325 324 320 317 314 313 311 311 314 313 312 315 319 318 317 313 308 302 301 304 306 308 307 308 307 306 305 307 307 309 306 305 307
335 332 331 332 332 332 331 331 332 332 331 330 330 328 328 328 328 328 327 326 324 323 323 323 323 323 322 321 321 321 321 321 320 318 313 310 311 310 312 312 311 309 310 313 313 313 308 306 303 304 304 308 308 306 309 309 307 307 307 306 306 305 307
332 331 332 331 331 331 330 331 330 329 327 327 328 327 327 327 326 326 325 324 323 322 320 320 319 319 319 319 319 319 320 319 319 319 318 318 318 318 317 317 313 311 309 309 309 307 306 307 304 303 306 307 305 306 308 308 308 306 306 307 307 305 306
332 330 330 331 330 330 329 329 328 327 326 325 326 327 326 326 326 325 323 322 321 320 317 316 315 314 315 317 318 318 318 318 317 316 317 317 316 315 314 313 312 311 310 309 308 309 310 306 303 302 302 302 302 304 306 307 308 305 305 306 305 305 306
333 331 330 329 330 329 328 327 326 326 326 326 326 325 325 324 324 322 322 321 319 318 316 315 315 314 314 314 314 315 316 317 317 316 316 314 314 312 312 311 311 312 312 310 309 311 310 308 305 302 302 303 302 302 304 310 307 304 304 304 304 304 304
333 333 331 330 330 328 328 327 326 325 325 324 324 324 323 323 322 321 321 319 318 318 316 315 315 315 315 315 315 315 316 316 317 317 315 315 314 311 310 311 310 311 310 311 312 311 311 311 311 303 301 303 303 303 303 303 302 303 303 303 304 303 303
333 333 333 330 330 329 329 328 327 326 324 324 323 324 322 322 321 321 320 318 317 316 315 314 314 313 314 311 313 313 313 314 315 316 314 314 314 313 313 310 310 310 310 311 311 310 309 309 307 307 308 308 306 303 304 303 302 301 302 303 304 304 303
333 332 331 331 330 331 329 328 327 326 325 324 323 323 323 323 321 319 318 316 316 315 315 314 314 314 314 313 312 313 313 314 314 313 313 313 312 312 312 311 310 309 309 310 310 309 309 308 307 307 306 305 305 302 302 301 302 300 299 303 304 304 304
334 333 332 332 332 332 331 328 327 327 326 324 323 322 321 320 318 317 316 315 314 314 314 313 313 313 313 312 311 311 311 312 311 311 312 313 312 312 311 311 310 309 310 309 310 309 308 308 308 306 306 305 303 299 302 302 300 299 302 301 303 304 304
333 333 331 331 331 329 329 329 327 327 326 324 322 321 320 319 318 316 315 313 313 313 313 312 311 311 311 312 311 311 311 312 311 310 310 310 311 311 310 310 309 309 309 310 310 310 309 309 307 306 305 304 305 301 300 300 300 298 300 302 300 302 304
333 332 331 330 330 328 327 327 327 325 324 323 321 320 319 317 316 315 313 312 313 313 312 311 311 311 312 311 311 310 310 311 310 310 310 310 310 310 309 309 309 308 309 308 308 309 309 308 307 307 305 305 305 303 302 300 301 301 300 303 303 301 304
333 332 331 330 329 327 326 326 325 324 323 322 320 319 318 316 315 314 313 312 312 311 312 312 312 312 311 310 310 309 310 310 309 308 309 309 309 309 308 308 309 308 309 308 308 308 308 308 307 306 307 306 305 305 303 302 299 302 304 301 303 304 303
333 331 330 328 326 326 325 325 324 322 321 320 319 318 316 314 314 313 312 310 310 311 310 311 311 311 311 310 310 310 310 309 307 307 308 309 309 309 309 308 308 308 308 308 308 308 306 307 307 306 306 306 305 305 304 303 301 300 304 303 303 304 305
332 330 328 327 326 325 325 324 323 322 320 319 318 316 315 314 312 311 310 310 310 310 310 310 311 311 310 309 309 309 308 308 307 307 307 307 307 307 306 305 306 307 308 308 307 306 306 306 306 306 305 305 304 305 303 303 301 301 304 306 305 304 306
330 327 326 326 325 325 326 324 323 321 320 319 317 315 314 313 312 310 309 309 309 309 309 309 310 311 309 309 308 308 308 307 306 306 307 306 307 306 307 306 305 306 307 306 306 306 305 304 304 304 303 304 303 304 305 303 301 301 300 304 304 306 305
328 327 324 323 324 324 323 323 322 320 319 318 317 315 313 312 311 310 309 309 308 309 309 309 311 310 309 308 307 308 308 307 306 306 305 305 305 307 306 306 306 307 308 306 306 306 307 306 305 304 304 304 304 304 304 304 303 300 300 301 305 303 304
326 325 323 322 323 324 323 322 321 319 318 317 316 316 314 312 310 310 309 308 308 308 308 309 309 309 308 308 307 306 306 306 306 306 305 305 305 306 306 306 306 307 307 306 306 305 306 306 305 304 305 305 304 304 305 305 305 302 302 301 303 302 303
324 323 323 322 323 323 323 322 321 319 318 316 316 314 312 311 311 309 309 308 308 308 309 308 308 307 308 308 307 306 306 305 306 306 306 306 306 306 306 306 306 306 306 306 306 305 305 306 305 304 304 304 304 304 305 305 304 304 302 301 302 303 303
323 323 323 322 322 323 322 321 321 318 317 316 316 314 312 311 310 309 309 308 309 309 308 307 307 307 307 308 307 307 306 306 306 306 305 306 306 307 306 306 306 306 306 306 305 305 306 306 306 305 304 304 304 304 305 304 304 303 302 301 302 301 303
323 323 323 323 323 323 322 321 319 317 317 317 316 313 312 311 311 310 309 309 309 309 309 308 308 308 307 307 307 306 306 306 305 306 306 305 306 307 307 307 306 306 305 305 304 304 305 306 306 304 303 304 303 303 303 303 302 302 301 301 301 301 300
323 324 323 323 322 323 322 321 318 317 317 316 315 313 312 312 312 311 310 310 310 310 309 307 307 307 307 307 307 306 306 305 305 306 306 306 306 306 307 306 305 304 303 302 302 302 302 304 305 303 302 302 302 302 302 302 301 300 300 300 299 299 300
325 325 323 322 321 322 321 320 318 316 316 316 315 314 314 313 311 310 310 310 310 310 309 308 307 307 308 307 307 306 306 305 305 305 305 305 306 306 306 305 303 300 299 298 300 300 299 298 300 301 301 301 301 301 301 301 300 299 299 299 299 300 299
324 323 322 321 321 321 320 319 317 316 315 315 315 315 314 313 312 311 310 310 310 309 308 309 308 305 305 308 307 306 306 306 305 305 305 305 305 305 303 302 299 298 298 299 298 297 296 297 298 299 298 298 298 299 299 299 298 298 298 298 298 298 297
323 321 321 321 321 321 319 318 316 315 315 314 314 314 313 312 312 311 310 310 309 309 308 308 297 295 295 301 308 308 306 306 306 305 305 305 304 304 303 300 299 300 300 299 301 296 296 295 295 295 295 298 300 298 297 297 297 298 297 299 299 298 297
320 320 320 320 319 320 319 317 315 314 314 314 314 314 313 312 312 312 311 310 310 309 309 300 295 295 296 295 299 312 308 307 307 306 305 304 304 304 305 305 305 306 306 304 305 301 299 295 293 293 292 293 293 293 294 297 296 297 298 298 298 298 297
320 320 319 319 318 319 319 316 313 312 313 314 314 312 312 312 312 312 311 310 310 309 308 296 295 295 295 296 295 301 308 307 306 306 306 305 304 303 304 304 304 304 300 299 302 304 305 302 296 294 295 294 293 292 290 289 292 297 299 299 299 298 298
319 319 318 317 317 317 317 315 313 312 313 313 313 313 313 312 312 311 311 311 310 309 307 297 295 294 294 294 295 297 309 307 307 306 305 306 306 305 305 305 304 303 303 304 303 303 304 304 304 304 302 301 300 300 295 292 290 290 295 300 300 298 300
318 317 317 316 316 316 318 314 312 312 312 312 311 311 312 311 312 311 311 311 310 309 307 295 294 294 293 294 293 296 309 307 307 306 305 306 305 304 304 306 306 305 304 304 301 298 299 301 303 304 303 303 304 305 304 303 303 302 301 301 302 301 302
317 316 316 315 314 313 313 312 311 312 312 312 312 311 311 312 311 311 310 310 309 308 305 293 294 294 293 294 293 304 308 306 306 305 305 305 305 306 304 304 304 304 304 303 298 290 295 298 300 303 302 303 304 305 305 305 298 298 302 303 303 303 303
316 316 315 314 313 313 312 311 311 311 311 313 312 310 311 310 311 310 309 309 309 308 303 296 293 293 293 292 295 303 306 306 305 306 305 305 305 306 305 304 304 304 303 303 296 290 291 293 299 302 302 303 304 304 304 307 297 292 293 293 293 293 292
315 314 314 312 312 312 312 311 311 311 309 309 311 310 309 310 310 310 309 309 308 307 303 298 292 293 293 292 297 302 303 306 306 304 306 306 306 306 306 304 302 304 304 304 290 289 290 296 299 303 302 302 303 303 303 303 304 307 294 292 292 292 292
314 313 313 313 313 312 311 311 311 311 310 309 308 309 309 309 311 309 309 309 309 308 305 299 292 292 292 292 298 303 303 305 304 305 306 306 305 306 306 303 302 301 300 300 285 289 289 295 299 302 302 302 302 302 302 301 301 301 302 303 305 307 306
314 313 312 312 312 311 311 310 310 309 309 308 307 307 307 307 306 306 308 308 308 309 307 302 298 292 293 292 294 303 304 304 304 305 305 305 304 305 306 305 299 291 289 289 289 289 290 290 297 299 302 303 301 300 300 299 300 300 301 302 303 303 303
313 311 310 310 311 310 310 310 309 309 308 308 307 307 306 307 307 307 308 308 308 308 309 305 301 292 293 292 293 296 303 305 306 305 304 303 303 303 303 304 304 294 290 290 289 289 289 289 290 298 299 302 300 300 294 298 299 300 302 303 302 302 302
312 311 310 309 308 308 309 308 307 307 307 306 306 306 305 305 305 305 307 307 309 307 309 305 305 293 292 292 292 292 300 305 303 306 304 303 302 302 303 302 303 296 290 290 289 290 289 289 289 297 302 291 289 288 299 297 298 301 302 301 300 300 300
308 308 308 308 307 306 306 306 306 307 306 305 304 304 304 304 304 304 305 306 308 306 307 306 299 298 292 292 292 292 292 298 293 304 303 302 302 302 304 304 303 293 290 290 290 289 289 289 290 296 292 291 291 289 292 297 298 301 301 300 300 300 299
308 307 307 306 305 305 304 305 305 304 304 303 302 303 302 302 302 302 303 303 305 305 307 307 298 296 295 290 291 291 291 290 290 301 304 304 304 302 303 304 298 290 290 290 289 289 289 289 294 291 290 289 289 291 296 297 298 301 299 299 299 299 299

ECMWFFLT1_sfc_thetae_120.txt.gz
Theta_e
333 333 335 334 334 333 333 332 333 335 336 332 334 330 330 331 333 332 334 331 328 332 330 330 326 325 324 323 323 324 324 324 323 316 315 315 314 313 317 318 316 319 320 318 315 310 304 299 299 303 304 306 306 307 307 304 304 305 309 311 303 303 305
336 335 334 333 332 333 331 332 332 333 333 332 331 330 333 328 330 332 329 326 330 327 325 324 323 322 322 322 322 322 321 321 320 319 317 313 313 313 314 311 314 312 312 313 315 310 310 302 299 299 301 307 308 309 313 308 306 306 306 307 304 304 306
333 333 332 331 331 332 330 331 331 331 329 331 331 329 330 327 329 327 327 326 323 322 321 320 319 319 319 318 320 320 320 318 318 318 317 317 316 317 318 322 313 311 310 310 310 313 308 305 303 299 301 303 301 304 311 308 306 306 304 306 306 303 303
332 331 330 330 330 330 329 329 329 328 328 328 329 331 333 325 326 327 325 322 321 322 319 318 318 317 318 318 318 319 318 317 316 316 315 315 314 313 312 312 310 309 311 309 307 309 309 308 305 302 301 305 305 302 306 306 306 304 302 308 305 304 304
331 330 330 329 329 329 329 328 328 327 326 327 329 328 329 326 324 324 323 322 321 319 317 317 316 315 316 317 317 317 316 317 317 316 315 313 314 313 312 311 310 311 310 309 310 310 308 308 307 304 303 300 300 303 305 306 306 302 302 301 301 301 303
332 331 331 330 330 329 328 327 326 325 325 325 326 325 326 323 325 323 322 321 319 319 317 316 316 316 316 316 316 316 317 316 316 316 314 313 313 310 310 311 311 310 309 311 311 310 310 310 308 305 299 300 303 301 301 305 304 301 300 301 301 299 300
332 332 331 330 330 329 329 328 327 326 325 325 325 324 323 323 323 323 321 319 317 317 316 316 315 315 315 313 313 313 314 315 315 314 313 313 312 312 313 310 309 310 310 311 310 309 307 306 305 303 304 308 304 303 302 299 298 302 300 300 301 299 300
333 333 332 332 331 329 329 329 328 328 327 325 326 325 322 325 322 320 318 317 317 316 316 315 315 314 314 313 313 313 314 314 314 314 313 312 312 311 311 310 310 309 309 308 308 309 307 307 305 304 304 301 304 304 302 296 298 296 296 299 300 299 300
334 334 332 332 331 331 330 330 329 328 328 327 325 323 322 321 319 317 317 316 315 315 315 314 314 313 314 313 312 311 311 314 312 312 311 312 311 311 310 310 309 308 309 309 309 308 307 308 306 306 303 303 300 298 303 298 297 296 298 297 299 300 300
334 333 331 331 331 332 331 331 329 327 328 326 325 323 322 320 319 317 315 315 315 314 314 314 313 312 312 311 311 311 311 312 312 310 311 310 310 310 309 309 309 308 308 310 309 309 308 308 308 305 304 301 303 300 297 299 297 297 297 299 299 299 302
333 333 332 332 332 331 330 330 328 326 325 324 324 322 320 318 317 316 313 313 314 313 312 311 310 312 312 312 311 310 310 311 310 311 311 310 310 310 309 309 308 307 308 307 307 308 308 308 307 306 304 302 302 299 299 297 298 298 299 301 299 299 301
334 333 332 332 330 330 328 327 326 325 325 324 323 320 318 316 315 314 313 312 312 312 312 312 311 311 311 310 310 309 311 310 309 308 309 309 309 309 308 307 308 308 308 307 307 307 306 306 307 306 306 305 303 302 300 300 296 302 302 300 302 302 301
333 332 332 330 329 328 327 326 326 326 323 322 320 319 317 315 314 312 312 311 311 311 311 311 311 310 311 310 310 310 310 309 308 307 308 310 311 310 308 308 308 308 309 308 307 308 306 306 306 305 305 305 304 303 302 301 298 298 303 302 301 303 303
332 331 330 328 327 327 326 325 325 323 322 321 319 317 315 314 312 311 310 310 310 310 310 311 311 310 310 310 310 309 308 307 306 307 308 308 308 307 306 305 305 307 308 308 306 307 307 305 306 307 305 304 303 303 301 299 297 298 301 303 303 303 304
332 329 328 327 326 326 325 325 324 322 321 319 318 316 314 313 312 310 309 309 309 309 309 309 310 310 309 308 308 310 309 307 305 306 307 305 306 308 307 304 304 305 306 305 304 304 304 303 303 302 302 304 301 303 303 301 298 298 296 300 301 303 302
330 328 327 326 326 325 324 324 323 321 320 318 317 315 313 312 311 309 309 309 309 308 308 309 311 310 308 307 306 308 308 306 306 306 305 305 305 306 305 306 305 307 309 305 306 306 306 305 303 303 303 303 303 303 303 303 301 298 297 298 301 299 300
328 326 325 325 325 325 324 323 322 320 319 317 315 315 313 311 310 309 308 308 308 308 308 310 309 308 307 307 306 306 306 307 306 306 305 304 305 306 305 305 305 306 306 305 305 305 305 306 305 303 303 304 303 302 303 303 303 299 298 298 299 299 301
326 325 325 324 325 325 323 322 321 319 318 316 315 313 312 310 309 308 309 307 307 308 308 308 307 307 308 308 307 306 305 305 306 305 306 306 307 306 306 306 306 306 306 305 304 303 305 305 304 303 302 302 301 303 304 303 302 301 298 297 298 300 301
325 325 324 324 324 323 323 321 320 320 317 315 314 313 310 309 308 307 307 307 307 307 307 307 307 306 306 307 306 306 306 306 306 305 305 306 306 307 306 305 307 306 305 304 304 304 304 304 305 303 302 301 301 301 301 302 301 300 300 298 297 298 299
324 324 324 324 324 323 322 321 319 318 317 315 313 311 310 309 309 307 307 307 307 307 307 307 307 306 306 305 305 305 306 306 305 305 305 305 306 307 306 306 306 305 303 302 302 300 301 303 304 303 301 301 300 300 300 300 300 299 298 297 297 298 297
325 324 324 324 323 322 321 320 319 318 316 315 313 311 309 309 309 308 308 308 308 308 307 306 306 307 306 306 305 305 305 305 304 306 306 306 306 306 306 304 300 298 297 297 297 297 297 298 299 301 300 300 299 299 299 299 298 297 296 296 296 295 296
325 323 323 322 322 322 321 321 318 317 316 315 314 311 311 310 309 308 308 309 308 308 307 307 307 306 306 305 305 304 304 304 305 304 304 305 306 305 302 300 298 297 299 299 299 298 298 298 298 297 297 297 297 298 297 297 297 296 295 295 296 297 295
324 323 322 322 322 321 320 320 317 316 315 315 313 312 311 310 309 309 308 308 308 309 308 308 309 306 306 306 305 304 305 305 304 304 304 304 305 304 301 298 299 300 299 298 298 298 297 298 299 298 297 298 296 296 295 295 295 295 295 294 295 295 293
323 322 322 322 321 320 319 319 316 315 315 314 313 313 312 310 309 309 308 308 308 308 309 308 299 298 299 302 306 305 304 304 304 304 304 304 302 300 298 297 298 299 300 299 300 296 294 294 294 295 298 300 299 297 295 294 294 295 294 294 296 295 293
322 321 321 321 321 320 318 318 315 314 315 314 314 313 312 310 310 310 309 308 308 308 306 300 295 295 296 298 304 306 305 305 305 304 304 304 303 300 297 296 299 302 301 300 300 297 297 296 293 294 293 293 293 294 296 296 295 293 294 293 294 295 294
321 320 320 320 321 320 317 317 314 314 313 314 314 312 312 311 311 310 310 308 307 307 302 296 295 295 295 295 295 304 305 306 304 304 304 304 303 303 302 302 303 304 303 305 305 301 298 298 297 295 294 295 295 293 290 290 292 295 294 293 294 295 295
321 320 320 320 320 318 316 316 314 314 314 313 313 312 312 312 311 310 310 308 308 305 302 297 295 295 295 294 294 300 307 306 306 305 304 304 304 303 304 303 302 301 300 301 302 303 303 302 300 297 296 296 296 297 295 292 291 291 294 295 295 294 297
320 320 320 320 320 319 317 317 314 313 313 312 312 311 312 311 311 310 310 309 308 304 303 295 294 294 294 294 293 298 310 307 307 306 306 306 305 305 305 306 303 301 300 301 299 300 299 298 298 301 302 301 298 299 300 299 297 296 297 297 297 298 298
321 320 319 319 319 318 317 316 312 312 312 312 312 312 312 311 311 310 311 310 308 303 301 293 294 294 294 293 295 306 309 306 307 305 305 306 306 304 305 306 305 304 302 295 297 293 294 296 298 299 300 302 303 303 302 304 300 300 303 300 299 298 298
320 319 318 317 317 318 314 314 312 312 311 311 311 311 311 310 311 310 310 310 306 301 299 295 294 294 294 293 298 307 309 305 306 304 305 304 304 305 304 304 304 304 302 297 293 290 290 296 299 299 299 301 303 303 303 304 297 294 294 294 294 294 293
318 317 317 316 316 317 315 314 311 312 311 311 310 310 312 311 310 310 309 309 304 301 299 297 293 294 294 293 299 305 307 305 304 304 304 304 304 305 305 308 305 304 304 297 290 290 291 297 299 299 299 300 301 300 302 301 303 304 297 293 293 293 293
318 316 316 315 316 316 314 311 311 313 311 310 310 311 310 310 311 310 308 309 306 303 301 297 293 294 294 293 298 304 304 304 303 304 304 303 304 304 303 304 306 301 297 293 287 289 290 296 298 298 298 298 299 300 296 296 296 295 296 297 297 299 300
317 316 315 314 314 314 312 311 311 310 309 308 309 309 310 309 307 307 308 309 304 304 301 298 296 293 293 293 295 302 303 304 303 303 303 303 303 302 303 301 300 293 291 288 289 289 290 291 296 297 297 296 298 296 294 294 295 296 296 296 297 298 300
316 315 314 314 313 312 311 310 310 308 307 308 308 308 308 307 305 305 306 308 307 304 303 299 297 292 293 293 293 296 302 304 305 303 304 303 302 301 302 302 299 293 290 290 290 289 290 290 292 296 296 296 297 295 292 294 295 298 295 296 297 299 300
316 315 314 313 311 311 311 310 309 308 307 307 306 306 306 305 304 305 306 306 307 306 303 301 298 293 292 293 292 293 299 303 299 302 303 302 302 301 301 301 299 294 290 290 290 290 290 290 289 294 295 293 291 290 293 295 295 295 295 296 297 296 297
314 314 312 311 310 309 309 308 308 308 307 306 306 305 306 305 304 304 305 306 307 307 303 301 296 295 292 292 292 292 293 299 295 300 303 302 301 302 303 303 301 294 290 290 290 290 290 289 290 292 291 290 290 290 291 295 295 295 294 295 296 297 296
313 312 311 310 309 308 307 307 307 306 306 305 305 305 304 304 305 303 304 304 305 305 305 302 296 295 294 291 292 292 292 292 293 299 299 301 300 298 299 303 298 291 290 290 290 289 289 289 292 291 290 290 290 290 293 294 293 294 294 294 295 296 296

ECMWFFLT1_sfc_thetae_123.txt.gz
Theta_e
328 328 329 329 330 330 328 326 326 326 327 328 325 324 325 326 326 324 323 323 322 324 323 319 318 318 319 320 319 317 316 316 312 310 308 307 304 306 313 311 312 311 305 309 302 297 296 293 294 298 301 301 300 303 306 303 303 303 302 304 303 301 300
329 330 330 330 330 330 327 325 325 325 324 324 324 324 324 325 326 323 321 320 322 320 320 318 317 318 317 315 314 313 313 313 314 311 307 306 304 303 304 304 306 306 307 306 306 306 300 295 295 294 297 301 301 303 304 304 303 303 305 304 304 305 304
330 330 330 329 329 329 326 325 325 323 322 322 323 323 323 323 323 321 316 315 317 318 318 315 314 314 314 314 314 313 312 311 311 312 310 308 308 307 309 309 306 305 303 304 303 304 302 299 294 294 296 298 297 298 304 303 303 303 303 302 302 300 299
329 329 328 328 328 327 325 325 323 321 321 321 321 322 321 321 320 319 315 315 316 319 316 314 313 312 313 313 313 312 311 310 308 308 308 307 306 306 305 305 304 305 303 302 301 303 302 300 297 297 298 300 298 298 300 302 304 302 302 301 301 301 299
329 328 327 327 328 326 325 324 322 320 320 320 319 319 318 318 318 317 317 314 313 311 311 312 312 312 312 311 311 311 311 311 311 310 307 305 305 304 305 304 303 304 304 303 305 304 303 302 301 299 297 299 301 299 303 302 304 302 299 298 298 298 299
329 329 328 327 328 327 325 322 320 319 319 319 319 318 316 317 317 314 313 311 311 311 310 310 310 311 311 311 311 310 310 309 308 307 306 305 305 303 302 304 304 304 303 304 304 302 302 302 300 297 299 298 296 298 299 301 299 301 298 297 295 296 297
329 328 328 327 327 327 325 322 320 319 318 318 319 317 316 318 317 314 313 311 311 311 310 310 310 310 310 310 310 309 309 308 307 306 305 305 305 304 304 303 303 303 302 303 302 302 301 299 297 297 298 298 298 299 298 297 295 295 295 295 296 296 298
329 328 328 327 326 325 324 322 321 321 320 319 318 317 318 316 314 312 311 309 309 309 310 310 311 309 310 310 310 309 309 308 307 307 305 305 306 305 304 304 304 303 303 303 302 302 301 301 300 299 299 297 296 296 295 294 293 293 295 296 296 299 298
329 329 327 327 326 326 324 323 322 321 321 320 317 317 315 313 312 312 311 310 309 309 309 309 309 308 308 308 307 307 307 309 306 306 305 305 304 304 303 303 303 302 303 303 303 302 302 301 300 300 299 298 294 294 295 292 292 293 296 295 295 298 299
329 328 327 326 325 325 325 323 322 322 320 317 317 316 314 312 311 310 310 309 309 309 308 308 307 307 306 306 305 305 306 306 306 304 304 304 303 303 303 303 302 301 301 303 303 304 303 301 301 299 299 298 298 293 293 292 293 292 295 297 296 297 300
329 328 327 326 326 325 324 323 322 320 318 318 317 316 313 312 312 314 309 308 308 308 307 307 307 307 306 305 305 305 305 305 305 305 305 304 304 303 303 302 302 301 302 301 301 302 301 301 299 299 298 299 297 295 294 292 294 295 295 297 298 297 299
331 329 328 327 326 325 323 322 320 319 318 317 316 313 312 311 309 308 308 307 307 306 306 307 307 306 305 304 304 304 304 304 302 302 303 304 304 303 302 301 301 300 301 300 300 300 300 300 300 300 298 299 298 297 296 294 291 295 298 296 297 300 299
331 330 328 327 325 324 322 321 319 317 317 316 314 313 311 309 308 308 307 307 306 306 306 306 306 305 304 304 304 303 303 303 303 303 303 304 305 303 302 301 301 301 301 301 301 300 298 300 299 299 300 299 297 297 296 295 293 293 297 298 297 300 301
329 329 328 326 324 322 321 320 319 318 317 314 313 311 310 308 308 308 307 307 306 306 305 305 305 304 304 304 303 303 303 303 302 302 303 302 302 301 301 300 300 301 301 300 299 300 300 299 299 299 300 297 297 297 297 295 293 294 295 298 299 299 300
329 328 326 324 322 321 321 320 318 317 314 314 313 311 309 309 307 307 306 306 305 306 305 305 305 304 304 303 303 304 303 302 301 301 300 300 301 303 300 299 300 300 300 299 298 299 299 298 298 298 298 298 296 298 298 297 295 295 294 296 297 299 298
328 326 324 322 321 321 320 318 317 315 314 313 312 311 309 308 307 306 306 305 305 305 305 305 304 304 303 302 302 302 302 301 301 300 300 300 300 300 300 300 299 300 302 299 299 299 300 299 299 299 299 300 299 299 300 299 297 296 294 295 296 297 296
326 324 323 322 321 320 319 317 317 315 314 313 311 310 309 308 306 305 305 305 304 304 304 305 304 303 303 302 302 301 301 301 301 300 300 300 301 301 300 299 299 300 300 299 298 299 299 299 298 298 298 299 299 300 301 300 299 297 295 294 295 295 298
324 323 322 321 319 319 317 317 316 315 313 311 310 309 308 307 305 305 305 304 304 304 305 304 303 302 302 302 302 302 301 301 300 300 301 301 305 300 301 299 300 299 299 298 297 298 299 299 299 298 296 297 297 299 300 300 299 298 295 293 294 296 297
323 322 321 320 319 318 317 317 316 314 313 311 309 308 307 306 305 304 304 304 304 304 304 303 303 302 302 302 301 301 301 301 301 301 301 302 301 301 300 300 300 300 299 298 298 298 297 298 298 296 297 296 297 297 298 298 298 297 295 293 293 295 294
323 322 321 321 319 318 317 316 315 313 313 311 308 306 306 305 305 304 304 304 304 304 304 303 302 302 302 301 301 301 301 300 300 301 301 301 301 301 301 300 298 298 298 296 295 294 295 296 299 295 297 295 296 296 296 296 296 295 293 293 293 294 293
322 322 322 321 319 318 317 316 314 313 312 310 307 306 305 304 304 304 303 304 304 304 303 302 302 302 301 301 301 301 300 300 300 300 300 301 301 300 297 296 295 296 296 294 293 292 293 294 295 293 293 294 294 294 293 294 293 292 291 291 291 291 292
322 322 322 320 319 318 317 316 314 313 311 309 308 306 305 305 304 303 303 304 304 304 303 303 303 301 301 301 301 300 300 301 300 300 300 301 299 297 296 295 295 295 301 302 301 299 299 299 294 291 292 292 293 292 291 292 292 290 290 290 291 292 291
322 322 321 319 319 318 317 316 314 312 311 309 307 306 305 305 304 303 303 303 303 303 303 304 307 305 304 301 300 301 301 300 300 300 300 299 297 296 296 296 301 304 301 300 299 298 297 299 299 294 291 291 291 291 290 289 289 290 291 289 289 290 291
322 321 320 319 319 318 317 315 313 312 310 308 307 306 305 304 303 303 304 303 302 303 304 305 301 297 298 301 302 300 300 300 300 300 300 299 295 294 294 295 295 299 300 300 296 296 295 295 295 297 298 298 299 291 289 288 289 289 291 290 291 290 290
321 320 320 319 318 318 316 314 312 311 309 308 307 306 304 304 303 303 304 303 302 303 303 303 296 297 297 298 302 301 300 300 300 300 300 298 296 294 292 293 294 297 294 294 294 292 294 294 293 293 293 294 293 295 298 292 292 289 289 289 289 290 290
320 320 320 319 318 317 314 313 311 310 309 308 307 305 305 304 303 303 304 303 302 302 299 296 296 297 296 297 298 301 300 300 300 299 299 297 294 292 292 293 295 297 298 303 301 292 291 292 296 295 295 295 295 292 289 290 293 293 290 290 290 290 290
319 319 320 319 318 316 313 312 311 311 309 308 307 305 305 304 304 303 303 302 300 299 298 297 295 296 296 296 296 299 301 300 300 299 299 297 294 292 292 292 296 298 297 301 298 294 293 292 292 292 292 291 292 296 296 292 290 292 294 292 290 290 292
319 319 319 319 317 315 313 311 311 310 309 308 306 305 305 304 304 304 303 301 299 299 300 295 294 294 294 295 297 300 301 302 301 299 299 299 296 295 295 297 297 296 295 295 296 296 295 294 294 296 294 295 295 295 294 293 293 292 292 292 291 291 293
319 319 319 318 316 314 313 311 310 309 308 306 306 306 305 305 304 304 302 300 299 298 297 294 294 294 294 295 297 302 302 300 300 299 299 299 298 299 299 298 297 294 293 293 298 296 296 294 293 294 295 295 297 298 297 300 296 295 296 294 293 293 294
319 318 318 317 315 314 313 310 310 309 307 306 306 305 305 305 305 304 302 300 299 298 297 295 295 294 295 296 298 301 302 301 300 299 299 299 299 299 300 299 298 296 294 291 293 290 292 296 292 293 295 295 297 297 295 299 296 294 294 294 294 294 293
318 318 317 317 315 314 313 310 310 309 307 306 305 305 306 306 306 305 301 300 299 298 298 297 294 294 295 295 299 299 299 299 298 299 299 299 300 299 300 308 304 296 292 291 291 290 292 295 291 293 294 295 295 295 291 293 298 298 297 295 294 294 293
319 318 317 317 316 313 311 310 309 309 308 307 306 306 306 306 305 304 302 301 304 300 299 298 294 294 295 294 298 299 299 299 298 297 299 298 298 299 297 306 307 299 295 293 290 290 291 294 291 292 292 294 294 293 289 291 291 291 290 291 292 293 294
318 317 317 317 315 313 310 309 308 308 307 307 307 306 305 305 304 303 302 301 301 299 299 298 296 293 295 294 296 300 298 297 298 297 297 297 298 295 297 297 298 293 292 290 289 290 291 293 291 291 291 291 292 292 291 289 292 292 290 290 290 292 294
317 317 316 316 313 310 309 308 308 308 307 307 306 305 305 304 304 302 301 300 299 299 300 297 296 293 294 294 295 298 297 297 297 298 297 298 297 296 296 295 294 292 290 289 289 289 290 291 293 292 291 289 293 292 290 288 291 296 290 291 292 292 293
317 315 314 313 309 309 309 309 309 308 307 306 305 305 305 304 303 302 301 301 300 299 301 300 297 294 293 293 294 296 297 296 297 298 298 298 297 296 296 295 294 293 290 290 290 290 290 290 291 293 291 291 292 291 289 292 290 291 291 292 290 291 292
315 314 313 312 309 308 308 307 307 306 306 306 305 304 302 301 301 301 301 301 301 300 300 300 296 295 293 293 293 294 295 294 293 297 296 295 297 297 297 297 297 295 290 290 290 290 290 290 291 290 290 290 290 290 290 289 289 290 289 289 290 290 291
314 313 312 311 309 308 307 306 305 305 306 305 303 302 300 301 301 301 301 300 301 301 300 299 296 295 294 292 292 293 293 294 293 294 294 293 291 290 293 295 297 293 291 291 290 290 289 290 289 289 289 290 289 290 289 288 288 289 289 289 289 290 291

ECMWFFLT1_sfc_thetae_126.txt.gz
Theta_e
331 330 331 330 330 328 326 325 326 325 325 325 325 325 325 325 324 323 323 322 321 320 320 317 317 317 318 318 316 317 318 319 316 314 312 310 310 307 312 305 312 307 303 304 300 296 293 292 293 296 297 299 298 301 302 300 300 299 299 300 302 298 298
330 330 330 330 328 327 326 325 324 323 323 322 323 323 323 324 324 321 321 320 319 318 320 317 316 316 314 312 312 313 314 313 313 313 311 308 306 305 302 303 305 304 303 303 301 300 296 292 292 292 294 298 298 297 299 300 301 300 303 302 305 307 306
329 329 328 328 327 327 325 324 323 321 321 320 321 322 322 322 320 319 318 318 317 317 317 314 314 313 312 311 311 311 311 311 309 309 309 306 305 304 302 303 303 301 301 301 301 300 298 294 293 293 294 295 294 295 299 299 300 300 300 301 299 297 297
328 328 327 327 327 325 324 323 323 320 319 319 320 320 320 318 315 317 316 316 316 319 316 313 312 312 311 311 310 310 309 309 307 307 307 305 305 303 302 303 302 302 300 298 300 300 299 295 292 293 294 296 295 296 298 299 303 303 300 299 298 296 297
328 328 327 327 327 326 325 323 321 319 318 319 318 317 317 316 315 314 316 315 315 312 312 312 312 312 311 310 309 308 307 306 307 307 304 303 303 302 301 302 301 302 303 302 301 301 301 298 295 293 294 298 299 296 299 299 300 300 294 295 296 296 298
329 328 328 327 327 326 324 322 319 318 317 317 317 316 315 314 314 312 311 311 310 311 311 310 310 310 310 309 309 308 307 306 304 304 303 302 302 302 301 301 301 301 301 300 302 301 300 299 298 295 297 296 295 297 297 297 296 294 294 293 295 297 297
329 328 328 327 327 325 324 322 319 318 317 317 316 314 314 314 312 312 311 309 309 310 310 309 309 309 309 309 307 306 306 305 305 304 303 303 302 302 301 300 300 300 299 300 299 299 298 297 296 297 296 296 294 295 294 291 292 293 295 294 296 298 298
329 328 327 327 326 325 324 321 319 318 317 316 316 314 315 312 311 310 309 309 309 309 309 309 310 308 309 308 307 306 306 304 304 304 303 303 303 301 301 301 301 300 299 299 298 299 299 298 298 297 296 296 293 292 292 291 291 292 292 293 295 298 297
329 328 327 326 326 325 323 321 319 318 317 317 315 315 313 311 309 309 310 308 308 308 308 308 308 308 307 307 305 305 304 306 303 303 302 302 301 301 300 300 300 299 300 300 300 298 298 299 299 297 297 296 292 289 291 290 291 292 295 294 295 297 298
328 326 326 325 325 324 322 320 319 318 318 316 315 314 311 310 309 309 308 307 307 307 307 307 307 306 306 306 304 304 304 303 304 302 301 301 301 300 300 300 299 299 299 300 300 300 299 298 298 297 297 296 294 292 290 288 291 291 295 295 296 297 298
328 327 326 325 325 323 321 320 320 318 317 316 315 313 311 309 309 312 307 307 307 307 307 306 306 305 305 304 304 303 303 303 302 302 302 301 300 301 301 300 299 298 298 298 299 299 298 297 296 297 296 296 296 295 289 289 291 292 294 295 297 297 299
328 327 326 326 324 323 321 320 319 319 316 315 313 311 309 309 309 307 307 306 306 306 305 305 305 305 304 303 303 303 302 302 302 301 301 301 300 301 299 298 298 297 297 297 298 298 298 299 296 296 295 296 297 296 294 291 290 294 295 294 295 298 299
328 328 326 325 324 323 322 321 319 317 315 314 312 310 309 309 308 306 306 306 305 305 305 305 305 304 303 303 303 302 301 301 301 300 300 301 301 299 298 297 297 298 297 297 296 297 297 298 298 296 296 296 295 295 294 291 290 292 294 296 296 297 298
328 328 327 326 325 323 322 320 318 317 315 313 311 310 309 308 307 307 306 306 305 305 304 304 303 303 303 302 301 301 301 301 301 300 301 300 299 299 299 298 298 297 296 297 296 297 297 296 297 297 297 295 295 294 295 291 290 292 293 295 296 297 298
328 328 327 326 325 323 321 319 317 316 314 312 311 310 308 308 307 306 305 305 304 304 304 304 303 302 302 301 301 302 301 301 300 300 299 299 298 300 298 298 297 296 296 297 296 296 296 296 296 295 295 296 294 296 295 293 292 291 291 293 295 296 296
329 328 326 325 324 322 321 318 317 314 313 311 310 309 308 307 306 306 305 304 304 304 304 303 302 302 301 301 301 301 301 300 300 299 299 298 298 298 297 298 297 298 299 298 297 297 297 296 297 297 296 296 296 296 296 295 292 291 291 292 294 294 294
328 327 326 325 323 321 320 317 316 314 312 311 309 308 307 307 306 305 305 304 304 303 303 303 302 302 301 301 301 300 300 299 299 299 299 298 298 298 298 297 297 297 298 297 296 296 296 296 296 296 295 295 295 296 296 295 295 293 292 292 292 294 296
327 327 325 324 322 320 319 316 315 313 312 310 309 307 307 306 305 305 304 304 303 303 303 302 302 301 301 301 300 300 299 299 299 299 299 298 303 298 299 298 297 297 297 297 295 296 296 295 295 295 295 295 295 296 296 295 294 293 291 291 292 293 293
327 326 324 323 321 319 317 315 314 313 312 310 308 307 306 305 305 304 304 304 303 303 303 302 301 301 301 300 300 300 300 299 299 299 299 300 299 299 298 297 297 297 297 297 296 295 295 294 294 293 293 294 294 294 293 293 293 291 291 290 290 291 291
326 325 324 322 320 318 317 315 314 312 311 310 308 306 305 305 305 304 304 303 303 303 302 301 301 300 300 300 300 299 299 299 299 299 299 299 299 298 298 298 298 297 297 296 295 295 294 294 295 293 294 294 293 292 292 291 291 290 290 290 290 290 290
326 324 323 321 320 318 317 315 314 312 311 309 308 306 305 304 304 304 303 303 303 303 302 301 300 300 300 300 300 299 299 299 299 299 298 298 298 297 296 296 296 296 295 294 294 293 293 292 292 291 291 293 292 291 291 290 289 289 289 289 288 289 288
325 324 322 320 319 318 317 315 314 312 310 308 308 306 305 304 303 303 303 303 303 303 302 301 301 300 299 299 299 299 299 299 299 298 298 297 295 295 294 294 294 293 299 302 302 300 298 297 292 291 291 291 291 290 289 289 289 288 287 288 288 288 288
324 323 321 319 318 317 316 315 313 311 309 308 307 306 304 304 303 302 302 302 302 302 302 302 305 304 303 300 299 299 299 299 299 299 297 295 294 294 294 293 298 307 306 306 304 301 299 300 299 293 291 291 290 288 287 288 288 288 288 287 288 287 287
323 321 320 319 318 317 316 314 312 311 308 307 305 305 304 302 302 302 302 302 301 302 302 303 302 297 297 300 300 298 298 298 298 298 296 295 293 294 293 295 296 303 303 303 299 297 297 296 296 297 298 297 295 289 287 287 287 287 290 287 287 286 286
322 321 320 319 318 317 315 313 312 310 308 306 305 304 302 302 301 301 302 302 301 301 301 303 297 296 296 297 301 300 298 299 299 297 296 294 294 293 293 294 294 295 291 290 290 291 294 295 294 294 294 295 295 295 295 290 291 288 287 286 286 286 286
321 320 319 319 318 316 314 312 311 309 307 306 304 303 302 301 301 301 301 301 300 301 301 299 295 296 296 296 297 300 299 299 299 298 295 294 293 292 293 293 292 292 293 299 298 287 288 290 294 294 294 295 294 292 289 290 294 292 288 287 287 286 287
321 320 319 318 317 316 313 312 311 310 308 306 304 303 302 301 301 301 301 301 300 300 300 298 295 295 296 295 295 298 299 300 300 299 298 294 293 291 291 291 291 292 291 295 291 288 288 288 290 291 291 290 289 294 296 293 290 291 293 291 288 287 289
320 319 318 317 316 315 313 311 311 309 307 306 304 302 301 300 301 301 301 300 300 299 300 296 294 295 295 295 295 298 300 301 301 300 298 296 293 290 290 291 292 292 292 294 295 291 290 289 289 290 289 290 291 290 290 291 291 290 291 292 289 290 290
320 319 318 317 316 314 312 311 310 309 307 306 304 303 301 301 301 301 300 299 299 298 298 294 294 295 295 295 296 301 300 300 300 299 298 295 292 290 290 291 293 293 293 293 299 295 296 293 291 291 292 292 292 293 293 300 296 294 293 291 290 290 290
319 318 317 316 315 313 311 310 310 309 307 305 304 303 301 301 301 300 299 299 298 297 297 295 294 295 295 294 298 300 300 301 299 298 297 295 293 291 291 292 294 294 293 293 296 293 293 295 291 291 291 291 292 292 291 292 296 293 293 293 292 292 292
318 318 316 315 314 314 312 311 310 309 307 305 304 303 302 302 301 301 299 298 299 298 297 296 294 294 295 295 300 301 300 299 297 297 296 296 294 294 295 301 301 293 293 293 294 292 292 294 289 290 290 291 292 291 289 289 292 293 294 294 293 293 292
319 318 317 316 316 314 312 310 310 309 308 307 306 305 304 302 301 300 300 299 303 299 298 298 294 294 295 296 300 300 299 297 296 296 296 295 295 295 296 303 304 298 295 293 292 291 291 293 289 290 290 290 291 290 288 288 288 288 287 289 288 289 291
318 317 317 316 316 314 312 310 309 309 308 308 306 305 305 304 302 300 299 299 301 300 299 298 296 293 295 296 297 299 298 297 296 295 295 296 295 293 295 298 302 295 293 292 290 289 290 292 290 289 289 289 289 291 289 287 290 287 287 288 288 289 291
317 318 318 317 316 313 311 310 309 308 308 307 305 305 304 304 302 300 299 299 299 299 300 298 296 293 294 295 296 298 297 298 297 296 295 296 295 295 295 294 295 295 292 291 290 289 290 291 292 291 290 289 290 291 290 286 291 297 289 290 290 291 291
317 317 318 316 313 310 309 309 309 309 308 307 305 305 303 303 302 300 299 299 298 298 301 301 298 294 294 294 295 296 297 297 297 297 296 295 294 294 295 294 293 294 291 291 290 290 290 291 291 294 290 290 290 290 289 290 288 289 289 289 289 289 289
316 318 316 314 312 308 308 308 308 309 307 306 305 304 303 302 301 299 298 298 298 298 299 301 297 296 293 293 293 294 295 295 293 299 296 295 294 294 294 295 296 295 290 290 289 289 290 290 292 291 290 289 290 289 290 288 288 287 287 287 288 288 288
317 316 315 312 310 308 308 308 308 308 307 306 305 304 303 302 300 299 298 297 298 299 300 300 297 296 295 292 293 293 293 293 294 296 297 296 295 294 294 294 295 293 290 290 289 289 289 290 290 289 289 289 289 290 289 289 287 287 287 287 287 286 287

ECMWFFLT1_sfc_thetae_129.txt.gz
Theta_e
330 330 329 329 329 328 327 326 325 325 327 328 326 326 327 327 325 324 323 322 322 322 324 321 320 318 318 320 321 318 316 316 314 312 310 310 308 308 309 305 309 303 300 301 297 296 293 291 291 295 295 296 297 298 299 299 299 298 298 298 299 300 296
331 330 329 329 327 327 325 323 324 323 324 324 325 324 324 325 326 323 321 321 321 321 322 318 317 317 316 316 316 316 315 315 314 313 313 311 309 309 306 302 303 301 301 300 300 297 294 290 290 291 292 296 297 296 296 297 299 300 301 300 307 304 306
330 329 329 327 326 325 324 323 323 322 321 321 321 322 322 322 322 322 320 320 319 319 320 315 314 313 312 313 315 316 315 314 311 313 313 312 311 307 307 304 302 300 300 299 299 295 295 292 292 292 291 292 292 293 297 297 298 299 299 299 296 295 295
328 328 328 327 326 324 324 322 322 321 320 320 319 320 320 319 318 321 319 317 317 320 317 313 313 312 310 310 310 312 314 313 310 310 308 307 306 305 303 304 305 302 300 299 297 298 294 292 292 293 292 293 291 293 297 299 303 298 296 297 295 295 296
329 329 328 327 327 325 324 323 322 320 319 319 319 317 316 315 317 316 317 316 317 314 313 313 312 311 310 309 309 309 309 307 308 309 306 304 303 302 301 301 303 303 302 301 300 300 298 295 295 292 292 295 295 294 297 295 292 293 294 294 295 296 295
329 329 329 328 327 326 325 324 322 321 320 319 318 317 315 314 315 314 314 314 313 312 312 311 310 310 308 308 308 307 306 306 306 305 304 303 303 303 301 299 300 302 301 300 301 301 298 297 295 291 295 294 292 295 296 293 293 293 294 293 294 295 295
329 329 329 328 328 327 326 325 323 321 320 320 318 317 315 313 314 314 314 312 311 311 311 310 309 308 308 308 307 305 304 303 303 302 302 301 300 300 300 299 298 299 298 299 300 300 298 297 294 294 295 293 292 294 291 289 291 292 294 294 295 294 296
329 329 329 329 328 327 326 325 323 320 319 318 318 316 314 312 311 311 311 310 309 309 310 310 310 308 307 308 306 305 304 303 302 303 301 301 301 299 297 298 299 298 298 297 297 298 298 299 297 296 296 294 290 290 291 289 290 291 290 291 292 296 297
329 329 328 328 328 327 326 325 321 319 317 316 315 314 313 311 310 309 310 309 308 309 309 309 308 307 306 305 304 304 303 305 302 301 301 300 300 299 299 298 298 297 297 297 297 296 296 297 298 298 298 297 293 288 289 290 289 292 294 295 295 296 297
328 327 327 327 327 326 325 324 321 318 317 316 314 314 311 309 309 309 308 307 307 308 308 307 307 306 305 306 304 302 302 302 302 301 300 300 299 299 298 297 298 297 297 298 297 297 297 296 297 297 297 297 295 291 287 287 289 288 294 294 294 295 296
328 328 328 327 326 325 323 321 319 317 316 316 315 313 310 308 308 312 307 307 306 307 307 306 306 305 304 303 302 302 302 302 301 301 301 300 299 299 299 298 298 297 297 296 296 296 295 295 295 296 297 295 294 293 288 289 289 290 292 293 294 295 296
328 328 327 327 325 324 322 320 319 318 316 315 314 311 308 308 308 307 306 306 306 306 306 305 305 304 303 302 302 301 300 301 300 299 299 300 299 299 298 297 295 296 295 296 296 295 296 296 295 294 294 296 296 294 292 290 289 292 293 294 293 295 296
328 328 327 326 324 323 322 320 319 317 316 315 312 310 308 308 307 306 305 306 306 305 305 304 304 303 302 302 302 301 300 300 300 299 298 298 300 298 297 296 295 295 295 295 295 295 295 296 295 294 295 295 294 294 294 290 290 291 293 292 293 295 296
327 327 326 326 324 323 321 320 319 318 315 313 311 309 308 307 306 306 306 306 305 305 304 304 303 303 302 301 300 300 299 299 299 298 299 297 297 297 297 296 295 295 294 295 294 295 295 294 295 295 295 294 294 293 294 291 291 292 292 292 293 294 295
328 327 326 325 325 323 321 320 319 316 314 312 311 310 309 307 306 306 305 305 304 304 304 304 302 302 302 301 299 300 300 299 299 298 298 297 296 298 296 296 296 295 294 295 294 294 294 294 294 294 294 295 293 294 292 291 290 289 289 291 293 293 293
329 327 326 325 324 323 322 320 318 316 314 311 310 310 309 307 306 305 305 304 304 303 304 303 302 302 301 301 300 299 300 299 299 298 297 297 297 296 296 297 295 295 296 295 294 293 294 294 295 295 294 294 294 293 293 291 290 289 289 290 291 292 291
328 327 326 325 324 323 322 320 319 316 314 311 310 309 308 307 306 305 304 304 303 303 303 302 301 301 301 300 300 299 299 298 298 298 298 297 297 297 296 295 295 296 296 295 294 294 294 295 295 295 294 293 294 294 293 293 290 289 289 290 290 291 293
328 327 326 326 324 323 321 320 318 316 313 310 309 308 308 307 305 305 304 303 303 303 302 301 301 300 300 300 300 300 299 298 298 297 297 297 301 296 297 296 296 296 295 295 293 293 294 294 294 294 293 293 293 293 294 293 291 290 290 290 290 290 290
327 327 326 325 324 323 321 319 318 316 314 311 309 308 307 306 306 304 304 304 303 303 302 301 301 300 300 299 299 299 299 298 297 297 296 297 298 296 297 296 296 296 295 295 294 293 293 293 292 293 292 292 292 291 291 290 291 291 290 288 288 290 289
328 327 326 325 324 322 320 319 317 315 314 311 308 307 306 305 306 304 304 303 303 302 301 301 300 300 299 299 299 298 298 297 297 297 296 297 296 296 296 296 296 295 296 295 294 294 293 292 293 291 293 292 291 290 290 290 290 290 290 289 288 288 288
328 328 327 325 323 321 320 318 316 315 313 310 308 307 306 305 304 304 303 303 303 303 301 300 299 299 299 299 299 298 298 297 297 296 296 296 296 295 296 296 296 295 296 296 295 293 293 292 292 292 290 291 290 289 289 289 289 289 288 287 286 287 286
328 327 326 324 322 320 319 317 316 314 312 310 309 307 306 305 304 303 302 302 302 302 301 301 300 299 299 298 298 298 297 298 297 297 295 295 294 294 294 295 295 295 299 302 301 299 297 297 293 291 289 290 289 289 288 288 288 286 286 287 287 285 284
327 326 324 322 321 320 318 316 315 313 312 310 309 308 306 305 304 303 302 301 301 302 301 301 304 303 302 299 297 298 298 297 297 297 297 294 293 294 294 294 298 305 307 306 303 300 299 299 299 295 291 290 289 287 287 286 286 286 287 285 286 285 285
327 325 323 322 320 319 317 316 314 313 311 310 309 307 306 304 303 303 302 301 301 301 301 302 301 297 297 300 299 298 298 297 297 297 295 294 293 294 293 295 299 306 307 306 301 298 297 297 297 297 297 296 294 289 286 286 286 286 288 286 284 284 284
325 324 322 321 320 319 317 315 314 312 311 309 308 307 305 304 303 302 302 301 301 301 300 302 297 296 296 297 300 299 297 298 298 296 295 295 295 295 296 297 297 298 297 296 295 294 296 296 294 294 294 294 294 294 293 289 290 286 285 285 285 285 284
324 322 322 321 319 318 316 315 313 311 310 309 307 306 305 304 303 302 302 301 300 301 300 299 296 296 295 296 297 299 298 298 298 297 297 296 296 296 296 297 297 295 295 302 300 290 290 291 296 295 295 295 294 291 290 292 294 291 287 286 286 284 286
323 322 321 320 319 317 315 314 313 312 310 308 307 306 304 303 302 301 301 301 301 300 300 299 295 295 295 295 295 297 299 299 299 298 297 296 296 296 297 297 295 293 289 294 290 287 288 288 289 289 290 288 288 293 294 291 289 292 292 290 287 287 287
323 321 321 319 318 316 315 314 313 311 309 308 306 305 303 302 302 301 301 301 300 300 300 297 295 294 294 295 295 297 299 300 299 297 297 296 296 296 296 296 293 291 288 292 289 288 286 287 286 288 286 287 289 288 288 289 290 289 291 290 288 289 288
322 321 320 319 317 316 315 313 312 310 309 308 307 306 304 303 301 301 301 300 300 299 300 295 294 294 294 294 295 300 299 299 298 297 296 296 296 296 295 293 291 289 288 292 295 292 292 288 286 286 287 289 291 290 291 296 295 294 293 291 290 290 289
321 320 319 318 317 316 314 313 312 311 309 307 305 304 303 302 302 301 300 300 299 299 298 295 294 294 294 294 296 299 299 298 298 298 297 297 295 292 291 291 290 289 289 291 295 291 292 293 287 288 289 289 290 290 290 290 294 293 293 292 291 291 291
321 320 319 318 317 316 315 313 312 310 308 306 305 304 303 302 301 301 300 300 300 299 298 296 293 294 294 294 298 299 298 298 298 298 297 295 293 291 292 298 297 291 291 291 294 292 292 294 290 290 289 289 290 289 288 288 290 291 293 292 292 292 292
322 320 318 318 317 316 314 312 311 310 309 307 305 304 303 301 300 300 300 300 304 300 298 297 293 293 294 294 298 300 299 298 297 297 296 294 292 292 290 296 301 296 294 294 293 293 292 294 291 290 290 289 289 288 289 285 287 288 287 287 285 288 289
321 320 319 318 317 314 310 309 309 308 308 307 305 303 302 301 300 299 299 299 301 300 298 297 295 293 294 294 297 300 298 297 296 294 294 295 294 292 291 291 298 294 293 293 292 292 291 293 291 289 288 289 288 289 289 285 288 285 287 289 285 286 288
320 320 319 317 316 312 310 310 309 307 306 305 304 303 302 301 300 299 298 298 299 299 300 299 296 293 294 294 296 297 297 297 296 295 295 296 295 293 292 292 294 296 292 292 292 291 291 291 293 290 289 289 290 290 289 286 292 297 287 290 290 289 288
320 319 318 317 314 311 310 310 308 307 308 306 304 303 302 301 300 299 299 300 300 299 301 301 297 294 293 294 295 296 298 298 297 296 295 294 294 293 293 293 294 296 293 292 291 291 291 291 291 293 290 290 291 290 290 288 287 287 287 288 286 287 287
318 318 317 316 314 310 308 308 308 309 307 305 304 302 302 300 299 298 297 298 298 298 299 301 297 296 293 294 294 295 296 296 294 298 295 294 294 294 294 294 295 297 293 292 291 290 290 290 291 291 290 290 290 289 292 288 286 286 285 286 286 285 286
317 317 314 312 311 309 308 308 308 308 307 305 304 303 302 301 300 298 297 297 297 298 299 300 297 296 295 293 293 294 294 294 294 296 296 295 295 294 293 293 294 294 293 292 291 290 290 290 290 290 290 289 289 290 288 286 285 285 285 285 284 284 285